﻿<?xml version="1.0" encoding="utf-8"?><gpx creator="Garmin Desktop App" version="1.1" xsi:schemaLocation="http://www.topografix.com/GPX/1/1 http://www.topografix.com/GPX/1/1/gpx.xsd http://www.garmin.com/xmlschemas/WaypointExtension/v1 http://www8.garmin.com/xmlschemas/WaypointExtensionv1.xsd http://www.garmin.com/xmlschemas/TrackPointExtension/v1 http://www.garmin.com/xmlschemas/TrackPointExtensionv1.xsd http://www.garmin.com/xmlschemas/GpxExtensions/v3 http://www8.garmin.com/xmlschemas/GpxExtensionsv3.xsd http://www.garmin.com/xmlschemas/ActivityExtension/v1 http://www8.garmin.com/xmlschemas/ActivityExtensionv1.xsd http://www.garmin.com/xmlschemas/AdventuresExtensions/v1 http://www8.garmin.com/xmlschemas/AdventuresExtensionv1.xsd http://www.garmin.com/xmlschemas/PressureExtension/v1 http://www.garmin.com/xmlschemas/PressureExtensionv1.xsd http://www.garmin.com/xmlschemas/TripExtensions/v1 http://www.garmin.com/xmlschemas/TripExtensionsv1.xsd http://www.garmin.com/xmlschemas/TripMetaDataExtensions/v1 http://www.garmin.com/xmlschemas/TripMetaDataExtensionsv1.xsd http://www.garmin.com/xmlschemas/ViaPointTransportationModeExtensions/v1 http://www.garmin.com/xmlschemas/ViaPointTransportationModeExtensionsv1.xsd http://www.garmin.com/xmlschemas/CreationTimeExtension/v1 http://www.garmin.com/xmlschemas/CreationTimeExtensionsv1.xsd http://www.garmin.com/xmlschemas/AccelerationExtension/v1 http://www.garmin.com/xmlschemas/AccelerationExtensionv1.xsd http://www.garmin.com/xmlschemas/PowerExtension/v1 http://www.garmin.com/xmlschemas/PowerExtensionv1.xsd http://www.garmin.com/xmlschemas/VideoExtension/v1 http://www.garmin.com/xmlschemas/VideoExtensionv1.xsd" xmlns="http://www.topografix.com/GPX/1/1" xmlns:xsi="http://www.w3.org/2001/XMLSchema-instance" xmlns:wptx1="http://www.garmin.com/xmlschemas/WaypointExtension/v1" xmlns:gpxtrx="http://www.garmin.com/xmlschemas/GpxExtensions/v3" xmlns:gpxtpx="http://www.garmin.com/xmlschemas/TrackPointExtension/v1" xmlns:gpxx="http://www.garmin.com/xmlschemas/GpxExtensions/v3" xmlns:trp="http://www.garmin.com/xmlschemas/TripExtensions/v1" xmlns:adv="http://www.garmin.com/xmlschemas/AdventuresExtensions/v1" xmlns:prs="http://www.garmin.com/xmlschemas/PressureExtension/v1" xmlns:tmd="http://www.garmin.com/xmlschemas/TripMetaDataExtensions/v1" xmlns:vptm="http://www.garmin.com/xmlschemas/ViaPointTransportationModeExtensions/v1" xmlns:ctx="http://www.garmin.com/xmlschemas/CreationTimeExtension/v1" xmlns:gpxacc="http://www.garmin.com/xmlschemas/AccelerationExtension/v1" xmlns:gpxpx="http://www.garmin.com/xmlschemas/PowerExtension/v1" xmlns:vidx1="http://www.garmin.com/xmlschemas/VideoExtension/v1">

  <metadata>
    <link href="http://www.garmin.com">
      <text>Garmin International</text>
    </link>
    <time>2026-04-13T15:11:42Z</time>
    <bounds maxlat="52.277691029012203" maxlon="8.254964109510183" minlat="52.16977964155376" minlon="8.026682641357184" />
  </metadata>

  <trk>
    <name>20260413Wissingen</name>
    <extensions>
      <gpxx:TrackExtension>
        <gpxx:DisplayColor>Red</gpxx:DisplayColor>
      </gpxx:TrackExtension>
    </extensions>
    <trkseg>
      <trkpt lat="52.258013673126698" lon="8.070842446759343">
        <ele>73.3359375</ele>
        <time>2026-04-13T07:28:24Z</time>
      </trkpt>
      <trkpt lat="52.258020378649235" lon="8.070518486201763">
        <ele>73.25390625</ele>
        <time>2026-04-13T07:28:28Z</time>
      </trkpt>
      <trkpt lat="52.25784813053906" lon="8.070663744583726">
        <ele>73.6328125</ele>
        <time>2026-04-13T07:28:32Z</time>
      </trkpt>
      <trkpt lat="52.258005291223526" lon="8.070562994107604">
        <ele>73.29296875</ele>
        <time>2026-04-13T07:32:10Z</time>
      </trkpt>
      <trkpt lat="52.258084500208497" lon="8.071019975468516">
        <ele>73.15625</ele>
        <time>2026-04-13T07:35:34Z</time>
      </trkpt>
      <trkpt lat="52.258272422477603" lon="8.07109197601676">
        <ele>72.59375</ele>
        <time>2026-04-13T07:35:40Z</time>
      </trkpt>
      <trkpt lat="52.258462524041533" lon="8.071167916059494">
        <ele>71.91015625</ele>
        <time>2026-04-13T07:35:46Z</time>
      </trkpt>
      <trkpt lat="52.258597472682595" lon="8.070907909423113">
        <ele>71.43359375</ele>
        <time>2026-04-13T07:35:54Z</time>
      </trkpt>
      <trkpt lat="52.258660420775414" lon="8.070612028241158">
        <ele>71.6328125</ele>
        <time>2026-04-13T07:36:00Z</time>
      </trkpt>
      <trkpt lat="52.258777767419815" lon="8.070330899208784">
        <ele>71.81640625</ele>
        <time>2026-04-13T07:36:06Z</time>
      </trkpt>
      <trkpt lat="52.258887570351362" lon="8.070017835125327">
        <ele>72.125</ele>
        <time>2026-04-13T07:36:12Z</time>
      </trkpt>
      <trkpt lat="52.259005503728986" lon="8.069726815447211">
        <ele>71.96875</ele>
        <time>2026-04-13T07:36:18Z</time>
      </trkpt>
      <trkpt lat="52.259103069081903" lon="8.069429509341717">
        <ele>71.734375</ele>
        <time>2026-04-13T07:36:24Z</time>
      </trkpt>
      <trkpt lat="52.25919283926487" lon="8.069053832441568">
        <ele>71.4609375</ele>
        <time>2026-04-13T07:36:30Z</time>
      </trkpt>
      <trkpt lat="52.259328458458185" lon="8.068733057007194">
        <ele>70.94140625</ele>
        <time>2026-04-13T07:36:36Z</time>
      </trkpt>
      <trkpt lat="52.259499114006758" lon="8.068447317928076">
        <ele>70.1953125</ele>
        <time>2026-04-13T07:36:42Z</time>
      </trkpt>
      <trkpt lat="52.259653760120273" lon="8.068131655454636">
        <ele>69.6171875</ele>
        <time>2026-04-13T07:36:48Z</time>
      </trkpt>
      <trkpt lat="52.259789630770683" lon="8.067823201417923">
        <ele>69.12890625</ele>
        <time>2026-04-13T07:36:54Z</time>
      </trkpt>
      <trkpt lat="52.259928770363331" lon="8.067460935562849">
        <ele>69.00390625</ele>
        <time>2026-04-13T07:37:00Z</time>
      </trkpt>
      <trkpt lat="52.260040668770671" lon="8.067196486517787">
        <ele>69.0859375</ele>
        <time>2026-04-13T07:37:04Z</time>
      </trkpt>
      <trkpt lat="52.260142425075173" lon="8.066914938390255">
        <ele>69.1171875</ele>
        <time>2026-04-13T07:37:08Z</time>
      </trkpt>
      <trkpt lat="52.260252060368657" lon="8.066651914268732">
        <ele>69.15234375</ele>
        <time>2026-04-13T07:37:12Z</time>
      </trkpt>
      <trkpt lat="52.260367311537266" lon="8.066404648125172">
        <ele>69.26171875</ele>
        <time>2026-04-13T07:37:16Z</time>
      </trkpt>
      <trkpt lat="52.260495303198695" lon="8.066145647317171">
        <ele>69.26171875</ele>
        <time>2026-04-13T07:37:20Z</time>
      </trkpt>
      <trkpt lat="52.260600412264466" lon="8.065874744206667">
        <ele>69.26171875</ele>
        <time>2026-04-13T07:37:24Z</time>
      </trkpt>
      <trkpt lat="52.260716669261456" lon="8.065610211342573">
        <ele>69.24609375</ele>
        <time>2026-04-13T07:37:28Z</time>
      </trkpt>
      <trkpt lat="52.260831920430064" lon="8.065332937985659">
        <ele>69.19921875</ele>
        <time>2026-04-13T07:37:32Z</time>
      </trkpt>
      <trkpt lat="52.260933257639408" lon="8.0650579277426">
        <ele>69.06640625</ele>
        <time>2026-04-13T07:37:36Z</time>
      </trkpt>
      <trkpt lat="52.261048341169953" lon="8.064785851165652">
        <ele>69.14453125</ele>
        <time>2026-04-13T07:37:40Z</time>
      </trkpt>
      <trkpt lat="52.261132160201669" lon="8.064465746283531">
        <ele>69.359375</ele>
        <time>2026-04-13T07:37:44Z</time>
      </trkpt>
      <trkpt lat="52.261318238452077" lon="8.064161064103246">
        <ele>69.11328125</ele>
        <time>2026-04-13T07:37:50Z</time>
      </trkpt>
      <trkpt lat="52.261507082730532" lon="8.063854118809104">
        <ele>69.4375</ele>
        <time>2026-04-13T07:37:56Z</time>
      </trkpt>
      <trkpt lat="52.261696849018335" lon="8.06355538778007">
        <ele>70.51171875</ele>
        <time>2026-04-13T07:38:02Z</time>
      </trkpt>
      <trkpt lat="52.261870438233018" lon="8.063289597630501">
        <ele>71.2421875</ele>
        <time>2026-04-13T07:38:08Z</time>
      </trkpt>
      <trkpt lat="52.262001028284431" lon="8.063061442226172">
        <ele>71.59765625</ele>
        <time>2026-04-13T07:38:14Z</time>
      </trkpt>
      <trkpt lat="52.262087780982256" lon="8.062785342335701">
        <ele>71.9765625</ele>
        <time>2026-04-13T07:38:32Z</time>
      </trkpt>
      <trkpt lat="52.262235302478075" lon="8.062521563842893">
        <ele>71.94921875</ele>
        <time>2026-04-13T07:38:40Z</time>
      </trkpt>
      <trkpt lat="52.262333538383245" lon="8.062247224152088">
        <ele>71.15234375</ele>
        <time>2026-04-13T07:38:44Z</time>
      </trkpt>
      <trkpt lat="52.262465637177229" lon="8.061985792592168">
        <ele>70.16796875</ele>
        <time>2026-04-13T07:38:48Z</time>
      </trkpt>
      <trkpt lat="52.262583402916789" lon="8.06170642375946">
        <ele>69.43359375</ele>
        <time>2026-04-13T07:38:52Z</time>
      </trkpt>
      <trkpt lat="52.262712987139821" lon="8.061458989977837">
        <ele>69.421875</ele>
        <time>2026-04-13T07:38:56Z</time>
      </trkpt>
      <trkpt lat="52.262847013771534" lon="8.061198983341456">
        <ele>69.41015625</ele>
        <time>2026-04-13T07:39:00Z</time>
      </trkpt>
      <trkpt lat="52.262972658500075" lon="8.06094853207469">
        <ele>69.41015625</ele>
        <time>2026-04-13T07:39:04Z</time>
      </trkpt>
      <trkpt lat="52.263085646554828" lon="8.060651812702417">
        <ele>69.79296875</ele>
        <time>2026-04-13T07:39:08Z</time>
      </trkpt>
      <trkpt lat="52.26321229711175" lon="8.060380406677723">
        <ele>70.2578125</ele>
        <time>2026-04-13T07:39:12Z</time>
      </trkpt>
      <trkpt lat="52.263337103649974" lon="8.060131212696433">
        <ele>70.69140625</ele>
        <time>2026-04-13T07:39:16Z</time>
      </trkpt>
      <trkpt lat="52.263472471386194" lon="8.059872044250369">
        <ele>70.45703125</ele>
        <time>2026-04-13T07:39:20Z</time>
      </trkpt>
      <trkpt lat="52.263629380613565" lon="8.059669956564903">
        <ele>70.21484375</ele>
        <time>2026-04-13T07:39:24Z</time>
      </trkpt>
      <trkpt lat="52.26377522572875" lon="8.059456553310156">
        <ele>70.0625</ele>
        <time>2026-04-13T07:39:28Z</time>
      </trkpt>
      <trkpt lat="52.263921489939094" lon="8.059240886941552">
        <ele>70.015625</ele>
        <time>2026-04-13T07:39:32Z</time>
      </trkpt>
      <trkpt lat="52.264075633138418" lon="8.059036871418357">
        <ele>70.0546875</ele>
        <time>2026-04-13T07:39:36Z</time>
      </trkpt>
      <trkpt lat="52.26423405110836" lon="8.058862527832389">
        <ele>69.88671875</ele>
        <time>2026-04-13T07:39:40Z</time>
      </trkpt>
      <trkpt lat="52.264399258419871" lon="8.058668822050095">
        <ele>69.72265625</ele>
        <time>2026-04-13T07:39:44Z</time>
      </trkpt>
      <trkpt lat="52.264546360820532" lon="8.05845801718533">
        <ele>69.62109375</ele>
        <time>2026-04-13T07:39:48Z</time>
      </trkpt>
      <trkpt lat="52.264690697193146" lon="8.058258360251784">
        <ele>69.87890625</ele>
        <time>2026-04-13T07:39:52Z</time>
      </trkpt>
      <trkpt lat="52.264837380498648" lon="8.058051159605384">
        <ele>70.3359375</ele>
        <time>2026-04-13T07:39:56Z</time>
      </trkpt>
      <trkpt lat="52.264985488727689" lon="8.057849910110235">
        <ele>70.85546875</ele>
        <time>2026-04-13T07:40:00Z</time>
      </trkpt>
      <trkpt lat="52.26514290086925" lon="8.057658802717924">
        <ele>71.078125</ele>
        <time>2026-04-13T07:40:04Z</time>
      </trkpt>
      <trkpt lat="52.265277681872249" lon="8.057432826608419">
        <ele>70.61328125</ele>
        <time>2026-04-13T07:40:08Z</time>
      </trkpt>
      <trkpt lat="52.265416653826833" lon="8.057203078642488">
        <ele>69.7734375</ele>
        <time>2026-04-13T07:40:12Z</time>
      </trkpt>
      <trkpt lat="52.265516063198447" lon="8.056931002065539">
        <ele>68.8828125</ele>
        <time>2026-04-13T07:40:16Z</time>
      </trkpt>
      <trkpt lat="52.265573143959045" lon="8.056595977395773">
        <ele>68.08203125</ele>
        <time>2026-04-13T07:40:20Z</time>
      </trkpt>
      <trkpt lat="52.265600971877575" lon="8.05625575594604">
        <ele>67.55078125</ele>
        <time>2026-04-13T07:40:24Z</time>
      </trkpt>
      <trkpt lat="52.265655789524317" lon="8.055949145928025">
        <ele>67.03125</ele>
        <time>2026-04-13T07:40:28Z</time>
      </trkpt>
      <trkpt lat="52.26569551974535" lon="8.055625269189477">
        <ele>67.80078125</ele>
        <time>2026-04-13T07:40:32Z</time>
      </trkpt>
      <trkpt lat="52.265727454796433" lon="8.055330645292997">
        <ele>68.5390625</ele>
        <time>2026-04-13T07:40:36Z</time>
      </trkpt>
      <trkpt lat="52.265828372910619" lon="8.054967876523733">
        <ele>69.4765625</ele>
        <time>2026-04-13T07:40:42Z</time>
      </trkpt>
      <trkpt lat="52.265885788947344" lon="8.054653974249959">
        <ele>70.18359375</ele>
        <time>2026-04-13T07:40:48Z</time>
      </trkpt>
      <trkpt lat="52.265932308509946" lon="8.054348956793547">
        <ele>70.8203125</ele>
        <time>2026-04-13T07:41:20Z</time>
      </trkpt>
      <trkpt lat="52.26592761464417" lon="8.053945116698742">
        <ele>70.875</ele>
        <time>2026-04-13T07:41:28Z</time>
      </trkpt>
      <trkpt lat="52.265893500298262" lon="8.053477741777897">
        <ele>70.73046875</ele>
        <time>2026-04-13T07:41:34Z</time>
      </trkpt>
      <trkpt lat="52.265870617702603" lon="8.053074907511473">
        <ele>70.4296875</ele>
        <time>2026-04-13T07:41:38Z</time>
      </trkpt>
      <trkpt lat="52.265886459499598" lon="8.052732842043042">
        <ele>70.12109375</ele>
        <time>2026-04-13T07:41:42Z</time>
      </trkpt>
      <trkpt lat="52.265897188335657" lon="8.052382729947567">
        <ele>69.89453125</ele>
        <time>2026-04-13T07:41:46Z</time>
      </trkpt>
      <trkpt lat="52.265908420085907" lon="8.052059104666114">
        <ele>69.75</ele>
        <time>2026-04-13T07:41:50Z</time>
      </trkpt>
      <trkpt lat="52.265916969627142" lon="8.051744867116213">
        <ele>69.6171875</ele>
        <time>2026-04-13T07:41:54Z</time>
      </trkpt>
      <trkpt lat="52.265924429520965" lon="8.051417386159301">
        <ele>69.37890625</ele>
        <time>2026-04-13T07:42:00Z</time>
      </trkpt>
      <trkpt lat="52.26608787663281" lon="8.050823947414756">
        <ele>68.87109375</ele>
        <time>2026-04-13T07:42:20Z</time>
      </trkpt>
      <trkpt lat="52.266269261017442" lon="8.050644155591726">
        <ele>68.49609375</ele>
        <time>2026-04-13T07:42:26Z</time>
      </trkpt>
      <trkpt lat="52.266498086974025" lon="8.050476852804422">
        <ele>67.8984375</ele>
        <time>2026-04-13T07:42:32Z</time>
      </trkpt>
      <trkpt lat="52.266717860475183" lon="8.050328576937318">
        <ele>67.20703125</ele>
        <time>2026-04-13T07:42:38Z</time>
      </trkpt>
      <trkpt lat="52.266920702531934" lon="8.050242075696588">
        <ele>66.7421875</ele>
        <time>2026-04-13T07:42:46Z</time>
      </trkpt>
      <trkpt lat="52.267100159078836" lon="8.050198238343">
        <ele>66.421875</ele>
        <time>2026-04-13T07:43:20Z</time>
      </trkpt>
      <trkpt lat="52.267279280349612" lon="8.049961281940341">
        <ele>66.2109375</ele>
        <time>2026-04-13T07:43:26Z</time>
      </trkpt>
      <trkpt lat="52.267444571480155" lon="8.049837565049529">
        <ele>66.30859375</ele>
        <time>2026-04-13T07:43:30Z</time>
      </trkpt>
      <trkpt lat="52.267685132101178" lon="8.049727845937014">
        <ele>66.44140625</ele>
        <time>2026-04-13T07:43:36Z</time>
      </trkpt>
      <trkpt lat="52.267860565334558" lon="8.049641260877252">
        <ele>66.546875</ele>
        <time>2026-04-13T07:43:40Z</time>
      </trkpt>
      <trkpt lat="52.268063239753246" lon="8.049565823748708">
        <ele>66.63671875</ele>
        <time>2026-04-13T07:43:44Z</time>
      </trkpt>
      <trkpt lat="52.26824713870883" lon="8.049476305022836">
        <ele>67.27734375</ele>
        <time>2026-04-13T07:43:48Z</time>
      </trkpt>
      <trkpt lat="52.268579062074423" lon="8.049257704988122">
        <ele>69.55078125</ele>
        <time>2026-04-13T07:43:56Z</time>
      </trkpt>
      <trkpt lat="52.268759608268738" lon="8.049156283959746">
        <ele>70.39453125</ele>
        <time>2026-04-13T07:44:00Z</time>
      </trkpt>
      <trkpt lat="52.268946021795273" lon="8.049033405259252">
        <ele>70.98828125</ele>
        <time>2026-04-13T07:44:04Z</time>
      </trkpt>
      <trkpt lat="52.269167974591255" lon="8.048882279545069">
        <ele>70.375</ele>
        <time>2026-04-13T07:44:10Z</time>
      </trkpt>
      <trkpt lat="52.26935438811779" lon="8.048730567097664">
        <ele>69.88671875</ele>
        <time>2026-04-13T07:44:48Z</time>
      </trkpt>
      <trkpt lat="52.269525630399585" lon="8.048578770831227">
        <ele>69.72265625</ele>
        <time>2026-04-13T07:44:54Z</time>
      </trkpt>
      <trkpt lat="52.269700979813933" lon="8.048445163294673">
        <ele>69.8515625</ele>
        <time>2026-04-13T07:44:58Z</time>
      </trkpt>
      <trkpt lat="52.269879598170519" lon="8.048333851620555">
        <ele>69.765625</ele>
        <time>2026-04-13T07:45:02Z</time>
      </trkpt>
      <trkpt lat="52.270075986161828" lon="8.048149114474654">
        <ele>69.359375</ele>
        <time>2026-04-13T07:45:06Z</time>
      </trkpt>
      <trkpt lat="52.270251167938113" lon="8.04799061268568">
        <ele>69.25390625</ele>
        <time>2026-04-13T07:45:10Z</time>
      </trkpt>
      <trkpt lat="52.270421152934432" lon="8.04775558412075">
        <ele>69.5</ele>
        <time>2026-04-13T07:45:14Z</time>
      </trkpt>
      <trkpt lat="52.270597675815225" lon="8.047560369595885">
        <ele>69.9296875</ele>
        <time>2026-04-13T07:45:18Z</time>
      </trkpt>
      <trkpt lat="52.270746203139424" lon="8.04736121557653">
        <ele>70.11328125</ele>
        <time>2026-04-13T07:45:22Z</time>
      </trkpt>
      <trkpt lat="52.270911661908031" lon="8.047214280813932">
        <ele>70.3125</ele>
        <time>2026-04-13T07:45:26Z</time>
      </trkpt>
      <trkpt lat="52.27116622030735" lon="8.047076398506761">
        <ele>70.6171875</ele>
        <time>2026-04-13T07:45:32Z</time>
      </trkpt>
      <trkpt lat="52.271333439275622" lon="8.046954106539488">
        <ele>70.81640625</ele>
        <time>2026-04-13T07:45:36Z</time>
      </trkpt>
      <trkpt lat="52.271475847810507" lon="8.046759059652686">
        <ele>70.96484375</ele>
        <time>2026-04-13T07:45:40Z</time>
      </trkpt>
      <trkpt lat="52.271674331277609" lon="8.046519756317139">
        <ele>69.9609375</ele>
        <time>2026-04-13T07:45:46Z</time>
      </trkpt>
      <trkpt lat="52.271846076473594" lon="8.046345245093107">
        <ele>69.42578125</ele>
        <time>2026-04-13T07:45:54Z</time>
      </trkpt>
      <trkpt lat="52.272031232714653" lon="8.046228904277086">
        <ele>69.2734375</ele>
        <time>2026-04-13T07:46:20Z</time>
      </trkpt>
      <trkpt lat="52.27222602814436" lon="8.046014243736863">
        <ele>69.00390625</ele>
        <time>2026-04-13T07:46:26Z</time>
      </trkpt>
      <trkpt lat="52.272430378943682" lon="8.04586747661233">
        <ele>68.85546875</ele>
        <time>2026-04-13T07:46:32Z</time>
      </trkpt>
      <trkpt lat="52.272595837712288" lon="8.045748788863421">
        <ele>68.59375</ele>
        <time>2026-04-13T07:46:36Z</time>
      </trkpt>
      <trkpt lat="52.272750986739993" lon="8.045552065595985">
        <ele>68.2421875</ele>
        <time>2026-04-13T07:46:40Z</time>
      </trkpt>
      <trkpt lat="52.272891970351338" lon="8.045319635421038">
        <ele>67.8046875</ele>
        <time>2026-04-13T07:46:44Z</time>
      </trkpt>
      <trkpt lat="52.273035133257508" lon="8.045121571049094">
        <ele>67.30078125</ele>
        <time>2026-04-13T07:46:48Z</time>
      </trkpt>
      <trkpt lat="52.27321551181376" lon="8.045070944353938">
        <ele>67.046875</ele>
        <time>2026-04-13T07:46:52Z</time>
      </trkpt>
      <trkpt lat="52.273479038849473" lon="8.04516239091754">
        <ele>67.44140625</ele>
        <time>2026-04-13T07:46:58Z</time>
      </trkpt>
      <trkpt lat="52.27366260252893" lon="8.045220309868455">
        <ele>67.671875</ele>
        <time>2026-04-13T07:47:02Z</time>
      </trkpt>
      <trkpt lat="52.273867791518569" lon="8.045215951278806">
        <ele>67.8828125</ele>
        <time>2026-04-13T07:47:06Z</time>
      </trkpt>
      <trkpt lat="52.27406769990921" lon="8.04513699375093">
        <ele>68.109375</ele>
        <time>2026-04-13T07:47:10Z</time>
      </trkpt>
      <trkpt lat="52.274254448711872" lon="8.044974217191339">
        <ele>68.2265625</ele>
        <time>2026-04-13T07:47:14Z</time>
      </trkpt>
      <trkpt lat="52.274435497820377" lon="8.044804148375988">
        <ele>68.3828125</ele>
        <time>2026-04-13T07:47:18Z</time>
      </trkpt>
      <trkpt lat="52.274604141712189" lon="8.04461320862174">
        <ele>68.59765625</ele>
        <time>2026-04-13T07:47:22Z</time>
      </trkpt>
      <trkpt lat="52.274762056767941" lon="8.044430064037442">
        <ele>68.8828125</ele>
        <time>2026-04-13T07:47:26Z</time>
      </trkpt>
      <trkpt lat="52.274937490001321" lon="8.044296205043793">
        <ele>69.14453125</ele>
        <time>2026-04-13T07:47:30Z</time>
      </trkpt>
      <trkpt lat="52.275134045630693" lon="8.044077605009079">
        <ele>69.43359375</ele>
        <time>2026-04-13T07:47:36Z</time>
      </trkpt>
      <trkpt lat="52.275254158303142" lon="8.043816173449159">
        <ele>69.49609375</ele>
        <time>2026-04-13T07:47:40Z</time>
      </trkpt>
      <trkpt lat="52.275270335376263" lon="8.04339112713933">
        <ele>69.46484375</ele>
        <time>2026-04-13T07:47:46Z</time>
      </trkpt>
      <trkpt lat="52.275296151638031" lon="8.043098514899612">
        <ele>69.546875</ele>
        <time>2026-04-13T07:47:50Z</time>
      </trkpt>
      <trkpt lat="52.27537770755589" lon="8.04275100119412">
        <ele>69.8984375</ele>
        <time>2026-04-13T07:47:54Z</time>
      </trkpt>
      <trkpt lat="52.275439649820328" lon="8.042424358427525">
        <ele>70.24609375</ele>
        <time>2026-04-13T07:47:58Z</time>
      </trkpt>
      <trkpt lat="52.275504441931844" lon="8.042127219960094">
        <ele>70.48046875</ele>
        <time>2026-04-13T07:48:02Z</time>
      </trkpt>
      <trkpt lat="52.275617429986596" lon="8.041838631033897">
        <ele>70.88671875</ele>
        <time>2026-04-13T07:48:10Z</time>
      </trkpt>
      <trkpt lat="52.275829995051026" lon="8.041326748207212">
        <ele>69.22265625</ele>
        <time>2026-04-13T07:49:14Z</time>
      </trkpt>
      <trkpt lat="52.275730920955539" lon="8.040953418239951">
        <ele>68.16015625</ele>
        <time>2026-04-13T07:49:20Z</time>
      </trkpt>
      <trkpt lat="52.275618435814977" lon="8.040555361658335">
        <ele>68.4765625</ele>
        <time>2026-04-13T07:49:26Z</time>
      </trkpt>
      <trkpt lat="52.275551129132509" lon="8.040282027795911">
        <ele>68.80859375</ele>
        <time>2026-04-13T07:49:30Z</time>
      </trkpt>
      <trkpt lat="52.275499161332846" lon="8.039987571537495">
        <ele>68.83984375</ele>
        <time>2026-04-13T07:49:34Z</time>
      </trkpt>
      <trkpt lat="52.27545733563602" lon="8.039581133052707">
        <ele>68.23046875</ele>
        <time>2026-04-13T07:49:40Z</time>
      </trkpt>
      <trkpt lat="52.275623632594943" lon="8.039401089772582">
        <ele>68.1328125</ele>
        <time>2026-04-13T07:49:46Z</time>
      </trkpt>
      <trkpt lat="52.275805519893765" lon="8.039336716756225">
        <ele>68.6171875</ele>
        <time>2026-04-13T07:49:52Z</time>
      </trkpt>
      <trkpt lat="52.276037111878395" lon="8.039244851097465">
        <ele>69.3984375</ele>
        <time>2026-04-13T07:50:00Z</time>
      </trkpt>
      <trkpt lat="52.276222854852676" lon="8.039264045655727">
        <ele>70.06640625</ele>
        <time>2026-04-13T07:50:06Z</time>
      </trkpt>
      <trkpt lat="52.276561819016933" lon="8.039489099755883">
        <ele>70.640625</ele>
        <time>2026-04-13T07:50:24Z</time>
      </trkpt>
      <trkpt lat="52.276770109310746" lon="8.039439478889108">
        <ele>70.44921875</ele>
        <time>2026-04-13T07:50:30Z</time>
      </trkpt>
      <trkpt lat="52.276951409876347" lon="8.039467306807637">
        <ele>70.1953125</ele>
        <time>2026-04-13T07:50:36Z</time>
      </trkpt>
      <trkpt lat="52.277156934142113" lon="8.039547689259052">
        <ele>69.85546875</ele>
        <time>2026-04-13T07:50:42Z</time>
      </trkpt>
      <trkpt lat="52.277330942451954" lon="8.039641231298447">
        <ele>69.55078125</ele>
        <time>2026-04-13T07:50:48Z</time>
      </trkpt>
      <trkpt lat="52.277535544708371" lon="8.039758913218975">
        <ele>69.41015625</ele>
        <time>2026-04-13T07:50:56Z</time>
      </trkpt>
      <trkpt lat="52.277691029012203" lon="8.039873912930489">
        <ele>69.2734375</ele>
        <time>2026-04-13T08:00:24Z</time>
      </trkpt>
      <trkpt lat="52.277554487809539" lon="8.039652965962887">
        <ele>69.5390625</ele>
        <time>2026-04-13T08:00:36Z</time>
      </trkpt>
      <trkpt lat="52.277378970757127" lon="8.039508713409305">
        <ele>69.7109375</ele>
        <time>2026-04-13T08:00:46Z</time>
      </trkpt>
      <trkpt lat="52.277165818959475" lon="8.039379883557558">
        <ele>70.04296875</ele>
        <time>2026-04-13T08:00:54Z</time>
      </trkpt>
      <trkpt lat="52.276759799569845" lon="8.039410058408976">
        <ele>70.49609375</ele>
        <time>2026-04-13T08:01:08Z</time>
      </trkpt>
      <trkpt lat="52.276566848158836" lon="8.039264380931854">
        <ele>70.8984375</ele>
        <time>2026-04-13T08:01:18Z</time>
      </trkpt>
      <trkpt lat="52.276299465447664" lon="8.038842771202326">
        <ele>70.34375</ele>
        <time>2026-04-13T08:01:34Z</time>
      </trkpt>
      <trkpt lat="52.276115985587239" lon="8.038955759257078">
        <ele>69.68359375</ele>
        <time>2026-04-13T08:01:44Z</time>
      </trkpt>
      <trkpt lat="52.276001069694757" lon="8.038728525862098">
        <ele>69.26953125</ele>
        <time>2026-04-13T08:03:02Z</time>
      </trkpt>
      <trkpt lat="52.275801496580243" lon="8.038757359609008">
        <ele>68.55078125</ele>
        <time>2026-04-13T08:03:08Z</time>
      </trkpt>
      <trkpt lat="52.275550123304129" lon="8.038955088704824">
        <ele>68.015625</ele>
        <time>2026-04-13T08:03:14Z</time>
      </trkpt>
      <trkpt lat="52.275376617908478" lon="8.039092384278774">
        <ele>67.87890625</ele>
        <time>2026-04-13T08:03:18Z</time>
      </trkpt>
      <trkpt lat="52.275175452232361" lon="8.039214592427015">
        <ele>67.54296875</ele>
        <time>2026-04-13T08:03:22Z</time>
      </trkpt>
      <trkpt lat="52.274973699823022" lon="8.039316264912486">
        <ele>67.29296875</ele>
        <time>2026-04-13T08:03:26Z</time>
      </trkpt>
      <trkpt lat="52.274778485298157" lon="8.039416428655386">
        <ele>67.484375</ele>
        <time>2026-04-13T08:03:30Z</time>
      </trkpt>
      <trkpt lat="52.274594334885478" lon="8.039513742551208">
        <ele>68.30859375</ele>
        <time>2026-04-13T08:03:34Z</time>
      </trkpt>
      <trkpt lat="52.274401132017374" lon="8.039645003154874">
        <ele>69.171875</ele>
        <time>2026-04-13T08:03:38Z</time>
      </trkpt>
      <trkpt lat="52.27420449256897" lon="8.039748435840011">
        <ele>69.93359375</ele>
        <time>2026-04-13T08:03:42Z</time>
      </trkpt>
      <trkpt lat="52.274008942767978" lon="8.039857987314463">
        <ele>70.63671875</ele>
        <time>2026-04-13T08:03:46Z</time>
      </trkpt>
      <trkpt lat="52.273810626938939" lon="8.039933005347848">
        <ele>70.96484375</ele>
        <time>2026-04-13T08:03:50Z</time>
      </trkpt>
      <trkpt lat="52.273613903671503" lon="8.040018584579229">
        <ele>71.30078125</ele>
        <time>2026-04-13T08:03:54Z</time>
      </trkpt>
      <trkpt lat="52.273419443517923" lon="8.040059739723802">
        <ele>71.59375</ele>
        <time>2026-04-13T08:03:58Z</time>
      </trkpt>
      <trkpt lat="52.273029265925288" lon="8.039949601516128">
        <ele>71.4921875</ele>
        <time>2026-04-13T08:04:08Z</time>
      </trkpt>
      <trkpt lat="52.272997917607427" lon="8.039537463337183">
        <ele>70.46484375</ele>
        <time>2026-04-13T08:04:14Z</time>
      </trkpt>
      <trkpt lat="52.272956427186728" lon="8.039237642660737">
        <ele>69.6640625</ele>
        <time>2026-04-13T08:04:18Z</time>
      </trkpt>
      <trkpt lat="52.272933628410101" lon="8.038936983793974">
        <ele>68.6484375</ele>
        <time>2026-04-13T08:04:22Z</time>
      </trkpt>
      <trkpt lat="52.272910829633474" lon="8.038492910563946">
        <ele>67.1875</ele>
        <time>2026-04-13T08:04:28Z</time>
      </trkpt>
      <trkpt lat="52.272862298414111" lon="8.038064008578658">
        <ele>67.15625</ele>
        <time>2026-04-13T08:04:34Z</time>
      </trkpt>
      <trkpt lat="52.272684769704938" lon="8.03785739466548">
        <ele>67.38671875</ele>
        <time>2026-04-13T08:04:40Z</time>
      </trkpt>
      <trkpt lat="52.272499781101942" lon="8.037838116288185">
        <ele>67.55859375</ele>
        <time>2026-04-13T08:04:44Z</time>
      </trkpt>
      <trkpt lat="52.272311020642519" lon="8.037807270884514">
        <ele>67.7578125</ele>
        <time>2026-04-13T08:04:48Z</time>
      </trkpt>
      <trkpt lat="52.272128630429506" lon="8.037806348875165">
        <ele>67.8671875</ele>
        <time>2026-04-13T08:04:52Z</time>
      </trkpt>
      <trkpt lat="52.271996615454555" lon="8.038016902282834">
        <ele>67.88671875</ele>
        <time>2026-04-13T08:04:58Z</time>
      </trkpt>
      <trkpt lat="52.271664021536708" lon="8.038301467895508">
        <ele>68.4765625</ele>
        <time>2026-04-13T08:05:22Z</time>
      </trkpt>
      <trkpt lat="52.271478110924363" lon="8.038584440946579">
        <ele>68.984375</ele>
        <time>2026-04-13T08:05:28Z</time>
      </trkpt>
      <trkpt lat="52.271327320486307" lon="8.03876917809248">
        <ele>68.69921875</ele>
        <time>2026-04-13T08:05:32Z</time>
      </trkpt>
      <trkpt lat="52.27118231356144" lon="8.038976462557912">
        <ele>68.5078125</ele>
        <time>2026-04-13T08:05:36Z</time>
      </trkpt>
      <trkpt lat="52.271045185625553" lon="8.039188692346215">
        <ele>68.421875</ele>
        <time>2026-04-13T08:05:40Z</time>
      </trkpt>
      <trkpt lat="52.270896909758449" lon="8.039382314309478">
        <ele>68.4140625</ele>
        <time>2026-04-13T08:05:44Z</time>
      </trkpt>
      <trkpt lat="52.270728265866637" lon="8.03957543335855">
        <ele>68.19140625</ele>
        <time>2026-04-13T08:05:48Z</time>
      </trkpt>
      <trkpt lat="52.270575379952788" lon="8.039772240445018">
        <ele>67.78125</ele>
        <time>2026-04-13T08:05:52Z</time>
      </trkpt>
      <trkpt lat="52.270413609221578" lon="8.039973406121135">
        <ele>67.3828125</ele>
        <time>2026-04-13T08:05:56Z</time>
      </trkpt>
      <trkpt lat="52.270258879289031" lon="8.040181109681726">
        <ele>67.0546875</ele>
        <time>2026-04-13T08:06:00Z</time>
      </trkpt>
      <trkpt lat="52.27010004222393" lon="8.040379676967859">
        <ele>66.67578125</ele>
        <time>2026-04-13T08:06:04Z</time>
      </trkpt>
      <trkpt lat="52.269951933994889" lon="8.040604060515761">
        <ele>66.3203125</ele>
        <time>2026-04-13T08:06:08Z</time>
      </trkpt>
      <trkpt lat="52.269813381135464" lon="8.040820313617587">
        <ele>66.015625</ele>
        <time>2026-04-13T08:06:12Z</time>
      </trkpt>
      <trkpt lat="52.2696353495121" lon="8.041090462356806">
        <ele>66.796875</ele>
        <time>2026-04-13T08:06:18Z</time>
      </trkpt>
      <trkpt lat="52.269348688423634" lon="8.041498074308038">
        <ele>67.25</ele>
        <time>2026-04-13T08:06:40Z</time>
      </trkpt>
      <trkpt lat="52.269210387021303" lon="8.041693875566125">
        <ele>66.86328125</ele>
        <time>2026-04-13T08:06:44Z</time>
      </trkpt>
      <trkpt lat="52.26906655356288" lon="8.041904596611857">
        <ele>66.48828125</ele>
        <time>2026-04-13T08:06:48Z</time>
      </trkpt>
      <trkpt lat="52.26892682723701" lon="8.042107606306672">
        <ele>66.3671875</ele>
        <time>2026-04-13T08:06:52Z</time>
      </trkpt>
      <trkpt lat="52.26878710091114" lon="8.042336599901319">
        <ele>66.609375</ele>
        <time>2026-04-13T08:06:56Z</time>
      </trkpt>
      <trkpt lat="52.268642513081431" lon="8.042551344260573">
        <ele>66.91796875</ele>
        <time>2026-04-13T08:07:00Z</time>
      </trkpt>
      <trkpt lat="52.268502283841372" lon="8.042763657867909">
        <ele>67.11328125</ele>
        <time>2026-04-13T08:07:04Z</time>
      </trkpt>
      <trkpt lat="52.268366413190961" lon="8.042999356985092">
        <ele>67.35546875</ele>
        <time>2026-04-13T08:07:08Z</time>
      </trkpt>
      <trkpt lat="52.268218975514174" lon="8.043224662542343">
        <ele>67.69140625</ele>
        <time>2026-04-13T08:07:12Z</time>
      </trkpt>
      <trkpt lat="52.268030801787972" lon="8.043460194021463">
        <ele>67.96875</ele>
        <time>2026-04-13T08:07:17Z</time>
      </trkpt>
      <trkpt lat="52.267867438495159" lon="8.043670663610101">
        <ele>67.71484375</ele>
        <time>2026-04-13T08:07:21Z</time>
      </trkpt>
      <trkpt lat="52.267707260325551" lon="8.043836625292897">
        <ele>67.515625</ele>
        <time>2026-04-13T08:07:25Z</time>
      </trkpt>
      <trkpt lat="52.267556637525558" lon="8.044036533683538">
        <ele>67.2734375</ele>
        <time>2026-04-13T08:07:29Z</time>
      </trkpt>
      <trkpt lat="52.267403667792678" lon="8.044238872826099">
        <ele>67.03125</ele>
        <time>2026-04-13T08:07:33Z</time>
      </trkpt>
      <trkpt lat="52.26724592037499" lon="8.044432075694203">
        <ele>66.67578125</ele>
        <time>2026-04-13T08:07:37Z</time>
      </trkpt>
      <trkpt lat="52.267103428021073" lon="8.044659644365311">
        <ele>66.375</ele>
        <time>2026-04-13T08:07:41Z</time>
      </trkpt>
      <trkpt lat="52.266901172697544" lon="8.044404834508896">
        <ele>66.078125</ele>
        <time>2026-04-13T08:07:47Z</time>
      </trkpt>
      <trkpt lat="52.266718447208405" lon="8.044119765982032">
        <ele>65.6015625</ele>
        <time>2026-04-13T08:07:53Z</time>
      </trkpt>
      <trkpt lat="52.266592131927609" lon="8.04388515651226">
        <ele>65.30859375</ele>
        <time>2026-04-13T08:07:57Z</time>
      </trkpt>
      <trkpt lat="52.266479730606079" lon="8.043626826256514">
        <ele>65.0234375</ele>
        <time>2026-04-13T08:08:01Z</time>
      </trkpt>
      <trkpt lat="52.26635810919106" lon="8.043395066633821">
        <ele>65.49609375</ele>
        <time>2026-04-13T08:08:05Z</time>
      </trkpt>
      <trkpt lat="52.266217293217778" lon="8.043164983391762">
        <ele>66.0859375</ele>
        <time>2026-04-13T08:08:09Z</time>
      </trkpt>
      <trkpt lat="52.266094582155347" lon="8.042915454134345">
        <ele>66.44921875</ele>
        <time>2026-04-13T08:08:13Z</time>
      </trkpt>
      <trkpt lat="52.265965668484569" lon="8.042685873806477">
        <ele>66.65234375</ele>
        <time>2026-04-13T08:08:17Z</time>
      </trkpt>
      <trkpt lat="52.265791408717632" lon="8.042414719238877">
        <ele>67.09375</ele>
        <time>2026-04-13T08:08:23Z</time>
      </trkpt>
      <trkpt lat="52.265673978254199" lon="8.042188407853246">
        <ele>67.48046875</ele>
        <time>2026-04-13T08:09:13Z</time>
      </trkpt>
      <trkpt lat="52.265543472021818" lon="8.041979195550084">
        <ele>67.77734375</ele>
        <time>2026-04-13T08:09:19Z</time>
      </trkpt>
      <trkpt lat="52.265379270538688" lon="8.041657917201519">
        <ele>67.95703125</ele>
        <time>2026-04-13T08:09:25Z</time>
      </trkpt>
      <trkpt lat="52.265242813155055" lon="8.041410315781832">
        <ele>67.99609375</ele>
        <time>2026-04-13T08:09:29Z</time>
      </trkpt>
      <trkpt lat="52.265100991353393" lon="8.041184255853295">
        <ele>68.23046875</ele>
        <time>2026-04-13T08:09:33Z</time>
      </trkpt>
      <trkpt lat="52.26495523005724" lon="8.040936654433608">
        <ele>68.6796875</ele>
        <time>2026-04-13T08:09:37Z</time>
      </trkpt>
      <trkpt lat="52.264802092686296" lon="8.040669606998563">
        <ele>69.30078125</ele>
        <time>2026-04-13T08:09:41Z</time>
      </trkpt>
      <trkpt lat="52.264658594503999" lon="8.040410690009594">
        <ele>69.3828125</ele>
        <time>2026-04-13T08:09:45Z</time>
      </trkpt>
      <trkpt lat="52.264522137120366" lon="8.040151940658689">
        <ele>69.26171875</ele>
        <time>2026-04-13T08:09:49Z</time>
      </trkpt>
      <trkpt lat="52.264390792697668" lon="8.039897801354528">
        <ele>68.73046875</ele>
        <time>2026-04-13T08:09:53Z</time>
      </trkpt>
      <trkpt lat="52.264256179332733" lon="8.039643913507462">
        <ele>68.2890625</ele>
        <time>2026-04-13T08:09:57Z</time>
      </trkpt>
      <trkpt lat="52.264100862666965" lon="8.039411399513483">
        <ele>68.046875</ele>
        <time>2026-04-13T08:10:01Z</time>
      </trkpt>
      <trkpt lat="52.263898439705372" lon="8.039359766989946">
        <ele>68.12109375</ele>
        <time>2026-04-13T08:10:05Z</time>
      </trkpt>
      <trkpt lat="52.263684198260307" lon="8.039330430328846">
        <ele>68.39453125</ele>
        <time>2026-04-13T08:10:09Z</time>
      </trkpt>
      <trkpt lat="52.263471465557814" lon="8.039301596581936">
        <ele>68.6484375</ele>
        <time>2026-04-13T08:10:13Z</time>
      </trkpt>
      <trkpt lat="52.263275580480695" lon="8.039259519428015">
        <ele>68.828125</ele>
        <time>2026-04-13T08:10:17Z</time>
      </trkpt>
      <trkpt lat="52.26307449862361" lon="8.039217693731189">
        <ele>69.1171875</ele>
        <time>2026-04-13T08:10:21Z</time>
      </trkpt>
      <trkpt lat="52.262894287705421" lon="8.039201432839036">
        <ele>69.7265625</ele>
        <time>2026-04-13T08:10:25Z</time>
      </trkpt>
      <trkpt lat="52.262713741511106" lon="8.039247281849384">
        <ele>70.53125</ele>
        <time>2026-04-13T08:10:29Z</time>
      </trkpt>
      <trkpt lat="52.262456919997931" lon="8.039375524967909">
        <ele>71.5390625</ele>
        <time>2026-04-13T08:10:35Z</time>
      </trkpt>
      <trkpt lat="52.262261118739843" lon="8.039461439475417">
        <ele>72.2265625</ele>
        <time>2026-04-13T08:10:39Z</time>
      </trkpt>
      <trkpt lat="52.262048721313477" lon="8.039524722844362">
        <ele>72.9921875</ele>
        <time>2026-04-13T08:10:43Z</time>
      </trkpt>
      <trkpt lat="52.261843867599964" lon="8.039608625695109">
        <ele>73.7265625</ele>
        <time>2026-04-13T08:10:47Z</time>
      </trkpt>
      <trkpt lat="52.261638762429357" lon="8.039631256833673">
        <ele>74.46875</ele>
        <time>2026-04-13T08:10:51Z</time>
      </trkpt>
      <trkpt lat="52.261521751061082" lon="8.039376446977258">
        <ele>74.88671875</ele>
        <time>2026-04-13T08:10:55Z</time>
      </trkpt>
      <trkpt lat="52.261523762717843" lon="8.039074530825019">
        <ele>74.640625</ele>
        <time>2026-04-13T08:10:59Z</time>
      </trkpt>
      <trkpt lat="52.261526109650731" lon="8.038748642429709">
        <ele>74.22265625</ele>
        <time>2026-04-13T08:11:03Z</time>
      </trkpt>
      <trkpt lat="52.261519320309162" lon="8.038427447900176">
        <ele>73.84375</ele>
        <time>2026-04-13T08:11:07Z</time>
      </trkpt>
      <trkpt lat="52.261475147679448" lon="8.038128549233079">
        <ele>73.4140625</ele>
        <time>2026-04-13T08:11:11Z</time>
      </trkpt>
      <trkpt lat="52.261429466307163" lon="8.037813892588019">
        <ele>73.09765625</ele>
        <time>2026-04-13T08:11:15Z</time>
      </trkpt>
      <trkpt lat="52.26139023900032" lon="8.037504265084863">
        <ele>72.59765625</ele>
        <time>2026-04-13T08:11:19Z</time>
      </trkpt>
      <trkpt lat="52.261352855712175" lon="8.037208467721939">
        <ele>71.828125</ele>
        <time>2026-04-13T08:11:23Z</time>
      </trkpt>
      <trkpt lat="52.261312371119857" lon="8.036897499114275">
        <ele>70.9921875</ele>
        <time>2026-04-13T08:11:27Z</time>
      </trkpt>
      <trkpt lat="52.261273898184299" lon="8.036590470001102">
        <ele>70.59765625</ele>
        <time>2026-04-13T08:11:31Z</time>
      </trkpt>
      <trkpt lat="52.261224612593651" lon="8.036304479464889">
        <ele>70.5234375</ele>
        <time>2026-04-13T08:11:35Z</time>
      </trkpt>
      <trkpt lat="52.26117666810751" lon="8.036001808941364">
        <ele>70.25</ele>
        <time>2026-04-13T08:11:39Z</time>
      </trkpt>
      <trkpt lat="52.261126460507512" lon="8.035670472308993">
        <ele>70.171875</ele>
        <time>2026-04-13T08:11:43Z</time>
      </trkpt>
      <trkpt lat="52.261062758043408" lon="8.03532631136477">
        <ele>70.1640625</ele>
        <time>2026-04-13T08:11:47Z</time>
      </trkpt>
      <trkpt lat="52.260988159105182" lon="8.034997070208192">
        <ele>69.94921875</ele>
        <time>2026-04-13T08:11:51Z</time>
      </trkpt>
      <trkpt lat="52.260896544903517" lon="8.034655172377825">
        <ele>69.34765625</ele>
        <time>2026-04-13T08:11:55Z</time>
      </trkpt>
      <trkpt lat="52.260734690353274" lon="8.034451995044947">
        <ele>69.25</ele>
        <time>2026-04-13T08:11:59Z</time>
      </trkpt>
      <trkpt lat="52.260525561869144" lon="8.034473285079002">
        <ele>69.68359375</ele>
        <time>2026-04-13T08:12:03Z</time>
      </trkpt>
      <trkpt lat="52.260342082008719" lon="8.034468842670322">
        <ele>69.94140625</ele>
        <time>2026-04-13T08:12:07Z</time>
      </trkpt>
      <trkpt lat="52.260160697624087" lon="8.034479320049286">
        <ele>70.24609375</ele>
        <time>2026-04-13T08:12:11Z</time>
      </trkpt>
      <trkpt lat="52.259890297427773" lon="8.034485522657633">
        <ele>70.671875</ele>
        <time>2026-04-13T08:12:17Z</time>
      </trkpt>
      <trkpt lat="52.259704302996397" lon="8.034495413303375">
        <ele>70.953125</ele>
        <time>2026-04-13T08:12:21Z</time>
      </trkpt>
      <trkpt lat="52.259447230026126" lon="8.034500610083342">
        <ele>71.27734375</ele>
        <time>2026-04-13T08:12:27Z</time>
      </trkpt>
      <trkpt lat="52.259261989966035" lon="8.034509159624577">
        <ele>71.53125</ele>
        <time>2026-04-13T08:12:31Z</time>
      </trkpt>
      <trkpt lat="52.259080689400434" lon="8.034513350576162">
        <ele>71.765625</ele>
        <time>2026-04-13T08:12:35Z</time>
      </trkpt>
      <trkpt lat="52.258830238133669" lon="8.034538580104709">
        <ele>72.4140625</ele>
        <time>2026-04-13T08:12:41Z</time>
      </trkpt>
      <trkpt lat="52.258573584258556" lon="8.034539753571153">
        <ele>73.1328125</ele>
        <time>2026-04-13T08:12:47Z</time>
      </trkpt>
      <trkpt lat="52.258318355306983" lon="8.034556517377496">
        <ele>73.921875</ele>
        <time>2026-04-13T08:12:53Z</time>
      </trkpt>
      <trkpt lat="52.258066479116678" lon="8.034546794369817">
        <ele>74.58203125</ele>
        <time>2026-04-13T08:12:59Z</time>
      </trkpt>
      <trkpt lat="52.257820637896657" lon="8.034556265920401">
        <ele>75.30859375</ele>
        <time>2026-04-13T08:13:05Z</time>
      </trkpt>
      <trkpt lat="52.257590470835567" lon="8.034562971442938">
        <ele>75.97265625</ele>
        <time>2026-04-13T08:13:11Z</time>
      </trkpt>
      <trkpt lat="52.257359800860286" lon="8.03456598892808">
        <ele>76.6171875</ele>
        <time>2026-04-13T08:13:17Z</time>
      </trkpt>
      <trkpt lat="52.257128795608878" lon="8.034578645601869">
        <ele>77.44921875</ele>
        <time>2026-04-13T08:13:23Z</time>
      </trkpt>
      <trkpt lat="52.256899550557137" lon="8.034570598974824">
        <ele>78.2578125</ele>
        <time>2026-04-13T08:13:29Z</time>
      </trkpt>
      <trkpt lat="52.256663851439953" lon="8.034587362781167">
        <ele>79.14453125</ele>
        <time>2026-04-13T08:13:35Z</time>
      </trkpt>
      <trkpt lat="52.256437707692385" lon="8.034586859866977">
        <ele>79.91796875</ele>
        <time>2026-04-13T08:13:41Z</time>
      </trkpt>
      <trkpt lat="52.256212988868356" lon="8.034580908715725">
        <ele>80.54296875</ele>
        <time>2026-04-13T08:13:47Z</time>
      </trkpt>
      <trkpt lat="52.255987599492073" lon="8.034590464085341">
        <ele>81.21484375</ele>
        <time>2026-04-13T08:13:53Z</time>
      </trkpt>
      <trkpt lat="52.255752068012953" lon="8.03460312075913">
        <ele>81.93359375</ele>
        <time>2026-04-13T08:13:59Z</time>
      </trkpt>
      <trkpt lat="52.255526762455702" lon="8.034610915929079">
        <ele>82.48046875</ele>
        <time>2026-04-13T08:14:05Z</time>
      </trkpt>
      <trkpt lat="52.255311012268066" lon="8.034615274518728">
        <ele>82.90625</ele>
        <time>2026-04-13T08:14:11Z</time>
      </trkpt>
      <trkpt lat="52.25510012358427" lon="8.034642683342099">
        <ele>83.3828125</ele>
        <time>2026-04-13T08:14:17Z</time>
      </trkpt>
      <trkpt lat="52.254879930987954" lon="8.034646203741431">
        <ele>83.8046875</ele>
        <time>2026-04-13T08:14:23Z</time>
      </trkpt>
      <trkpt lat="52.254665940999985" lon="8.034656262025237">
        <ele>84.02734375</ele>
        <time>2026-04-13T08:14:29Z</time>
      </trkpt>
      <trkpt lat="52.254430996254086" lon="8.034652322530747">
        <ele>84.171875</ele>
        <time>2026-04-13T08:14:35Z</time>
      </trkpt>
      <trkpt lat="52.254184316843748" lon="8.034654669463635">
        <ele>84.3359375</ele>
        <time>2026-04-13T08:14:41Z</time>
      </trkpt>
      <trkpt lat="52.2539347037673" lon="8.0346461199224">
        <ele>84.703125</ele>
        <time>2026-04-13T08:14:47Z</time>
      </trkpt>
      <trkpt lat="52.25368651561439" lon="8.034543776884675">
        <ele>85.5625</ele>
        <time>2026-04-13T08:14:53Z</time>
      </trkpt>
      <trkpt lat="52.253442350775003" lon="8.034390890970826">
        <ele>86.23046875</ele>
        <time>2026-04-13T08:14:59Z</time>
      </trkpt>
      <trkpt lat="52.253262978047132" lon="8.034308413043618">
        <ele>86.72265625</ele>
        <time>2026-04-13T08:15:03Z</time>
      </trkpt>
      <trkpt lat="52.253023590892553" lon="8.034183774143457">
        <ele>86.84375</ele>
        <time>2026-04-13T08:15:09Z</time>
      </trkpt>
      <trkpt lat="52.252798620611429" lon="8.034060979261994">
        <ele>86.82421875</ele>
        <time>2026-04-13T08:15:15Z</time>
      </trkpt>
      <trkpt lat="52.252552527934313" lon="8.033908093348146">
        <ele>87.0859375</ele>
        <time>2026-04-13T08:15:21Z</time>
      </trkpt>
      <trkpt lat="52.252325881272554" lon="8.033768199384213">
        <ele>87.59765625</ele>
        <time>2026-04-13T08:15:27Z</time>
      </trkpt>
      <trkpt lat="52.252072999253869" lon="8.033607183024287">
        <ele>87.42578125</ele>
        <time>2026-04-13T08:15:33Z</time>
      </trkpt>
      <trkpt lat="52.251831432804465" lon="8.033456560224295">
        <ele>87.3671875</ele>
        <time>2026-04-13T08:15:39Z</time>
      </trkpt>
      <trkpt lat="52.251575700938702" lon="8.033319348469377">
        <ele>87.2109375</ele>
        <time>2026-04-13T08:15:45Z</time>
      </trkpt>
      <trkpt lat="52.251408230513334" lon="8.033211305737495">
        <ele>86.953125</ele>
        <time>2026-04-13T08:15:49Z</time>
      </trkpt>
      <trkpt lat="52.251162473112345" lon="8.033015923574567">
        <ele>86.3046875</ele>
        <time>2026-04-13T08:15:55Z</time>
      </trkpt>
      <trkpt lat="52.250919649377465" lon="8.032839233055711">
        <ele>85.640625</ele>
        <time>2026-04-13T08:16:01Z</time>
      </trkpt>
      <trkpt lat="52.250689398497343" lon="8.032646700739861">
        <ele>85.04296875</ele>
        <time>2026-04-13T08:16:07Z</time>
      </trkpt>
      <trkpt lat="52.250469038262963" lon="8.032448552548885">
        <ele>85.9453125</ele>
        <time>2026-04-13T08:16:13Z</time>
      </trkpt>
      <trkpt lat="52.250313218683004" lon="8.0322992708534">
        <ele>86.63671875</ele>
        <time>2026-04-13T08:16:17Z</time>
      </trkpt>
      <trkpt lat="52.250103419646621" lon="8.032081928104162">
        <ele>87.38671875</ele>
        <time>2026-04-13T08:16:23Z</time>
      </trkpt>
      <trkpt lat="52.249944247305393" lon="8.031943878158927">
        <ele>87.73828125</ele>
        <time>2026-04-13T08:16:27Z</time>
      </trkpt>
      <trkpt lat="52.249776609241962" lon="8.031815383583307">
        <ele>87.953125</ele>
        <time>2026-04-13T08:16:31Z</time>
      </trkpt>
      <trkpt lat="52.24956639111042" lon="8.031582366675139">
        <ele>88.6875</ele>
        <time>2026-04-13T08:16:37Z</time>
      </trkpt>
      <trkpt lat="52.249404704198241" lon="8.031444232910872">
        <ele>89.18359375</ele>
        <time>2026-04-13T08:16:41Z</time>
      </trkpt>
      <trkpt lat="52.249185349792242" lon="8.031239043921232">
        <ele>89.921875</ele>
        <time>2026-04-13T08:16:47Z</time>
      </trkpt>
      <trkpt lat="52.248950405046344" lon="8.031012648716569">
        <ele>90.7421875</ele>
        <time>2026-04-13T08:16:53Z</time>
      </trkpt>
      <trkpt lat="52.248789137229323" lon="8.030867138877511">
        <ele>91.37109375</ele>
        <time>2026-04-13T08:16:57Z</time>
      </trkpt>
      <trkpt lat="52.248625857755542" lon="8.03070972673595">
        <ele>92.23046875</ele>
        <time>2026-04-13T08:17:01Z</time>
      </trkpt>
      <trkpt lat="52.248391080647707" lon="8.030487522482872">
        <ele>93.5703125</ele>
        <time>2026-04-13T08:17:07Z</time>
      </trkpt>
      <trkpt lat="52.248231908306479" lon="8.030350729823113">
        <ele>94.48046875</ele>
        <time>2026-04-13T08:17:11Z</time>
      </trkpt>
      <trkpt lat="52.248062761500478" lon="8.030185354873538">
        <ele>95.3203125</ele>
        <time>2026-04-13T08:17:15Z</time>
      </trkpt>
      <trkpt lat="52.247850950807333" lon="8.029920319095254">
        <ele>96.6484375</ele>
        <time>2026-04-13T08:17:21Z</time>
      </trkpt>
      <trkpt lat="52.247674930840731" lon="8.029656875878573">
        <ele>97.96875</ele>
        <time>2026-04-13T08:17:27Z</time>
      </trkpt>
      <trkpt lat="52.247523637488484" lon="8.029406340792775">
        <ele>99.05078125</ele>
        <time>2026-04-13T08:17:33Z</time>
      </trkpt>
      <trkpt lat="52.247374439612031" lon="8.029195284470916">
        <ele>99.75</ele>
        <time>2026-04-13T08:17:39Z</time>
      </trkpt>
      <trkpt lat="52.247198922559619" lon="8.028973499312997">
        <ele>100.1171875</ele>
        <time>2026-04-13T08:17:45Z</time>
      </trkpt>
      <trkpt lat="52.247018711641431" lon="8.028774848207831">
        <ele>99.5078125</ele>
        <time>2026-04-13T08:17:51Z</time>
      </trkpt>
      <trkpt lat="52.246829029172659" lon="8.028582064434886">
        <ele>98.05078125</ele>
        <time>2026-04-13T08:17:57Z</time>
      </trkpt>
      <trkpt lat="52.246634149923921" lon="8.028387185186148">
        <ele>95.89453125</ele>
        <time>2026-04-13T08:18:03Z</time>
      </trkpt>
      <trkpt lat="52.24644455127418" lon="8.028187109157443">
        <ele>94.87109375</ele>
        <time>2026-04-13T08:18:09Z</time>
      </trkpt>
      <trkpt lat="52.246250510215759" lon="8.027953673154116">
        <ele>96.59765625</ele>
        <time>2026-04-13T08:18:15Z</time>
      </trkpt>
      <trkpt lat="52.246043141931295" lon="8.027764158323407">
        <ele>98.609375</ele>
        <time>2026-04-13T08:18:21Z</time>
      </trkpt>
      <trkpt lat="52.245813645422459" lon="8.027571206912398">
        <ele>101.23828125</ele>
        <time>2026-04-13T08:18:27Z</time>
      </trkpt>
      <trkpt lat="52.24565195851028" lon="8.027425948530436">
        <ele>103.50390625</ele>
        <time>2026-04-13T08:18:31Z</time>
      </trkpt>
      <trkpt lat="52.24547702819109" lon="8.027309440076351">
        <ele>103.9609375</ele>
        <time>2026-04-13T08:18:35Z</time>
      </trkpt>
      <trkpt lat="52.24525474011898" lon="8.027232829481363">
        <ele>103.76953125</ele>
        <time>2026-04-13T08:18:39Z</time>
      </trkpt>
      <trkpt lat="52.24501384422183" lon="8.027188656851649">
        <ele>103.1640625</ele>
        <time>2026-04-13T08:18:43Z</time>
      </trkpt>
      <trkpt lat="52.244769595563412" lon="8.02714372985065">
        <ele>102.15625</ele>
        <time>2026-04-13T08:18:47Z</time>
      </trkpt>
      <trkpt lat="52.24452375434339" lon="8.02706703543663">
        <ele>100.359375</ele>
        <time>2026-04-13T08:18:51Z</time>
      </trkpt>
      <trkpt lat="52.244299286976457" lon="8.026986736804247">
        <ele>98.58984375</ele>
        <time>2026-04-13T08:18:55Z</time>
      </trkpt>
      <trkpt lat="52.244090912863612" lon="8.026882046833634">
        <ele>96.81640625</ele>
        <time>2026-04-13T08:18:59Z</time>
      </trkpt>
      <trkpt lat="52.243887735530734" lon="8.026777692139149">
        <ele>96</ele>
        <time>2026-04-13T08:19:03Z</time>
      </trkpt>
      <trkpt lat="52.243659412488341" lon="8.026682641357184">
        <ele>95.88671875</ele>
        <time>2026-04-13T08:19:09Z</time>
      </trkpt>
      <trkpt lat="52.243578275665641" lon="8.026961171999574">
        <ele>96</ele>
        <time>2026-04-13T08:19:15Z</time>
      </trkpt>
      <trkpt lat="52.243472160771489" lon="8.027299717068672">
        <ele>96</ele>
        <time>2026-04-13T08:19:21Z</time>
      </trkpt>
      <trkpt lat="52.2433593403548" lon="8.027679920196533">
        <ele>95.9140625</ele>
        <time>2026-04-13T08:19:27Z</time>
      </trkpt>
      <trkpt lat="52.243236042559147" lon="8.028067834675312">
        <ele>95.44921875</ele>
        <time>2026-04-13T08:19:33Z</time>
      </trkpt>
      <trkpt lat="52.243138309568167" lon="8.028437225148082">
        <ele>95.00390625</ele>
        <time>2026-04-13T08:19:39Z</time>
      </trkpt>
      <trkpt lat="52.243030769750476" lon="8.028829162940383">
        <ele>95.078125</ele>
        <time>2026-04-13T08:19:45Z</time>
      </trkpt>
      <trkpt lat="52.242908729240298" lon="8.029206683859229">
        <ele>95.28515625</ele>
        <time>2026-04-13T08:19:51Z</time>
      </trkpt>
      <trkpt lat="52.242718543857336" lon="8.029411202296615">
        <ele>95.5390625</ele>
        <time>2026-04-13T08:19:57Z</time>
      </trkpt>
      <trkpt lat="52.242553001269698" lon="8.029264770448208">
        <ele>95.73046875</ele>
        <time>2026-04-13T08:20:01Z</time>
      </trkpt>
      <trkpt lat="52.242371784523129" lon="8.02909042686224">
        <ele>95.74609375</ele>
        <time>2026-04-13T08:20:05Z</time>
      </trkpt>
      <trkpt lat="52.242187550291419" lon="8.028959082439542">
        <ele>95.33203125</ele>
        <time>2026-04-13T08:20:09Z</time>
      </trkpt>
      <trkpt lat="52.241999628022313" lon="8.02882170304656">
        <ele>94.8671875</ele>
        <time>2026-04-13T08:20:13Z</time>
      </trkpt>
      <trkpt lat="52.24182453006506" lon="8.028677115216851">
        <ele>94.49609375</ele>
        <time>2026-04-13T08:20:17Z</time>
      </trkpt>
      <trkpt lat="52.241645157337189" lon="8.028554068878293">
        <ele>94.1953125</ele>
        <time>2026-04-13T08:20:21Z</time>
      </trkpt>
      <trkpt lat="52.241467460989952" lon="8.028434123843908">
        <ele>94</ele>
        <time>2026-04-13T08:20:25Z</time>
      </trkpt>
      <trkpt lat="52.241282891482115" lon="8.028418198227882">
        <ele>94</ele>
        <time>2026-04-13T08:20:29Z</time>
      </trkpt>
      <trkpt lat="52.24102565087378" lon="8.028554320335388">
        <ele>94</ele>
        <time>2026-04-13T08:20:35Z</time>
      </trkpt>
      <trkpt lat="52.24077494814992" lon="8.028666554018855">
        <ele>94</ele>
        <time>2026-04-13T08:20:41Z</time>
      </trkpt>
      <trkpt lat="52.240743096917868" lon="8.029377171769738">
        <ele>94.01171875</ele>
        <time>2026-04-13T08:20:51Z</time>
      </trkpt>
      <trkpt lat="52.240643687546253" lon="8.029770702123642">
        <ele>93.98046875</ele>
        <time>2026-04-13T08:20:57Z</time>
      </trkpt>
      <trkpt lat="52.240539416670799" lon="8.030020399019122">
        <ele>93.859375</ele>
        <time>2026-04-13T08:21:01Z</time>
      </trkpt>
      <trkpt lat="52.240388542413712" lon="8.03036137484014">
        <ele>93.8671875</ele>
        <time>2026-04-13T08:21:07Z</time>
      </trkpt>
      <trkpt lat="52.240247558802366" lon="8.03068240173161">
        <ele>94.19140625</ele>
        <time>2026-04-13T08:21:13Z</time>
      </trkpt>
      <trkpt lat="52.240153849124908" lon="8.030973002314568">
        <ele>94.5703125</ele>
        <time>2026-04-13T08:21:19Z</time>
      </trkpt>
      <trkpt lat="52.240053350105882" lon="8.031348008662462">
        <ele>94.015625</ele>
        <time>2026-04-13T08:21:51Z</time>
      </trkpt>
      <trkpt lat="52.239991826936603" lon="8.031628970056772">
        <ele>93.46875</ele>
        <time>2026-04-13T08:21:55Z</time>
      </trkpt>
      <trkpt lat="52.23994430154562" lon="8.031963156536222">
        <ele>92.8984375</ele>
        <time>2026-04-13T08:21:59Z</time>
      </trkpt>
      <trkpt lat="52.239888142794371" lon="8.032308323308826">
        <ele>92.41796875</ele>
        <time>2026-04-13T08:22:03Z</time>
      </trkpt>
      <trkpt lat="52.239840952679515" lon="8.032645443454385">
        <ele>91.95703125</ele>
        <time>2026-04-13T08:22:07Z</time>
      </trkpt>
      <trkpt lat="52.2397864703089" lon="8.032982647418976">
        <ele>91.69921875</ele>
        <time>2026-04-13T08:22:11Z</time>
      </trkpt>
      <trkpt lat="52.239741459488869" lon="8.033288838341832">
        <ele>91.50390625</ele>
        <time>2026-04-13T08:22:15Z</time>
      </trkpt>
      <trkpt lat="52.239700052887201" lon="8.033594861626625">
        <ele>91.71484375</ele>
        <time>2026-04-13T08:22:19Z</time>
      </trkpt>
      <trkpt lat="52.239668369293213" lon="8.033930724486709">
        <ele>92.3203125</ele>
        <time>2026-04-13T08:22:25Z</time>
      </trkpt>
      <trkpt lat="52.239630399271846" lon="8.034222247079015">
        <ele>92.921875</ele>
        <time>2026-04-13T08:22:29Z</time>
      </trkpt>
      <trkpt lat="52.239565858617425" lon="8.034551069140434">
        <ele>92.96875</ele>
        <time>2026-04-13T08:22:33Z</time>
      </trkpt>
      <trkpt lat="52.239507352933288" lon="8.034888692200184">
        <ele>92.84375</ele>
        <time>2026-04-13T08:22:37Z</time>
      </trkpt>
      <trkpt lat="52.239454295486212" lon="8.035245845094323">
        <ele>92.734375</ele>
        <time>2026-04-13T08:22:41Z</time>
      </trkpt>
      <trkpt lat="52.239400986582041" lon="8.035578606650233">
        <ele>92.8515625</ele>
        <time>2026-04-13T08:22:45Z</time>
      </trkpt>
      <trkpt lat="52.239341977983713" lon="8.03590583615005">
        <ele>93.171875</ele>
        <time>2026-04-13T08:22:49Z</time>
      </trkpt>
      <trkpt lat="52.239292357116938" lon="8.036221247166395">
        <ele>94.02734375</ele>
        <time>2026-04-13T08:22:53Z</time>
      </trkpt>
      <trkpt lat="52.239231588318944" lon="8.036639420315623">
        <ele>95.31640625</ele>
        <time>2026-04-13T08:22:59Z</time>
      </trkpt>
      <trkpt lat="52.239160258322954" lon="8.037032447755337">
        <ele>96.88671875</ele>
        <time>2026-04-13T08:23:05Z</time>
      </trkpt>
      <trkpt lat="52.239097310230136" lon="8.037393540143967">
        <ele>98.41015625</ele>
        <time>2026-04-13T08:23:11Z</time>
      </trkpt>
      <trkpt lat="52.239048611372709" lon="8.037728229537606">
        <ele>99.9296875</ele>
        <time>2026-04-13T08:23:17Z</time>
      </trkpt>
      <trkpt lat="52.239010222256184" lon="8.038027798756957">
        <ele>101.46484375</ele>
        <time>2026-04-13T08:23:23Z</time>
      </trkpt>
      <trkpt lat="52.238977951928973" lon="8.038388220593333">
        <ele>102.8984375</ele>
        <time>2026-04-13T08:23:31Z</time>
      </trkpt>
      <trkpt lat="52.238922463729978" lon="8.038720060139895">
        <ele>103.1953125</ele>
        <time>2026-04-13T08:23:39Z</time>
      </trkpt>
      <trkpt lat="52.238870747387409" lon="8.039053743705154">
        <ele>103.3203125</ele>
        <time>2026-04-13T08:23:47Z</time>
      </trkpt>
      <trkpt lat="52.238819198682904" lon="8.039386421442032">
        <ele>103.76171875</ele>
        <time>2026-04-13T08:23:55Z</time>
      </trkpt>
      <trkpt lat="52.238762117922306" lon="8.039671992883086">
        <ele>104.69140625</ele>
        <time>2026-04-13T08:24:03Z</time>
      </trkpt>
      <trkpt lat="52.238588780164719" lon="8.039898052811623">
        <ele>105.88671875</ele>
        <time>2026-04-13T08:24:11Z</time>
      </trkpt>
      <trkpt lat="52.238432792946696" lon="8.040106762200594">
        <ele>107.08203125</ele>
        <time>2026-04-13T08:24:19Z</time>
      </trkpt>
      <trkpt lat="52.238246630877256" lon="8.040325110778213">
        <ele>108.36328125</ele>
        <time>2026-04-13T08:24:29Z</time>
      </trkpt>
      <trkpt lat="52.238112268969417" lon="8.040571035817266">
        <ele>109.07421875</ele>
        <time>2026-04-13T08:24:39Z</time>
      </trkpt>
      <trkpt lat="52.237969357520342" lon="8.040773710235953">
        <ele>109.671875</ele>
        <time>2026-04-13T08:24:47Z</time>
      </trkpt>
      <trkpt lat="52.237775316461921" lon="8.040970601141453">
        <ele>110.5625</ele>
        <time>2026-04-13T08:24:55Z</time>
      </trkpt>
      <trkpt lat="52.237624358385801" lon="8.041144022718072">
        <ele>111.16015625</ele>
        <time>2026-04-13T08:25:01Z</time>
      </trkpt>
      <trkpt lat="52.237466359511018" lon="8.041325323283672">
        <ele>111.78515625</ele>
        <time>2026-04-13T08:25:07Z</time>
      </trkpt>
      <trkpt lat="52.237308863550425" lon="8.041509389877319">
        <ele>112.2109375</ele>
        <time>2026-04-13T08:25:13Z</time>
      </trkpt>
      <trkpt lat="52.237145332619548" lon="8.041695635765791">
        <ele>111.6875</ele>
        <time>2026-04-13T08:25:19Z</time>
      </trkpt>
      <trkpt lat="52.236989513039589" lon="8.041879953816533">
        <ele>110.80078125</ele>
        <time>2026-04-13T08:25:23Z</time>
      </trkpt>
      <trkpt lat="52.236833609640598" lon="8.042065445333719">
        <ele>109.90234375</ele>
        <time>2026-04-13T08:25:27Z</time>
      </trkpt>
      <trkpt lat="52.236672090366483" lon="8.042249176651239">
        <ele>109.23046875</ele>
        <time>2026-04-13T08:25:31Z</time>
      </trkpt>
      <trkpt lat="52.236486850306392" lon="8.042438020929694">
        <ele>108.625</ele>
        <time>2026-04-13T08:25:35Z</time>
      </trkpt>
      <trkpt lat="52.236220054328442" lon="8.042675480246544">
        <ele>106.1015625</ele>
        <time>2026-04-13T08:25:39Z</time>
      </trkpt>
      <trkpt lat="52.236052751541138" lon="8.042798945680261">
        <ele>104.296875</ele>
        <time>2026-04-13T08:25:41Z</time>
      </trkpt>
      <trkpt lat="52.235726611688733" lon="8.042989633977413">
        <ele>101.015625</ele>
        <time>2026-04-13T08:25:45Z</time>
      </trkpt>
      <trkpt lat="52.235415978357196" lon="8.042970187962055">
        <ele>98.83984375</ele>
        <time>2026-04-13T08:25:49Z</time>
      </trkpt>
      <trkpt lat="52.235056646168232" lon="8.042952921241522">
        <ele>96.44921875</ele>
        <time>2026-04-13T08:25:53Z</time>
      </trkpt>
      <trkpt lat="52.234726650640368" lon="8.042788719758391">
        <ele>94.453125</ele>
        <time>2026-04-13T08:25:57Z</time>
      </trkpt>
      <trkpt lat="52.234442168846726" lon="8.042551847174764">
        <ele>93.2890625</ele>
        <time>2026-04-13T08:26:01Z</time>
      </trkpt>
      <trkpt lat="52.234131619334221" lon="8.042459981516004">
        <ele>92.2421875</ele>
        <time>2026-04-13T08:26:05Z</time>
      </trkpt>
      <trkpt lat="52.233816040679812" lon="8.042338527739048">
        <ele>91.89453125</ele>
        <time>2026-04-13T08:26:09Z</time>
      </trkpt>
      <trkpt lat="52.233503479510546" lon="8.042178684845567">
        <ele>91.4921875</ele>
        <time>2026-04-13T08:26:13Z</time>
      </trkpt>
      <trkpt lat="52.233196031302214" lon="8.042164100334048">
        <ele>90.54296875</ele>
        <time>2026-04-13T08:26:17Z</time>
      </trkpt>
      <trkpt lat="52.232905765995383" lon="8.042303826659918">
        <ele>91.0625</ele>
        <time>2026-04-13T08:26:21Z</time>
      </trkpt>
      <trkpt lat="52.232703510671854" lon="8.042520582675934">
        <ele>91.9296875</ele>
        <time>2026-04-13T08:26:25Z</time>
      </trkpt>
      <trkpt lat="52.232637209817767" lon="8.042820570990443">
        <ele>92.7265625</ele>
        <time>2026-04-13T08:26:29Z</time>
      </trkpt>
      <trkpt lat="52.232606280595064" lon="8.043150566518307">
        <ele>93.4765625</ele>
        <time>2026-04-13T08:26:33Z</time>
      </trkpt>
      <trkpt lat="52.23256696946919" lon="8.043448040261865">
        <ele>94.24609375</ele>
        <time>2026-04-13T08:26:37Z</time>
      </trkpt>
      <trkpt lat="52.232500081881881" lon="8.043806198984385">
        <ele>95.77734375</ele>
        <time>2026-04-13T08:26:43Z</time>
      </trkpt>
      <trkpt lat="52.232432020828128" lon="8.044120604172349">
        <ele>97.15234375</ele>
        <time>2026-04-13T08:26:49Z</time>
      </trkpt>
      <trkpt lat="52.232267735525966" lon="8.044265443459153">
        <ele>98.08984375</ele>
        <time>2026-04-13T08:26:55Z</time>
      </trkpt>
      <trkpt lat="52.232040921226144" lon="8.044133260846138">
        <ele>97.88671875</ele>
        <time>2026-04-13T08:27:01Z</time>
      </trkpt>
      <trkpt lat="52.231813352555037" lon="8.044023457914591">
        <ele>97.76171875</ele>
        <time>2026-04-13T08:27:07Z</time>
      </trkpt>
      <trkpt lat="52.231587376445532" lon="8.043878702446818">
        <ele>97.51171875</ele>
        <time>2026-04-13T08:27:13Z</time>
      </trkpt>
      <trkpt lat="52.231380008161068" lon="8.043675189837813">
        <ele>96.71875</ele>
        <time>2026-04-13T08:27:19Z</time>
      </trkpt>
      <trkpt lat="52.231136849150062" lon="8.043561363592744">
        <ele>96.015625</ele>
        <time>2026-04-13T08:27:25Z</time>
      </trkpt>
      <trkpt lat="52.230871897190809" lon="8.043428678065538">
        <ele>95.234375</ele>
        <time>2026-04-13T08:27:31Z</time>
      </trkpt>
      <trkpt lat="52.230676850304008" lon="8.043306805193424">
        <ele>95</ele>
        <time>2026-04-13T08:27:35Z</time>
      </trkpt>
      <trkpt lat="52.230482222512364" lon="8.043175963684917">
        <ele>94.4453125</ele>
        <time>2026-04-13T08:27:39Z</time>
      </trkpt>
      <trkpt lat="52.230277368798852" lon="8.043019641190767">
        <ele>94.0390625</ele>
        <time>2026-04-13T08:27:43Z</time>
      </trkpt>
      <trkpt lat="52.230072598904371" lon="8.042852757498622">
        <ele>93.8359375</ele>
        <time>2026-04-13T08:27:47Z</time>
      </trkpt>
      <trkpt lat="52.229873863980174" lon="8.042661231011152">
        <ele>93.89453125</ele>
        <time>2026-04-13T08:27:51Z</time>
      </trkpt>
      <trkpt lat="52.229686863720417" lon="8.042385885491967">
        <ele>93.4375</ele>
        <time>2026-04-13T08:27:55Z</time>
      </trkpt>
      <trkpt lat="52.22950330004096" lon="8.042129315435886">
        <ele>92.7734375</ele>
        <time>2026-04-13T08:27:59Z</time>
      </trkpt>
      <trkpt lat="52.2293337341398" lon="8.041869476437569">
        <ele>92.1640625</ele>
        <time>2026-04-13T08:28:03Z</time>
      </trkpt>
      <trkpt lat="52.229182356968522" lon="8.04157929494977">
        <ele>91.9375</ele>
        <time>2026-04-13T08:28:07Z</time>
      </trkpt>
      <trkpt lat="52.229030393064022" lon="8.041265560314059">
        <ele>91.703125</ele>
        <time>2026-04-13T08:28:11Z</time>
      </trkpt>
      <trkpt lat="52.228905754163861" lon="8.040911760181189">
        <ele>91.51953125</ele>
        <time>2026-04-13T08:28:15Z</time>
      </trkpt>
      <trkpt lat="52.228849930688739" lon="8.040485624223948">
        <ele>91.6640625</ele>
        <time>2026-04-13T08:28:19Z</time>
      </trkpt>
      <trkpt lat="52.228735601529479" lon="8.040121346712112">
        <ele>91.33203125</ele>
        <time>2026-04-13T08:28:23Z</time>
      </trkpt>
      <trkpt lat="52.228485736995935" lon="8.039986398071051">
        <ele>89.6953125</ele>
        <time>2026-04-13T08:28:27Z</time>
      </trkpt>
      <trkpt lat="52.228229250758886" lon="8.039946500211954">
        <ele>88.2734375</ele>
        <time>2026-04-13T08:28:31Z</time>
      </trkpt>
      <trkpt lat="52.227983493357897" lon="8.039831919595599">
        <ele>87.375</ele>
        <time>2026-04-13T08:28:35Z</time>
      </trkpt>
      <trkpt lat="52.227729856967926" lon="8.039654642343521">
        <ele>86.67578125</ele>
        <time>2026-04-13T08:28:39Z</time>
      </trkpt>
      <trkpt lat="52.22748720087111" lon="8.039452135562897">
        <ele>86.16015625</ele>
        <time>2026-04-13T08:28:43Z</time>
      </trkpt>
      <trkpt lat="52.22721847705543" lon="8.039377955719829">
        <ele>85.4140625</ele>
        <time>2026-04-13T08:28:47Z</time>
      </trkpt>
      <trkpt lat="52.226940952241421" lon="8.039367645978928">
        <ele>84.42578125</ele>
        <time>2026-04-13T08:28:51Z</time>
      </trkpt>
      <trkpt lat="52.226672396063805" lon="8.039323892444372">
        <ele>83.51171875</ele>
        <time>2026-04-13T08:28:55Z</time>
      </trkpt>
      <trkpt lat="52.226372575387359" lon="8.039212077856064">
        <ele>82.8984375</ele>
        <time>2026-04-13T08:28:59Z</time>
      </trkpt>
      <trkpt lat="52.226069401949644" lon="8.039101772010326">
        <ele>82.66796875</ele>
        <time>2026-04-13T08:29:03Z</time>
      </trkpt>
      <trkpt lat="52.225777208805084" lon="8.039025161415339">
        <ele>82.41015625</ele>
        <time>2026-04-13T08:29:07Z</time>
      </trkpt>
      <trkpt lat="52.225493649020791" lon="8.038955088704824">
        <ele>81.9296875</ele>
        <time>2026-04-13T08:29:11Z</time>
      </trkpt>
      <trkpt lat="52.225225679576397" lon="8.038885518908501">
        <ele>81.37109375</ele>
        <time>2026-04-13T08:29:15Z</time>
      </trkpt>
      <trkpt lat="52.224967181682587" lon="8.038753587752581">
        <ele>80.90625</ele>
        <time>2026-04-13T08:29:19Z</time>
      </trkpt>
      <trkpt lat="52.224737852811813" lon="8.038549069315195">
        <ele>80.28125</ele>
        <time>2026-04-13T08:29:23Z</time>
      </trkpt>
      <trkpt lat="52.22450559027493" lon="8.038529455661774">
        <ele>79.0234375</ele>
        <time>2026-04-13T08:29:27Z</time>
      </trkpt>
      <trkpt lat="52.224277602508664" lon="8.038667505607009">
        <ele>78.06640625</ele>
        <time>2026-04-13T08:29:31Z</time>
      </trkpt>
      <trkpt lat="52.224065624177456" lon="8.038801699876785">
        <ele>77.51953125</ele>
        <time>2026-04-13T08:29:35Z</time>
      </trkpt>
      <trkpt lat="52.223864290863276" lon="8.038934636861086">
        <ele>77.796875</ele>
        <time>2026-04-13T08:29:39Z</time>
      </trkpt>
      <trkpt lat="52.22367636859417" lon="8.039070591330528">
        <ele>77.95703125</ele>
        <time>2026-04-13T08:29:43Z</time>
      </trkpt>
      <trkpt lat="52.223481489345431" lon="8.039197660982609">
        <ele>77.73828125</ele>
        <time>2026-04-13T08:29:47Z</time>
      </trkpt>
      <trkpt lat="52.22326347604394" lon="8.039277791976929">
        <ele>77.20703125</ele>
        <time>2026-04-13T08:29:51Z</time>
      </trkpt>
      <trkpt lat="52.223035991191864" lon="8.039313666522503">
        <ele>77.72265625</ele>
        <time>2026-04-13T08:29:55Z</time>
      </trkpt>
      <trkpt lat="52.222820492461324" lon="8.039338225498796">
        <ele>78.70703125</ele>
        <time>2026-04-13T08:29:59Z</time>
      </trkpt>
      <trkpt lat="52.222621841356158" lon="8.039272930473089">
        <ele>79.6796875</ele>
        <time>2026-04-13T08:30:03Z</time>
      </trkpt>
      <trkpt lat="52.222441798076034" lon="8.039183830842376">
        <ele>80.75390625</ele>
        <time>2026-04-13T08:30:07Z</time>
      </trkpt>
      <trkpt lat="52.222282709553838" lon="8.039019126445055">
        <ele>81.8671875</ele>
        <time>2026-04-13T08:30:11Z</time>
      </trkpt>
      <trkpt lat="52.222115071490407" lon="8.038891637697816">
        <ele>82.76953125</ele>
        <time>2026-04-13T08:30:15Z</time>
      </trkpt>
      <trkpt lat="52.22194517031312" lon="8.038786528632045">
        <ele>83.53125</ele>
        <time>2026-04-13T08:30:19Z</time>
      </trkpt>
      <trkpt lat="52.221739562228322" lon="8.038640599697828">
        <ele>84.328125</ele>
        <time>2026-04-13T08:30:25Z</time>
      </trkpt>
      <trkpt lat="52.221547532826662" lon="8.038523672148585">
        <ele>84.9140625</ele>
        <time>2026-04-13T08:30:31Z</time>
      </trkpt>
      <trkpt lat="52.221380230039358" lon="8.038383359089494">
        <ele>85.69921875</ele>
        <time>2026-04-13T08:30:37Z</time>
      </trkpt>
      <trkpt lat="52.221186188980937" lon="8.03824245929718">
        <ele>86.71875</ele>
        <time>2026-04-13T08:30:43Z</time>
      </trkpt>
      <trkpt lat="52.221018299460411" lon="8.038083454594016">
        <ele>87.55859375</ele>
        <time>2026-04-13T08:30:49Z</time>
      </trkpt>
      <trkpt lat="52.220843955874443" lon="8.037963341921568">
        <ele>88.33203125</ele>
        <time>2026-04-13T08:30:55Z</time>
      </trkpt>
      <trkpt lat="52.22065569832921" lon="8.037885557860136">
        <ele>89.140625</ele>
        <time>2026-04-13T08:31:01Z</time>
      </trkpt>
      <trkpt lat="52.220469368621707" lon="8.03784959949553">
        <ele>90.09765625</ele>
        <time>2026-04-13T08:31:07Z</time>
      </trkpt>
      <trkpt lat="52.220288151875138" lon="8.037827890366316">
        <ele>91.01953125</ele>
        <time>2026-04-13T08:31:13Z</time>
      </trkpt>
      <trkpt lat="52.220100900158286" lon="8.037801738828421">
        <ele>91.9609375</ele>
        <time>2026-04-13T08:31:19Z</time>
      </trkpt>
      <trkpt lat="52.219867212697864" lon="8.037781789898872">
        <ele>93.125</ele>
        <time>2026-04-13T08:31:27Z</time>
      </trkpt>
      <trkpt lat="52.219648696482182" lon="8.037774916738272">
        <ele>93.6875</ele>
        <time>2026-04-13T08:31:35Z</time>
      </trkpt>
      <trkpt lat="52.219422468915582" lon="8.03782956674695">
        <ele>94.296875</ele>
        <time>2026-04-13T08:31:43Z</time>
      </trkpt>
      <trkpt lat="52.219238569959998" lon="8.037887569516897">
        <ele>94.80859375</ele>
        <time>2026-04-13T08:31:49Z</time>
      </trkpt>
      <trkpt lat="52.21902659162879" lon="8.037972562015057">
        <ele>95.421875</ele>
        <time>2026-04-13T08:31:55Z</time>
      </trkpt>
      <trkpt lat="52.218819139525294" lon="8.03802939131856">
        <ele>95.51171875</ele>
        <time>2026-04-13T08:32:01Z</time>
      </trkpt>
      <trkpt lat="52.218633312731981" lon="8.038091668859124">
        <ele>95.5859375</ele>
        <time>2026-04-13T08:32:07Z</time>
      </trkpt>
      <trkpt lat="52.218438098207116" lon="8.038160903379321">
        <ele>95.671875</ele>
        <time>2026-04-13T08:32:13Z</time>
      </trkpt>
      <trkpt lat="52.218246990814805" lon="8.038248745724559">
        <ele>95.77734375</ele>
        <time>2026-04-13T08:32:19Z</time>
      </trkpt>
      <trkpt lat="52.218043729662895" lon="8.038349244743586">
        <ele>95.59375</ele>
        <time>2026-04-13T08:32:25Z</time>
      </trkpt>
      <trkpt lat="52.217827560380101" lon="8.038389226421714">
        <ele>95.13671875</ele>
        <time>2026-04-13T08:32:31Z</time>
      </trkpt>
      <trkpt lat="52.2175875864923" lon="8.038438009098172">
        <ele>94.5703125</ele>
        <time>2026-04-13T08:32:37Z</time>
      </trkpt>
      <trkpt lat="52.217333950102329" lon="8.038483019918203">
        <ele>94.078125</ele>
        <time>2026-04-13T08:32:43Z</time>
      </trkpt>
      <trkpt lat="52.217068411409855" lon="8.038512608036399">
        <ele>94.40234375</ele>
        <time>2026-04-13T08:32:49Z</time>
      </trkpt>
      <trkpt lat="52.216885350644588" lon="8.038518643006682">
        <ele>94.6015625</ele>
        <time>2026-04-13T08:32:53Z</time>
      </trkpt>
      <trkpt lat="52.216680496931076" lon="8.038551332429051">
        <ele>94.83203125</ele>
        <time>2026-04-13T08:32:57Z</time>
      </trkpt>
      <trkpt lat="52.216457957401872" lon="8.038623249158263">
        <ele>94.87109375</ele>
        <time>2026-04-13T08:33:01Z</time>
      </trkpt>
      <trkpt lat="52.216233909130096" lon="8.038693573325872">
        <ele>94.421875</ele>
        <time>2026-04-13T08:33:05Z</time>
      </trkpt>
      <trkpt lat="52.216017991304398" lon="8.038792228326201">
        <ele>94.0546875</ele>
        <time>2026-04-13T08:33:09Z</time>
      </trkpt>
      <trkpt lat="52.215816238895059" lon="8.03886448033154">
        <ele>93.75</ele>
        <time>2026-04-13T08:33:13Z</time>
      </trkpt>
      <trkpt lat="52.215629909187555" lon="8.03895047865808">
        <ele>93.6171875</ele>
        <time>2026-04-13T08:33:17Z</time>
      </trkpt>
      <trkpt lat="52.215444752946496" lon="8.039021892473102">
        <ele>93.703125</ele>
        <time>2026-04-13T08:33:21Z</time>
      </trkpt>
      <trkpt lat="52.21523093059659" lon="8.039137059822679">
        <ele>93.84375</ele>
        <time>2026-04-13T08:33:27Z</time>
      </trkpt>
      <trkpt lat="52.215069495141506" lon="8.039313079789281">
        <ele>93.984375</ele>
        <time>2026-04-13T08:33:33Z</time>
      </trkpt>
      <trkpt lat="52.215034458786249" lon="8.039724547415972">
        <ele>93.87890625</ele>
        <time>2026-04-13T08:33:39Z</time>
      </trkpt>
      <trkpt lat="52.215016689151525" lon="8.040031744167209">
        <ele>93.8203125</ele>
        <time>2026-04-13T08:33:43Z</time>
      </trkpt>
      <trkpt lat="52.21499933861196" lon="8.040339443832636">
        <ele>93.58984375</ele>
        <time>2026-04-13T08:33:47Z</time>
      </trkpt>
      <trkpt lat="52.214991878718138" lon="8.040652759373188">
        <ele>93.28125</ele>
        <time>2026-04-13T08:33:51Z</time>
      </trkpt>
      <trkpt lat="52.214804291725159" lon="8.041158355772495">
        <ele>93.05859375</ele>
        <time>2026-04-13T08:33:59Z</time>
      </trkpt>
      <trkpt lat="52.214691890403628" lon="8.041416434571147">
        <ele>93.19140625</ele>
        <time>2026-04-13T08:34:03Z</time>
      </trkpt>
      <trkpt lat="52.214581500738859" lon="8.04167753085494">
        <ele>93.32421875</ele>
        <time>2026-04-13T08:34:07Z</time>
      </trkpt>
      <trkpt lat="52.214486701413989" lon="8.041938878595829">
        <ele>93.64453125</ele>
        <time>2026-04-13T08:34:11Z</time>
      </trkpt>
      <trkpt lat="52.214394332841039" lon="8.042201483622193">
        <ele>94.0703125</ele>
        <time>2026-04-13T08:34:15Z</time>
      </trkpt>
      <trkpt lat="52.214239351451397" lon="8.042555199936032">
        <ele>94.68359375</ele>
        <time>2026-04-13T08:34:21Z</time>
      </trkpt>
      <trkpt lat="52.214023182168603" lon="8.04279743693769">
        <ele>95.46875</ele>
        <time>2026-04-13T08:34:27Z</time>
      </trkpt>
      <trkpt lat="52.213803911581635" lon="8.042942360043526">
        <ele>95.77734375</ele>
        <time>2026-04-13T08:34:33Z</time>
      </trkpt>
      <trkpt lat="52.213595788925886" lon="8.043125085532665">
        <ele>96.39453125</ele>
        <time>2026-04-13T08:34:39Z</time>
      </trkpt>
      <trkpt lat="52.21342546865344" lon="8.043352654203773">
        <ele>97.38671875</ele>
        <time>2026-04-13T08:34:45Z</time>
      </trkpt>
      <trkpt lat="52.213279707357287" lon="8.043622048571706">
        <ele>98.3671875</ele>
        <time>2026-04-13T08:34:51Z</time>
      </trkpt>
      <trkpt lat="52.213164959102869" lon="8.043917510658503">
        <ele>99.1015625</ele>
        <time>2026-04-13T08:34:57Z</time>
      </trkpt>
      <trkpt lat="52.21308340318501" lon="8.04423644207418">
        <ele>99.67578125</ele>
        <time>2026-04-13T08:35:03Z</time>
      </trkpt>
      <trkpt lat="52.213026490062475" lon="8.04455847479403">
        <ele>100.03515625</ele>
        <time>2026-04-13T08:35:09Z</time>
      </trkpt>
      <trkpt lat="52.212963290512562" lon="8.04488729685545">
        <ele>100.41015625</ele>
        <time>2026-04-13T08:35:15Z</time>
      </trkpt>
      <trkpt lat="52.212901851162314" lon="8.045192062854767">
        <ele>100.73046875</ele>
        <time>2026-04-13T08:35:21Z</time>
      </trkpt>
      <trkpt lat="52.212855499237776" lon="8.045483669266105">
        <ele>100.87890625</ele>
        <time>2026-04-13T08:35:27Z</time>
      </trkpt>
      <trkpt lat="52.212809985503554" lon="8.045808719471097">
        <ele>101.015625</ele>
        <time>2026-04-13T08:35:33Z</time>
      </trkpt>
      <trkpt lat="52.212773188948631" lon="8.046157658100128">
        <ele>101.41796875</ele>
        <time>2026-04-13T08:35:39Z</time>
      </trkpt>
      <trkpt lat="52.212754832580686" lon="8.046518079936504">
        <ele>101.98046875</ele>
        <time>2026-04-13T08:35:45Z</time>
      </trkpt>
      <trkpt lat="52.21274770796299" lon="8.046900546178222">
        <ele>102.44140625</ele>
        <time>2026-04-13T08:35:51Z</time>
      </trkpt>
      <trkpt lat="52.212733794003725" lon="8.047295501455665">
        <ele>102.5703125</ele>
        <time>2026-04-13T08:35:57Z</time>
      </trkpt>
      <trkpt lat="52.212705882266164" lon="8.047690540552139">
        <ele>102.984375</ele>
        <time>2026-04-13T08:36:03Z</time>
      </trkpt>
      <trkpt lat="52.212671265006065" lon="8.048066552728415">
        <ele>104.54296875</ele>
        <time>2026-04-13T08:36:09Z</time>
      </trkpt>
      <trkpt lat="52.212616866454482" lon="8.048434183001518">
        <ele>105.96484375</ele>
        <time>2026-04-13T08:36:15Z</time>
      </trkpt>
      <trkpt lat="52.212546123191714" lon="8.048756299540401">
        <ele>110.2734375</ele>
        <time>2026-04-13T08:36:21Z</time>
      </trkpt>
      <trkpt lat="52.212437661364675" lon="8.049049582332373">
        <ele>113.6875</ele>
        <time>2026-04-13T08:36:27Z</time>
      </trkpt>
      <trkpt lat="52.212308412417769" lon="8.049321491271257">
        <ele>116.203125</ele>
        <time>2026-04-13T08:36:33Z</time>
      </trkpt>
      <trkpt lat="52.212129374966025" lon="8.04953564889729">
        <ele>116.8828125</ele>
        <time>2026-04-13T08:36:39Z</time>
      </trkpt>
      <trkpt lat="52.21190189011395" lon="8.049660539254546">
        <ele>116.21875</ele>
        <time>2026-04-13T08:36:45Z</time>
      </trkpt>
      <trkpt lat="52.211679350584745" lon="8.049748465418816">
        <ele>115.24609375</ele>
        <time>2026-04-13T08:36:51Z</time>
      </trkpt>
      <trkpt lat="52.211488578468561" lon="8.049900764599443">
        <ele>115.0625</ele>
        <time>2026-04-13T08:36:57Z</time>
      </trkpt>
      <trkpt lat="52.211364442482591" lon="8.050130512565374">
        <ele>115.01171875</ele>
        <time>2026-04-13T08:37:03Z</time>
      </trkpt>
      <trkpt lat="52.211267044767737" lon="8.050459669902921">
        <ele>115</ele>
        <time>2026-04-13T08:37:11Z</time>
      </trkpt>
      <trkpt lat="52.211163779720664" lon="8.050713138654828">
        <ele>114.4140625</ele>
        <time>2026-04-13T08:37:17Z</time>
      </trkpt>
      <trkpt lat="52.211041068658233" lon="8.051101388409734">
        <ele>113.87890625</ele>
        <time>2026-04-13T08:37:23Z</time>
      </trkpt>
      <trkpt lat="52.210916262120008" lon="8.051453344523907">
        <ele>112.4296875</ele>
        <time>2026-04-13T08:37:27Z</time>
      </trkpt>
      <trkpt lat="52.210742589086294" lon="8.051890879869461">
        <ele>109.6328125</ele>
        <time>2026-04-13T08:37:31Z</time>
      </trkpt>
      <trkpt lat="52.210592636838555" lon="8.052420951426029">
        <ele>107.1953125</ele>
        <time>2026-04-13T08:37:35Z</time>
      </trkpt>
      <trkpt lat="52.210518289357424" lon="8.052721777930856">
        <ele>105.7421875</ele>
        <time>2026-04-13T08:37:37Z</time>
      </trkpt>
      <trkpt lat="52.210452239960432" lon="8.053041631355882">
        <ele>104.1953125</ele>
        <time>2026-04-13T08:37:39Z</time>
      </trkpt>
      <trkpt lat="52.210423490032554" lon="8.053361400961876">
        <ele>103.61328125</ele>
        <time>2026-04-13T08:37:41Z</time>
      </trkpt>
      <trkpt lat="52.21030455082655" lon="8.053926676511765">
        <ele>101.05859375</ele>
        <time>2026-04-13T08:37:45Z</time>
      </trkpt>
      <trkpt lat="52.210233891382813" lon="8.054227586835623">
        <ele>99.609375</ele>
        <time>2026-04-13T08:37:47Z</time>
      </trkpt>
      <trkpt lat="52.210213020443916" lon="8.054533945396543">
        <ele>98.1640625</ele>
        <time>2026-04-13T08:37:49Z</time>
      </trkpt>
      <trkpt lat="52.210234310477972" lon="8.0550766736269">
        <ele>96.515625</ele>
        <time>2026-04-13T08:37:53Z</time>
      </trkpt>
      <trkpt lat="52.210315195843577" lon="8.055577073246241">
        <ele>97.62109375</ele>
        <time>2026-04-13T08:37:57Z</time>
      </trkpt>
      <trkpt lat="52.21039054915309" lon="8.056042436510325">
        <ele>98.83984375</ele>
        <time>2026-04-13T08:38:01Z</time>
      </trkpt>
      <trkpt lat="52.210416533052921" lon="8.056381233036518">
        <ele>99.640625</ele>
        <time>2026-04-13T08:38:05Z</time>
      </trkpt>
      <trkpt lat="52.210458358749747" lon="8.056792197749019">
        <ele>100.7265625</ele>
        <time>2026-04-13T08:38:11Z</time>
      </trkpt>
      <trkpt lat="52.210512924939394" lon="8.057132251560688">
        <ele>100.32421875</ele>
        <time>2026-04-13T08:38:17Z</time>
      </trkpt>
      <trkpt lat="52.210599426180124" lon="8.057461995631456">
        <ele>100.28515625</ele>
        <time>2026-04-13T08:38:23Z</time>
      </trkpt>
      <trkpt lat="52.210680563002825" lon="8.057814706116915">
        <ele>100.61328125</ele>
        <time>2026-04-13T08:38:29Z</time>
      </trkpt>
      <trkpt lat="52.210740242153406" lon="8.058163560926914">
        <ele>101.53515625</ele>
        <time>2026-04-13T08:38:35Z</time>
      </trkpt>
      <trkpt lat="52.210770668461919" lon="8.058533705770969">
        <ele>101.9765625</ele>
        <time>2026-04-13T08:38:41Z</time>
      </trkpt>
      <trkpt lat="52.210814254358411" lon="8.058859510347247">
        <ele>103.0234375</ele>
        <time>2026-04-13T08:38:47Z</time>
      </trkpt>
      <trkpt lat="52.210870748385787" lon="8.059198055416346">
        <ele>104.37890625</ele>
        <time>2026-04-13T08:38:53Z</time>
      </trkpt>
      <trkpt lat="52.210940318182111" lon="8.059481279924512">
        <ele>105.61328125</ele>
        <time>2026-04-13T08:38:59Z</time>
      </trkpt>
      <trkpt lat="52.210985161364079" lon="8.059785710647702">
        <ele>106.03515625</ele>
        <time>2026-04-13T08:39:05Z</time>
      </trkpt>
      <trkpt lat="52.211023047566414" lon="8.060099445283413">
        <ele>106.1953125</ele>
        <time>2026-04-13T08:39:11Z</time>
      </trkpt>
      <trkpt lat="52.211057329550385" lon="8.060432123020291">
        <ele>105.78515625</ele>
        <time>2026-04-13T08:39:17Z</time>
      </trkpt>
      <trkpt lat="52.211093539372087" lon="8.060785001143813">
        <ele>105.26953125</ele>
        <time>2026-04-13T08:39:23Z</time>
      </trkpt>
      <trkpt lat="52.211126815527678" lon="8.061172747984529">
        <ele>104.8203125</ele>
        <time>2026-04-13T08:39:29Z</time>
      </trkpt>
      <trkpt lat="52.211174089461565" lon="8.061536690220237">
        <ele>104.85546875</ele>
        <time>2026-04-13T08:39:35Z</time>
      </trkpt>
      <trkpt lat="52.211226727813482" lon="8.06189845316112">
        <ele>104.95703125</ele>
        <time>2026-04-13T08:39:41Z</time>
      </trkpt>
      <trkpt lat="52.211279952898622" lon="8.062267005443573">
        <ele>104.79296875</ele>
        <time>2026-04-13T08:39:47Z</time>
      </trkpt>
      <trkpt lat="52.211297554895282" lon="8.062568670138717">
        <ele>104.10546875</ele>
        <time>2026-04-13T08:39:51Z</time>
      </trkpt>
      <trkpt lat="52.211297135800123" lon="8.062895145267248">
        <ele>103.5</ele>
        <time>2026-04-13T08:39:55Z</time>
      </trkpt>
      <trkpt lat="52.211277857422829" lon="8.063269481062889">
        <ele>102.625</ele>
        <time>2026-04-13T08:39:59Z</time>
      </trkpt>
      <trkpt lat="52.211248856037855" lon="8.063586400821805">
        <ele>101.51953125</ele>
        <time>2026-04-13T08:40:03Z</time>
      </trkpt>
      <trkpt lat="52.211079793050885" lon="8.063797038048506">
        <ele>99.37890625</ele>
        <time>2026-04-13T08:40:09Z</time>
      </trkpt>
      <trkpt lat="52.210795730352402" lon="8.063761917874217">
        <ele>96.94921875</ele>
        <time>2026-04-13T08:40:13Z</time>
      </trkpt>
      <trkpt lat="52.210482498630881" lon="8.063743310049176">
        <ele>94.36328125</ele>
        <time>2026-04-13T08:40:17Z</time>
      </trkpt>
      <trkpt lat="52.210120400413871" lon="8.063739370554686">
        <ele>91.48828125</ele>
        <time>2026-04-13T08:40:21Z</time>
      </trkpt>
      <trkpt lat="52.209928790107369" lon="8.06376351043582">
        <ele>89.9921875</ele>
        <time>2026-04-13T08:40:23Z</time>
      </trkpt>
      <trkpt lat="52.209742376580834" lon="8.06383928284049">
        <ele>89.1640625</ele>
        <time>2026-04-13T08:40:25Z</time>
      </trkpt>
      <trkpt lat="52.209573984146118" lon="8.063976829871535">
        <ele>88.765625</ele>
        <time>2026-04-13T08:40:27Z</time>
      </trkpt>
      <trkpt lat="52.209299141541123" lon="8.064292995259166">
        <ele>87.96484375</ele>
        <time>2026-04-13T08:40:31Z</time>
      </trkpt>
      <trkpt lat="52.209049696102738" lon="8.064622320234776">
        <ele>87.06640625</ele>
        <time>2026-04-13T08:40:35Z</time>
      </trkpt>
      <trkpt lat="52.208849787712097" lon="8.064872939139605">
        <ele>87.46484375</ele>
        <time>2026-04-13T08:40:39Z</time>
      </trkpt>
      <trkpt lat="52.208675108850002" lon="8.065062370151281">
        <ele>88.21875</ele>
        <time>2026-04-13T08:40:43Z</time>
      </trkpt>
      <trkpt lat="52.208492550998926" lon="8.065121714025736">
        <ele>88.8828125</ele>
        <time>2026-04-13T08:40:47Z</time>
      </trkpt>
      <trkpt lat="52.208294905722141" lon="8.065159181132913">
        <ele>89.546875</ele>
        <time>2026-04-13T08:40:51Z</time>
      </trkpt>
      <trkpt lat="52.20810622908175" lon="8.065159097313881">
        <ele>90.0234375</ele>
        <time>2026-04-13T08:40:55Z</time>
      </trkpt>
      <trkpt lat="52.20783649943769" lon="8.065146189182997">
        <ele>90.3828125</ele>
        <time>2026-04-13T08:41:01Z</time>
      </trkpt>
      <trkpt lat="52.207577750086784" lon="8.0651512183249">
        <ele>90.71484375</ele>
        <time>2026-04-13T08:41:07Z</time>
      </trkpt>
      <trkpt lat="52.20732344314456" lon="8.065115595236421">
        <ele>91.04296875</ele>
        <time>2026-04-13T08:41:13Z</time>
      </trkpt>
      <trkpt lat="52.207142226397991" lon="8.0651253182441">
        <ele>91.26953125</ele>
        <time>2026-04-13T08:41:17Z</time>
      </trkpt>
      <trkpt lat="52.206889931112528" lon="8.065130095928907">
        <ele>91.58984375</ele>
        <time>2026-04-13T08:41:23Z</time>
      </trkpt>
      <trkpt lat="52.206682143732905" lon="8.065152559429407">
        <ele>91.875</ele>
        <time>2026-04-13T08:41:29Z</time>
      </trkpt>
      <trkpt lat="52.206478882580996" lon="8.065184494480491">
        <ele>92.1171875</ele>
        <time>2026-04-13T08:41:37Z</time>
      </trkpt>
      <trkpt lat="52.206479804590344" lon="8.065520273521543">
        <ele>92.51953125</ele>
        <time>2026-04-13T08:41:45Z</time>
      </trkpt>
      <trkpt lat="52.206556079909205" lon="8.065799223259091">
        <ele>92.78515625</ele>
        <time>2026-04-13T08:41:49Z</time>
      </trkpt>
      <trkpt lat="52.206610981374979" lon="8.066115556284785">
        <ele>92.05859375</ele>
        <time>2026-04-13T08:41:53Z</time>
      </trkpt>
      <trkpt lat="52.206628499552608" lon="8.066500201821327">
        <ele>90.56640625</ele>
        <time>2026-04-13T08:41:57Z</time>
      </trkpt>
      <trkpt lat="52.206657081842422" lon="8.066861713305116">
        <ele>89.2578125</ele>
        <time>2026-04-13T08:42:01Z</time>
      </trkpt>
      <trkpt lat="52.206648029386997" lon="8.06718785315752">
        <ele>88.5078125</ele>
        <time>2026-04-13T08:42:05Z</time>
      </trkpt>
      <trkpt lat="52.206477206200361" lon="8.067309474572539">
        <ele>88.71484375</ele>
        <time>2026-04-13T08:42:09Z</time>
      </trkpt>
      <trkpt lat="52.206267490983009" lon="8.067274605855346">
        <ele>89.08984375</ele>
        <time>2026-04-13T08:42:13Z</time>
      </trkpt>
      <trkpt lat="52.206024331972003" lon="8.067376781255007">
        <ele>88.94921875</ele>
        <time>2026-04-13T08:42:19Z</time>
      </trkpt>
      <trkpt lat="52.205819981172681" lon="8.067584820091724">
        <ele>88</ele>
        <time>2026-04-13T08:42:25Z</time>
      </trkpt>
      <trkpt lat="52.205624766647816" lon="8.067802498117089">
        <ele>88.40234375</ele>
        <time>2026-04-13T08:42:31Z</time>
      </trkpt>
      <trkpt lat="52.205448411405087" lon="8.06799209676683">
        <ele>89.4609375</ele>
        <time>2026-04-13T08:42:37Z</time>
      </trkpt>
      <trkpt lat="52.205310110002756" lon="8.068210277706385">
        <ele>90.2890625</ele>
        <time>2026-04-13T08:42:47Z</time>
      </trkpt>
      <trkpt lat="52.205398790538311" lon="8.068574136123061">
        <ele>90.05859375</ele>
        <time>2026-04-13T08:42:55Z</time>
      </trkpt>
      <trkpt lat="52.205373477190733" lon="8.068953501060605">
        <ele>90.85546875</ele>
        <time>2026-04-13T08:43:01Z</time>
      </trkpt>
      <trkpt lat="52.205355120822787" lon="8.069370500743389">
        <ele>91.11328125</ele>
        <time>2026-04-13T08:43:07Z</time>
      </trkpt>
      <trkpt lat="52.205326287075877" lon="8.069662526249886">
        <ele>90.44921875</ele>
        <time>2026-04-13T08:43:11Z</time>
      </trkpt>
      <trkpt lat="52.205243892967701" lon="8.069935608655214">
        <ele>89.890625</ele>
        <time>2026-04-13T08:43:15Z</time>
      </trkpt>
      <trkpt lat="52.205143980681896" lon="8.070198046043515">
        <ele>89.609375</ele>
        <time>2026-04-13T08:43:19Z</time>
      </trkpt>
      <trkpt lat="52.20504398457706" lon="8.07045235298574">
        <ele>89.6796875</ele>
        <time>2026-04-13T08:43:23Z</time>
      </trkpt>
      <trkpt lat="52.204925883561373" lon="8.070673299953342">
        <ele>89.86328125</ele>
        <time>2026-04-13T08:43:27Z</time>
      </trkpt>
      <trkpt lat="52.2047776915133" lon="8.070896090939641">
        <ele>90.09765625</ele>
        <time>2026-04-13T08:43:31Z</time>
      </trkpt>
      <trkpt lat="52.204579040408134" lon="8.071137573570013">
        <ele>90.0703125</ele>
        <time>2026-04-13T08:43:37Z</time>
      </trkpt>
      <trkpt lat="52.204480553045869" lon="8.071478297933936">
        <ele>89.77734375</ele>
        <time>2026-04-13T08:43:43Z</time>
      </trkpt>
      <trkpt lat="52.204387011006474" lon="8.071865290403366">
        <ele>89.6640625</ele>
        <time>2026-04-13T08:43:49Z</time>
      </trkpt>
      <trkpt lat="52.204300677403808" lon="8.072234010323882">
        <ele>90.2578125</ele>
        <time>2026-04-13T08:43:55Z</time>
      </trkpt>
      <trkpt lat="52.204212583601475" lon="8.072608597576618">
        <ele>91.05078125</ele>
        <time>2026-04-13T08:44:01Z</time>
      </trkpt>
      <trkpt lat="52.204139661043882" lon="8.072974216192961">
        <ele>90.640625</ele>
        <time>2026-04-13T08:44:07Z</time>
      </trkpt>
      <trkpt lat="52.204081742092967" lon="8.073337571695447">
        <ele>90.0390625</ele>
        <time>2026-04-13T08:44:13Z</time>
      </trkpt>
      <trkpt lat="52.204016698524356" lon="8.073727078735828">
        <ele>89.67578125</ele>
        <time>2026-04-13T08:44:19Z</time>
      </trkpt>
      <trkpt lat="52.203966490924358" lon="8.074021115899086">
        <ele>89.66015625</ele>
        <time>2026-04-13T08:44:23Z</time>
      </trkpt>
      <trkpt lat="52.203904213383794" lon="8.074343986809254">
        <ele>89.67578125</ele>
        <time>2026-04-13T08:44:27Z</time>
      </trkpt>
      <trkpt lat="52.203819220885634" lon="8.07466727681458">
        <ele>89.73046875</ele>
        <time>2026-04-13T08:44:31Z</time>
      </trkpt>
      <trkpt lat="52.203680668026209" lon="8.074952177703381">
        <ele>90.49609375</ele>
        <time>2026-04-13T08:44:35Z</time>
      </trkpt>
      <trkpt lat="52.203610260039568" lon="8.075251495465636">
        <ele>90.890625</ele>
        <time>2026-04-13T08:44:39Z</time>
      </trkpt>
      <trkpt lat="52.203532978892326" lon="8.075661370530725">
        <ele>91.19140625</ele>
        <time>2026-04-13T08:44:45Z</time>
      </trkpt>
      <trkpt lat="52.203470952808857" lon="8.076047524809837">
        <ele>91.33203125</ele>
        <time>2026-04-13T08:44:51Z</time>
      </trkpt>
      <trkpt lat="52.203420242294669" lon="8.076427476480603">
        <ele>91.63671875</ele>
        <time>2026-04-13T08:44:57Z</time>
      </trkpt>
      <trkpt lat="52.203365843743086" lon="8.07680550031364">
        <ele>91.90625</ele>
        <time>2026-04-13T08:45:03Z</time>
      </trkpt>
      <trkpt lat="52.203306751325727" lon="8.07721545919776">
        <ele>91.828125</ele>
        <time>2026-04-13T08:45:09Z</time>
      </trkpt>
      <trkpt lat="52.203251011669636" lon="8.07761519216001">
        <ele>91.71875</ele>
        <time>2026-04-13T08:45:15Z</time>
      </trkpt>
      <trkpt lat="52.203233074396849" lon="8.077938901260495">
        <ele>91.78515625</ele>
        <time>2026-04-13T08:45:19Z</time>
      </trkpt>
      <trkpt lat="52.203200301155448" lon="8.078256575390697">
        <ele>91.95703125</ele>
        <time>2026-04-13T08:45:23Z</time>
      </trkpt>
      <trkpt lat="52.203148668631911" lon="8.078553713858128">
        <ele>91.953125</ele>
        <time>2026-04-13T08:45:27Z</time>
      </trkpt>
      <trkpt lat="52.203097119927406" lon="8.078851941972971">
        <ele>91.69921875</ele>
        <time>2026-04-13T08:45:31Z</time>
      </trkpt>
      <trkpt lat="52.203020257875323" lon="8.079215381294489">
        <ele>91.70703125</ele>
        <time>2026-04-13T08:45:37Z</time>
      </trkpt>
      <trkpt lat="52.202928308397532" lon="8.079524170607328">
        <ele>93</ele>
        <time>2026-04-13T08:45:43Z</time>
      </trkpt>
      <trkpt lat="52.202852452173829" lon="8.079822985455394">
        <ele>94.09375</ele>
        <time>2026-04-13T08:45:49Z</time>
      </trkpt>
      <trkpt lat="52.202753042802215" lon="8.080187095329166">
        <ele>95.61328125</ele>
        <time>2026-04-13T08:45:55Z</time>
      </trkpt>
      <trkpt lat="52.202643826603889" lon="8.080474343150854">
        <ele>97.24609375</ele>
        <time>2026-04-13T08:45:59Z</time>
      </trkpt>
      <trkpt lat="52.202517511323094" lon="8.080803751945496">
        <ele>98.5625</ele>
        <time>2026-04-13T08:46:03Z</time>
      </trkpt>
      <trkpt lat="52.202357333153486" lon="8.08115822263062">
        <ele>99.28515625</ele>
        <time>2026-04-13T08:46:07Z</time>
      </trkpt>
      <trkpt lat="52.202300922945142" lon="8.081619311124086">
        <ele>99.56640625</ele>
        <time>2026-04-13T08:46:11Z</time>
      </trkpt>
      <trkpt lat="52.202233448624611" lon="8.082017870619893">
        <ele>98.8828125</ele>
        <time>2026-04-13T08:46:15Z</time>
      </trkpt>
      <trkpt lat="52.202178379520774" lon="8.082359014078975">
        <ele>98.1328125</ele>
        <time>2026-04-13T08:46:19Z</time>
      </trkpt>
      <trkpt lat="52.202100846916437" lon="8.082747515290976">
        <ele>97.33984375</ele>
        <time>2026-04-13T08:46:25Z</time>
      </trkpt>
      <trkpt lat="52.202062457799911" lon="8.083107769489288">
        <ele>96.59375</ele>
        <time>2026-04-13T08:46:31Z</time>
      </trkpt>
      <trkpt lat="52.202040497213602" lon="8.083465844392777">
        <ele>96.02734375</ele>
        <time>2026-04-13T08:46:37Z</time>
      </trkpt>
      <trkpt lat="52.202027002349496" lon="8.083856524899602">
        <ele>96.21484375</ele>
        <time>2026-04-13T08:46:43Z</time>
      </trkpt>
      <trkpt lat="52.202005460858345" lon="8.0842624604702">
        <ele>96.41796875</ele>
        <time>2026-04-13T08:46:49Z</time>
      </trkpt>
      <trkpt lat="52.20198031514883" lon="8.084667222574353">
        <ele>96.3671875</ele>
        <time>2026-04-13T08:46:55Z</time>
      </trkpt>
      <trkpt lat="52.201953241601586" lon="8.08509168215096">
        <ele>96.43359375</ele>
        <time>2026-04-13T08:47:01Z</time>
      </trkpt>
      <trkpt lat="52.201944021508098" lon="8.085507927462459">
        <ele>96.23828125</ele>
        <time>2026-04-13T08:47:07Z</time>
      </trkpt>
      <trkpt lat="52.201926754787564" lon="8.08594387024641">
        <ele>96.16015625</ele>
        <time>2026-04-13T08:47:13Z</time>
      </trkpt>
      <trkpt lat="52.201879899948835" lon="8.086347375065088">
        <ele>96.53125</ele>
        <time>2026-04-13T08:47:19Z</time>
      </trkpt>
      <trkpt lat="52.201752830296755" lon="8.086667731404305">
        <ele>97.4140625</ele>
        <time>2026-04-13T08:47:25Z</time>
      </trkpt>
      <trkpt lat="52.201576977968216" lon="8.086997475475073">
        <ele>98.37109375</ele>
        <time>2026-04-13T08:47:31Z</time>
      </trkpt>
      <trkpt lat="52.201445801183581" lon="8.087348425760865">
        <ele>98.296875</ele>
        <time>2026-04-13T08:47:37Z</time>
      </trkpt>
      <trkpt lat="52.201464828103781" lon="8.08774983510375">
        <ele>97.54296875</ele>
        <time>2026-04-13T08:47:43Z</time>
      </trkpt>
      <trkpt lat="52.201243713498116" lon="8.087870953604579">
        <ele>97.0390625</ele>
        <time>2026-04-13T08:47:49Z</time>
      </trkpt>
      <trkpt lat="52.200979012995958" lon="8.087915126234293">
        <ele>96.6328125</ele>
        <time>2026-04-13T08:47:55Z</time>
      </trkpt>
      <trkpt lat="52.200797460973263" lon="8.087959298864007">
        <ele>96.2578125</ele>
        <time>2026-04-13T08:47:59Z</time>
      </trkpt>
      <trkpt lat="52.200603419914842" lon="8.087982265278697">
        <ele>96.08203125</ele>
        <time>2026-04-13T08:48:03Z</time>
      </trkpt>
      <trkpt lat="52.200411222875118" lon="8.0880131945014">
        <ele>96.08203125</ele>
        <time>2026-04-13T08:48:07Z</time>
      </trkpt>
      <trkpt lat="52.200225228443742" lon="8.088027946650982">
        <ele>96.171875</ele>
        <time>2026-04-13T08:48:11Z</time>
      </trkpt>
      <trkpt lat="52.199956001713872" lon="8.088035993278027">
        <ele>96.3671875</ele>
        <time>2026-04-13T08:48:17Z</time>
      </trkpt>
      <trkpt lat="52.199783669784665" lon="8.087944965809584">
        <ele>97.0625</ele>
        <time>2026-04-13T08:48:21Z</time>
      </trkpt>
      <trkpt lat="52.199566578492522" lon="8.0878128670156">
        <ele>98.5859375</ele>
        <time>2026-04-13T08:48:27Z</time>
      </trkpt>
      <trkpt lat="52.199354432523251" lon="8.087687976658344">
        <ele>99.9921875</ele>
        <time>2026-04-13T08:48:33Z</time>
      </trkpt>
      <trkpt lat="52.19917313195765" lon="8.08757490478456">
        <ele>101.1328125</ele>
        <time>2026-04-13T08:48:39Z</time>
      </trkpt>
      <trkpt lat="52.199004990980029" lon="8.087465018033981">
        <ele>102.1171875</ele>
        <time>2026-04-13T08:48:45Z</time>
      </trkpt>
      <trkpt lat="52.19883500598371" lon="8.087367033585906">
        <ele>102.98828125</ele>
        <time>2026-04-13T08:48:51Z</time>
      </trkpt>
      <trkpt lat="52.198668038472533" lon="8.0872568115592">
        <ele>103.8984375</ele>
        <time>2026-04-13T08:48:57Z</time>
      </trkpt>
      <trkpt lat="52.198453713208437" lon="8.08713267557323">
        <ele>105.12890625</ele>
        <time>2026-04-13T08:49:05Z</time>
      </trkpt>
      <trkpt lat="52.198239220306277" lon="8.087011640891433">
        <ele>106.4296875</ele>
        <time>2026-04-13T08:49:13Z</time>
      </trkpt>
      <trkpt lat="52.198068983852863" lon="8.086910806596279">
        <ele>107.52734375</ele>
        <time>2026-04-13T08:49:19Z</time>
      </trkpt>
      <trkpt lat="52.197840828448534" lon="8.086820701137185">
        <ele>108.9921875</ele>
        <time>2026-04-13T08:49:27Z</time>
      </trkpt>
      <trkpt lat="52.197630191221833" lon="8.086717603728175">
        <ele>110.390625</ele>
        <time>2026-04-13T08:49:35Z</time>
      </trkpt>
      <trkpt lat="52.197393318638206" lon="8.086631605401635">
        <ele>111.81640625</ele>
        <time>2026-04-13T08:49:43Z</time>
      </trkpt>
      <trkpt lat="52.197167677804828" lon="8.086535716429353">
        <ele>112.52734375</ele>
        <time>2026-04-13T08:49:51Z</time>
      </trkpt>
      <trkpt lat="52.196955699473619" lon="8.086452567949891">
        <ele>113.1484375</ele>
        <time>2026-04-13T08:49:59Z</time>
      </trkpt>
      <trkpt lat="52.19675931148231" lon="8.086365479975939">
        <ele>113.77734375</ele>
        <time>2026-04-13T08:50:07Z</time>
      </trkpt>
      <trkpt lat="52.196579687297344" lon="8.086324408650398">
        <ele>114.3515625</ele>
        <time>2026-04-13T08:50:15Z</time>
      </trkpt>
      <trkpt lat="52.196444990113378" lon="8.086614925414324">
        <ele>114.35546875</ele>
        <time>2026-04-13T08:50:23Z</time>
      </trkpt>
      <trkpt lat="52.196369552984834" lon="8.086899155750871">
        <ele>113.84765625</ele>
        <time>2026-04-13T08:50:29Z</time>
      </trkpt>
      <trkpt lat="52.196294702589512" lon="8.087279023602605">
        <ele>112.8046875</ele>
        <time>2026-04-13T08:50:35Z</time>
      </trkpt>
      <trkpt lat="52.196266707032919" lon="8.087711529806256">
        <ele>111.6171875</ele>
        <time>2026-04-13T08:50:41Z</time>
      </trkpt>
      <trkpt lat="52.196263521909714" lon="8.088010093197227">
        <ele>110.91015625</ele>
        <time>2026-04-13T08:50:45Z</time>
      </trkpt>
      <trkpt lat="52.196285398676991" lon="8.088343944400549">
        <ele>110.03125</ele>
        <time>2026-04-13T08:50:49Z</time>
      </trkpt>
      <trkpt lat="52.196340719237924" lon="8.088659523054957">
        <ele>109.37890625</ele>
        <time>2026-04-13T08:50:53Z</time>
      </trkpt>
      <trkpt lat="52.196393189951777" lon="8.089015083387494">
        <ele>108.76171875</ele>
        <time>2026-04-13T08:50:57Z</time>
      </trkpt>
      <trkpt lat="52.196438871324062" lon="8.089388580992818">
        <ele>108.16796875</ele>
        <time>2026-04-13T08:51:01Z</time>
      </trkpt>
      <trkpt lat="52.196457060053945" lon="8.089788230136037">
        <ele>107.66015625</ele>
        <time>2026-04-13T08:51:05Z</time>
      </trkpt>
      <trkpt lat="52.196434512734413" lon="8.090182011947036">
        <ele>107.578125</ele>
        <time>2026-04-13T08:51:09Z</time>
      </trkpt>
      <trkpt lat="52.196393609046936" lon="8.090566741302609">
        <ele>108.15625</ele>
        <time>2026-04-13T08:51:13Z</time>
      </trkpt>
      <trkpt lat="52.196303755044937" lon="8.090914087370038">
        <ele>108.8046875</ele>
        <time>2026-04-13T08:51:17Z</time>
      </trkpt>
      <trkpt lat="52.196193113923073" lon="8.091229749843478">
        <ele>108.82421875</ele>
        <time>2026-04-13T08:51:21Z</time>
      </trkpt>
      <trkpt lat="52.19608205370605" lon="8.091504257172346">
        <ele>108.89453125</ele>
        <time>2026-04-13T08:51:25Z</time>
      </trkpt>
      <trkpt lat="52.195949954912066" lon="8.091741884127259">
        <ele>109.08203125</ele>
        <time>2026-04-13T08:51:29Z</time>
      </trkpt>
      <trkpt lat="52.195831350982189" lon="8.091997280716896">
        <ele>109.15625</ele>
        <time>2026-04-13T08:51:33Z</time>
      </trkpt>
      <trkpt lat="52.195669831708074" lon="8.092338927090168">
        <ele>109.3203125</ele>
        <time>2026-04-13T08:51:39Z</time>
      </trkpt>
      <trkpt lat="52.195560615509748" lon="8.092591976746917">
        <ele>109.16015625</ele>
        <time>2026-04-13T08:51:43Z</time>
      </trkpt>
      <trkpt lat="52.195467241108418" lon="8.092888193204999">
        <ele>109.171875</ele>
        <time>2026-04-13T08:51:47Z</time>
      </trkpt>
      <trkpt lat="52.195391301065683" lon="8.093177955597639">
        <ele>109.09765625</ele>
        <time>2026-04-13T08:51:51Z</time>
      </trkpt>
      <trkpt lat="52.195324329659343" lon="8.093586321920157">
        <ele>108.6328125</ele>
        <time>2026-04-13T08:51:56Z</time>
      </trkpt>
      <trkpt lat="52.19527973793447" lon="8.093906426802278">
        <ele>108.09375</ele>
        <time>2026-04-13T08:52:00Z</time>
      </trkpt>
      <trkpt lat="52.195257609710097" lon="8.094247402623296">
        <ele>107.609375</ele>
        <time>2026-04-13T08:52:04Z</time>
      </trkpt>
      <trkpt lat="52.195246042683721" lon="8.094583349302411">
        <ele>108.2734375</ele>
        <time>2026-04-13T08:52:08Z</time>
      </trkpt>
      <trkpt lat="52.195235481485724" lon="8.094892054796219">
        <ele>108.890625</ele>
        <time>2026-04-13T08:52:12Z</time>
      </trkpt>
      <trkpt lat="52.195226512849331" lon="8.095218613743782">
        <ele>109.4453125</ele>
        <time>2026-04-13T08:52:16Z</time>
      </trkpt>
      <trkpt lat="52.195210671052337" lon="8.09553955681622">
        <ele>109.90625</ele>
        <time>2026-04-13T08:52:20Z</time>
      </trkpt>
      <trkpt lat="52.195215113461018" lon="8.095959154888988">
        <ele>110.3046875</ele>
        <time>2026-04-13T08:52:26Z</time>
      </trkpt>
      <trkpt lat="52.195216622203588" lon="8.096252353861928">
        <ele>110.24609375</ele>
        <time>2026-04-13T08:52:30Z</time>
      </trkpt>
      <trkpt lat="52.195234140381217" lon="8.096663570031524">
        <ele>110.12109375</ele>
        <time>2026-04-13T08:52:36Z</time>
      </trkpt>
      <trkpt lat="52.195269260555506" lon="8.097070259973407">
        <ele>110.015625</ele>
        <time>2026-04-13T08:52:42Z</time>
      </trkpt>
      <trkpt lat="52.195200109854341" lon="8.09739388525486">
        <ele>110.0390625</ele>
        <time>2026-04-13T08:52:48Z</time>
      </trkpt>
      <trkpt lat="52.194969691336155" lon="8.097272934392095">
        <ele>110.26171875</ele>
        <time>2026-04-13T08:52:54Z</time>
      </trkpt>
      <trkpt lat="52.194732986390591" lon="8.097131615504623">
        <ele>110.6796875</ele>
        <time>2026-04-13T08:53:00Z</time>
      </trkpt>
      <trkpt lat="52.194501059129834" lon="8.097014352679253">
        <ele>111.09765625</ele>
        <time>2026-04-13T08:53:06Z</time>
      </trkpt>
      <trkpt lat="52.194264940917492" lon="8.096930701285601">
        <ele>111.484375</ele>
        <time>2026-04-13T08:53:12Z</time>
      </trkpt>
      <trkpt lat="52.194035528227687" lon="8.096870351582766">
        <ele>111.83203125</ele>
        <time>2026-04-13T08:53:18Z</time>
      </trkpt>
      <trkpt lat="52.193805612623692" lon="8.096807068213821">
        <ele>112.7265625</ele>
        <time>2026-04-13T08:53:24Z</time>
      </trkpt>
      <trkpt lat="52.193574188277125" lon="8.09671176597476">
        <ele>113.65625</ele>
        <time>2026-04-13T08:53:30Z</time>
      </trkpt>
      <trkpt lat="52.193336896598339" lon="8.096623923629522">
        <ele>114.4375</ele>
        <time>2026-04-13T08:53:36Z</time>
      </trkpt>
      <trkpt lat="52.193093318492174" lon="8.096552677452564">
        <ele>114.68359375</ele>
        <time>2026-04-13T08:53:42Z</time>
      </trkpt>
      <trkpt lat="52.192855440080166" lon="8.096462152898312">
        <ele>114.39453125</ele>
        <time>2026-04-13T08:53:48Z</time>
      </trkpt>
      <trkpt lat="52.192612029612064" lon="8.09636676684022">
        <ele>114.1640625</ele>
        <time>2026-04-13T08:53:54Z</time>
      </trkpt>
      <trkpt lat="52.192378509789705" lon="8.096276577562094">
        <ele>114.0078125</ele>
        <time>2026-04-13T08:54:00Z</time>
      </trkpt>
      <trkpt lat="52.192141637206078" lon="8.096210109069943">
        <ele>114.4375</ele>
        <time>2026-04-13T08:54:06Z</time>
      </trkpt>
      <trkpt lat="52.191910045221448" lon="8.096153112128377">
        <ele>114.9296875</ele>
        <time>2026-04-13T08:54:12Z</time>
      </trkpt>
      <trkpt lat="52.191685410216451" lon="8.096079686656594">
        <ele>115.4609375</ele>
        <time>2026-04-13T08:54:18Z</time>
      </trkpt>
      <trkpt lat="52.19147477298975" lon="8.095993436872959">
        <ele>116.1171875</ele>
        <time>2026-04-13T08:54:24Z</time>
      </trkpt>
      <trkpt lat="52.191264722496271" lon="8.095922693610191">
        <ele>116.95703125</ele>
        <time>2026-04-13T08:54:30Z</time>
      </trkpt>
      <trkpt lat="52.191058611497283" lon="8.095879359170795">
        <ele>117.7265625</ele>
        <time>2026-04-13T08:54:36Z</time>
      </trkpt>
      <trkpt lat="52.190859625115991" lon="8.095820182934403">
        <ele>118.50390625</ele>
        <time>2026-04-13T08:54:42Z</time>
      </trkpt>
      <trkpt lat="52.190665919333696" lon="8.095761258155108">
        <ele>119.33984375</ele>
        <time>2026-04-13T08:54:48Z</time>
      </trkpt>
      <trkpt lat="52.190477829426527" lon="8.095694202929735">
        <ele>120.3828125</ele>
        <time>2026-04-13T08:54:54Z</time>
      </trkpt>
      <trkpt lat="52.190280770882964" lon="8.095642738044262">
        <ele>121.48046875</ele>
        <time>2026-04-13T08:55:00Z</time>
      </trkpt>
      <trkpt lat="52.190083460882306" lon="8.095570150762796">
        <ele>122.65625</ele>
        <time>2026-04-13T08:55:06Z</time>
      </trkpt>
      <trkpt lat="52.189843570813537" lon="8.095479374751449">
        <ele>124.12890625</ele>
        <time>2026-04-13T08:55:14Z</time>
      </trkpt>
      <trkpt lat="52.189606782048941" lon="8.095404356718063">
        <ele>125.4453125</ele>
        <time>2026-04-13T08:55:22Z</time>
      </trkpt>
      <trkpt lat="52.189420703798532" lon="8.095351131632924">
        <ele>126.46875</ele>
        <time>2026-04-13T08:55:28Z</time>
      </trkpt>
      <trkpt lat="52.189236050471663" lon="8.095301175490022">
        <ele>127.47265625</ele>
        <time>2026-04-13T08:55:34Z</time>
      </trkpt>
      <trkpt lat="52.189037399366498" lon="8.095274604856968">
        <ele>128.4921875</ele>
        <time>2026-04-13T08:55:40Z</time>
      </trkpt>
      <trkpt lat="52.188819805160165" lon="8.095287010073662">
        <ele>129.765625</ele>
        <time>2026-04-13T08:55:46Z</time>
      </trkpt>
      <trkpt lat="52.188609670847654" lon="8.095337050035596">
        <ele>130.90625</ele>
        <time>2026-04-13T08:55:52Z</time>
      </trkpt>
      <trkpt lat="52.18841889873147" lon="8.095411732792854">
        <ele>131.87109375</ele>
        <time>2026-04-13T08:55:58Z</time>
      </trkpt>
      <trkpt lat="52.188249668106437" lon="8.095652293413878">
        <ele>132.3125</ele>
        <time>2026-04-13T08:56:06Z</time>
      </trkpt>
      <trkpt lat="52.188190408051014" lon="8.095958903431892">
        <ele>131.890625</ele>
        <time>2026-04-13T08:56:12Z</time>
      </trkpt>
      <trkpt lat="52.18815797008574" lon="8.09636240825057">
        <ele>131.02734375</ele>
        <time>2026-04-13T08:56:18Z</time>
      </trkpt>
      <trkpt lat="52.188149755820632" lon="8.096673041582108">
        <ele>130.328125</ele>
        <time>2026-04-13T08:56:22Z</time>
      </trkpt>
      <trkpt lat="52.188145900145173" lon="8.097010497003794">
        <ele>129.58203125</ele>
        <time>2026-04-13T08:56:26Z</time>
      </trkpt>
      <trkpt lat="52.188144978135824" lon="8.097367649897933">
        <ele>128.7890625</ele>
        <time>2026-04-13T08:56:30Z</time>
      </trkpt>
      <trkpt lat="52.188120000064373" lon="8.097676606848836">
        <ele>128.48046875</ele>
        <time>2026-04-13T08:56:34Z</time>
      </trkpt>
      <trkpt lat="52.188027631491423" lon="8.098077094182372">
        <ele>128.91796875</ele>
        <time>2026-04-13T08:56:40Z</time>
      </trkpt>
      <trkpt lat="52.1879165712744" lon="8.098471043631434">
        <ele>129.3984375</ele>
        <time>2026-04-13T08:56:46Z</time>
      </trkpt>
      <trkpt lat="52.187831830233335" lon="8.098746221512556">
        <ele>129.82421875</ele>
        <time>2026-04-13T08:56:50Z</time>
      </trkpt>
      <trkpt lat="52.187757231295109" lon="8.099028272554278">
        <ele>130.0859375</ele>
        <time>2026-04-13T08:56:54Z</time>
      </trkpt>
      <trkpt lat="52.187681877985597" lon="8.099305294454098">
        <ele>130.26953125</ele>
        <time>2026-04-13T08:56:58Z</time>
      </trkpt>
      <trkpt lat="52.18760484829545" lon="8.099587261676788">
        <ele>130.62109375</ele>
        <time>2026-04-13T08:57:02Z</time>
      </trkpt>
      <trkpt lat="52.18753200955689" lon="8.099857661873102">
        <ele>131.06640625</ele>
        <time>2026-04-13T08:57:06Z</time>
      </trkpt>
      <trkpt lat="52.187462858855724" lon="8.10013510286808">
        <ele>131.3828125</ele>
        <time>2026-04-13T08:57:10Z</time>
      </trkpt>
      <trkpt lat="52.187350708991289" lon="8.100508181378245">
        <ele>131.05859375</ele>
        <time>2026-04-13T08:57:16Z</time>
      </trkpt>
      <trkpt lat="52.187237720936537" lon="8.100889809429646">
        <ele>130.96484375</ele>
        <time>2026-04-13T08:57:22Z</time>
      </trkpt>
      <trkpt lat="52.187110986560583" lon="8.101343102753162">
        <ele>130.99609375</ele>
        <time>2026-04-13T08:57:29Z</time>
      </trkpt>
      <trkpt lat="52.18701115809381" lon="8.101736633107066">
        <ele>130.7109375</ele>
        <time>2026-04-13T08:57:35Z</time>
      </trkpt>
      <trkpt lat="52.186940331012011" lon="8.102150531485677">
        <ele>130.296875</ele>
        <time>2026-04-13T08:57:41Z</time>
      </trkpt>
      <trkpt lat="52.186909401789308" lon="8.102440126240253">
        <ele>129.88671875</ele>
        <time>2026-04-13T08:57:45Z</time>
      </trkpt>
      <trkpt lat="52.186863888055086" lon="8.10272871516645">
        <ele>129.5</ele>
        <time>2026-04-13T08:57:49Z</time>
      </trkpt>
      <trkpt lat="52.186688538640738" lon="8.102903896942735">
        <ele>129.70703125</ele>
        <time>2026-04-13T08:57:55Z</time>
      </trkpt>
      <trkpt lat="52.18643993139267" lon="8.102939939126372">
        <ele>130.26171875</ele>
        <time>2026-04-13T08:58:01Z</time>
      </trkpt>
      <trkpt lat="52.186196520924568" lon="8.103054771199822">
        <ele>130.46875</ele>
        <time>2026-04-13T08:58:07Z</time>
      </trkpt>
      <trkpt lat="52.186030140146613" lon="8.103172201663256">
        <ele>130.58984375</ele>
        <time>2026-04-13T08:58:11Z</time>
      </trkpt>
      <trkpt lat="52.185814641416073" lon="8.103430951014161">
        <ele>130.6484375</ele>
        <time>2026-04-13T08:58:17Z</time>
      </trkpt>
      <trkpt lat="52.185604339465499" lon="8.103634463623166">
        <ele>130.8203125</ele>
        <time>2026-04-13T08:58:23Z</time>
      </trkpt>
      <trkpt lat="52.185403676703572" lon="8.103820290416479">
        <ele>131.24609375</ele>
        <time>2026-04-13T08:58:29Z</time>
      </trkpt>
      <trkpt lat="52.185200918465853" lon="8.104011565446854">
        <ele>131.77734375</ele>
        <time>2026-04-13T08:58:35Z</time>
      </trkpt>
      <trkpt lat="52.185017522424459" lon="8.104191105812788">
        <ele>132.34765625</ele>
        <time>2026-04-13T08:58:41Z</time>
      </trkpt>
      <trkpt lat="52.184843262657523" lon="8.104368131607771">
        <ele>133.27734375</ele>
        <time>2026-04-13T08:58:47Z</time>
      </trkpt>
      <trkpt lat="52.184681659564376" lon="8.104584636166692">
        <ele>135.01171875</ele>
        <time>2026-04-13T08:58:53Z</time>
      </trkpt>
      <trkpt lat="52.184555763378739" lon="8.104879511520267">
        <ele>136.6171875</ele>
        <time>2026-04-13T08:58:59Z</time>
      </trkpt>
      <trkpt lat="52.184466160833836" lon="8.10516994446516">
        <ele>137.8671875</ele>
        <time>2026-04-13T08:59:05Z</time>
      </trkpt>
      <trkpt lat="52.184434225782752" lon="8.105522822588682">
        <ele>138.1875</ele>
        <time>2026-04-13T08:59:11Z</time>
      </trkpt>
      <trkpt lat="52.184427101165056" lon="8.105893721804023">
        <ele>138.1953125</ele>
        <time>2026-04-13T08:59:17Z</time>
      </trkpt>
      <trkpt lat="52.184430873021483" lon="8.106296053156257">
        <ele>137.43359375</ele>
        <time>2026-04-13T08:59:23Z</time>
      </trkpt>
      <trkpt lat="52.184429280459881" lon="8.106733085587621">
        <ele>136.6484375</ele>
        <time>2026-04-13T08:59:29Z</time>
      </trkpt>
      <trkpt lat="52.18442190438509" lon="8.107042461633682">
        <ele>136.4921875</ele>
        <time>2026-04-13T08:59:33Z</time>
      </trkpt>
      <trkpt lat="52.184427939355373" lon="8.107362650334835">
        <ele>136.25390625</ele>
        <time>2026-04-13T08:59:37Z</time>
      </trkpt>
      <trkpt lat="52.184471022337675" lon="8.107687365263701">
        <ele>135.765625</ele>
        <time>2026-04-13T08:59:41Z</time>
      </trkpt>
      <trkpt lat="52.184440512210131" lon="8.108106711879373">
        <ele>135.41015625</ele>
        <time>2026-04-13T08:59:45Z</time>
      </trkpt>
      <trkpt lat="52.184402542188764" lon="8.108549444004893">
        <ele>134.390625</ele>
        <time>2026-04-13T08:59:49Z</time>
      </trkpt>
      <trkpt lat="52.184367589652538" lon="8.108989074826241">
        <ele>132.12109375</ele>
        <time>2026-04-13T08:59:53Z</time>
      </trkpt>
      <trkpt lat="52.184342108666897" lon="8.10946055687964">
        <ele>130.62109375</ele>
        <time>2026-04-13T08:59:57Z</time>
      </trkpt>
      <trkpt lat="52.184311430901289" lon="8.109940253198147">
        <ele>130.15625</ele>
        <time>2026-04-13T09:00:01Z</time>
      </trkpt>
      <trkpt lat="52.184215625748038" lon="8.110398408025503">
        <ele>129.30859375</ele>
        <time>2026-04-13T09:00:05Z</time>
      </trkpt>
      <trkpt lat="52.184080593287945" lon="8.110838122665882">
        <ele>128.1328125</ele>
        <time>2026-04-13T09:00:09Z</time>
      </trkpt>
      <trkpt lat="52.183933490887284" lon="8.111272975802422">
        <ele>126.765625</ele>
        <time>2026-04-13T09:00:13Z</time>
      </trkpt>
      <trkpt lat="52.18379057943821" lon="8.111723167821765">
        <ele>125.40625</ele>
        <time>2026-04-13T09:00:17Z</time>
      </trkpt>
      <trkpt lat="52.18368262052536" lon="8.112203953787684">
        <ele>124.15625</ele>
        <time>2026-04-13T09:00:21Z</time>
      </trkpt>
      <trkpt lat="52.183685638010502" lon="8.112706281244755">
        <ele>122.80859375</ele>
        <time>2026-04-13T09:00:25Z</time>
      </trkpt>
      <trkpt lat="52.183728720992804" lon="8.113220427185297">
        <ele>120.6875</ele>
        <time>2026-04-13T09:00:29Z</time>
      </trkpt>
      <trkpt lat="52.18377155251801" lon="8.113727616146207">
        <ele>119.59375</ele>
        <time>2026-04-13T09:00:33Z</time>
      </trkpt>
      <trkpt lat="52.183775911107659" lon="8.114258609712124">
        <ele>118.94140625</ele>
        <time>2026-04-13T09:00:37Z</time>
      </trkpt>
      <trkpt lat="52.183734839782119" lon="8.11477585695684">
        <ele>118.15625</ele>
        <time>2026-04-13T09:00:41Z</time>
      </trkpt>
      <trkpt lat="52.183616990223527" lon="8.11526158824563">
        <ele>118.25390625</ele>
        <time>2026-04-13T09:00:45Z</time>
      </trkpt>
      <trkpt lat="52.18345589004457" lon="8.115672050043941">
        <ele>118.84375</ele>
        <time>2026-04-13T09:00:49Z</time>
      </trkpt>
      <trkpt lat="52.183302333578467" lon="8.11602970585227">
        <ele>119.2109375</ele>
        <time>2026-04-13T09:00:53Z</time>
      </trkpt>
      <trkpt lat="52.183131510391831" lon="8.11633606441319">
        <ele>119.84375</ele>
        <time>2026-04-13T09:00:57Z</time>
      </trkpt>
      <trkpt lat="52.182984491810203" lon="8.116630269214511">
        <ele>120.71484375</ele>
        <time>2026-04-13T09:01:01Z</time>
      </trkpt>
      <trkpt lat="52.182861948385835" lon="8.11688038520515">
        <ele>121.52734375</ele>
        <time>2026-04-13T09:01:05Z</time>
      </trkpt>
      <trkpt lat="52.182702943682671" lon="8.117228485643864">
        <ele>122.04296875</ele>
        <time>2026-04-13T09:01:11Z</time>
      </trkpt>
      <trkpt lat="52.182564223185182" lon="8.11753761023283">
        <ele>121.703125</ele>
        <time>2026-04-13T09:01:17Z</time>
      </trkpt>
      <trkpt lat="52.182439332827926" lon="8.11780440621078">
        <ele>122.16796875</ele>
        <time>2026-04-13T09:01:23Z</time>
      </trkpt>
      <trkpt lat="52.182305306196213" lon="8.118053181096911">
        <ele>122.734375</ele>
        <time>2026-04-13T09:01:29Z</time>
      </trkpt>
      <trkpt lat="52.182182427495718" lon="8.118306817486882">
        <ele>123.3203125</ele>
        <time>2026-04-13T09:01:35Z</time>
      </trkpt>
      <trkpt lat="52.182062733918428" lon="8.118545617908239">
        <ele>123.94921875</ele>
        <time>2026-04-13T09:01:41Z</time>
      </trkpt>
      <trkpt lat="52.181963156908751" lon="8.118801768869162">
        <ele>124.765625</ele>
        <time>2026-04-13T09:01:47Z</time>
      </trkpt>
      <trkpt lat="52.181878751143813" lon="8.119141822680831">
        <ele>125.90234375</ele>
        <time>2026-04-13T09:01:55Z</time>
      </trkpt>
      <trkpt lat="52.18183365650475" lon="8.119511632248759">
        <ele>127.31640625</ele>
        <time>2026-04-13T09:02:03Z</time>
      </trkpt>
      <trkpt lat="52.181840026751161" lon="8.119835341349244">
        <ele>128.7109375</ele>
        <time>2026-04-13T09:02:11Z</time>
      </trkpt>
      <trkpt lat="52.181851929053664" lon="8.120192913338542">
        <ele>129.79296875</ele>
        <time>2026-04-13T09:02:19Z</time>
      </trkpt>
      <trkpt lat="52.181849414482713" lon="8.12050455249846">
        <ele>130.171875</ele>
        <time>2026-04-13T09:02:27Z</time>
      </trkpt>
      <trkpt lat="52.181756794452667" lon="8.120796578004956">
        <ele>130.6328125</ele>
        <time>2026-04-13T09:02:35Z</time>
      </trkpt>
      <trkpt lat="52.181642968207598" lon="8.121096063405275">
        <ele>130.58984375</ele>
        <time>2026-04-13T09:02:43Z</time>
      </trkpt>
      <trkpt lat="52.181486310437322" lon="8.121388256549835">
        <ele>130.47265625</ele>
        <time>2026-04-13T09:02:51Z</time>
      </trkpt>
      <trkpt lat="52.181359492242336" lon="8.121598893776536">
        <ele>130.51171875</ele>
        <time>2026-04-13T09:02:57Z</time>
      </trkpt>
      <trkpt lat="52.181210042908788" lon="8.121897121891379">
        <ele>130.9609375</ele>
        <time>2026-04-13T09:03:05Z</time>
      </trkpt>
      <trkpt lat="52.181096971035004" lon="8.122218232601881">
        <ele>131.69921875</ele>
        <time>2026-04-13T09:03:13Z</time>
      </trkpt>
      <trkpt lat="52.180940648540854" lon="8.122485363855958">
        <ele>132.76171875</ele>
        <time>2026-04-13T09:03:21Z</time>
      </trkpt>
      <trkpt lat="52.180757168680429" lon="8.122646044939756">
        <ele>133.87109375</ele>
        <time>2026-04-13T09:03:27Z</time>
      </trkpt>
      <trkpt lat="52.180566899478436" lon="8.122763894498348">
        <ele>134.2109375</ele>
        <time>2026-04-13T09:03:33Z</time>
      </trkpt>
      <trkpt lat="52.18035165220499" lon="8.12293890863657">
        <ele>134.265625</ele>
        <time>2026-04-13T09:03:39Z</time>
      </trkpt>
      <trkpt lat="52.18014445155859" lon="8.12307964079082">
        <ele>134.20703125</ele>
        <time>2026-04-13T09:03:45Z</time>
      </trkpt>
      <trkpt lat="52.179915625602007" lon="8.123224899172783">
        <ele>134.0390625</ele>
        <time>2026-04-13T09:03:51Z</time>
      </trkpt>
      <trkpt lat="52.179696019738913" lon="8.123395806178451">
        <ele>134</ele>
        <time>2026-04-13T09:03:57Z</time>
      </trkpt>
      <trkpt lat="52.179461242631078" lon="8.12357853166759">
        <ele>134</ele>
        <time>2026-04-13T09:04:03Z</time>
      </trkpt>
      <trkpt lat="52.179299220442772" lon="8.123727897182107">
        <ele>134</ele>
        <time>2026-04-13T09:04:07Z</time>
      </trkpt>
      <trkpt lat="52.179067712277174" lon="8.123919842764735">
        <ele>134</ele>
        <time>2026-04-13T09:04:13Z</time>
      </trkpt>
      <trkpt lat="52.178851794451475" lon="8.124107178300619">
        <ele>133.94140625</ele>
        <time>2026-04-13T09:04:19Z</time>
      </trkpt>
      <trkpt lat="52.178618442267179" lon="8.124295938760042">
        <ele>133.859375</ele>
        <time>2026-04-13T09:04:25Z</time>
      </trkpt>
      <trkpt lat="52.178389448672533" lon="8.124502385035157">
        <ele>133.58203125</ele>
        <time>2026-04-13T09:04:31Z</time>
      </trkpt>
      <trkpt lat="52.178162969648838" lon="8.124694582074881">
        <ele>133.48828125</ele>
        <time>2026-04-13T09:04:37Z</time>
      </trkpt>
      <trkpt lat="52.177929868921638" lon="8.124875463545322">
        <ele>133.73828125</ele>
        <time>2026-04-13T09:04:43Z</time>
      </trkpt>
      <trkpt lat="52.17770422808826" lon="8.125076713040471">
        <ele>134.328125</ele>
        <time>2026-04-13T09:04:49Z</time>
      </trkpt>
      <trkpt lat="52.177489986643195" lon="8.125260109081864">
        <ele>135.703125</ele>
        <time>2026-04-13T09:04:55Z</time>
      </trkpt>
      <trkpt lat="52.17728110961616" lon="8.125442247837782">
        <ele>137.171875</ele>
        <time>2026-04-13T09:05:01Z</time>
      </trkpt>
      <trkpt lat="52.177072651684284" lon="8.125638216733933">
        <ele>138.66015625</ele>
        <time>2026-04-13T09:05:07Z</time>
      </trkpt>
      <trkpt lat="52.176952455192804" lon="8.125875256955624">
        <ele>139.984375</ele>
        <time>2026-04-13T09:05:13Z</time>
      </trkpt>
      <trkpt lat="52.17684474773705" lon="8.126140125095844">
        <ele>141.79296875</ele>
        <time>2026-04-13T09:08:53Z</time>
      </trkpt>
      <trkpt lat="52.176701752468944" lon="8.126429216936231">
        <ele>144.1796875</ele>
        <time>2026-04-13T09:09:01Z</time>
      </trkpt>
      <trkpt lat="52.176564875990152" lon="8.126685535535216">
        <ele>146.65625</ele>
        <time>2026-04-13T09:09:07Z</time>
      </trkpt>
      <trkpt lat="52.176430262625217" lon="8.12693003565073">
        <ele>145.26171875</ele>
        <time>2026-04-13T09:09:13Z</time>
      </trkpt>
      <trkpt lat="52.176241669803858" lon="8.127159783616662">
        <ele>143.2734375</ele>
        <time>2026-04-13T09:09:20Z</time>
      </trkpt>
      <trkpt lat="52.176108900457621" lon="8.126943362876773">
        <ele>143.20703125</ele>
        <time>2026-04-13T09:09:25Z</time>
      </trkpt>
      <trkpt lat="52.17598769813776" lon="8.126630298793316">
        <ele>142.796875</ele>
        <time>2026-04-13T09:09:31Z</time>
      </trkpt>
      <trkpt lat="52.175882337614894" lon="8.126332238316536">
        <ele>141.671875</ele>
        <time>2026-04-13T09:09:37Z</time>
      </trkpt>
      <trkpt lat="52.175778988748789" lon="8.12605538405478">
        <ele>141.10546875</ele>
        <time>2026-04-13T09:09:43Z</time>
      </trkpt>
      <trkpt lat="52.175690308213234" lon="8.12573729082942">
        <ele>141.00390625</ele>
        <time>2026-04-13T09:09:49Z</time>
      </trkpt>
      <trkpt lat="52.175607997924089" lon="8.12541869468987">
        <ele>141.06640625</ele>
        <time>2026-04-13T09:09:55Z</time>
      </trkpt>
      <trkpt lat="52.175509510561824" lon="8.125056261196733">
        <ele>141.23828125</ele>
        <time>2026-04-13T09:10:01Z</time>
      </trkpt>
      <trkpt lat="52.175406161695719" lon="8.124679662287235">
        <ele>141.203125</ele>
        <time>2026-04-13T09:10:07Z</time>
      </trkpt>
      <trkpt lat="52.175213545560837" lon="8.124550329521298">
        <ele>141.23828125</ele>
        <time>2026-04-13T09:10:13Z</time>
      </trkpt>
      <trkpt lat="52.174984300509095" lon="8.124624760821462">
        <ele>141.42578125</ele>
        <time>2026-04-13T09:10:19Z</time>
      </trkpt>
      <trkpt lat="52.174772573634982" lon="8.124698856845498">
        <ele>141.68359375</ele>
        <time>2026-04-13T09:10:25Z</time>
      </trkpt>
      <trkpt lat="52.174542741850019" lon="8.124766582623124">
        <ele>141.93359375</ele>
        <time>2026-04-13T09:10:31Z</time>
      </trkpt>
      <trkpt lat="52.174300840124488" lon="8.124826261773706">
        <ele>142.1015625</ele>
        <time>2026-04-13T09:10:37Z</time>
      </trkpt>
      <trkpt lat="52.174081150442362" lon="8.124785609543324">
        <ele>142.2890625</ele>
        <time>2026-04-13T09:10:43Z</time>
      </trkpt>
      <trkpt lat="52.173859030008316" lon="8.124670358374715">
        <ele>143.0390625</ele>
        <time>2026-04-13T09:10:49Z</time>
      </trkpt>
      <trkpt lat="52.173647470772266" lon="8.124548150226474">
        <ele>143.6484375</ele>
        <time>2026-04-13T09:10:55Z</time>
      </trkpt>
      <trkpt lat="52.17339894734323" lon="8.124426361173391">
        <ele>144.109375</ele>
        <time>2026-04-13T09:11:01Z</time>
      </trkpt>
      <trkpt lat="52.173214042559266" lon="8.124342039227486">
        <ele>144.296875</ele>
        <time>2026-04-13T09:11:05Z</time>
      </trkpt>
      <trkpt lat="52.173016900196671" lon="8.124316306784749">
        <ele>144.32421875</ele>
        <time>2026-04-13T09:11:09Z</time>
      </trkpt>
      <trkpt lat="52.172820931300521" lon="8.12433541752398">
        <ele>144.484375</ele>
        <time>2026-04-13T09:11:13Z</time>
      </trkpt>
      <trkpt lat="52.172639044001698" lon="8.124398784711957">
        <ele>144.88671875</ele>
        <time>2026-04-13T09:11:17Z</time>
      </trkpt>
      <trkpt lat="52.172459252178669" lon="8.124444046989083">
        <ele>145.28515625</ele>
        <time>2026-04-13T09:11:21Z</time>
      </trkpt>
      <trkpt lat="52.172280130907893" lon="8.124487716704607">
        <ele>145.66796875</ele>
        <time>2026-04-13T09:11:25Z</time>
      </trkpt>
      <trkpt lat="52.172009563073516" lon="8.124536834657192">
        <ele>146.0234375</ele>
        <time>2026-04-13T09:11:31Z</time>
      </trkpt>
      <trkpt lat="52.171813258901238" lon="8.124543037265539">
        <ele>146.10546875</ele>
        <time>2026-04-13T09:11:35Z</time>
      </trkpt>
      <trkpt lat="52.171611003577709" lon="8.124529542401433">
        <ele>146.109375</ele>
        <time>2026-04-13T09:11:39Z</time>
      </trkpt>
      <trkpt lat="52.171378824859858" lon="8.124606572091579">
        <ele>147.03125</ele>
        <time>2026-04-13T09:11:45Z</time>
      </trkpt>
      <trkpt lat="52.171179335564375" lon="8.124704053625464">
        <ele>147.92578125</ele>
        <time>2026-04-13T09:11:51Z</time>
      </trkpt>
      <trkpt lat="52.170987473800778" lon="8.124791728332639">
        <ele>148.5703125</ele>
        <time>2026-04-13T09:11:57Z</time>
      </trkpt>
      <trkpt lat="52.170791672542691" lon="8.124870853498578">
        <ele>149.0390625</ele>
        <time>2026-04-13T09:12:03Z</time>
      </trkpt>
      <trkpt lat="52.17059520073235" lon="8.124958276748657">
        <ele>151.0078125</ele>
        <time>2026-04-13T09:12:09Z</time>
      </trkpt>
      <trkpt lat="52.170414738357067" lon="8.125040587037802">
        <ele>154</ele>
        <time>2026-04-13T09:12:15Z</time>
      </trkpt>
      <trkpt lat="52.170230504125357" lon="8.125121556222439">
        <ele>156.97265625</ele>
        <time>2026-04-13T09:12:21Z</time>
      </trkpt>
      <trkpt lat="52.170059597119689" lon="8.125321716070175">
        <ele>159.3984375</ele>
        <time>2026-04-13T09:12:29Z</time>
      </trkpt>
      <trkpt lat="52.170151881873608" lon="8.125659758225083">
        <ele>157.203125</ele>
        <time>2026-04-13T09:12:35Z</time>
      </trkpt>
      <trkpt lat="52.17023653909564" lon="8.125930828973651">
        <ele>155.29296875</ele>
        <time>2026-04-13T09:12:39Z</time>
      </trkpt>
      <trkpt lat="52.170268390327692" lon="8.126293011009693">
        <ele>153.8515625</ele>
        <time>2026-04-13T09:12:43Z</time>
      </trkpt>
      <trkpt lat="52.17023653909564" lon="8.126671453937888">
        <ele>153.12890625</ele>
        <time>2026-04-13T09:12:47Z</time>
      </trkpt>
      <trkpt lat="52.170192450284958" lon="8.127058614045382">
        <ele>152.1875</ele>
        <time>2026-04-13T09:12:51Z</time>
      </trkpt>
      <trkpt lat="52.170188091695309" lon="8.127448707818985">
        <ele>150.86328125</ele>
        <time>2026-04-13T09:12:55Z</time>
      </trkpt>
      <trkpt lat="52.170228157192469" lon="8.127834275364876">
        <ele>149.23828125</ele>
        <time>2026-04-13T09:12:59Z</time>
      </trkpt>
      <trkpt lat="52.170252464711666" lon="8.128199055790901">
        <ele>147.78125</ele>
        <time>2026-04-13T09:13:03Z</time>
      </trkpt>
      <trkpt lat="52.170295212417841" lon="8.128568446263671">
        <ele>146.6640625</ele>
        <time>2026-04-13T09:13:07Z</time>
      </trkpt>
      <trkpt lat="52.17033033259213" lon="8.128931298851967">
        <ele>146.0078125</ele>
        <time>2026-04-13T09:13:11Z</time>
      </trkpt>
      <trkpt lat="52.170368721708655" lon="8.129321979358792">
        <ele>145.1953125</ele>
        <time>2026-04-13T09:13:15Z</time>
      </trkpt>
      <trkpt lat="52.170412559062243" lon="8.12976554967463">
        <ele>143.65234375</ele>
        <time>2026-04-13T09:13:19Z</time>
      </trkpt>
      <trkpt lat="52.170464778319001" lon="8.130245916545391">
        <ele>141.95703125</ele>
        <time>2026-04-13T09:13:23Z</time>
      </trkpt>
      <trkpt lat="52.170435274019837" lon="8.130741538479924">
        <ele>140.1640625</ele>
        <time>2026-04-13T09:13:27Z</time>
      </trkpt>
      <trkpt lat="52.170283058658242" lon="8.131220061331987">
        <ele>140.44140625</ele>
        <time>2026-04-13T09:13:31Z</time>
      </trkpt>
      <trkpt lat="52.170147355645895" lon="8.131702523678541">
        <ele>141.34765625</ele>
        <time>2026-04-13T09:13:35Z</time>
      </trkpt>
      <trkpt lat="52.170173339545727" lon="8.132231589406729">
        <ele>142.5078125</ele>
        <time>2026-04-13T09:13:39Z</time>
      </trkpt>
      <trkpt lat="52.170225642621517" lon="8.132699131965637">
        <ele>143.28125</ele>
        <time>2026-04-13T09:13:43Z</time>
      </trkpt>
      <trkpt lat="52.170253051444888" lon="8.133094171062112">
        <ele>143.921875</ele>
        <time>2026-04-13T09:13:47Z</time>
      </trkpt>
      <trkpt lat="52.170262858271599" lon="8.133427184075117">
        <ele>144.6171875</ele>
        <time>2026-04-13T09:13:51Z</time>
      </trkpt>
      <trkpt lat="52.170272078365088" lon="8.133771931752563">
        <ele>145.98828125</ele>
        <time>2026-04-13T09:13:55Z</time>
      </trkpt>
      <trkpt lat="52.17026143334806" lon="8.134106202051044">
        <ele>147.58984375</ele>
        <time>2026-04-13T09:13:59Z</time>
      </trkpt>
      <trkpt lat="52.170253721997142" lon="8.134446423500776">
        <ele>147.66796875</ele>
        <time>2026-04-13T09:14:03Z</time>
      </trkpt>
      <trkpt lat="52.170244250446558" lon="8.134795613586903">
        <ele>147.0390625</ele>
        <time>2026-04-13T09:14:07Z</time>
      </trkpt>
      <trkpt lat="52.170178117230535" lon="8.13510867767036">
        <ele>146.78515625</ele>
        <time>2026-04-13T09:14:11Z</time>
      </trkpt>
      <trkpt lat="52.170061357319355" lon="8.135353680700064">
        <ele>146.21875</ele>
        <time>2026-04-13T09:14:15Z</time>
      </trkpt>
      <trkpt lat="52.169935880228877" lon="8.135615950450301">
        <ele>144.97265625</ele>
        <time>2026-04-13T09:14:19Z</time>
      </trkpt>
      <trkpt lat="52.169849630445242" lon="8.135889116674662">
        <ele>143.28515625</ele>
        <time>2026-04-13T09:14:23Z</time>
      </trkpt>
      <trkpt lat="52.16977964155376" lon="8.136298069730401">
        <ele>144.91796875</ele>
        <time>2026-04-13T09:14:29Z</time>
      </trkpt>
      <trkpt lat="52.169796237722039" lon="8.136718422174454">
        <ele>145.8125</ele>
        <time>2026-04-13T09:14:35Z</time>
      </trkpt>
      <trkpt lat="52.169833118095994" lon="8.137122765183449">
        <ele>145.890625</ele>
        <time>2026-04-13T09:14:41Z</time>
      </trkpt>
      <trkpt lat="52.169885421171784" lon="8.13752643764019">
        <ele>145.9375</ele>
        <time>2026-04-13T09:14:47Z</time>
      </trkpt>
      <trkpt lat="52.169953901320696" lon="8.137923236936331">
        <ele>145.87890625</ele>
        <time>2026-04-13T09:14:53Z</time>
      </trkpt>
      <trkpt lat="52.169999750331044" lon="8.138221297413111">
        <ele>145.92578125</ele>
        <time>2026-04-13T09:14:57Z</time>
      </trkpt>
      <trkpt lat="52.170053478330374" lon="8.138518519699574">
        <ele>145.44140625</ele>
        <time>2026-04-13T09:15:01Z</time>
      </trkpt>
      <trkpt lat="52.170113576576114" lon="8.138823872432113">
        <ele>144.390625</ele>
        <time>2026-04-13T09:15:05Z</time>
      </trkpt>
      <trkpt lat="52.170189851894975" lon="8.139135092496872">
        <ele>143.28125</ele>
        <time>2026-04-13T09:15:09Z</time>
      </trkpt>
      <trkpt lat="52.170260930433869" lon="8.139454359188676">
        <ele>142.84765625</ele>
        <time>2026-04-13T09:15:13Z</time>
      </trkpt>
      <trkpt lat="52.17033619992435" lon="8.139763986691833">
        <ele>142.625</ele>
        <time>2026-04-13T09:15:17Z</time>
      </trkpt>
      <trkpt lat="52.170411637052894" lon="8.140088031068444">
        <ele>142.40625</ele>
        <time>2026-04-13T09:15:21Z</time>
      </trkpt>
      <trkpt lat="52.170464526861906" lon="8.14039028249681">
        <ele>141.94140625</ele>
        <time>2026-04-13T09:15:25Z</time>
      </trkpt>
      <trkpt lat="52.170508448034525" lon="8.140716757625341">
        <ele>141.58203125</ele>
        <time>2026-04-13T09:15:29Z</time>
      </trkpt>
      <trkpt lat="52.170559242367744" lon="8.141063181683421">
        <ele>141.0546875</ele>
        <time>2026-04-13T09:15:33Z</time>
      </trkpt>
      <trkpt lat="52.170598469674587" lon="8.141414131969214">
        <ele>140.4453125</ele>
        <time>2026-04-13T09:15:37Z</time>
      </trkpt>
      <trkpt lat="52.170637110248208" lon="8.141776230186224">
        <ele>139.83984375</ele>
        <time>2026-04-13T09:15:41Z</time>
      </trkpt>
      <trkpt lat="52.170680779963732" lon="8.14216791652143">
        <ele>138.91015625</ele>
        <time>2026-04-13T09:15:45Z</time>
      </trkpt>
      <trkpt lat="52.170733502134681" lon="8.142592627555132">
        <ele>137.88671875</ele>
        <time>2026-04-13T09:15:49Z</time>
      </trkpt>
      <trkpt lat="52.17079209163785" lon="8.14299127086997">
        <ele>137.265625</ele>
        <time>2026-04-13T09:15:53Z</time>
      </trkpt>
      <trkpt lat="52.170841880142689" lon="8.143384214490652">
        <ele>136.73046875</ele>
        <time>2026-04-13T09:15:57Z</time>
      </trkpt>
      <trkpt lat="52.170883286744356" lon="8.143774643540382">
        <ele>137.84375</ele>
        <time>2026-04-13T09:16:01Z</time>
      </trkpt>
      <trkpt lat="52.170922430232167" lon="8.144132047891617">
        <ele>138.77734375</ele>
        <time>2026-04-13T09:16:05Z</time>
      </trkpt>
      <trkpt lat="52.170934835448861" lon="8.144486853852868">
        <ele>138.7734375</ele>
        <time>2026-04-13T09:16:09Z</time>
      </trkpt>
      <trkpt lat="52.170944642275572" lon="8.144828164950013">
        <ele>138.5546875</ele>
        <time>2026-04-13T09:16:13Z</time>
      </trkpt>
      <trkpt lat="52.170949000865221" lon="8.145141983404756">
        <ele>138.61328125</ele>
        <time>2026-04-13T09:16:17Z</time>
      </trkpt>
      <trkpt lat="52.170962244272232" lon="8.145570969209075">
        <ele>139.296875</ele>
        <time>2026-04-13T09:16:23Z</time>
      </trkpt>
      <trkpt lat="52.170960567891598" lon="8.145919824019074">
        <ele>139.99609375</ele>
        <time>2026-04-13T09:16:29Z</time>
      </trkpt>
      <trkpt lat="52.171154692769051" lon="8.145990232005715">
        <ele>139.2265625</ele>
        <time>2026-04-13T09:16:35Z</time>
      </trkpt>
      <trkpt lat="52.171369772404432" lon="8.145977575331926">
        <ele>138.0546875</ele>
        <time>2026-04-13T09:16:39Z</time>
      </trkpt>
      <trkpt lat="52.17159440740943" lon="8.145949831232429">
        <ele>137.13671875</ele>
        <time>2026-04-13T09:16:43Z</time>
      </trkpt>
      <trkpt lat="52.171832704916596" lon="8.145964918658137">
        <ele>137.33984375</ele>
        <time>2026-04-13T09:16:47Z</time>
      </trkpt>
      <trkpt lat="52.172070750966668" lon="8.145917980000377">
        <ele>137.578125</ele>
        <time>2026-04-13T09:16:51Z</time>
      </trkpt>
      <trkpt lat="52.172304857522249" lon="8.145905407145619">
        <ele>137.83984375</ele>
        <time>2026-04-13T09:16:55Z</time>
      </trkpt>
      <trkpt lat="52.172520020976663" lon="8.145933235064149">
        <ele>137.36328125</ele>
        <time>2026-04-13T09:16:59Z</time>
      </trkpt>
      <trkpt lat="52.172717750072479" lon="8.145925775170326">
        <ele>136.69921875</ele>
        <time>2026-04-13T09:17:03Z</time>
      </trkpt>
      <trkpt lat="52.172897458076477" lon="8.145928792655468">
        <ele>136.078125</ele>
        <time>2026-04-13T09:17:09Z</time>
      </trkpt>
      <trkpt lat="52.172926375642419" lon="8.146224422380328">
        <ele>135.734375</ele>
        <time>2026-04-13T09:17:15Z</time>
      </trkpt>
      <trkpt lat="52.172875748947263" lon="8.146532289683819">
        <ele>135.56640625</ele>
        <time>2026-04-13T09:17:19Z</time>
      </trkpt>
      <trkpt lat="52.172820512205362" lon="8.146879887208343">
        <ele>135.46875</ele>
        <time>2026-04-13T09:17:23Z</time>
      </trkpt>
      <trkpt lat="52.172768376767635" lon="8.14722765237093">
        <ele>135.53125</ele>
        <time>2026-04-13T09:17:27Z</time>
      </trkpt>
      <trkpt lat="52.172709284350276" lon="8.147562006488442">
        <ele>135.6328125</ele>
        <time>2026-04-13T09:17:31Z</time>
      </trkpt>
      <trkpt lat="52.172659328207374" lon="8.147887224331498">
        <ele>136.0859375</ele>
        <time>2026-04-13T09:17:35Z</time>
      </trkpt>
      <trkpt lat="52.172678941860795" lon="8.148240353912115">
        <ele>136.484375</ele>
        <time>2026-04-13T09:17:39Z</time>
      </trkpt>
      <trkpt lat="52.172683887183666" lon="8.148548221215606">
        <ele>136.12109375</ele>
        <time>2026-04-13T09:17:43Z</time>
      </trkpt>
      <trkpt lat="52.172580035403371" lon="8.148859022185206">
        <ele>135.4375</ele>
        <time>2026-04-13T09:17:47Z</time>
      </trkpt>
      <trkpt lat="52.172460928559303" lon="8.14915674738586">
        <ele>134.9140625</ele>
        <time>2026-04-13T09:17:51Z</time>
      </trkpt>
      <trkpt lat="52.172389598563313" lon="8.149504009634256">
        <ele>134.2578125</ele>
        <time>2026-04-13T09:17:55Z</time>
      </trkpt>
      <trkpt lat="52.172333439812064" lon="8.149857893586159">
        <ele>133.59765625</ele>
        <time>2026-04-13T09:17:59Z</time>
      </trkpt>
      <trkpt lat="52.172281472012401" lon="8.150219237431884">
        <ele>133.98828125</ele>
        <time>2026-04-13T09:18:03Z</time>
      </trkpt>
      <trkpt lat="52.172212321311235" lon="8.150541605427861">
        <ele>135.3046875</ele>
        <time>2026-04-13T09:18:07Z</time>
      </trkpt>
      <trkpt lat="52.172160521149635" lon="8.150878474116325">
        <ele>136.55078125</ele>
        <time>2026-04-13T09:18:11Z</time>
      </trkpt>
      <trkpt lat="52.172270240262151" lon="8.151155160740018">
        <ele>137.1171875</ele>
        <time>2026-04-13T09:18:15Z</time>
      </trkpt>
      <trkpt lat="52.172455228865147" lon="8.151322128251195">
        <ele>137.35546875</ele>
        <time>2026-04-13T09:18:19Z</time>
      </trkpt>
      <trkpt lat="52.172658238559961" lon="8.151510050520301">
        <ele>137.125</ele>
        <time>2026-04-13T09:18:23Z</time>
      </trkpt>
      <trkpt lat="52.172852195799351" lon="8.151669390499592">
        <ele>136.65625</ele>
        <time>2026-04-13T09:18:27Z</time>
      </trkpt>
      <trkpt lat="52.173036178573966" lon="8.151848344132304">
        <ele>135.69140625</ele>
        <time>2026-04-13T09:18:31Z</time>
      </trkpt>
      <trkpt lat="52.173230303451419" lon="8.15202453173697">
        <ele>134.9921875</ele>
        <time>2026-04-13T09:18:35Z</time>
      </trkpt>
      <trkpt lat="52.173421159386635" lon="8.152185045182705">
        <ele>134.8515625</ele>
        <time>2026-04-13T09:18:39Z</time>
      </trkpt>
      <trkpt lat="52.173601202666759" lon="8.152350671589375">
        <ele>134.6328125</ele>
        <time>2026-04-13T09:18:43Z</time>
      </trkpt>
      <trkpt lat="52.173777054995298" lon="8.152491822838783">
        <ele>134.35546875</ele>
        <time>2026-04-13T09:18:47Z</time>
      </trkpt>
      <trkpt lat="52.173943519592285" lon="8.152631465345621">
        <ele>133.9609375</ele>
        <time>2026-04-13T09:18:51Z</time>
      </trkpt>
      <trkpt lat="52.174108559265733" lon="8.152759624645114">
        <ele>133.75</ele>
        <time>2026-04-13T09:18:55Z</time>
      </trkpt>
      <trkpt lat="52.174265719950199" lon="8.15291821025312">
        <ele>133.66015625</ele>
        <time>2026-04-13T09:18:59Z</time>
      </trkpt>
      <trkpt lat="52.174502927809954" lon="8.153114849701524">
        <ele>133.6875</ele>
        <time>2026-04-13T09:19:05Z</time>
      </trkpt>
      <trkpt lat="52.174673080444336" lon="8.153255414217711">
        <ele>133.7890625</ele>
        <time>2026-04-13T09:19:09Z</time>
      </trkpt>
      <trkpt lat="52.174835437908769" lon="8.153396816924214">
        <ele>133.8046875</ele>
        <time>2026-04-13T09:19:13Z</time>
      </trkpt>
      <trkpt lat="52.174855219200253" lon="8.153753215447068">
        <ele>132.1484375</ele>
        <time>2026-04-13T09:19:19Z</time>
      </trkpt>
      <trkpt lat="52.174526061862707" lon="8.153672078624368">
        <ele>132.5703125</ele>
        <time>2026-04-13T09:19:26Z</time>
      </trkpt>
      <trkpt lat="52.174261277541518" lon="8.153731338679791">
        <ele>132.4765625</ele>
        <time>2026-04-13T09:19:30Z</time>
      </trkpt>
      <trkpt lat="52.173964893445373" lon="8.153898054733872">
        <ele>132.171875</ele>
        <time>2026-04-13T09:19:34Z</time>
      </trkpt>
      <trkpt lat="52.17367303557694" lon="8.154109697788954">
        <ele>131.21484375</ele>
        <time>2026-04-13T09:19:38Z</time>
      </trkpt>
      <trkpt lat="52.173399869352579" lon="8.154286891222">
        <ele>130.34765625</ele>
        <time>2026-04-13T09:19:42Z</time>
      </trkpt>
      <trkpt lat="52.17314975336194" lon="8.154488559812307">
        <ele>129.7265625</ele>
        <time>2026-04-13T09:19:46Z</time>
      </trkpt>
      <trkpt lat="52.17291665263474" lon="8.154731299728155">
        <ele>129.71484375</ele>
        <time>2026-04-13T09:19:50Z</time>
      </trkpt>
      <trkpt lat="52.172726718708873" lon="8.155016452074051">
        <ele>129.59765625</ele>
        <time>2026-04-13T09:19:54Z</time>
      </trkpt>
      <trkpt lat="52.172574251890182" lon="8.155362540856004">
        <ele>129.2734375</ele>
        <time>2026-04-13T09:19:58Z</time>
      </trkpt>
      <trkpt lat="52.172455480322242" lon="8.155730254948139">
        <ele>128.9921875</ele>
        <time>2026-04-13T09:20:02Z</time>
      </trkpt>
      <trkpt lat="52.172336876392365" lon="8.156035356223583">
        <ele>129.234375</ele>
        <time>2026-04-13T09:20:06Z</time>
      </trkpt>
      <trkpt lat="52.172214668244123" lon="8.156286058947444">
        <ele>129.50390625</ele>
        <time>2026-04-13T09:20:10Z</time>
      </trkpt>
      <trkpt lat="52.172039989382029" lon="8.156443471089006">
        <ele>129.53515625</ele>
        <time>2026-04-13T09:20:14Z</time>
      </trkpt>
      <trkpt lat="52.171857180073857" lon="8.156563835218549">
        <ele>129.4140625</ele>
        <time>2026-04-13T09:20:18Z</time>
      </trkpt>
      <trkpt lat="52.171666994690895" lon="8.156686294823885">
        <ele>129.15625</ele>
        <time>2026-04-13T09:20:22Z</time>
      </trkpt>
      <trkpt lat="52.171480245888233" lon="8.156840521842241">
        <ele>129.19140625</ele>
        <time>2026-04-13T09:20:26Z</time>
      </trkpt>
      <trkpt lat="52.171468930318952" lon="8.157222401350737">
        <ele>128.71484375</ele>
        <time>2026-04-13T09:20:30Z</time>
      </trkpt>
      <trkpt lat="52.171508157625794" lon="8.157608304172754">
        <ele>128.0390625</ele>
        <time>2026-04-13T09:20:34Z</time>
      </trkpt>
      <trkpt lat="52.171549061313272" lon="8.158008623868227">
        <ele>127.4296875</ele>
        <time>2026-04-13T09:20:38Z</time>
      </trkpt>
      <trkpt lat="52.171576134860516" lon="8.158392598852515">
        <ele>127.03515625</ele>
        <time>2026-04-13T09:20:42Z</time>
      </trkpt>
      <trkpt lat="52.171609662473202" lon="8.1587905716151">
        <ele>126.99609375</ele>
        <time>2026-04-13T09:20:46Z</time>
      </trkpt>
      <trkpt lat="52.171681830659509" lon="8.159190053120256">
        <ele>126.83984375</ele>
        <time>2026-04-13T09:20:50Z</time>
      </trkpt>
      <trkpt lat="52.171793729066849" lon="8.159552654251456">
        <ele>126.2734375</ele>
        <time>2026-04-13T09:20:54Z</time>
      </trkpt>
      <trkpt lat="52.171919289976358" lon="8.159889355301857">
        <ele>125.71875</ele>
        <time>2026-04-13T09:20:58Z</time>
      </trkpt>
      <trkpt lat="52.17206203378737" lon="8.160197474062443">
        <ele>125.30078125</ele>
        <time>2026-04-13T09:21:02Z</time>
      </trkpt>
      <trkpt lat="52.172160521149635" lon="8.16052520647645">
        <ele>125.10546875</ele>
        <time>2026-04-13T09:21:06Z</time>
      </trkpt>
      <trkpt lat="52.172069996595383" lon="8.160870121791959">
        <ele>124.98046875</ele>
        <time>2026-04-13T09:21:10Z</time>
      </trkpt>
      <trkpt lat="52.171888360753655" lon="8.161161476746202">
        <ele>124.5546875</ele>
        <time>2026-04-13T09:21:14Z</time>
      </trkpt>
      <trkpt lat="52.171770762652159" lon="8.161428105086088">
        <ele>124.44921875</ele>
        <time>2026-04-13T09:21:18Z</time>
      </trkpt>
      <trkpt lat="52.171625252813101" lon="8.161772768944502">
        <ele>124.703125</ele>
        <time>2026-04-13T09:21:24Z</time>
      </trkpt>
      <trkpt lat="52.17148007825017" lon="8.16210838034749">
        <ele>125.15625</ele>
        <time>2026-04-13T09:21:30Z</time>
      </trkpt>
      <trkpt lat="52.171372203156352" lon="8.16236637532711">
        <ele>125.2890625</ele>
        <time>2026-04-13T09:21:34Z</time>
      </trkpt>
      <trkpt lat="52.171261059120297" lon="8.162629483267665">
        <ele>125.21875</ele>
        <time>2026-04-13T09:21:38Z</time>
      </trkpt>
      <trkpt lat="52.171143377199769" lon="8.162893429398537">
        <ele>125.04296875</ele>
        <time>2026-04-13T09:21:42Z</time>
      </trkpt>
      <trkpt lat="52.171026701107621" lon="8.163149915635586">
        <ele>124.875</ele>
        <time>2026-04-13T09:21:46Z</time>
      </trkpt>
      <trkpt lat="52.170953946188092" lon="8.163447473198175">
        <ele>124.57421875</ele>
        <time>2026-04-13T09:21:50Z</time>
      </trkpt>
      <trkpt lat="52.171105993911624" lon="8.163722734898329">
        <ele>123.88671875</ele>
        <time>2026-04-13T09:21:54Z</time>
      </trkpt>
      <trkpt lat="52.171291317790747" lon="8.163952566683292">
        <ele>123.09765625</ele>
        <time>2026-04-13T09:21:58Z</time>
      </trkpt>
      <trkpt lat="52.171471696346998" lon="8.164212824776769">
        <ele>122.15625</ele>
        <time>2026-04-13T09:22:02Z</time>
      </trkpt>
      <trkpt lat="52.171654589474201" lon="8.164482889696956">
        <ele>121.8671875</ele>
        <time>2026-04-13T09:22:06Z</time>
      </trkpt>
      <trkpt lat="52.171840835362673" lon="8.164752367883921">
        <ele>121.796875</ele>
        <time>2026-04-13T09:22:10Z</time>
      </trkpt>
      <trkpt lat="52.172005288302898" lon="8.165030898526311">
        <ele>121.55078125</ele>
        <time>2026-04-13T09:22:14Z</time>
      </trkpt>
      <trkpt lat="52.172172088176012" lon="8.165329042822123">
        <ele>121.66015625</ele>
        <time>2026-04-13T09:22:18Z</time>
      </trkpt>
      <trkpt lat="52.172340648248792" lon="8.16561771556735">
        <ele>121.921875</ele>
        <time>2026-04-13T09:22:22Z</time>
      </trkpt>
      <trkpt lat="52.172537539154291" lon="8.165803709998727">
        <ele>122.59765625</ele>
        <time>2026-04-13T09:22:26Z</time>
      </trkpt>
      <trkpt lat="52.172766532748938" lon="8.165857270359993">
        <ele>123.3984375</ele>
        <time>2026-04-13T09:22:30Z</time>
      </trkpt>
      <trkpt lat="52.172970548272133" lon="8.165989117696881">
        <ele>123.9296875</ele>
        <time>2026-04-13T09:22:34Z</time>
      </trkpt>
      <trkpt lat="52.173066437244415" lon="8.166303858160973">
        <ele>123.8515625</ele>
        <time>2026-04-13T09:22:38Z</time>
      </trkpt>
      <trkpt lat="52.173107676208019" lon="8.16671809181571">
        <ele>123.4140625</ele>
        <time>2026-04-13T09:22:42Z</time>
      </trkpt>
      <trkpt lat="52.173126032575965" lon="8.167169122025371">
        <ele>121.984375</ele>
        <time>2026-04-13T09:22:46Z</time>
      </trkpt>
      <trkpt lat="52.173174899071455" lon="8.167690560221672">
        <ele>120.73046875</ele>
        <time>2026-04-13T09:22:50Z</time>
      </trkpt>
      <trkpt lat="52.173304902389646" lon="8.168118288740516">
        <ele>119.94921875</ele>
        <time>2026-04-13T09:22:54Z</time>
      </trkpt>
      <trkpt lat="52.173365000635386" lon="8.168532941490412">
        <ele>119.578125</ele>
        <time>2026-04-13T09:22:58Z</time>
      </trkpt>
      <trkpt lat="52.173310937359929" lon="8.168907444924116">
        <ele>120.14453125</ele>
        <time>2026-04-13T09:23:02Z</time>
      </trkpt>
      <trkpt lat="52.173200715333223" lon="8.1691915076226">
        <ele>120.984375</ele>
        <time>2026-04-13T09:23:06Z</time>
      </trkpt>
      <trkpt lat="52.173057552427053" lon="8.169392170384526">
        <ele>120.5703125</ele>
        <time>2026-04-13T09:23:10Z</time>
      </trkpt>
      <trkpt lat="52.172837192192674" lon="8.169620744884014">
        <ele>120.03125</ele>
        <time>2026-04-13T09:23:16Z</time>
      </trkpt>
      <trkpt lat="52.172649018466473" lon="8.169905226677656">
        <ele>119.46484375</ele>
        <time>2026-04-13T09:23:22Z</time>
      </trkpt>
      <trkpt lat="52.172477440908551" lon="8.170220218598843">
        <ele>119.08984375</ele>
        <time>2026-04-13T09:23:28Z</time>
      </trkpt>
      <trkpt lat="52.172342659905553" lon="8.170547615736723">
        <ele>119.12890625</ele>
        <time>2026-04-13T09:23:34Z</time>
      </trkpt>
      <trkpt lat="52.172239478677511" lon="8.170874007046223">
        <ele>119.5390625</ele>
        <time>2026-04-13T09:23:40Z</time>
      </trkpt>
      <trkpt lat="52.172119449824095" lon="8.171186484396458">
        <ele>120.48046875</ele>
        <time>2026-04-13T09:23:46Z</time>
      </trkpt>
      <trkpt lat="52.172055579721928" lon="8.17152083851397">
        <ele>121.140625</ele>
        <time>2026-04-13T09:23:52Z</time>
      </trkpt>
      <trkpt lat="52.172189690172672" lon="8.171873716637492">
        <ele>120.953125</ele>
        <time>2026-04-13T09:23:58Z</time>
      </trkpt>
      <trkpt lat="52.172307707369328" lon="8.172132214531303">
        <ele>120.5078125</ele>
        <time>2026-04-13T09:24:02Z</time>
      </trkpt>
      <trkpt lat="52.17244952917099" lon="8.172373026609421">
        <ele>120.078125</ele>
        <time>2026-04-13T09:24:06Z</time>
      </trkpt>
      <trkpt lat="52.172590428963304" lon="8.172602271661162">
        <ele>119.5</ele>
        <time>2026-04-13T09:24:10Z</time>
      </trkpt>
      <trkpt lat="52.172745410352945" lon="8.172843251377344">
        <ele>118.73828125</ele>
        <time>2026-04-13T09:24:14Z</time>
      </trkpt>
      <trkpt lat="52.172915898263454" lon="8.173087667673826">
        <ele>118.19140625</ele>
        <time>2026-04-13T09:24:18Z</time>
      </trkpt>
      <trkpt lat="52.173069538548589" lon="8.173348680138588">
        <ele>117.8359375</ele>
        <time>2026-04-13T09:24:22Z</time>
      </trkpt>
      <trkpt lat="52.173171630129218" lon="8.173609357327223">
        <ele>117.1015625</ele>
        <time>2026-04-13T09:24:26Z</time>
      </trkpt>
      <trkpt lat="52.173077585175633" lon="8.173979334533215">
        <ele>116.1875</ele>
        <time>2026-04-13T09:24:32Z</time>
      </trkpt>
      <trkpt lat="52.173222340643406" lon="8.174239089712501">
        <ele>114.84765625</ele>
        <time>2026-04-13T09:24:40Z</time>
      </trkpt>
      <trkpt lat="52.173393918201327" lon="8.174403458833695">
        <ele>114.15234375</ele>
        <time>2026-04-13T09:24:44Z</time>
      </trkpt>
      <trkpt lat="52.173586031422019" lon="8.174588195979595">
        <ele>113.5703125</ele>
        <time>2026-04-13T09:24:48Z</time>
      </trkpt>
      <trkpt lat="52.173803960904479" lon="8.174754660576582">
        <ele>113.18359375</ele>
        <time>2026-04-13T09:24:52Z</time>
      </trkpt>
      <trkpt lat="52.174050472676754" lon="8.174804365262389">
        <ele>112.9921875</ele>
        <time>2026-04-13T09:24:56Z</time>
      </trkpt>
      <trkpt lat="52.174309892579913" lon="8.174791876226664">
        <ele>112.59375</ele>
        <time>2026-04-13T09:25:00Z</time>
      </trkpt>
      <trkpt lat="52.174578616395593" lon="8.174710907042027">
        <ele>112.12109375</ele>
        <time>2026-04-13T09:25:04Z</time>
      </trkpt>
      <trkpt lat="52.17483501881361" lon="8.174622310325503">
        <ele>111.59765625</ele>
        <time>2026-04-13T09:25:08Z</time>
      </trkpt>
      <trkpt lat="52.175104580819607" lon="8.174539748579264">
        <ele>111.03515625</ele>
        <time>2026-04-13T09:25:12Z</time>
      </trkpt>
      <trkpt lat="52.175374645739794" lon="8.174462048336864">
        <ele>110.53515625</ele>
        <time>2026-04-13T09:25:16Z</time>
      </trkpt>
      <trkpt lat="52.175642531365156" lon="8.174385186284781">
        <ele>110.1015625</ele>
        <time>2026-04-13T09:25:20Z</time>
      </trkpt>
      <trkpt lat="52.175896838307381" lon="8.174320813268423">
        <ele>109.55078125</ele>
        <time>2026-04-13T09:25:24Z</time>
      </trkpt>
      <trkpt lat="52.176151061430573" lon="8.174276892095804">
        <ele>108.94140625</ele>
        <time>2026-04-13T09:25:28Z</time>
      </trkpt>
      <trkpt lat="52.176400842145085" lon="8.174302792176604">
        <ele>108.33984375</ele>
        <time>2026-04-13T09:25:32Z</time>
      </trkpt>
      <trkpt lat="52.176632350310683" lon="8.174464898183942">
        <ele>108.1796875</ele>
        <time>2026-04-13T09:25:36Z</time>
      </trkpt>
      <trkpt lat="52.176823876798153" lon="8.174689952284098">
        <ele>108.1953125</ele>
        <time>2026-04-13T09:25:40Z</time>
      </trkpt>
      <trkpt lat="52.177012050524354" lon="8.174923472106457">
        <ele>107.6953125</ele>
        <time>2026-04-13T09:25:44Z</time>
      </trkpt>
      <trkpt lat="52.177202571183443" lon="8.175152465701103">
        <ele>107.46875</ele>
        <time>2026-04-13T09:25:48Z</time>
      </trkpt>
      <trkpt lat="52.177390744909644" lon="8.175394954159856">
        <ele>107.4453125</ele>
        <time>2026-04-13T09:25:52Z</time>
      </trkpt>
      <trkpt lat="52.177580762654543" lon="8.17565462552011">
        <ele>107.4453125</ele>
        <time>2026-04-13T09:25:56Z</time>
      </trkpt>
      <trkpt lat="52.177784107625484" lon="8.175889486446977">
        <ele>107.1328125</ele>
        <time>2026-04-13T09:26:00Z</time>
      </trkpt>
      <trkpt lat="52.177985860034823" lon="8.176140356808901">
        <ele>106.8359375</ele>
        <time>2026-04-13T09:26:04Z</time>
      </trkpt>
      <trkpt lat="52.178153414279222" lon="8.176436824724078">
        <ele>105.75390625</ele>
        <time>2026-04-13T09:26:08Z</time>
      </trkpt>
      <trkpt lat="52.178265228867531" lon="8.176803784444928">
        <ele>105.390625</ele>
        <time>2026-04-13T09:26:12Z</time>
      </trkpt>
      <trkpt lat="52.178298169746995" lon="8.177193542942405">
        <ele>105.515625</ele>
        <time>2026-04-13T09:26:16Z</time>
      </trkpt>
      <trkpt lat="52.178304456174374" lon="8.177591264247894">
        <ele>105.3515625</ele>
        <time>2026-04-13T09:26:20Z</time>
      </trkpt>
      <trkpt lat="52.178302276879549" lon="8.177972557023168">
        <ele>104.78125</ele>
        <time>2026-04-13T09:26:24Z</time>
      </trkpt>
      <trkpt lat="52.178311329334974" lon="8.178340857848525">
        <ele>104.26171875</ele>
        <time>2026-04-13T09:26:28Z</time>
      </trkpt>
      <trkpt lat="52.178348628804088" lon="8.178702956065536">
        <ele>104.546875</ele>
        <time>2026-04-13T09:26:32Z</time>
      </trkpt>
      <trkpt lat="52.178412415087223" lon="8.179060947149992">
        <ele>104.71484375</ele>
        <time>2026-04-13T09:26:36Z</time>
      </trkpt>
      <trkpt lat="52.178486930206418" lon="8.179424470290542">
        <ele>104.76171875</ele>
        <time>2026-04-13T09:26:40Z</time>
      </trkpt>
      <trkpt lat="52.178554739803076" lon="8.179767960682511">
        <ele>104.52734375</ele>
        <time>2026-04-13T09:26:44Z</time>
      </trkpt>
      <trkpt lat="52.178592290729284" lon="8.180125448852778">
        <ele>104.4453125</ele>
        <time>2026-04-13T09:26:48Z</time>
      </trkpt>
      <trkpt lat="52.178622465580702" lon="8.180468939244747">
        <ele>104.8359375</ele>
        <time>2026-04-13T09:26:52Z</time>
      </trkpt>
      <trkpt lat="52.178621040657163" lon="8.180788541212678">
        <ele>105.4296875</ele>
        <time>2026-04-13T09:26:56Z</time>
      </trkpt>
      <trkpt lat="52.178624561056495" lon="8.181104958057404">
        <ele>105.5</ele>
        <time>2026-04-13T09:27:00Z</time>
      </trkpt>
      <trkpt lat="52.178645767271519" lon="8.181438390165567">
        <ele>105.2734375</ele>
        <time>2026-04-13T09:27:04Z</time>
      </trkpt>
      <trkpt lat="52.178668482229114" lon="8.18176930770278">
        <ele>105.140625</ele>
        <time>2026-04-13T09:27:08Z</time>
      </trkpt>
      <trkpt lat="52.178678791970015" lon="8.182070134207606">
        <ele>105.44140625</ele>
        <time>2026-04-13T09:27:12Z</time>
      </trkpt>
      <trkpt lat="52.178703602403402" lon="8.182503478601575">
        <ele>105.8203125</ele>
        <time>2026-04-13T09:27:18Z</time>
      </trkpt>
      <trkpt lat="52.178728748112917" lon="8.182927099987865">
        <ele>105.93359375</ele>
        <time>2026-04-13T09:27:24Z</time>
      </trkpt>
      <trkpt lat="52.178752301260829" lon="8.18322641775012">
        <ele>105.984375</ele>
        <time>2026-04-13T09:27:28Z</time>
      </trkpt>
      <trkpt lat="52.178771831095219" lon="8.183528669178486">
        <ele>105.79296875</ele>
        <time>2026-04-13T09:27:32Z</time>
      </trkpt>
      <trkpt lat="52.178778620436788" lon="8.183837374672294">
        <ele>105.48828125</ele>
        <time>2026-04-13T09:27:36Z</time>
      </trkpt>
      <trkpt lat="52.178792031481862" lon="8.184164352715015">
        <ele>105.10546875</ele>
        <time>2026-04-13T09:27:40Z</time>
      </trkpt>
      <trkpt lat="52.178785242140293" lon="8.184503149241209">
        <ele>104.64453125</ele>
        <time>2026-04-13T09:27:44Z</time>
      </trkpt>
      <trkpt lat="52.178807118907571" lon="8.184887459501624">
        <ele>103.87890625</ele>
        <time>2026-04-13T09:27:48Z</time>
      </trkpt>
      <trkpt lat="52.178802341222763" lon="8.185363886877894">
        <ele>102.3359375</ele>
        <time>2026-04-13T09:27:52Z</time>
      </trkpt>
      <trkpt lat="52.178773591294885" lon="8.18581810221076">
        <ele>100.71484375</ele>
        <time>2026-04-13T09:27:56Z</time>
      </trkpt>
      <trkpt lat="52.178743332624435" lon="8.18623686209321">
        <ele>100.95703125</ele>
        <time>2026-04-13T09:28:00Z</time>
      </trkpt>
      <trkpt lat="52.178726484999061" lon="8.186640283092856">
        <ele>101.25</ele>
        <time>2026-04-13T09:28:04Z</time>
      </trkpt>
      <trkpt lat="52.178703350946307" lon="8.187023755162954">
        <ele>101.265625</ele>
        <time>2026-04-13T09:28:08Z</time>
      </trkpt>
      <trkpt lat="52.178677869960666" lon="8.187433881685138">
        <ele>101.22265625</ele>
        <time>2026-04-13T09:28:12Z</time>
      </trkpt>
      <trkpt lat="52.178658591583371" lon="8.187825735658407">
        <ele>100.3359375</ele>
        <time>2026-04-13T09:28:16Z</time>
      </trkpt>
      <trkpt lat="52.178632272407413" lon="8.188223373144865">
        <ele>99.30859375</ele>
        <time>2026-04-13T09:28:20Z</time>
      </trkpt>
      <trkpt lat="52.178605198860168" lon="8.18860131315887">
        <ele>99.2890625</ele>
        <time>2026-04-13T09:28:24Z</time>
      </trkpt>
      <trkpt lat="52.178587429225445" lon="8.188963495194912">
        <ele>99.60546875</ele>
        <time>2026-04-13T09:28:28Z</time>
      </trkpt>
      <trkpt lat="52.178567061200738" lon="8.189319977536798">
        <ele>99.74609375</ele>
        <time>2026-04-13T09:28:32Z</time>
      </trkpt>
      <trkpt lat="52.17855834402144" lon="8.189694145694375">
        <ele>99.5390625</ele>
        <time>2026-04-13T09:28:36Z</time>
      </trkpt>
      <trkpt lat="52.178582148626447" lon="8.190075103193522">
        <ele>99.28125</ele>
        <time>2026-04-13T09:28:40Z</time>
      </trkpt>
      <trkpt lat="52.178660519421101" lon="8.190451618283987">
        <ele>99.359375</ele>
        <time>2026-04-13T09:28:44Z</time>
      </trkpt>
      <trkpt lat="52.17876504175365" lon="8.190742889419198">
        <ele>99.20703125</ele>
        <time>2026-04-13T09:28:48Z</time>
      </trkpt>
      <trkpt lat="52.178904600441456" lon="8.190961573272944">
        <ele>98.6328125</ele>
        <time>2026-04-13T09:28:52Z</time>
      </trkpt>
      <trkpt lat="52.178904432803392" lon="8.191329538822174">
        <ele>98.55859375</ele>
        <time>2026-04-13T09:28:56Z</time>
      </trkpt>
      <trkpt lat="52.178846681490541" lon="8.191672693938017">
        <ele>98.69921875</ele>
        <time>2026-04-13T09:29:00Z</time>
      </trkpt>
      <trkpt lat="52.178792199119925" lon="8.192024314776063">
        <ele>98.6015625</ele>
        <time>2026-04-13T09:29:04Z</time>
      </trkpt>
      <trkpt lat="52.178750038146973" lon="8.192363027483225">
        <ele>98.51171875</ele>
        <time>2026-04-13T09:29:08Z</time>
      </trkpt>
      <trkpt lat="52.178708966821432" lon="8.192684473469853">
        <ele>98.33984375</ele>
        <time>2026-04-13T09:29:12Z</time>
      </trkpt>
      <trkpt lat="52.178655741736293" lon="8.192980941385031">
        <ele>98.2421875</ele>
        <time>2026-04-13T09:29:16Z</time>
      </trkpt>
      <trkpt lat="52.1785984095186" lon="8.193282019346952">
        <ele>98.25390625</ele>
        <time>2026-04-13T09:29:20Z</time>
      </trkpt>
      <trkpt lat="52.178540322929621" lon="8.193592485040426">
        <ele>97.94140625</ele>
        <time>2026-04-13T09:29:24Z</time>
      </trkpt>
      <trkpt lat="52.178490534424782" lon="8.193909907713532">
        <ele>97.37890625</ele>
        <time>2026-04-13T09:29:28Z</time>
      </trkpt>
      <trkpt lat="52.178420461714268" lon="8.194245183840394">
        <ele>96.8515625</ele>
        <time>2026-04-13T09:29:32Z</time>
      </trkpt>
      <trkpt lat="52.178367152810097" lon="8.19459286518395">
        <ele>96.421875</ele>
        <time>2026-04-13T09:29:36Z</time>
      </trkpt>
      <trkpt lat="52.178324488922954" lon="8.194928895682097">
        <ele>95.8828125</ele>
        <time>2026-04-13T09:29:40Z</time>
      </trkpt>
      <trkpt lat="52.178295319899917" lon="8.195271380245686">
        <ele>95.5390625</ele>
        <time>2026-04-13T09:29:44Z</time>
      </trkpt>
      <trkpt lat="52.178285932168365" lon="8.195645464584231">
        <ele>95.19140625</ele>
        <time>2026-04-13T09:29:48Z</time>
      </trkpt>
      <trkpt lat="52.17828911729157" lon="8.19604754447937">
        <ele>94.87109375</ele>
        <time>2026-04-13T09:29:52Z</time>
      </trkpt>
      <trkpt lat="52.178276460617781" lon="8.196451887488365">
        <ele>94.56640625</ele>
        <time>2026-04-13T09:29:56Z</time>
      </trkpt>
      <trkpt lat="52.178214183077216" lon="8.19684742949903">
        <ele>94.04296875</ele>
        <time>2026-04-13T09:30:00Z</time>
      </trkpt>
      <trkpt lat="52.178135141730309" lon="8.197225285694003">
        <ele>94.17578125</ele>
        <time>2026-04-13T09:30:04Z</time>
      </trkpt>
      <trkpt lat="52.178037911653519" lon="8.197562992572784">
        <ele>94.26953125</ele>
        <time>2026-04-13T09:30:08Z</time>
      </trkpt>
      <trkpt lat="52.17791142873466" lon="8.197881756350398">
        <ele>93.80859375</ele>
        <time>2026-04-13T09:30:12Z</time>
      </trkpt>
      <trkpt lat="52.177800452336669" lon="8.198228934779763">
        <ele>93.2421875</ele>
        <time>2026-04-13T09:30:16Z</time>
      </trkpt>
      <trkpt lat="52.177678160369396" lon="8.198559181764722">
        <ele>93.46484375</ele>
        <time>2026-04-13T09:30:20Z</time>
      </trkpt>
      <trkpt lat="52.177562238648534" lon="8.198891775682569">
        <ele>93.84765625</ele>
        <time>2026-04-13T09:30:24Z</time>
      </trkpt>
      <trkpt lat="52.177445646375418" lon="8.199217580258846">
        <ele>93.90625</ele>
        <time>2026-04-13T09:30:28Z</time>
      </trkpt>
      <trkpt lat="52.177343051880598" lon="8.19953634403646">
        <ele>93.484375</ele>
        <time>2026-04-13T09:30:32Z</time>
      </trkpt>
      <trkpt lat="52.177262920886278" lon="8.199848653748632">
        <ele>93.78125</ele>
        <time>2026-04-13T09:30:36Z</time>
      </trkpt>
      <trkpt lat="52.177206091582775" lon="8.200180241838098">
        <ele>93.8515625</ele>
        <time>2026-04-13T09:30:40Z</time>
      </trkpt>
      <trkpt lat="52.17716577462852" lon="8.200508477166295">
        <ele>93.55078125</ele>
        <time>2026-04-13T09:30:44Z</time>
      </trkpt>
      <trkpt lat="52.177133169025183" lon="8.200863366946578">
        <ele>93.0078125</ele>
        <time>2026-04-13T09:30:48Z</time>
      </trkpt>
      <trkpt lat="52.177101820707321" lon="8.201207360252738">
        <ele>92.859375</ele>
        <time>2026-04-13T09:30:52Z</time>
      </trkpt>
      <trkpt lat="52.177066029980779" lon="8.201538110151887">
        <ele>92.66015625</ele>
        <time>2026-04-13T09:30:56Z</time>
      </trkpt>
      <trkpt lat="52.177038202062249" lon="8.201873553916812">
        <ele>92.12890625</ele>
        <time>2026-04-13T09:31:00Z</time>
      </trkpt>
      <trkpt lat="52.177005261182785" lon="8.202236322686076">
        <ele>91.41796875</ele>
        <time>2026-04-13T09:31:04Z</time>
      </trkpt>
      <trkpt lat="52.176959998905659" lon="8.202620381489396">
        <ele>90.99609375</ele>
        <time>2026-04-13T09:31:08Z</time>
      </trkpt>
      <trkpt lat="52.176924208179116" lon="8.20300024934113">
        <ele>91.16796875</ele>
        <time>2026-04-13T09:31:12Z</time>
      </trkpt>
      <trkpt lat="52.176896380260587" lon="8.203378608450294">
        <ele>91.390625</ele>
        <time>2026-04-13T09:31:16Z</time>
      </trkpt>
      <trkpt lat="52.176864529028535" lon="8.203725619241595">
        <ele>92.31640625</ele>
        <time>2026-04-13T09:31:20Z</time>
      </trkpt>
      <trkpt lat="52.176832342520356" lon="8.204060308635235">
        <ele>93.3125</ele>
        <time>2026-04-13T09:31:24Z</time>
      </trkpt>
      <trkpt lat="52.17680174857378" lon="8.204374294728041">
        <ele>93.7265625</ele>
        <time>2026-04-13T09:31:28Z</time>
      </trkpt>
      <trkpt lat="52.17677341774106" lon="8.204671684652567">
        <ele>93.7890625</ele>
        <time>2026-04-13T09:31:32Z</time>
      </trkpt>
      <trkpt lat="52.176744919270277" lon="8.204963961616159">
        <ele>93.80859375</ele>
        <time>2026-04-13T09:31:36Z</time>
      </trkpt>
      <trkpt lat="52.176720863208175" lon="8.205278282985091">
        <ele>93.73828125</ele>
        <time>2026-04-13T09:31:40Z</time>
      </trkpt>
      <trkpt lat="52.176690688356757" lon="8.205600818619132">
        <ele>93.6484375</ele>
        <time>2026-04-13T09:31:44Z</time>
      </trkpt>
      <trkpt lat="52.176662608981133" lon="8.205899382010102">
        <ele>93.6484375</ele>
        <time>2026-04-13T09:31:48Z</time>
      </trkpt>
      <trkpt lat="52.17663612216711" lon="8.206240357831121">
        <ele>94.15234375</ele>
        <time>2026-04-13T09:31:52Z</time>
      </trkpt>
      <trkpt lat="52.176613071933389" lon="8.206542441621423">
        <ele>94.59765625</ele>
        <time>2026-04-13T09:31:56Z</time>
      </trkpt>
      <trkpt lat="52.176571497693658" lon="8.206933625042439">
        <ele>96.14453125</ele>
        <time>2026-04-13T09:32:02Z</time>
      </trkpt>
      <trkpt lat="52.176536209881306" lon="8.207291951403022">
        <ele>98.015625</ele>
        <time>2026-04-13T09:32:08Z</time>
      </trkpt>
      <trkpt lat="52.176548782736063" lon="8.207612056285143">
        <ele>99.2265625</ele>
        <time>2026-04-13T09:32:14Z</time>
      </trkpt>
      <trkpt lat="52.176764449104667" lon="8.207733845338225">
        <ele>98.0390625</ele>
        <time>2026-04-13T09:32:20Z</time>
      </trkpt>
      <trkpt lat="52.176946084946394" lon="8.207789920270443">
        <ele>96.9609375</ele>
        <time>2026-04-13T09:32:24Z</time>
      </trkpt>
      <trkpt lat="52.177130319178104" lon="8.207840379327536">
        <ele>95.875</ele>
        <time>2026-04-13T09:32:28Z</time>
      </trkpt>
      <trkpt lat="52.177367359399796" lon="8.20792805403471">
        <ele>94.59765625</ele>
        <time>2026-04-13T09:32:32Z</time>
      </trkpt>
      <trkpt lat="52.177635999396443" lon="8.208006173372269">
        <ele>93.00390625</ele>
        <time>2026-04-13T09:32:36Z</time>
      </trkpt>
      <trkpt lat="52.17793732881546" lon="8.208088483661413">
        <ele>90.9921875</ele>
        <time>2026-04-13T09:32:40Z</time>
      </trkpt>
      <trkpt lat="52.178235808387399" lon="8.208180349320173">
        <ele>89.0390625</ele>
        <time>2026-04-13T09:32:44Z</time>
      </trkpt>
      <trkpt lat="52.178506292402744" lon="8.208259306848049">
        <ele>89.390625</ele>
        <time>2026-04-13T09:32:48Z</time>
      </trkpt>
      <trkpt lat="52.178754899650812" lon="8.208343712612987">
        <ele>89.671875</ele>
        <time>2026-04-13T09:32:52Z</time>
      </trkpt>
      <trkpt lat="52.17899227514863" lon="8.208415461704135">
        <ele>89.9609375</ele>
        <time>2026-04-13T09:32:56Z</time>
      </trkpt>
      <trkpt lat="52.179208528250456" lon="8.208478996530175">
        <ele>90.53125</ele>
        <time>2026-04-13T09:33:00Z</time>
      </trkpt>
      <trkpt lat="52.179414303973317" lon="8.208543369546533">
        <ele>91.1171875</ele>
        <time>2026-04-13T09:33:04Z</time>
      </trkpt>
      <trkpt lat="52.17962603084743" lon="8.208609167486429">
        <ele>91.640625</ele>
        <time>2026-04-13T09:33:08Z</time>
      </trkpt>
      <trkpt lat="52.179830381646752" lon="8.208671193569899">
        <ele>92.0703125</ele>
        <time>2026-04-13T09:33:12Z</time>
      </trkpt>
      <trkpt lat="52.180038588121533" lon="8.208743697032332">
        <ele>92.40234375</ele>
        <time>2026-04-13T09:33:16Z</time>
      </trkpt>
      <trkpt lat="52.180230030789971" lon="8.208789797499776">
        <ele>92.83984375</ele>
        <time>2026-04-13T09:33:20Z</time>
      </trkpt>
      <trkpt lat="52.180409738793969" lon="8.208852829411626">
        <ele>93.359375</ele>
        <time>2026-04-13T09:33:24Z</time>
      </trkpt>
      <trkpt lat="52.180586848407984" lon="8.208902115002275">
        <ele>93.9765625</ele>
        <time>2026-04-13T09:33:28Z</time>
      </trkpt>
      <trkpt lat="52.180765047669411" lon="8.208966739475727">
        <ele>94.890625</ele>
        <time>2026-04-13T09:33:32Z</time>
      </trkpt>
      <trkpt lat="52.181003428995609" lon="8.209078554064035">
        <ele>96.609375</ele>
        <time>2026-04-13T09:33:38Z</time>
      </trkpt>
      <trkpt lat="52.1811817958951" lon="8.209213921800256">
        <ele>98.0390625</ele>
        <time>2026-04-13T09:33:44Z</time>
      </trkpt>
      <trkpt lat="52.181372316554189" lon="8.209400922060013">
        <ele>100.015625</ele>
        <time>2026-04-13T09:33:52Z</time>
      </trkpt>
      <trkpt lat="52.181505504995584" lon="8.209679704159498">
        <ele>102.21875</ele>
        <time>2026-04-13T09:34:02Z</time>
      </trkpt>
      <trkpt lat="52.181647578254342" lon="8.209934094920754">
        <ele>104.5234375</ele>
        <time>2026-04-13T09:34:12Z</time>
      </trkpt>
      <trkpt lat="52.18182971701026" lon="8.210117910057306">
        <ele>105.9453125</ele>
        <time>2026-04-13T09:34:24Z</time>
      </trkpt>
      <trkpt lat="52.182035660371184" lon="8.210093351081014">
        <ele>107.4609375</ele>
        <time>2026-04-13T09:34:34Z</time>
      </trkpt>
      <trkpt lat="52.182247471064329" lon="8.21003895252943">
        <ele>109.05078125</ele>
        <time>2026-04-13T09:34:46Z</time>
      </trkpt>
      <trkpt lat="52.182438997551799" lon="8.209980949759483">
        <ele>110.26171875</ele>
        <time>2026-04-13T09:34:56Z</time>
      </trkpt>
      <trkpt lat="52.182640498504043" lon="8.209974076598883">
        <ele>110.99609375</ele>
        <time>2026-04-13T09:35:06Z</time>
      </trkpt>
      <trkpt lat="52.182823559269309" lon="8.209962341934443">
        <ele>111.66796875</ele>
        <time>2026-04-13T09:35:22Z</time>
      </trkpt>
      <trkpt lat="52.182946354150772" lon="8.210219666361809">
        <ele>111.984375</ele>
        <time>2026-04-13T09:35:32Z</time>
      </trkpt>
      <trkpt lat="52.183020114898682" lon="8.210510602220893">
        <ele>112.1953125</ele>
        <time>2026-04-13T09:35:40Z</time>
      </trkpt>
      <trkpt lat="52.183088175952435" lon="8.210863061249256">
        <ele>112.3984375</ele>
        <time>2026-04-13T09:35:48Z</time>
      </trkpt>
      <trkpt lat="52.18314416706562" lon="8.211146201938391">
        <ele>112.328125</ele>
        <time>2026-04-13T09:35:54Z</time>
      </trkpt>
      <trkpt lat="52.183187920600176" lon="8.211480053141713">
        <ele>112.13671875</ele>
        <time>2026-04-13T09:36:00Z</time>
      </trkpt>
      <trkpt lat="52.183238966390491" lon="8.211876852437854">
        <ele>111.7734375</ele>
        <time>2026-04-13T09:36:06Z</time>
      </trkpt>
      <trkpt lat="52.183295795693994" lon="8.212169213220477">
        <ele>111.43359375</ele>
        <time>2026-04-13T09:36:10Z</time>
      </trkpt>
      <trkpt lat="52.18335622921586" lon="8.21248940192163">
        <ele>111.0078125</ele>
        <time>2026-04-13T09:36:14Z</time>
      </trkpt>
      <trkpt lat="52.183425212278962" lon="8.212837418541312">
        <ele>110.48046875</ele>
        <time>2026-04-13T09:36:18Z</time>
      </trkpt>
      <trkpt lat="52.1834905911237" lon="8.213197840377688">
        <ele>109.8671875</ele>
        <time>2026-04-13T09:36:22Z</time>
      </trkpt>
      <trkpt lat="52.183564435690641" lon="8.213594891130924">
        <ele>108.47265625</ele>
        <time>2026-04-13T09:36:26Z</time>
      </trkpt>
      <trkpt lat="52.183618498966098" lon="8.213996719568968">
        <ele>106.69921875</ele>
        <time>2026-04-13T09:36:30Z</time>
      </trkpt>
      <trkpt lat="52.183618415147066" lon="8.21440726518631">
        <ele>105.125</ele>
        <time>2026-04-13T09:36:34Z</time>
      </trkpt>
      <trkpt lat="52.183543480932713" lon="8.214805321767926">
        <ele>103.87109375</ele>
        <time>2026-04-13T09:36:38Z</time>
      </trkpt>
      <trkpt lat="52.183399479836226" lon="8.215190721675754">
        <ele>103.0078125</ele>
        <time>2026-04-13T09:36:42Z</time>
      </trkpt>
      <trkpt lat="52.183244414627552" lon="8.215557932853699">
        <ele>102.51953125</ele>
        <time>2026-04-13T09:36:46Z</time>
      </trkpt>
      <trkpt lat="52.183127654716372" lon="8.215962024405599">
        <ele>101.8125</ele>
        <time>2026-04-13T09:36:50Z</time>
      </trkpt>
      <trkpt lat="52.183073088526726" lon="8.216381287202239">
        <ele>101.68359375</ele>
        <time>2026-04-13T09:36:54Z</time>
      </trkpt>
      <trkpt lat="52.183038638904691" lon="8.216784205287695">
        <ele>101.62890625</ele>
        <time>2026-04-13T09:36:58Z</time>
      </trkpt>
      <trkpt lat="52.183005027472973" lon="8.21719097904861">
        <ele>101.671875</ele>
        <time>2026-04-13T09:37:02Z</time>
      </trkpt>
      <trkpt lat="52.182962028309703" lon="8.217589957639575">
        <ele>101.70703125</ele>
        <time>2026-04-13T09:37:06Z</time>
      </trkpt>
      <trkpt lat="52.182938642799854" lon="8.217970160767436">
        <ele>101.6796875</ele>
        <time>2026-04-13T09:37:10Z</time>
      </trkpt>
      <trkpt lat="52.182921962812543" lon="8.21834173053503">
        <ele>101.6484375</ele>
        <time>2026-04-13T09:37:14Z</time>
      </trkpt>
      <trkpt lat="52.182895140722394" lon="8.218727298080921">
        <ele>101.32421875</ele>
        <time>2026-04-13T09:37:18Z</time>
      </trkpt>
      <trkpt lat="52.182858679443598" lon="8.219104064628482">
        <ele>101.0390625</ele>
        <time>2026-04-13T09:37:22Z</time>
      </trkpt>
      <trkpt lat="52.182832863181829" lon="8.219471024349332">
        <ele>100.9609375</ele>
        <time>2026-04-13T09:37:26Z</time>
      </trkpt>
      <trkpt lat="52.182796988636255" lon="8.219835385680199">
        <ele>100.984375</ele>
        <time>2026-04-13T09:37:30Z</time>
      </trkpt>
      <trkpt lat="52.182766227051616" lon="8.220182564109564">
        <ele>101.0546875</ele>
        <time>2026-04-13T09:37:34Z</time>
      </trkpt>
      <trkpt lat="52.182737896218896" lon="8.220529742538929">
        <ele>101.12109375</ele>
        <time>2026-04-13T09:37:38Z</time>
      </trkpt>
      <trkpt lat="52.182710571214557" lon="8.220873232930899">
        <ele>101.12890625</ele>
        <time>2026-04-13T09:37:42Z</time>
      </trkpt>
      <trkpt lat="52.182687018066645" lon="8.221207335591316">
        <ele>100.78515625</ele>
        <time>2026-04-13T09:37:46Z</time>
      </trkpt>
      <trkpt lat="52.18266136944294" lon="8.221556693315506">
        <ele>100.42578125</ele>
        <time>2026-04-13T09:37:50Z</time>
      </trkpt>
      <trkpt lat="52.182637397199869" lon="8.221909739077091">
        <ele>100.4609375</ele>
        <time>2026-04-13T09:37:54Z</time>
      </trkpt>
      <trkpt lat="52.182604037225246" lon="8.222268149256706">
        <ele>100.6484375</ele>
        <time>2026-04-13T09:37:58Z</time>
      </trkpt>
      <trkpt lat="52.182580484077334" lon="8.22265044786036">
        <ele>100.84765625</ele>
        <time>2026-04-13T09:38:02Z</time>
      </trkpt>
      <trkpt lat="52.182566821575165" lon="8.223021933808923">
        <ele>101.10546875</ele>
        <time>2026-04-13T09:38:06Z</time>
      </trkpt>
      <trkpt lat="52.182568330317736" lon="8.223403478041291">
        <ele>101.21875</ele>
        <time>2026-04-13T09:38:10Z</time>
      </trkpt>
      <trkpt lat="52.182573946192861" lon="8.223789883777499">
        <ele>100.84765625</ele>
        <time>2026-04-13T09:38:14Z</time>
      </trkpt>
      <trkpt lat="52.182589955627918" lon="8.224165141582489">
        <ele>100.453125</ele>
        <time>2026-04-13T09:38:18Z</time>
      </trkpt>
      <trkpt lat="52.182614011690021" lon="8.224560851231217">
        <ele>99.4453125</ele>
        <time>2026-04-13T09:38:22Z</time>
      </trkpt>
      <trkpt lat="52.182650053873658" lon="8.224939964711666">
        <ele>98.44921875</ele>
        <time>2026-04-13T09:38:26Z</time>
      </trkpt>
      <trkpt lat="52.182691711932421" lon="8.225338021293283">
        <ele>97.97265625</ele>
        <time>2026-04-13T09:38:30Z</time>
      </trkpt>
      <trkpt lat="52.182734878733754" lon="8.225708082318306">
        <ele>97.640625</ele>
        <time>2026-04-13T09:38:34Z</time>
      </trkpt>
      <trkpt lat="52.182786008343101" lon="8.22607085108757">
        <ele>97.50390625</ele>
        <time>2026-04-13T09:38:38Z</time>
      </trkpt>
      <trkpt lat="52.182814171537757" lon="8.226423310115933">
        <ele>97.46875</ele>
        <time>2026-04-13T09:38:42Z</time>
      </trkpt>
      <trkpt lat="52.182859349995852" lon="8.226790353655815">
        <ele>97.578125</ele>
        <time>2026-04-13T09:38:46Z</time>
      </trkpt>
      <trkpt lat="52.182899666950107" lon="8.227169718593359">
        <ele>97.984375</ele>
        <time>2026-04-13T09:38:50Z</time>
      </trkpt>
      <trkpt lat="52.182949371635914" lon="8.227537013590336">
        <ele>98.33984375</ele>
        <time>2026-04-13T09:38:54Z</time>
      </trkpt>
      <trkpt lat="52.183001758530736" lon="8.227903386577964">
        <ele>98.35546875</ele>
        <time>2026-04-13T09:38:58Z</time>
      </trkpt>
      <trkpt lat="52.183055486530066" lon="8.228271938860416">
        <ele>98.0859375</ele>
        <time>2026-04-13T09:39:02Z</time>
      </trkpt>
      <trkpt lat="52.183106699958444" lon="8.22865566238761">
        <ele>97.35546875</ele>
        <time>2026-04-13T09:39:06Z</time>
      </trkpt>
      <trkpt lat="52.183147687464952" lon="8.229032093659043">
        <ele>96.6171875</ele>
        <time>2026-04-13T09:39:10Z</time>
      </trkpt>
      <trkpt lat="52.183192279189825" lon="8.229403914883733">
        <ele>95.8125</ele>
        <time>2026-04-13T09:39:14Z</time>
      </trkpt>
      <trkpt lat="52.183248186483979" lon="8.229753188788891">
        <ele>95.2890625</ele>
        <time>2026-04-13T09:39:18Z</time>
      </trkpt>
      <trkpt lat="52.183329407125711" lon="8.230084860697389">
        <ele>95.01171875</ele>
        <time>2026-04-13T09:39:22Z</time>
      </trkpt>
      <trkpt lat="52.18342998996377" lon="8.230410665273666">
        <ele>94.62109375</ele>
        <time>2026-04-13T09:39:26Z</time>
      </trkpt>
      <trkpt lat="52.183543816208839" lon="8.230704870074987">
        <ele>94.19140625</ele>
        <time>2026-04-13T09:39:30Z</time>
      </trkpt>
      <trkpt lat="52.183652948588133" lon="8.230971666052938">
        <ele>93.80078125</ele>
        <time>2026-04-13T09:39:34Z</time>
      </trkpt>
      <trkpt lat="52.183847576379776" lon="8.231132682412863">
        <ele>93.41796875</ele>
        <time>2026-04-13T09:39:40Z</time>
      </trkpt>
      <trkpt lat="52.183944890275598" lon="8.230850547552109">
        <ele>93.9296875</ele>
        <time>2026-04-13T09:39:44Z</time>
      </trkpt>
      <trkpt lat="52.18404371291399" lon="8.230559946969152">
        <ele>94.6015625</ele>
        <time>2026-04-13T09:39:48Z</time>
      </trkpt>
      <trkpt lat="52.184145636856556" lon="8.230267083272338">
        <ele>94.9375</ele>
        <time>2026-04-13T09:39:52Z</time>
      </trkpt>
      <trkpt lat="52.18430514447391" lon="8.230032222345471">
        <ele>94.92578125</ele>
        <time>2026-04-13T09:39:56Z</time>
      </trkpt>
      <trkpt lat="52.184531791135669" lon="8.229913702234626">
        <ele>93.99609375</ele>
        <time>2026-04-13T09:40:00Z</time>
      </trkpt>
      <trkpt lat="52.18478006310761" lon="8.229801217094064">
        <ele>92.6875</ele>
        <time>2026-04-13T09:40:04Z</time>
      </trkpt>
      <trkpt lat="52.185047948732972" lon="8.229673141613603">
        <ele>91.4765625</ele>
        <time>2026-04-13T09:40:08Z</time>
      </trkpt>
      <trkpt lat="52.185324467718601" lon="8.229555543512106">
        <ele>90.66015625</ele>
        <time>2026-04-13T09:40:12Z</time>
      </trkpt>
      <trkpt lat="52.185604507103562" lon="8.229425372555852">
        <ele>90.1171875</ele>
        <time>2026-04-13T09:40:16Z</time>
      </trkpt>
      <trkpt lat="52.185872392728925" lon="8.229288998991251">
        <ele>92.02734375</ele>
        <time>2026-04-13T09:40:20Z</time>
      </trkpt>
      <trkpt lat="52.186129130423069" lon="8.229112811386585">
        <ele>95.03515625</ele>
        <time>2026-04-13T09:40:24Z</time>
      </trkpt>
      <trkpt lat="52.186312191188335" lon="8.22881399653852">
        <ele>96.6015625</ele>
        <time>2026-04-13T09:40:28Z</time>
      </trkpt>
      <trkpt lat="52.18645996414125" lon="8.2285335380584">
        <ele>97.6640625</ele>
        <time>2026-04-13T09:40:32Z</time>
      </trkpt>
      <trkpt lat="52.186598349362612" lon="8.22830923832953">
        <ele>98.69140625</ele>
        <time>2026-04-13T09:40:36Z</time>
      </trkpt>
      <trkpt lat="52.186716198921204" lon="8.228077897801995">
        <ele>99.05859375</ele>
        <time>2026-04-13T09:40:40Z</time>
      </trkpt>
      <trkpt lat="52.186879981309175" lon="8.22779031470418">
        <ele>99.84375</ele>
        <time>2026-04-13T09:40:46Z</time>
      </trkpt>
      <trkpt lat="52.187022641301155" lon="8.22755285538733">
        <ele>100.69140625</ele>
        <time>2026-04-13T09:40:52Z</time>
      </trkpt>
      <trkpt lat="52.187173515558243" lon="8.227285724133253">
        <ele>101.4453125</ele>
        <time>2026-04-13T09:40:58Z</time>
      </trkpt>
      <trkpt lat="52.187312487512827" lon="8.226998308673501">
        <ele>101.90234375</ele>
        <time>2026-04-13T09:41:04Z</time>
      </trkpt>
      <trkpt lat="52.187441568821669" lon="8.226699326187372">
        <ele>101.7578125</ele>
        <time>2026-04-13T09:41:10Z</time>
      </trkpt>
      <trkpt lat="52.187566040083766" lon="8.226451054215431">
        <ele>101.3828125</ele>
        <time>2026-04-13T09:41:16Z</time>
      </trkpt>
      <trkpt lat="52.187683470547199" lon="8.226213930174708">
        <ele>100.94921875</ele>
        <time>2026-04-13T09:41:22Z</time>
      </trkpt>
      <trkpt lat="52.187811462208629" lon="8.22590371593833">
        <ele>100.1015625</ele>
        <time>2026-04-13T09:41:30Z</time>
      </trkpt>
      <trkpt lat="52.187887402251363" lon="8.225577156990767">
        <ele>100.33203125</ele>
        <time>2026-04-13T09:41:38Z</time>
      </trkpt>
      <trkpt lat="52.187945237383246" lon="8.22524749673903">
        <ele>100.8828125</ele>
        <time>2026-04-13T09:41:46Z</time>
      </trkpt>
      <trkpt lat="52.188001228496432" lon="8.224957818165422">
        <ele>101.37109375</ele>
        <time>2026-04-13T09:41:54Z</time>
      </trkpt>
      <trkpt lat="52.188120000064373" lon="8.22438457980752">
        <ele>103.73828125</ele>
        <time>2026-04-13T09:42:10Z</time>
      </trkpt>
      <trkpt lat="52.18817163258791" lon="8.224086770787835">
        <ele>104.8984375</ele>
        <time>2026-04-13T09:42:18Z</time>
      </trkpt>
      <trkpt lat="52.188212117180228" lon="8.223797846585512">
        <ele>105.453125</ele>
        <time>2026-04-13T09:42:26Z</time>
      </trkpt>
      <trkpt lat="52.188245477154851" lon="8.223491320386529">
        <ele>105.93359375</ele>
        <time>2026-04-13T09:42:34Z</time>
      </trkpt>
      <trkpt lat="52.188274562358856" lon="8.223196864128113">
        <ele>106.2890625</ele>
        <time>2026-04-13T09:42:42Z</time>
      </trkpt>
      <trkpt lat="52.1882981993258" lon="8.222873993217945">
        <ele>106.46875</ele>
        <time>2026-04-13T09:42:50Z</time>
      </trkpt>
      <trkpt lat="52.188307838514447" lon="8.222574926912785">
        <ele>106.609375</ele>
        <time>2026-04-13T09:42:56Z</time>
      </trkpt>
      <trkpt lat="52.188315130770206" lon="8.222257001325488">
        <ele>106.921875</ele>
        <time>2026-04-13T09:43:02Z</time>
      </trkpt>
      <trkpt lat="52.188319656997919" lon="8.221934968605638">
        <ele>107.27734375</ele>
        <time>2026-04-13T09:43:08Z</time>
      </trkpt>
      <trkpt lat="52.188329547643661" lon="8.22158569470048">
        <ele>107.80859375</ele>
        <time>2026-04-13T09:43:14Z</time>
      </trkpt>
      <trkpt lat="52.18832653015852" lon="8.221200965344906">
        <ele>108.85546875</ele>
        <time>2026-04-13T09:43:20Z</time>
      </trkpt>
      <trkpt lat="52.188328625634313" lon="8.220797795802355">
        <ele>109.98828125</ele>
        <time>2026-04-13T09:43:26Z</time>
      </trkpt>
      <trkpt lat="52.188336001709104" lon="8.220405019819737">
        <ele>111.21484375</ele>
        <time>2026-04-13T09:43:32Z</time>
      </trkpt>
      <trkpt lat="52.188354190438986" lon="8.220029007643461">
        <ele>112.52734375</ele>
        <time>2026-04-13T09:43:38Z</time>
      </trkpt>
      <trkpt lat="52.188382856547832" lon="8.219646206125617">
        <ele>114.73828125</ele>
        <time>2026-04-13T09:43:44Z</time>
      </trkpt>
      <trkpt lat="52.188422251492739" lon="8.219334986060858">
        <ele>116.99609375</ele>
        <time>2026-04-13T09:43:50Z</time>
      </trkpt>
      <trkpt lat="52.188506908714771" lon="8.219025442376733">
        <ele>119.82421875</ele>
        <time>2026-04-13T09:43:58Z</time>
      </trkpt>
      <trkpt lat="52.188643869012594" lon="8.218741798773408">
        <ele>123.25390625</ele>
        <time>2026-04-13T09:44:06Z</time>
      </trkpt>
      <trkpt lat="52.1888058912009" lon="8.218506602570415">
        <ele>127.359375</ele>
        <time>2026-04-13T09:44:14Z</time>
      </trkpt>
      <trkpt lat="52.188953161239624" lon="8.21832018904388">
        <ele>131.19140625</ele>
        <time>2026-04-13T09:44:20Z</time>
      </trkpt>
      <trkpt lat="52.189133707433939" lon="8.218113072216511">
        <ele>132.296875</ele>
        <time>2026-04-13T09:44:28Z</time>
      </trkpt>
      <trkpt lat="52.189324060454965" lon="8.217882150784135">
        <ele>132.625</ele>
        <time>2026-04-13T09:44:36Z</time>
      </trkpt>
      <trkpt lat="52.189477365463972" lon="8.217697162181139">
        <ele>133.26171875</ele>
        <time>2026-04-13T09:44:42Z</time>
      </trkpt>
      <trkpt lat="52.189624970778823" lon="8.2175213098526">
        <ele>134.19140625</ele>
        <time>2026-04-13T09:44:48Z</time>
      </trkpt>
      <trkpt lat="52.189772827550769" lon="8.217324670404196">
        <ele>134.265625</ele>
        <time>2026-04-13T09:44:54Z</time>
      </trkpt>
      <trkpt lat="52.189939627423882" lon="8.217103388160467">
        <ele>132.90625</ele>
        <time>2026-04-13T09:45:00Z</time>
      </trkpt>
      <trkpt lat="52.190119251608849" lon="8.216879758983851">
        <ele>130.04296875</ele>
        <time>2026-04-13T09:45:06Z</time>
      </trkpt>
      <trkpt lat="52.190321339294314" lon="8.216653447598219">
        <ele>127.28515625</ele>
        <time>2026-04-13T09:45:12Z</time>
      </trkpt>
      <trkpt lat="52.190542789176106" lon="8.216655878350139">
        <ele>126.5234375</ele>
        <time>2026-04-13T09:45:18Z</time>
      </trkpt>
      <trkpt lat="52.190769519656897" lon="8.216830054298043">
        <ele>126.90625</ele>
        <time>2026-04-13T09:45:24Z</time>
      </trkpt>
      <trkpt lat="52.190939169377089" lon="8.216940946877003">
        <ele>126.77734375</ele>
        <time>2026-04-13T09:45:28Z</time>
      </trkpt>
      <trkpt lat="52.191191129386425" lon="8.217085702344775">
        <ele>126.09375</ele>
        <time>2026-04-13T09:45:34Z</time>
      </trkpt>
      <trkpt lat="52.191398413851857" lon="8.217081259936094">
        <ele>124.82421875</ele>
        <time>2026-04-13T09:45:38Z</time>
      </trkpt>
      <trkpt lat="52.191622629761696" lon="8.216997357085347">
        <ele>122.62890625</ele>
        <time>2026-04-13T09:45:42Z</time>
      </trkpt>
      <trkpt lat="52.191818179562688" lon="8.216883530840278">
        <ele>120</ele>
        <time>2026-04-13T09:45:46Z</time>
      </trkpt>
      <trkpt lat="52.192009789869189" lon="8.216674821451306">
        <ele>117.8359375</ele>
        <time>2026-04-13T09:45:50Z</time>
      </trkpt>
      <trkpt lat="52.192228054627776" lon="8.216428142040968">
        <ele>116.5625</ele>
        <time>2026-04-13T09:45:54Z</time>
      </trkpt>
      <trkpt lat="52.192407427355647" lon="8.216124298051">
        <ele>116.91796875</ele>
        <time>2026-04-13T09:45:58Z</time>
      </trkpt>
      <trkpt lat="52.192526031285524" lon="8.215798912569881">
        <ele>118.12109375</ele>
        <time>2026-04-13T09:46:02Z</time>
      </trkpt>
      <trkpt lat="52.192629380151629" lon="8.215511161834002">
        <ele>118.421875</ele>
        <time>2026-04-13T09:46:06Z</time>
      </trkpt>
      <trkpt lat="52.192735578864813" lon="8.215219974517822">
        <ele>118.890625</ele>
        <time>2026-04-13T09:46:10Z</time>
      </trkpt>
      <trkpt lat="52.192823337391019" lon="8.214942282065749">
        <ele>119.58203125</ele>
        <time>2026-04-13T09:46:14Z</time>
      </trkpt>
      <trkpt lat="52.192888548597693" lon="8.214660733938217">
        <ele>120.67578125</ele>
        <time>2026-04-13T09:46:18Z</time>
      </trkpt>
      <trkpt lat="52.192981922999024" lon="8.214285727590323">
        <ele>122.37109375</ele>
        <time>2026-04-13T09:46:24Z</time>
      </trkpt>
      <trkpt lat="52.193034058436751" lon="8.213899154216051">
        <ele>123.6328125</ele>
        <time>2026-04-13T09:46:30Z</time>
      </trkpt>
      <trkpt lat="52.193098850548267" lon="8.213544432073832">
        <ele>124.484375</ele>
        <time>2026-04-13T09:46:36Z</time>
      </trkpt>
      <trkpt lat="52.193203875795007" lon="8.21313145570457">
        <ele>125.421875</ele>
        <time>2026-04-13T09:46:42Z</time>
      </trkpt>
      <trkpt lat="52.19328953884542" lon="8.212834401056171">
        <ele>125.08203125</ele>
        <time>2026-04-13T09:46:46Z</time>
      </trkpt>
      <trkpt lat="52.193378638476133" lon="8.212519744411111">
        <ele>124.5859375</ele>
        <time>2026-04-13T09:46:50Z</time>
      </trkpt>
      <trkpt lat="52.193471342325211" lon="8.212189245969057">
        <ele>123.26953125</ele>
        <time>2026-04-13T09:46:54Z</time>
      </trkpt>
      <trkpt lat="52.193578211590648" lon="8.211888251826167">
        <ele>122.1953125</ele>
        <time>2026-04-13T09:46:58Z</time>
      </trkpt>
      <trkpt lat="52.193689104169607" lon="8.211589939892292">
        <ele>121.625</ele>
        <time>2026-04-13T09:47:02Z</time>
      </trkpt>
      <trkpt lat="52.193825310096145" lon="8.211318617686629">
        <ele>121.421875</ele>
        <time>2026-04-13T09:47:06Z</time>
      </trkpt>
      <trkpt lat="52.193977776914835" lon="8.211099933832884">
        <ele>121.2890625</ele>
        <time>2026-04-13T09:47:10Z</time>
      </trkpt>
      <trkpt lat="52.194156898185611" lon="8.210867084562779">
        <ele>121.41015625</ele>
        <time>2026-04-13T09:47:14Z</time>
      </trkpt>
      <trkpt lat="52.19435865059495" lon="8.21061453782022">
        <ele>120.82421875</ele>
        <time>2026-04-13T09:47:18Z</time>
      </trkpt>
      <trkpt lat="52.194573059678078" lon="8.210285631939769">
        <ele>120.05078125</ele>
        <time>2026-04-13T09:47:22Z</time>
      </trkpt>
      <trkpt lat="52.194752935320139" lon="8.209917498752475">
        <ele>119.0703125</ele>
        <time>2026-04-13T09:47:26Z</time>
      </trkpt>
      <trkpt lat="52.194915041327477" lon="8.209553640335798">
        <ele>116.57421875</ele>
        <time>2026-04-13T09:47:30Z</time>
      </trkpt>
      <trkpt lat="52.19505594111979" lon="8.209206881001592">
        <ele>114.46484375</ele>
        <time>2026-04-13T09:47:34Z</time>
      </trkpt>
      <trkpt lat="52.195161134004593" lon="8.208858529105783">
        <ele>114.30078125</ele>
        <time>2026-04-13T09:47:38Z</time>
      </trkpt>
      <trkpt lat="52.195243779569864" lon="8.208504058420658">
        <ele>114.4296875</ele>
        <time>2026-04-13T09:47:42Z</time>
      </trkpt>
      <trkpt lat="52.195334052667022" lon="8.208158053457737">
        <ele>114.69921875</ele>
        <time>2026-04-13T09:47:46Z</time>
      </trkpt>
      <trkpt lat="52.195431031286716" lon="8.207788243889809">
        <ele>115.03125</ele>
        <time>2026-04-13T09:47:50Z</time>
      </trkpt>
      <trkpt lat="52.19552013091743" lon="8.207412902265787">
        <ele>115.29296875</ele>
        <time>2026-04-13T09:47:54Z</time>
      </trkpt>
      <trkpt lat="52.195585425943136" lon="8.207008726894856">
        <ele>115.9296875</ele>
        <time>2026-04-13T09:47:58Z</time>
      </trkpt>
      <trkpt lat="52.195645021274686" lon="8.206579321995378">
        <ele>116.46875</ele>
        <time>2026-04-13T09:48:02Z</time>
      </trkpt>
      <trkpt lat="52.195795057341456" lon="8.206168860197067">
        <ele>115.63671875</ele>
        <time>2026-04-13T09:48:06Z</time>
      </trkpt>
      <trkpt lat="52.196025643497705" lon="8.2058494258672">
        <ele>113.44921875</ele>
        <time>2026-04-13T09:48:10Z</time>
      </trkpt>
      <trkpt lat="52.196243740618229" lon="8.20549663156271">
        <ele>110.95703125</ele>
        <time>2026-04-13T09:48:14Z</time>
      </trkpt>
      <trkpt lat="52.196463597938418" lon="8.205118272453547">
        <ele>108.65234375</ele>
        <time>2026-04-13T09:48:18Z</time>
      </trkpt>
      <trkpt lat="52.196763753890991" lon="8.204839741811156">
        <ele>107.4375</ele>
        <time>2026-04-13T09:48:22Z</time>
      </trkpt>
      <trkpt lat="52.197026694193482" lon="8.204636564478278">
        <ele>106.56640625</ele>
        <time>2026-04-13T09:48:26Z</time>
      </trkpt>
      <trkpt lat="52.197284689173102" lon="8.204511590301991">
        <ele>105.39453125</ele>
        <time>2026-04-13T09:48:30Z</time>
      </trkpt>
      <trkpt lat="52.197537152096629" lon="8.204611083492637">
        <ele>103.6484375</ele>
        <time>2026-04-13T09:48:34Z</time>
      </trkpt>
      <trkpt lat="52.197837140411139" lon="8.204606473445892">
        <ele>101.31640625</ele>
        <time>2026-04-13T09:48:38Z</time>
      </trkpt>
      <trkpt lat="52.198182977735996" lon="8.204578645527363">
        <ele>98.59375</ele>
        <time>2026-04-13T09:48:42Z</time>
      </trkpt>
      <trkpt lat="52.198376348242164" lon="8.204555176198483">
        <ele>97.83203125</ele>
        <time>2026-04-13T09:48:44Z</time>
      </trkpt>
      <trkpt lat="52.198578519746661" lon="8.204536233097315">
        <ele>97.1171875</ele>
        <time>2026-04-13T09:48:46Z</time>
      </trkpt>
      <trkpt lat="52.198786642402411" lon="8.20451988838613">
        <ele>96.40625</ele>
        <time>2026-04-13T09:48:48Z</time>
      </trkpt>
      <trkpt lat="52.199004739522934" lon="8.204495748504996">
        <ele>95.6875</ele>
        <time>2026-04-13T09:48:50Z</time>
      </trkpt>
      <trkpt lat="52.19919559545815" lon="8.204478900879622">
        <ele>94.75</ele>
        <time>2026-04-13T09:48:52Z</time>
      </trkpt>
      <trkpt lat="52.199516203254461" lon="8.204450234770775">
        <ele>93.12109375</ele>
        <time>2026-04-13T09:48:56Z</time>
      </trkpt>
      <trkpt lat="52.199784843251109" lon="8.204448223114014">
        <ele>91.7265625</ele>
        <time>2026-04-13T09:49:00Z</time>
      </trkpt>
      <trkpt lat="52.200036635622382" lon="8.204370941966772">
        <ele>92.14453125</ele>
        <time>2026-04-13T09:49:04Z</time>
      </trkpt>
      <trkpt lat="52.200280381366611" lon="8.204280333593488">
        <ele>93.23828125</ele>
        <time>2026-04-13T09:49:08Z</time>
      </trkpt>
      <trkpt lat="52.200516331940889" lon="8.204209757968783">
        <ele>94.2578125</ele>
        <time>2026-04-13T09:49:12Z</time>
      </trkpt>
      <trkpt lat="52.200738452374935" lon="8.204133985564113">
        <ele>95.046875</ele>
        <time>2026-04-13T09:49:16Z</time>
      </trkpt>
      <trkpt lat="52.20093559473753" lon="8.204055111855269">
        <ele>95.6171875</ele>
        <time>2026-04-13T09:49:20Z</time>
      </trkpt>
      <trkpt lat="52.201116979122162" lon="8.204004652798176">
        <ele>96.24609375</ele>
        <time>2026-04-13T09:49:24Z</time>
      </trkpt>
      <trkpt lat="52.201262321323156" lon="8.204229203984141">
        <ele>97.78125</ele>
        <time>2026-04-13T09:49:30Z</time>
      </trkpt>
      <trkpt lat="52.201318647712469" lon="8.204538244754076">
        <ele>98.44140625</ele>
        <time>2026-04-13T09:49:36Z</time>
      </trkpt>
      <trkpt lat="52.201293669641018" lon="8.204842088744044">
        <ele>98.58984375</ele>
        <time>2026-04-13T09:49:42Z</time>
      </trkpt>
      <trkpt lat="52.201235750690103" lon="8.205220615491271">
        <ele>98.37109375</ele>
        <time>2026-04-13T09:49:50Z</time>
      </trkpt>
      <trkpt lat="52.201220830902457" lon="8.205567877739668">
        <ele>98.484375</ele>
        <time>2026-04-13T09:49:56Z</time>
      </trkpt>
      <trkpt lat="52.201197780668736" lon="8.206010023131967">
        <ele>97.96875</ele>
        <time>2026-04-13T09:50:02Z</time>
      </trkpt>
      <trkpt lat="52.20115888863802" lon="8.206330882385373">
        <ele>96.75390625</ele>
        <time>2026-04-13T09:50:06Z</time>
      </trkpt>
      <trkpt lat="52.201135000213981" lon="8.206635564565659">
        <ele>95.77734375</ele>
        <time>2026-04-13T09:50:10Z</time>
      </trkpt>
      <trkpt lat="52.201113374903798" lon="8.206972600892186">
        <ele>95.51953125</ele>
        <time>2026-04-13T09:50:14Z</time>
      </trkpt>
      <trkpt lat="52.201084960252047" lon="8.207301255315542">
        <ele>95.28125</ele>
        <time>2026-04-13T09:50:18Z</time>
      </trkpt>
      <trkpt lat="52.201068280264735" lon="8.207636028528214">
        <ele>95.21484375</ele>
        <time>2026-04-13T09:50:22Z</time>
      </trkpt>
      <trkpt lat="52.201036177575588" lon="8.20796468295157">
        <ele>95.1015625</ele>
        <time>2026-04-13T09:50:26Z</time>
      </trkpt>
      <trkpt lat="52.20098446123302" lon="8.208281267434359">
        <ele>94.765625</ele>
        <time>2026-04-13T09:50:30Z</time>
      </trkpt>
      <trkpt lat="52.200850769877434" lon="8.208580752834678">
        <ele>93.6875</ele>
        <time>2026-04-13T09:50:34Z</time>
      </trkpt>
      <trkpt lat="52.2006815392524" lon="8.208955675363541">
        <ele>92.671875</ele>
        <time>2026-04-13T09:50:38Z</time>
      </trkpt>
      <trkpt lat="52.200511889532208" lon="8.209408717229962">
        <ele>92.81640625</ele>
        <time>2026-04-13T09:50:42Z</time>
      </trkpt>
      <trkpt lat="52.200425220653415" lon="8.209870476275682">
        <ele>93.67578125</ele>
        <time>2026-04-13T09:50:46Z</time>
      </trkpt>
      <trkpt lat="52.200323129072785" lon="8.210226120427251">
        <ele>93.26171875</ele>
        <time>2026-04-13T09:50:50Z</time>
      </trkpt>
      <trkpt lat="52.200216930359602" lon="8.210542537271977">
        <ele>92.4921875</ele>
        <time>2026-04-13T09:50:54Z</time>
      </trkpt>
      <trkpt lat="52.200099164620042" lon="8.21085199713707">
        <ele>91.609375</ele>
        <time>2026-04-13T09:50:58Z</time>
      </trkpt>
      <trkpt lat="52.199971592053771" lon="8.211165145039558">
        <ele>90.9375</ele>
        <time>2026-04-13T09:51:02Z</time>
      </trkpt>
      <trkpt lat="52.199848210439086" lon="8.211500253528357">
        <ele>90.546875</ele>
        <time>2026-04-13T09:51:06Z</time>
      </trkpt>
      <trkpt lat="52.199719799682498" lon="8.211845504119992">
        <ele>90.6796875</ele>
        <time>2026-04-13T09:51:10Z</time>
      </trkpt>
      <trkpt lat="52.199595998972654" lon="8.212183797731996">
        <ele>90.57421875</ele>
        <time>2026-04-13T09:51:14Z</time>
      </trkpt>
      <trkpt lat="52.199482340365648" lon="8.212513960897923">
        <ele>90.30859375</ele>
        <time>2026-04-13T09:51:18Z</time>
      </trkpt>
      <trkpt lat="52.199360635131598" lon="8.212823253124952">
        <ele>90.17578125</ele>
        <time>2026-04-13T09:51:22Z</time>
      </trkpt>
      <trkpt lat="52.199218310415745" lon="8.21312902495265">
        <ele>89.8828125</ele>
        <time>2026-04-13T09:51:26Z</time>
      </trkpt>
      <trkpt lat="52.199071459472179" lon="8.213433036580682">
        <ele>89.4453125</ele>
        <time>2026-04-13T09:51:30Z</time>
      </trkpt>
      <trkpt lat="52.198973642662168" lon="8.213750459253788">
        <ele>89.2734375</ele>
        <time>2026-04-13T09:51:34Z</time>
      </trkpt>
      <trkpt lat="52.198911951854825" lon="8.214066373184323">
        <ele>89.33984375</ele>
        <time>2026-04-13T09:51:38Z</time>
      </trkpt>
      <trkpt lat="52.198861660435796" lon="8.214400894939899">
        <ele>89.25390625</ele>
        <time>2026-04-13T09:51:42Z</time>
      </trkpt>
      <trkpt lat="52.19881447032094" lon="8.214743547141552">
        <ele>89.1484375</ele>
        <time>2026-04-13T09:51:46Z</time>
      </trkpt>
      <trkpt lat="52.198773147538304" lon="8.215100029483438">
        <ele>89.24609375</ele>
        <time>2026-04-13T09:51:50Z</time>
      </trkpt>
      <trkpt lat="52.198725957423449" lon="8.215440837666392">
        <ele>89.640625</ele>
        <time>2026-04-13T09:51:54Z</time>
      </trkpt>
      <trkpt lat="52.19867030158639" lon="8.215774521231651">
        <ele>90.046875</ele>
        <time>2026-04-13T09:51:58Z</time>
      </trkpt>
      <trkpt lat="52.198604000732303" lon="8.216115329414606">
        <ele>90.31640625</ele>
        <time>2026-04-13T09:52:02Z</time>
      </trkpt>
      <trkpt lat="52.198546165600419" lon="8.216425627470017">
        <ele>90.4453125</ele>
        <time>2026-04-13T09:52:06Z</time>
      </trkpt>
      <trkpt lat="52.198490258306265" lon="8.216731902211905">
        <ele>90.53515625</ele>
        <time>2026-04-13T09:52:10Z</time>
      </trkpt>
      <trkpt lat="52.198441307991743" lon="8.21703901514411">
        <ele>90.71484375</ele>
        <time>2026-04-13T09:52:14Z</time>
      </trkpt>
      <trkpt lat="52.198395961895585" lon="8.217323999851942">
        <ele>90.7265625</ele>
        <time>2026-04-13T09:52:18Z</time>
      </trkpt>
      <trkpt lat="52.198334941640496" lon="8.217710321769118">
        <ele>90.59375</ele>
        <time>2026-04-13T09:52:24Z</time>
      </trkpt>
      <trkpt lat="52.198273502290249" lon="8.218101002275944">
        <ele>90.47265625</ele>
        <time>2026-04-13T09:52:30Z</time>
      </trkpt>
      <trkpt lat="52.198216170072556" lon="8.218507189303637">
        <ele>90.41015625</ele>
        <time>2026-04-13T09:52:36Z</time>
      </trkpt>
      <trkpt lat="52.198199322447181" lon="8.218812793493271">
        <ele>90.6171875</ele>
        <time>2026-04-13T09:52:40Z</time>
      </trkpt>
      <trkpt lat="52.198221031576395" lon="8.219119487330318">
        <ele>91.19140625</ele>
        <time>2026-04-13T09:52:44Z</time>
      </trkpt>
      <trkpt lat="52.198234358802438" lon="8.219421403482556">
        <ele>91.7109375</ele>
        <time>2026-04-13T09:52:48Z</time>
      </trkpt>
      <trkpt lat="52.198255229741335" lon="8.21981250308454">
        <ele>92.46484375</ele>
        <time>2026-04-13T09:52:54Z</time>
      </trkpt>
      <trkpt lat="52.198267970234156" lon="8.220134116709232">
        <ele>93.234375</ele>
        <time>2026-04-13T09:53:00Z</time>
      </trkpt>
      <trkpt lat="52.198284231126308" lon="8.220503926277161">
        <ele>94.41796875</ele>
        <time>2026-04-13T09:53:08Z</time>
      </trkpt>
      <trkpt lat="52.198296720162034" lon="8.22087767533958">
        <ele>95.45703125</ele>
        <time>2026-04-13T09:53:16Z</time>
      </trkpt>
      <trkpt lat="52.198286997154355" lon="8.22117137722671">
        <ele>95.35546875</ele>
        <time>2026-04-13T09:53:22Z</time>
      </trkpt>
      <trkpt lat="52.198245925828815" lon="8.22150656953454">
        <ele>94.76953125</ele>
        <time>2026-04-13T09:53:28Z</time>
      </trkpt>
      <trkpt lat="52.198202507570386" lon="8.221877552568913">
        <ele>95.16015625</ele>
        <time>2026-04-13T09:53:34Z</time>
      </trkpt>
      <trkpt lat="52.198170907795429" lon="8.222219198942184">
        <ele>96.51953125</ele>
        <time>2026-04-13T09:53:40Z</time>
      </trkpt>
      <trkpt lat="52.198141319677234" lon="8.222574423998594">
        <ele>98.66796875</ele>
        <time>2026-04-13T09:53:46Z</time>
      </trkpt>
      <trkpt lat="52.198098739609122" lon="8.222861923277378">
        <ele>101.79296875</ele>
        <time>2026-04-13T09:53:52Z</time>
      </trkpt>
      <trkpt lat="52.198013411834836" lon="8.22320549748838">
        <ele>104.625</ele>
        <time>2026-04-13T09:54:00Z</time>
      </trkpt>
      <trkpt lat="52.197909140959382" lon="8.223519735038281">
        <ele>105.81640625</ele>
        <time>2026-04-13T09:54:08Z</time>
      </trkpt>
      <trkpt lat="52.197823729366064" lon="8.22379382327199">
        <ele>106.3125</ele>
        <time>2026-04-13T09:54:14Z</time>
      </trkpt>
      <trkpt lat="52.197727169841528" lon="8.224128680303693">
        <ele>106.55859375</ele>
        <time>2026-04-13T09:54:20Z</time>
      </trkpt>
      <trkpt lat="52.197654582560062" lon="8.224434368312359">
        <ele>105.8984375</ele>
        <time>2026-04-13T09:54:24Z</time>
      </trkpt>
      <trkpt lat="52.197572439908981" lon="8.224761094897986">
        <ele>104.84375</ele>
        <time>2026-04-13T09:54:28Z</time>
      </trkpt>
      <trkpt lat="52.197500271722674" lon="8.225094107910991">
        <ele>104</ele>
        <time>2026-04-13T09:54:32Z</time>
      </trkpt>
      <trkpt lat="52.197430031374097" lon="8.225410524755716">
        <ele>103.28515625</ele>
        <time>2026-04-13T09:54:36Z</time>
      </trkpt>
      <trkpt lat="52.197364568710327" lon="8.225733730942011">
        <ele>102.71875</ele>
        <time>2026-04-13T09:54:40Z</time>
      </trkpt>
      <trkpt lat="52.197306649759412" lon="8.226050147786737">
        <ele>103.53125</ele>
        <time>2026-04-13T09:54:44Z</time>
      </trkpt>
      <trkpt lat="52.197251245379448" lon="8.226339993998408">
        <ele>104.21484375</ele>
        <time>2026-04-13T09:54:48Z</time>
      </trkpt>
      <trkpt lat="52.197204558178782" lon="8.226640066131949">
        <ele>104.8828125</ele>
        <time>2026-04-13T09:54:52Z</time>
      </trkpt>
      <trkpt lat="52.19712870195508" lon="8.227027812972665">
        <ele>104.71484375</ele>
        <time>2026-04-13T09:54:58Z</time>
      </trkpt>
      <trkpt lat="52.19705636613071" lon="8.227413967251778">
        <ele>104.50390625</ele>
        <time>2026-04-13T09:55:04Z</time>
      </trkpt>
      <trkpt lat="52.197002973407507" lon="8.227717140689492">
        <ele>103.37890625</ele>
        <time>2026-04-13T09:55:08Z</time>
      </trkpt>
      <trkpt lat="52.196962153539062" lon="8.22803221642971">
        <ele>102.40234375</ele>
        <time>2026-04-13T09:55:12Z</time>
      </trkpt>
      <trkpt lat="52.196895098313689" lon="8.22845533490181">
        <ele>101.41796875</ele>
        <time>2026-04-13T09:55:18Z</time>
      </trkpt>
      <trkpt lat="52.196853859350085" lon="8.22877636179328">
        <ele>101.12890625</ele>
        <time>2026-04-13T09:55:22Z</time>
      </trkpt>
      <trkpt lat="52.196815218776464" lon="8.229092275723815">
        <ele>101.0078125</ele>
        <time>2026-04-13T09:55:26Z</time>
      </trkpt>
      <trkpt lat="52.196808680891991" lon="8.229386312887073">
        <ele>100.2578125</ele>
        <time>2026-04-13T09:55:30Z</time>
      </trkpt>
      <trkpt lat="52.196824522688985" lon="8.229707339778543">
        <ele>99.31640625</ele>
        <time>2026-04-13T09:55:34Z</time>
      </trkpt>
      <trkpt lat="52.196862911805511" lon="8.230000957846642">
        <ele>98.53515625</ele>
        <time>2026-04-13T09:55:38Z</time>
      </trkpt>
      <trkpt lat="52.196888560429215" lon="8.230299688875675">
        <ele>97.42578125</ele>
        <time>2026-04-13T09:55:42Z</time>
      </trkpt>
      <trkpt lat="52.197138257324696" lon="8.230662122368813">
        <ele>96.890625</ele>
        <time>2026-04-13T09:55:50Z</time>
      </trkpt>
      <trkpt lat="52.19732416793704" lon="8.230892792344093">
        <ele>96.6796875</ele>
        <time>2026-04-13T09:55:56Z</time>
      </trkpt>
      <trkpt lat="52.197244958952069" lon="8.231164952740073">
        <ele>95.7421875</ele>
        <time>2026-04-13T09:56:00Z</time>
      </trkpt>
      <trkpt lat="52.197137670591474" lon="8.231516489759088">
        <ele>94.51171875</ele>
        <time>2026-04-13T09:56:04Z</time>
      </trkpt>
      <trkpt lat="52.197014959529042" lon="8.231910858303309">
        <ele>93.12109375</ele>
        <time>2026-04-13T09:56:08Z</time>
      </trkpt>
      <trkpt lat="52.196875400841236" lon="8.232341101393104">
        <ele>91.5859375</ele>
        <time>2026-04-13T09:56:12Z</time>
      </trkpt>
      <trkpt lat="52.196741122752428" lon="8.232788359746337">
        <ele>90.66796875</ele>
        <time>2026-04-13T09:56:16Z</time>
      </trkpt>
      <trkpt lat="52.196597037836909" lon="8.233236959204078">
        <ele>90.16796875</ele>
        <time>2026-04-13T09:56:20Z</time>
      </trkpt>
      <trkpt lat="52.196463765576482" lon="8.233682541176677">
        <ele>88.70703125</ele>
        <time>2026-04-13T09:56:24Z</time>
      </trkpt>
      <trkpt lat="52.196366954594851" lon="8.23412393219769">
        <ele>87.46875</ele>
        <time>2026-04-13T09:56:28Z</time>
      </trkpt>
      <trkpt lat="52.196301911026239" lon="8.234534980729222">
        <ele>87.21484375</ele>
        <time>2026-04-13T09:56:32Z</time>
      </trkpt>
      <trkpt lat="52.196233430877328" lon="8.234937563538551">
        <ele>87.10546875</ele>
        <time>2026-04-13T09:56:36Z</time>
      </trkpt>
      <trkpt lat="52.196174589917064" lon="8.235339056700468">
        <ele>86.671875</ele>
        <time>2026-04-13T09:56:40Z</time>
      </trkpt>
      <trkpt lat="52.196111641824245" lon="8.235733760520816">
        <ele>86.15234375</ele>
        <time>2026-04-13T09:56:44Z</time>
      </trkpt>
      <trkpt lat="52.196054058149457" lon="8.236105833202601">
        <ele>85.74609375</ele>
        <time>2026-04-13T09:56:48Z</time>
      </trkpt>
      <trkpt lat="52.195927072316408" lon="8.236457873135805">
        <ele>85.33203125</ele>
        <time>2026-04-13T09:56:52Z</time>
      </trkpt>
      <trkpt lat="52.195754069834948" lon="8.236728273332119">
        <ele>85.08984375</ele>
        <time>2026-04-13T09:56:56Z</time>
      </trkpt>
      <trkpt lat="52.195630939677358" lon="8.237006720155478">
        <ele>85.3515625</ele>
        <time>2026-04-13T09:57:00Z</time>
      </trkpt>
      <trkpt lat="52.195735797286034" lon="8.237307379022241">
        <ele>85.75390625</ele>
        <time>2026-04-13T09:57:04Z</time>
      </trkpt>
      <trkpt lat="52.195922713726759" lon="8.237429922446609">
        <ele>85.68359375</ele>
        <time>2026-04-13T09:57:08Z</time>
      </trkpt>
      <trkpt lat="52.196111977100372" lon="8.237523883581162">
        <ele>85.6328125</ele>
        <time>2026-04-13T09:57:12Z</time>
      </trkpt>
      <trkpt lat="52.196301911026239" lon="8.237599655985832">
        <ele>85.6640625</ele>
        <time>2026-04-13T09:57:16Z</time>
      </trkpt>
      <trkpt lat="52.196553871035576" lon="8.23773393407464">
        <ele>86.01953125</ele>
        <time>2026-04-13T09:57:22Z</time>
      </trkpt>
      <trkpt lat="52.196789821609855" lon="8.237903499975801">
        <ele>87.9296875</ele>
        <time>2026-04-13T09:57:28Z</time>
      </trkpt>
      <trkpt lat="52.196993669494987" lon="8.238164093345404">
        <ele>90.5</ele>
        <time>2026-04-13T09:57:34Z</time>
      </trkpt>
      <trkpt lat="52.197168599814177" lon="8.238467099145055">
        <ele>92.40234375</ele>
        <time>2026-04-13T09:57:40Z</time>
      </trkpt>
      <trkpt lat="52.197312517091632" lon="8.238774295896292">
        <ele>92.6640625</ele>
        <time>2026-04-13T09:57:46Z</time>
      </trkpt>
      <trkpt lat="52.197483675554395" lon="8.239063723012805">
        <ele>93.0078125</ele>
        <time>2026-04-13T09:57:52Z</time>
      </trkpt>
      <trkpt lat="52.19759238883853" lon="8.239469323307276">
        <ele>91.78125</ele>
        <time>2026-04-13T09:57:58Z</time>
      </trkpt>
      <trkpt lat="52.19767402857542" lon="8.239864949136972">
        <ele>89.82421875</ele>
        <time>2026-04-13T09:58:04Z</time>
      </trkpt>
      <trkpt lat="52.19776731915772" lon="8.24025328271091">
        <ele>88.81640625</ele>
        <time>2026-04-13T09:58:10Z</time>
      </trkpt>
      <trkpt lat="52.197848120704293" lon="8.240661732852459">
        <ele>87.83984375</ele>
        <time>2026-04-13T09:58:16Z</time>
      </trkpt>
      <trkpt lat="52.197888270020485" lon="8.241074457764626">
        <ele>87.40234375</ele>
        <time>2026-04-13T09:58:22Z</time>
      </trkpt>
      <trkpt lat="52.197900759056211" lon="8.241498414427042">
        <ele>87.40625</ele>
        <time>2026-04-13T09:58:28Z</time>
      </trkpt>
      <trkpt lat="52.197869829833508" lon="8.241923125460744">
        <ele>87.76953125</ele>
        <time>2026-04-13T09:58:34Z</time>
      </trkpt>
      <trkpt lat="52.197822220623493" lon="8.242333754897118">
        <ele>88.25</ele>
        <time>2026-04-13T09:58:40Z</time>
      </trkpt>
      <trkpt lat="52.197778131812811" lon="8.242726698517799">
        <ele>88.65234375</ele>
        <time>2026-04-13T09:58:46Z</time>
      </trkpt>
      <trkpt lat="52.197717698290944" lon="8.243137830868363">
        <ele>88.94140625</ele>
        <time>2026-04-13T09:58:52Z</time>
      </trkpt>
      <trkpt lat="52.197691379114985" lon="8.243490625172854">
        <ele>89</ele>
        <time>2026-04-13T09:58:58Z</time>
      </trkpt>
      <trkpt lat="52.198054818436503" lon="8.243427341803908">
        <ele>89</ele>
        <time>2026-04-13T09:59:10Z</time>
      </trkpt>
      <trkpt lat="52.198228575289249" lon="8.243348803371191">
        <ele>88.96484375</ele>
        <time>2026-04-13T09:59:14Z</time>
      </trkpt>
      <trkpt lat="52.198418341577053" lon="8.243297003209591">
        <ele>88.703125</ele>
        <time>2026-04-13T09:59:18Z</time>
      </trkpt>
      <trkpt lat="52.198597798123956" lon="8.243249393999577">
        <ele>88.40625</ele>
        <time>2026-04-13T09:59:22Z</time>
      </trkpt>
      <trkpt lat="52.198783289641142" lon="8.243220560252667">
        <ele>88.15625</ele>
        <time>2026-04-13T09:59:26Z</time>
      </trkpt>
      <trkpt lat="52.199055450037122" lon="8.243210921064019">
        <ele>87.8828125</ele>
        <time>2026-04-13T09:59:32Z</time>
      </trkpt>
      <trkpt lat="52.199243707582355" lon="8.243246963247657">
        <ele>87.94140625</ele>
        <time>2026-04-13T09:59:36Z</time>
      </trkpt>
      <trkpt lat="52.199439341202378" lon="8.243315778672695">
        <ele>88.0078125</ele>
        <time>2026-04-13T09:59:40Z</time>
      </trkpt>
      <trkpt lat="52.199626509100199" lon="8.243399430066347">
        <ele>88.13671875</ele>
        <time>2026-04-13T09:59:44Z</time>
      </trkpt>
      <trkpt lat="52.199821472167969" lon="8.243500934913755">
        <ele>88.23828125</ele>
        <time>2026-04-13T09:59:48Z</time>
      </trkpt>
      <trkpt lat="52.200005371123552" lon="8.243626663461328">
        <ele>88.3125</ele>
        <time>2026-04-13T09:59:52Z</time>
      </trkpt>
      <trkpt lat="52.200199663639069" lon="8.243742752820253">
        <ele>88.30859375</ele>
        <time>2026-04-13T09:59:56Z</time>
      </trkpt>
      <trkpt lat="52.200387082993984" lon="8.243843335658312">
        <ele>88.234375</ele>
        <time>2026-04-13T10:00:00Z</time>
      </trkpt>
      <trkpt lat="52.20057156868279" lon="8.243956156075001">
        <ele>88.11328125</ele>
        <time>2026-04-13T10:00:04Z</time>
      </trkpt>
      <trkpt lat="52.200750857591629" lon="8.244042824953795">
        <ele>88.0078125</ele>
        <time>2026-04-13T10:00:08Z</time>
      </trkpt>
      <trkpt lat="52.200944731011987" lon="8.244137959554792">
        <ele>88.00390625</ele>
        <time>2026-04-13T10:00:12Z</time>
      </trkpt>
      <trkpt lat="52.201131647452712" lon="8.244222952052951">
        <ele>87.94921875</ele>
        <time>2026-04-13T10:00:16Z</time>
      </trkpt>
      <trkpt lat="52.201310014352202" lon="8.244298724457622">
        <ele>87.86328125</ele>
        <time>2026-04-13T10:00:20Z</time>
      </trkpt>
      <trkpt lat="52.201494751498103" lon="8.2443533744663">
        <ele>87.7578125</ele>
        <time>2026-04-13T10:00:24Z</time>
      </trkpt>
      <trkpt lat="52.201678901910782" lon="8.244399223476648">
        <ele>87.8203125</ele>
        <time>2026-04-13T10:00:28Z</time>
      </trkpt>
      <trkpt lat="52.201865902170539" lon="8.244325798004866">
        <ele>88.09765625</ele>
        <time>2026-04-13T10:00:32Z</time>
      </trkpt>
      <trkpt lat="52.202117359265685" lon="8.244354296475649">
        <ele>88.27734375</ele>
        <time>2026-04-13T10:00:38Z</time>
      </trkpt>
      <trkpt lat="52.20229840837419" lon="8.244390673935413">
        <ele>88.35546875</ele>
        <time>2026-04-13T10:00:42Z</time>
      </trkpt>
      <trkpt lat="52.202486163005233" lon="8.244416993111372">
        <ele>87.9375</ele>
        <time>2026-04-13T10:00:46Z</time>
      </trkpt>
      <trkpt lat="52.202682886272669" lon="8.244433170184493">
        <ele>87.27734375</ele>
        <time>2026-04-13T10:00:50Z</time>
      </trkpt>
      <trkpt lat="52.202865527942777" lon="8.244461752474308">
        <ele>86.6484375</ele>
        <time>2026-04-13T10:00:54Z</time>
      </trkpt>
      <trkpt lat="52.203063005581498" lon="8.244465356692672">
        <ele>86.0234375</ele>
        <time>2026-04-13T10:00:58Z</time>
      </trkpt>
      <trkpt lat="52.203290741890669" lon="8.24445110745728">
        <ele>85.51171875</ele>
        <time>2026-04-13T10:01:02Z</time>
      </trkpt>
      <trkpt lat="52.20351655036211" lon="8.244447251781821">
        <ele>85.24609375</ele>
        <time>2026-04-13T10:01:06Z</time>
      </trkpt>
      <trkpt lat="52.203719643875957" lon="8.244544984772801">
        <ele>84.88671875</ele>
        <time>2026-04-13T10:01:10Z</time>
      </trkpt>
      <trkpt lat="52.20393187366426" lon="8.24452000670135">
        <ele>84.66015625</ele>
        <time>2026-04-13T10:01:14Z</time>
      </trkpt>
      <trkpt lat="52.204143349081278" lon="8.244450520724058">
        <ele>84.26171875</ele>
        <time>2026-04-13T10:01:18Z</time>
      </trkpt>
      <trkpt lat="52.204349208623171" lon="8.244373239576817">
        <ele>83.66796875</ele>
        <time>2026-04-13T10:01:22Z</time>
      </trkpt>
      <trkpt lat="52.204412575811148" lon="8.244888978078961">
        <ele>83.12890625</ele>
        <time>2026-04-13T10:01:32Z</time>
      </trkpt>
      <trkpt lat="52.204385669901967" lon="8.245206903666258">
        <ele>82.58203125</ele>
        <time>2026-04-13T10:01:36Z</time>
      </trkpt>
      <trkpt lat="52.204369241371751" lon="8.245532875880599">
        <ele>81.83984375</ele>
        <time>2026-04-13T10:01:40Z</time>
      </trkpt>
      <trkpt lat="52.204353399574757" lon="8.24586178176105">
        <ele>81.21484375</ele>
        <time>2026-04-13T10:01:44Z</time>
      </trkpt>
      <trkpt lat="52.204331941902637" lon="8.246187921613455">
        <ele>81.265625</ele>
        <time>2026-04-13T10:01:48Z</time>
      </trkpt>
      <trkpt lat="52.204311490058899" lon="8.246511714532971">
        <ele>81.3125</ele>
        <time>2026-04-13T10:01:52Z</time>
      </trkpt>
      <trkpt lat="52.204301850870252" lon="8.246822180226445">
        <ele>81.3359375</ele>
        <time>2026-04-13T10:01:56Z</time>
      </trkpt>
      <trkpt lat="52.204279471188784" lon="8.247148236259818">
        <ele>81.390625</ele>
        <time>2026-04-13T10:02:00Z</time>
      </trkpt>
      <trkpt lat="52.204260192811489" lon="8.247466161847115">
        <ele>81.4375</ele>
        <time>2026-04-13T10:02:04Z</time>
      </trkpt>
      <trkpt lat="52.204248709604144" lon="8.247790541499853">
        <ele>81.2890625</ele>
        <time>2026-04-13T10:02:08Z</time>
      </trkpt>
      <trkpt lat="52.204233957454562" lon="8.248091535642743">
        <ele>81.12890625</ele>
        <time>2026-04-13T10:02:12Z</time>
      </trkpt>
      <trkpt lat="52.204217193648219" lon="8.248414993286133">
        <ele>80.90234375</ele>
        <time>2026-04-13T10:02:16Z</time>
      </trkpt>
      <trkpt lat="52.204198921099305" lon="8.248744988813996">
        <ele>80.5859375</ele>
        <time>2026-04-13T10:02:20Z</time>
      </trkpt>
      <trkpt lat="52.204177798703313" lon="8.249087976291776">
        <ele>80.234375</ele>
        <time>2026-04-13T10:02:24Z</time>
      </trkpt>
      <trkpt lat="52.204160699620843" lon="8.249434484168887">
        <ele>79.80859375</ele>
        <time>2026-04-13T10:02:28Z</time>
      </trkpt>
      <trkpt lat="52.204138822853565" lon="8.249786021187902">
        <ele>79.359375</ele>
        <time>2026-04-13T10:02:32Z</time>
      </trkpt>
      <trkpt lat="52.204122310504317" lon="8.250115932896733">
        <ele>79.09765625</ele>
        <time>2026-04-13T10:02:36Z</time>
      </trkpt>
      <trkpt lat="52.204104121774435" lon="8.250444000586867">
        <ele>79.0390625</ele>
        <time>2026-04-13T10:02:40Z</time>
      </trkpt>
      <trkpt lat="52.204085011035204" lon="8.250777767971158">
        <ele>79.00390625</ele>
        <time>2026-04-13T10:02:44Z</time>
      </trkpt>
      <trkpt lat="52.20406724140048" lon="8.251114804297686">
        <ele>79</ele>
        <time>2026-04-13T10:02:48Z</time>
      </trkpt>
      <trkpt lat="52.204040000215173" lon="8.251448152586818">
        <ele>79</ele>
        <time>2026-04-13T10:02:52Z</time>
      </trkpt>
      <trkpt lat="52.204016111791134" lon="8.251797258853912">
        <ele>78.6640625</ele>
        <time>2026-04-13T10:02:56Z</time>
      </trkpt>
      <trkpt lat="52.204003036022186" lon="8.252147454768419">
        <ele>77.85546875</ele>
        <time>2026-04-13T10:03:00Z</time>
      </trkpt>
      <trkpt lat="52.203974956646562" lon="8.252490274608135">
        <ele>77.12109375</ele>
        <time>2026-04-13T10:03:04Z</time>
      </trkpt>
      <trkpt lat="52.203964311629534" lon="8.252833429723978">
        <ele>77.1171875</ele>
        <time>2026-04-13T10:03:08Z</time>
      </trkpt>
      <trkpt lat="52.203938914462924" lon="8.253166107460856">
        <ele>77.12109375</ele>
        <time>2026-04-13T10:03:12Z</time>
      </trkpt>
      <trkpt lat="52.203965485095978" lon="8.253480345010757">
        <ele>77.28515625</ele>
        <time>2026-04-13T10:03:16Z</time>
      </trkpt>
      <trkpt lat="52.204143768176436" lon="8.25358847156167">
        <ele>77.48046875</ele>
        <time>2026-04-13T10:03:20Z</time>
      </trkpt>
      <trkpt lat="52.204406289383769" lon="8.253643959760666">
        <ele>77.86328125</ele>
        <time>2026-04-13T10:03:26Z</time>
      </trkpt>
      <trkpt lat="52.204588428139687" lon="8.253673883154988">
        <ele>78.1171875</ele>
        <time>2026-04-13T10:03:30Z</time>
      </trkpt>
      <trkpt lat="52.204767633229494" lon="8.253725515678525">
        <ele>78.39453125</ele>
        <time>2026-04-13T10:03:34Z</time>
      </trkpt>
      <trkpt lat="52.204950107261539" lon="8.253776980563998">
        <ele>78.39453125</ele>
        <time>2026-04-13T10:03:38Z</time>
      </trkpt>
      <trkpt lat="52.205134090036154" lon="8.253817800432444">
        <ele>78.08203125</ele>
        <time>2026-04-13T10:03:42Z</time>
      </trkpt>
      <trkpt lat="52.205319162458181" lon="8.253864152356982">
        <ele>77.74609375</ele>
        <time>2026-04-13T10:03:46Z</time>
      </trkpt>
      <trkpt lat="52.205506917089224" lon="8.253899188712239">
        <ele>77.37890625</ele>
        <time>2026-04-13T10:03:50Z</time>
      </trkpt>
      <trkpt lat="52.205695509910583" lon="8.253938248381019">
        <ele>77.0078125</ele>
        <time>2026-04-13T10:03:54Z</time>
      </trkpt>
      <trkpt lat="52.205883599817753" lon="8.253992646932602">
        <ele>77.26953125</ele>
        <time>2026-04-13T10:03:58Z</time>
      </trkpt>
      <trkpt lat="52.20607060007751" lon="8.254039334133267">
        <ele>77.5078125</ele>
        <time>2026-04-13T10:04:02Z</time>
      </trkpt>
      <trkpt lat="52.206258941441774" lon="8.25407805852592">
        <ele>77.73046875</ele>
        <time>2026-04-13T10:04:06Z</time>
      </trkpt>
      <trkpt lat="52.206443091854453" lon="8.254132540896535">
        <ele>77.90625</ele>
        <time>2026-04-13T10:04:10Z</time>
      </trkpt>
      <trkpt lat="52.206627829000354" lon="8.254163637757301">
        <ele>78.00390625</ele>
        <time>2026-04-13T10:04:14Z</time>
      </trkpt>
      <trkpt lat="52.206815499812365" lon="8.25420361943543">
        <ele>78.02734375</ele>
        <time>2026-04-13T10:04:18Z</time>
      </trkpt>
      <trkpt lat="52.207000069320202" lon="8.25425055809319">
        <ele>78.078125</ele>
        <time>2026-04-13T10:04:22Z</time>
      </trkpt>
      <trkpt lat="52.207181286066771" lon="8.254279140383005">
        <ele>78.1328125</ele>
        <time>2026-04-13T10:04:26Z</time>
      </trkpt>
      <trkpt lat="52.20744757913053" lon="8.254348123446107">
        <ele>78.171875</ele>
        <time>2026-04-13T10:04:32Z</time>
      </trkpt>
      <trkpt lat="52.207628879696131" lon="8.254372095689178">
        <ele>78.0078125</ele>
        <time>2026-04-13T10:04:36Z</time>
      </trkpt>
      <trkpt lat="52.207806659862399" lon="8.254420962184668">
        <ele>77.7890625</ele>
        <time>2026-04-13T10:04:40Z</time>
      </trkpt>
      <trkpt lat="52.208068761974573" lon="8.254490029066801">
        <ele>77.33984375</ele>
        <time>2026-04-13T10:04:46Z</time>
      </trkpt>
      <trkpt lat="52.208253666758537" lon="8.254528837278485">
        <ele>77.21484375</ele>
        <time>2026-04-13T10:04:50Z</time>
      </trkpt>
      <trkpt lat="52.208522977307439" lon="8.254592958837748">
        <ele>77.70703125</ele>
        <time>2026-04-13T10:04:56Z</time>
      </trkpt>
      <trkpt lat="52.208709893748164" lon="8.254624223336577">
        <ele>78.078125</ele>
        <time>2026-04-13T10:05:00Z</time>
      </trkpt>
      <trkpt lat="52.208902761340141" lon="8.254656074568629">
        <ele>78.46484375</ele>
        <time>2026-04-13T10:05:04Z</time>
      </trkpt>
      <trkpt lat="52.209094958379865" lon="8.254699157550931">
        <ele>78.8828125</ele>
        <time>2026-04-13T10:05:08Z</time>
      </trkpt>
      <trkpt lat="52.209290927276015" lon="8.25475724413991">
        <ele>79.39453125</ele>
        <time>2026-04-13T10:05:12Z</time>
      </trkpt>
      <trkpt lat="52.209490668028593" lon="8.254799237474799">
        <ele>79.98046875</ele>
        <time>2026-04-13T10:05:16Z</time>
      </trkpt>
      <trkpt lat="52.209684960544109" lon="8.254844332113862">
        <ele>80.56640625</ele>
        <time>2026-04-13T10:05:20Z</time>
      </trkpt>
      <trkpt lat="52.209949912503362" lon="8.254912309348583">
        <ele>81.40234375</ele>
        <time>2026-04-13T10:05:26Z</time>
      </trkpt>
      <trkpt lat="52.210139846429229" lon="8.254939550533891">
        <ele>82.046875</ele>
        <time>2026-04-13T10:05:30Z</time>
      </trkpt>
      <trkpt lat="52.210322488099337" lon="8.254964109510183">
        <ele>82.68359375</ele>
        <time>2026-04-13T10:05:34Z</time>
      </trkpt>
      <trkpt lat="52.210507560521364" lon="8.254914404824376">
        <ele>83.36328125</ele>
        <time>2026-04-13T10:05:38Z</time>
      </trkpt>
      <trkpt lat="52.210756670683622" lon="8.254812397062779">
        <ele>83.93359375</ele>
        <time>2026-04-13T10:05:44Z</time>
      </trkpt>
      <trkpt lat="52.210979042574763" lon="8.254683567211032">
        <ele>83.76953125</ele>
        <time>2026-04-13T10:05:50Z</time>
      </trkpt>
      <trkpt lat="52.21117677167058" lon="8.254569238051772">
        <ele>83.6953125</ele>
        <time>2026-04-13T10:05:58Z</time>
      </trkpt>
      <trkpt lat="52.211312642320991" lon="8.254313003271818">
        <ele>83.84375</ele>
        <time>2026-04-13T10:06:10Z</time>
      </trkpt>
      <trkpt lat="52.211364693939686" lon="8.253957694396377">
        <ele>84.3515625</ele>
        <time>2026-04-13T10:06:18Z</time>
      </trkpt>
      <trkpt lat="52.21172109246254" lon="8.253922741860151">
        <ele>84.390625</ele>
        <time>2026-04-13T10:06:30Z</time>
      </trkpt>
      <trkpt lat="52.211942793801427" lon="8.253950066864491">
        <ele>84.22265625</ele>
        <time>2026-04-13T10:06:36Z</time>
      </trkpt>
      <trkpt lat="52.212184024974704" lon="8.254088703542948">
        <ele>84.0234375</ele>
        <time>2026-04-13T10:06:42Z</time>
      </trkpt>
      <trkpt lat="52.212442522868514" lon="8.254081327468157">
        <ele>83.79296875</ele>
        <time>2026-04-13T10:06:48Z</time>
      </trkpt>
      <trkpt lat="52.212700685486197" lon="8.254000609740615">
        <ele>83.234375</ele>
        <time>2026-04-13T10:06:54Z</time>
      </trkpt>
      <trkpt lat="52.21296614035964" lon="8.253945456817746">
        <ele>82.69921875</ele>
        <time>2026-04-13T10:07:00Z</time>
      </trkpt>
      <trkpt lat="52.213154481723905" lon="8.25392659753561">
        <ele>82.3203125</ele>
        <time>2026-04-13T10:07:04Z</time>
      </trkpt>
      <trkpt lat="52.21334382891655" lon="8.253907151520252">
        <ele>81.8671875</ele>
        <time>2026-04-13T10:07:08Z</time>
      </trkpt>
      <trkpt lat="52.213539211079478" lon="8.253896506503224">
        <ele>81.38671875</ele>
        <time>2026-04-13T10:07:12Z</time>
      </trkpt>
      <trkpt lat="52.213796451687813" lon="8.253859709948301">
        <ele>80.87109375</ele>
        <time>2026-04-13T10:07:18Z</time>
      </trkpt>
      <trkpt lat="52.213976830244064" lon="8.25376340188086">
        <ele>80.8828125</ele>
        <time>2026-04-13T10:07:22Z</time>
      </trkpt>
      <trkpt lat="52.214181181043386" lon="8.253593416884542">
        <ele>81.48828125</ele>
        <time>2026-04-13T10:07:28Z</time>
      </trkpt>
      <trkpt lat="52.214369270950556" lon="8.253375738859177">
        <ele>82.2734375</ele>
        <time>2026-04-13T10:07:34Z</time>
      </trkpt>
      <trkpt lat="52.214539088308811" lon="8.253109445795417">
        <ele>82.90234375</ele>
        <time>2026-04-13T10:07:40Z</time>
      </trkpt>
      <trkpt lat="52.21471686847508" lon="8.252893527969718">
        <ele>83.484375</ele>
        <time>2026-04-13T10:07:46Z</time>
      </trkpt>
      <trkpt lat="52.214886602014303" lon="8.252704180777073">
        <ele>84.08203125</ele>
        <time>2026-04-13T10:07:52Z</time>
      </trkpt>
      <trkpt lat="52.215100759640336" lon="8.252499410882592">
        <ele>84.3046875</ele>
        <time>2026-04-13T10:08:00Z</time>
      </trkpt>
      <trkpt lat="52.215347271412611" lon="8.252316266298294">
        <ele>83.625</ele>
        <time>2026-04-13T10:08:06Z</time>
      </trkpt>
      <trkpt lat="52.215582551434636" lon="8.2521518971771">
        <ele>82.86328125</ele>
        <time>2026-04-13T10:08:12Z</time>
      </trkpt>
      <trkpt lat="52.215767120942473" lon="8.252039244398475">
        <ele>82.4375</ele>
        <time>2026-04-13T10:08:16Z</time>
      </trkpt>
      <trkpt lat="52.215974656865001" lon="8.251957185566425">
        <ele>82.33203125</ele>
        <time>2026-04-13T10:08:20Z</time>
      </trkpt>
      <trkpt lat="52.216212451457977" lon="8.251885436475277">
        <ele>82.3671875</ele>
        <time>2026-04-13T10:08:24Z</time>
      </trkpt>
      <trkpt lat="52.216513277962804" lon="8.251837659627199">
        <ele>82.51953125</ele>
        <time>2026-04-13T10:08:28Z</time>
      </trkpt>
      <trkpt lat="52.216821480542421" lon="8.251772448420525">
        <ele>82.73828125</ele>
        <time>2026-04-13T10:08:32Z</time>
      </trkpt>
      <trkpt lat="52.217081570997834" lon="8.251717127859592">
        <ele>82.875</ele>
        <time>2026-04-13T10:08:36Z</time>
      </trkpt>
      <trkpt lat="52.217322885990143" lon="8.251665160059929">
        <ele>82.96875</ele>
        <time>2026-04-13T10:08:40Z</time>
      </trkpt>
      <trkpt lat="52.21752941608429" lon="8.251608917489648">
        <ele>82.8203125</ele>
        <time>2026-04-13T10:08:44Z</time>
      </trkpt>
      <trkpt lat="52.217727061361074" lon="8.251576228067279">
        <ele>82.625</ele>
        <time>2026-04-13T10:08:48Z</time>
      </trkpt>
      <trkpt lat="52.217920599505305" lon="8.251546304672957">
        <ele>82.42578125</ele>
        <time>2026-04-13T10:08:52Z</time>
      </trkpt>
      <trkpt lat="52.218102654442191" lon="8.251541359350085">
        <ele>82.21484375</ele>
        <time>2026-04-13T10:08:56Z</time>
      </trkpt>
      <trkpt lat="52.218352854251862" lon="8.251570360735059">
        <ele>82.47265625</ele>
        <time>2026-04-13T10:09:02Z</time>
      </trkpt>
      <trkpt lat="52.218591989949346" lon="8.251637164503336">
        <ele>82.98046875</ele>
        <time>2026-04-13T10:09:08Z</time>
      </trkpt>
      <trkpt lat="52.218826599419117" lon="8.251691563054919">
        <ele>83.49609375</ele>
        <time>2026-04-13T10:09:14Z</time>
      </trkpt>
      <trkpt lat="52.219067998230457" lon="8.251744033768773">
        <ele>83.875</ele>
        <time>2026-04-13T10:09:20Z</time>
      </trkpt>
      <trkpt lat="52.219318868592381" lon="8.251793822273612">
        <ele>83.8125</ele>
        <time>2026-04-13T10:09:26Z</time>
      </trkpt>
      <trkpt lat="52.219500839710236" lon="8.251862805336714">
        <ele>83.73046875</ele>
        <time>2026-04-13T10:09:30Z</time>
      </trkpt>
      <trkpt lat="52.21968867816031" lon="8.251978978514671">
        <ele>83.59375</ele>
        <time>2026-04-13T10:09:34Z</time>
      </trkpt>
      <trkpt lat="52.21988707780838" lon="8.252103114500642">
        <ele>83.328125</ele>
        <time>2026-04-13T10:09:38Z</time>
      </trkpt>
      <trkpt lat="52.220107857137918" lon="8.252227501943708">
        <ele>82.453125</ele>
        <time>2026-04-13T10:09:42Z</time>
      </trkpt>
      <trkpt lat="52.220319919288158" lon="8.252356164157391">
        <ele>81.5234375</ele>
        <time>2026-04-13T10:09:46Z</time>
      </trkpt>
      <trkpt lat="52.220529802143574" lon="8.252464374527335">
        <ele>80.56640625</ele>
        <time>2026-04-13T10:09:50Z</time>
      </trkpt>
      <trkpt lat="52.220746641978621" lon="8.252486921846867">
        <ele>79.734375</ele>
        <time>2026-04-13T10:09:54Z</time>
      </trkpt>
      <trkpt lat="52.220963397994637" lon="8.252435373142362">
        <ele>79.05859375</ele>
        <time>2026-04-13T10:09:58Z</time>
      </trkpt>
      <trkpt lat="52.221184009686112" lon="8.252361863851547">
        <ele>78.37890625</ele>
        <time>2026-04-13T10:10:02Z</time>
      </trkpt>
      <trkpt lat="52.221403112635016" lon="8.252314170822501">
        <ele>77.6171875</ele>
        <time>2026-04-13T10:10:06Z</time>
      </trkpt>
      <trkpt lat="52.221613666042686" lon="8.252237979322672">
        <ele>77.21484375</ele>
        <time>2026-04-13T10:10:10Z</time>
      </trkpt>
      <trkpt lat="52.221828242763877" lon="8.2521709240973">
        <ele>77.08984375</ele>
        <time>2026-04-13T10:10:14Z</time>
      </trkpt>
      <trkpt lat="52.222044328227639" lon="8.25210495851934">
        <ele>76.87890625</ele>
        <time>2026-04-13T10:10:18Z</time>
      </trkpt>
      <trkpt lat="52.22224909812212" lon="8.252050308510661">
        <ele>76.61328125</ele>
        <time>2026-04-13T10:10:22Z</time>
      </trkpt>
      <trkpt lat="52.222455879673362" lon="8.251988450065255">
        <ele>76.55078125</ele>
        <time>2026-04-13T10:10:26Z</time>
      </trkpt>
      <trkpt lat="52.222652602940798" lon="8.251940254122019">
        <ele>76.7265625</ele>
        <time>2026-04-13T10:10:30Z</time>
      </trkpt>
      <trkpt lat="52.222861228510737" lon="8.251859368756414">
        <ele>76.87890625</ele>
        <time>2026-04-13T10:10:34Z</time>
      </trkpt>
      <trkpt lat="52.223073039203882" lon="8.251808742061257">
        <ele>77.07421875</ele>
        <time>2026-04-13T10:10:38Z</time>
      </trkpt>
      <trkpt lat="52.223282167688012" lon="8.251737663522363">
        <ele>77.2109375</ele>
        <time>2026-04-13T10:10:42Z</time>
      </trkpt>
      <trkpt lat="52.223481740802526" lon="8.251672955229878">
        <ele>77.37109375</ele>
        <time>2026-04-13T10:10:46Z</time>
      </trkpt>
      <trkpt lat="52.223688857629895" lon="8.251616293564439">
        <ele>77.6875</ele>
        <time>2026-04-13T10:10:50Z</time>
      </trkpt>
      <trkpt lat="52.223885245621204" lon="8.251572037115693">
        <ele>78.12890625</ele>
        <time>2026-04-13T10:10:54Z</time>
      </trkpt>
      <trkpt lat="52.224091105163097" lon="8.251577150076628">
        <ele>78.57421875</ele>
        <time>2026-04-13T10:10:58Z</time>
      </trkpt>
      <trkpt lat="52.224311716854572" lon="8.25160020031035">
        <ele>79.26171875</ele>
        <time>2026-04-13T10:11:02Z</time>
      </trkpt>
      <trkpt lat="52.22451489418745" lon="8.251623921096325">
        <ele>79.87890625</ele>
        <time>2026-04-13T10:11:06Z</time>
      </trkpt>
      <trkpt lat="52.224716730415821" lon="8.251656610518694">
        <ele>80.45703125</ele>
        <time>2026-04-13T10:11:10Z</time>
      </trkpt>
      <trkpt lat="52.224925020709634" lon="8.25166474096477">
        <ele>80.78515625</ele>
        <time>2026-04-13T10:11:14Z</time>
      </trkpt>
      <trkpt lat="52.225128030404449" lon="8.251691898331046">
        <ele>80.4296875</ele>
        <time>2026-04-13T10:11:18Z</time>
      </trkpt>
      <trkpt lat="52.225339338183403" lon="8.251693155616522">
        <ele>80.1875</ele>
        <time>2026-04-13T10:11:22Z</time>
      </trkpt>
      <trkpt lat="52.225544191896915" lon="8.251707321032882">
        <ele>79.90234375</ele>
        <time>2026-04-13T10:11:26Z</time>
      </trkpt>
      <trkpt lat="52.225732617080212" lon="8.251743027940393">
        <ele>79.46484375</ele>
        <time>2026-04-13T10:11:30Z</time>
      </trkpt>
      <trkpt lat="52.225934788584709" lon="8.251761635765433">
        <ele>78.8203125</ele>
        <time>2026-04-13T10:11:34Z</time>
      </trkpt>
      <trkpt lat="52.226130170747638" lon="8.251798432320356">
        <ele>78.21484375</ele>
        <time>2026-04-13T10:11:38Z</time>
      </trkpt>
      <trkpt lat="52.226335359737277" lon="8.251821817830205">
        <ele>77.66796875</ele>
        <time>2026-04-13T10:11:42Z</time>
      </trkpt>
      <trkpt lat="52.22651531919837" lon="8.251865906640887">
        <ele>77.26953125</ele>
        <time>2026-04-13T10:11:46Z</time>
      </trkpt>
      <trkpt lat="52.226748587563634" lon="8.251866074278951">
        <ele>76.98828125</ele>
        <time>2026-04-13T10:11:52Z</time>
      </trkpt>
      <trkpt lat="52.22683978267014" lon="8.251568432897329">
        <ele>76.69140625</ele>
        <time>2026-04-13T10:11:58Z</time>
      </trkpt>
      <trkpt lat="52.226902563124895" lon="8.251284789294004">
        <ele>76.95703125</ele>
        <time>2026-04-13T10:12:02Z</time>
      </trkpt>
      <trkpt lat="52.226978670805693" lon="8.250966025516391">
        <ele>77.24609375</ele>
        <time>2026-04-13T10:12:06Z</time>
      </trkpt>
      <trkpt lat="52.227042960003018" lon="8.250645752996206">
        <ele>77.22265625</ele>
        <time>2026-04-13T10:12:10Z</time>
      </trkpt>
      <trkpt lat="52.227109428495169" lon="8.250324726104736">
        <ele>76.95703125</ele>
        <time>2026-04-13T10:12:14Z</time>
      </trkpt>
      <trkpt lat="52.227183859795332" lon="8.250000514090061">
        <ele>76.8203125</ele>
        <time>2026-04-13T10:12:18Z</time>
      </trkpt>
      <trkpt lat="52.227256279438734" lon="8.249686108902097">
        <ele>76.89453125</ele>
        <time>2026-04-13T10:12:22Z</time>
      </trkpt>
      <trkpt lat="52.227324759587646" lon="8.249361226335168">
        <ele>76.9765625</ele>
        <time>2026-04-13T10:12:26Z</time>
      </trkpt>
      <trkpt lat="52.227396760135889" lon="8.249033829197288">
        <ele>77.18359375</ele>
        <time>2026-04-13T10:12:30Z</time>
      </trkpt>
      <trkpt lat="52.227463982999325" lon="8.248701235279441">
        <ele>77.59375</ele>
        <time>2026-04-13T10:12:34Z</time>
      </trkpt>
      <trkpt lat="52.22753657028079" lon="8.248359421268106">
        <ele>77.953125</ele>
        <time>2026-04-13T10:12:38Z</time>
      </trkpt>
      <trkpt lat="52.22760982811451" lon="8.248020373284817">
        <ele>77.890625</ele>
        <time>2026-04-13T10:12:42Z</time>
      </trkpt>
      <trkpt lat="52.227670680731535" lon="8.247682917863131">
        <ele>77.70703125</ele>
        <time>2026-04-13T10:12:46Z</time>
      </trkpt>
      <trkpt lat="52.227690210565925" lon="8.247320484369993">
        <ele>77.3984375</ele>
        <time>2026-04-13T10:12:50Z</time>
      </trkpt>
      <trkpt lat="52.227649725973606" lon="8.246938353404403">
        <ele>76.98828125</ele>
        <time>2026-04-13T10:12:54Z</time>
      </trkpt>
      <trkpt lat="52.227568672969937" lon="8.246594779193401">
        <ele>76.67578125</ele>
        <time>2026-04-13T10:12:58Z</time>
      </trkpt>
      <trkpt lat="52.227498767897487" lon="8.246232932433486">
        <ele>76.32421875</ele>
        <time>2026-04-13T10:13:02Z</time>
      </trkpt>
      <trkpt lat="52.227459037676454" lon="8.245889693498612">
        <ele>75.9609375</ele>
        <time>2026-04-13T10:13:06Z</time>
      </trkpt>
      <trkpt lat="52.227434227243066" lon="8.245545364916325">
        <ele>76.17578125</ele>
        <time>2026-04-13T10:13:10Z</time>
      </trkpt>
      <trkpt lat="52.227419810369611" lon="8.245185613632202">
        <ele>76.58984375</ele>
        <time>2026-04-13T10:13:14Z</time>
      </trkpt>
      <trkpt lat="52.227421402931213" lon="8.244808595627546">
        <ele>77.23828125</ele>
        <time>2026-04-13T10:13:18Z</time>
      </trkpt>
      <trkpt lat="52.227422408759594" lon="8.24444280937314">
        <ele>78.15625</ele>
        <time>2026-04-13T10:13:22Z</time>
      </trkpt>
      <trkpt lat="52.227421989664435" lon="8.244088171049953">
        <ele>79.16796875</ele>
        <time>2026-04-13T10:13:26Z</time>
      </trkpt>
      <trkpt lat="52.227395167574286" lon="8.243721295148134">
        <ele>80.9375</ele>
        <time>2026-04-13T10:13:30Z</time>
      </trkpt>
      <trkpt lat="52.227354515343904" lon="8.243384007364512">
        <ele>82.625</ele>
        <time>2026-04-13T10:13:34Z</time>
      </trkpt>
      <trkpt lat="52.227311348542571" lon="8.243089718744159">
        <ele>83.10546875</ele>
        <time>2026-04-13T10:13:38Z</time>
      </trkpt>
      <trkpt lat="52.227269187569618" lon="8.242753855884075">
        <ele>83.3046875</ele>
        <time>2026-04-13T10:13:42Z</time>
      </trkpt>
      <trkpt lat="52.227238342165947" lon="8.242425117641687">
        <ele>83.37890625</ele>
        <time>2026-04-13T10:13:46Z</time>
      </trkpt>
      <trkpt lat="52.22724286839366" lon="8.242110963910818">
        <ele>82.73828125</ele>
        <time>2026-04-13T10:13:50Z</time>
      </trkpt>
      <trkpt lat="52.22727170214057" lon="8.241795469075441">
        <ele>82.15234375</ele>
        <time>2026-04-13T10:13:54Z</time>
      </trkpt>
      <trkpt lat="52.227314366027713" lon="8.241483243182302">
        <ele>81.73046875</ele>
        <time>2026-04-13T10:13:58Z</time>
      </trkpt>
      <trkpt lat="52.227458199486136" lon="8.241131706163287">
        <ele>81.36328125</ele>
        <time>2026-04-13T10:14:04Z</time>
      </trkpt>
      <trkpt lat="52.227581664919853" lon="8.240888128057122">
        <ele>81.296875</ele>
        <time>2026-04-13T10:14:10Z</time>
      </trkpt>
      <trkpt lat="52.227731449529529" lon="8.24062074534595">
        <ele>81.6953125</ele>
        <time>2026-04-13T10:14:18Z</time>
      </trkpt>
      <trkpt lat="52.227901769801974" lon="8.240358475595713">
        <ele>82.21484375</ele>
        <time>2026-04-13T10:14:24Z</time>
      </trkpt>
      <trkpt lat="52.228126572445035" lon="8.240098217502236">
        <ele>82.796875</ele>
        <time>2026-04-13T10:14:30Z</time>
      </trkpt>
      <trkpt lat="52.2283442504704" lon="8.239858075976372">
        <ele>83.14453125</ele>
        <time>2026-04-13T10:14:36Z</time>
      </trkpt>
      <trkpt lat="52.228488000109792" lon="8.239666800945997">
        <ele>83.375</ele>
        <time>2026-04-13T10:14:40Z</time>
      </trkpt>
      <trkpt lat="52.228630241006613" lon="8.239428335800767">
        <ele>83.66015625</ele>
        <time>2026-04-13T10:14:44Z</time>
      </trkpt>
      <trkpt lat="52.228792933747172" lon="8.239208059385419">
        <ele>83.92578125</ele>
        <time>2026-04-13T10:14:48Z</time>
      </trkpt>
      <trkpt lat="52.228954620659351" lon="8.238968001678586">
        <ele>84.3984375</ele>
        <time>2026-04-13T10:14:54Z</time>
      </trkpt>
      <trkpt lat="52.229000888764858" lon="8.238574387505651">
        <ele>85.359375</ele>
        <time>2026-04-13T10:15:00Z</time>
      </trkpt>
      <trkpt lat="52.229066770523787" lon="8.238170715048909">
        <ele>85.86328125</ele>
        <time>2026-04-13T10:15:06Z</time>
      </trkpt>
      <trkpt lat="52.229146817699075" lon="8.237754050642252">
        <ele>85.671875</ele>
        <time>2026-04-13T10:15:12Z</time>
      </trkpt>
      <trkpt lat="52.229179590940475" lon="8.237319951876998">
        <ele>85.44140625</ele>
        <time>2026-04-13T10:15:18Z</time>
      </trkpt>
      <trkpt lat="52.229154277592897" lon="8.236913597211242">
        <ele>85.08984375</ele>
        <time>2026-04-13T10:15:24Z</time>
      </trkpt>
      <trkpt lat="52.229372626170516" lon="8.23679331690073">
        <ele>84.6640625</ele>
        <time>2026-04-13T10:15:30Z</time>
      </trkpt>
      <trkpt lat="52.229583598673344" lon="8.236710084602237">
        <ele>84.3359375</ele>
        <time>2026-04-13T10:15:36Z</time>
      </trkpt>
      <trkpt lat="52.229784177616239" lon="8.236615285277367">
        <ele>84.109375</ele>
        <time>2026-04-13T10:15:42Z</time>
      </trkpt>
      <trkpt lat="52.23001099191606" lon="8.236502381041646">
        <ele>83.7734375</ele>
        <time>2026-04-13T10:15:48Z</time>
      </trkpt>
      <trkpt lat="52.230235207825899" lon="8.236398277804256">
        <ele>83.359375</ele>
        <time>2026-04-13T10:15:54Z</time>
      </trkpt>
      <trkpt lat="52.230474762618542" lon="8.236290402710438">
        <ele>82.9140625</ele>
        <time>2026-04-13T10:16:00Z</time>
      </trkpt>
      <trkpt lat="52.230734098702669" lon="8.236163333058357">
        <ele>82.44140625</ele>
        <time>2026-04-13T10:16:06Z</time>
      </trkpt>
      <trkpt lat="52.230915986001492" lon="8.236068366095424">
        <ele>82.12109375</ele>
        <time>2026-04-13T10:16:10Z</time>
      </trkpt>
      <trkpt lat="52.231095861643553" lon="8.235984463244677">
        <ele>81.7890625</ele>
        <time>2026-04-13T10:16:14Z</time>
      </trkpt>
      <trkpt lat="52.231292501091957" lon="8.235882287845016">
        <ele>81.44140625</ele>
        <time>2026-04-13T10:16:18Z</time>
      </trkpt>
      <trkpt lat="52.231499701738358" lon="8.235773239284754">
        <ele>81.0234375</ele>
        <time>2026-04-13T10:16:22Z</time>
      </trkpt>
      <trkpt lat="52.231709752231836" lon="8.235676344484091">
        <ele>81.16015625</ele>
        <time>2026-04-13T10:16:26Z</time>
      </trkpt>
      <trkpt lat="52.231936901807785" lon="8.235557153820992">
        <ele>81.1953125</ele>
        <time>2026-04-13T10:16:30Z</time>
      </trkpt>
      <trkpt lat="52.23216095007956" lon="8.235452966764569">
        <ele>81.1015625</ele>
        <time>2026-04-13T10:16:34Z</time>
      </trkpt>
      <trkpt lat="52.232388183474541" lon="8.235394963994622">
        <ele>80.96484375</ele>
        <time>2026-04-13T10:16:40Z</time>
      </trkpt>
      <trkpt lat="52.232578368857503" lon="8.235433017835021">
        <ele>80.90625</ele>
        <time>2026-04-13T10:16:44Z</time>
      </trkpt>
      <trkpt lat="52.23277316428721" lon="8.235485404729843">
        <ele>80.7890625</ele>
        <time>2026-04-13T10:16:48Z</time>
      </trkpt>
      <trkpt lat="52.232998302206397" lon="8.235481465235353">
        <ele>80.5703125</ele>
        <time>2026-04-13T10:16:54Z</time>
      </trkpt>
      <trkpt lat="52.233207011595368" lon="8.235548017546535">
        <ele>80.34765625</ele>
        <time>2026-04-13T10:17:02Z</time>
      </trkpt>
      <trkpt lat="52.233505910262465" lon="8.235521530732513">
        <ele>80.6328125</ele>
        <time>2026-04-13T10:17:08Z</time>
      </trkpt>
      <trkpt lat="52.233745297417045" lon="8.235455062240362">
        <ele>81.0234375</ele>
        <time>2026-04-13T10:17:12Z</time>
      </trkpt>
      <trkpt lat="52.233942691236734" lon="8.235269403085113">
        <ele>81.86328125</ele>
        <time>2026-04-13T10:17:16Z</time>
      </trkpt>
      <trkpt lat="52.234063809737563" lon="8.234993638470769">
        <ele>82.76171875</ele>
        <time>2026-04-13T10:17:20Z</time>
      </trkpt>
      <trkpt lat="52.234156681224704" lon="8.234680658206344">
        <ele>82.23046875</ele>
        <time>2026-04-13T10:17:24Z</time>
      </trkpt>
      <trkpt lat="52.234222227707505" lon="8.234396176412702">
        <ele>81.88671875</ele>
        <time>2026-04-13T10:17:28Z</time>
      </trkpt>
      <trkpt lat="52.234293138608336" lon="8.23409216478467">
        <ele>81.83984375</ele>
        <time>2026-04-13T10:17:32Z</time>
      </trkpt>
      <trkpt lat="52.234373185783625" lon="8.233785890042782">
        <ele>82.6796875</ele>
        <time>2026-04-13T10:17:36Z</time>
      </trkpt>
      <trkpt lat="52.234444180503488" lon="8.233487494289875">
        <ele>83.4453125</ele>
        <time>2026-04-13T10:17:40Z</time>
      </trkpt>
      <trkpt lat="52.23451660014689" lon="8.233179962262511">
        <ele>84.0703125</ele>
        <time>2026-04-13T10:17:44Z</time>
      </trkpt>
      <trkpt lat="52.234589690342546" lon="8.232871759682894">
        <ele>84.45703125</ele>
        <time>2026-04-13T10:17:48Z</time>
      </trkpt>
      <trkpt lat="52.234670827165246" lon="8.232579398900271">
        <ele>84.65234375</ele>
        <time>2026-04-13T10:17:52Z</time>
      </trkpt>
      <trkpt lat="52.234759004786611" lon="8.232290726155043">
        <ele>84.78515625</ele>
        <time>2026-04-13T10:17:56Z</time>
      </trkpt>
      <trkpt lat="52.234898982569575" lon="8.23204287327826">
        <ele>84.703125</ele>
        <time>2026-04-13T10:18:00Z</time>
      </trkpt>
      <trkpt lat="52.235064189881086" lon="8.231862243264914">
        <ele>84.015625</ele>
        <time>2026-04-13T10:18:04Z</time>
      </trkpt>
      <trkpt lat="52.235251190140843" lon="8.231704663485289">
        <ele>82.9765625</ele>
        <time>2026-04-13T10:18:08Z</time>
      </trkpt>
      <trkpt lat="52.235438274219632" lon="8.231584634631872">
        <ele>81.49609375</ele>
        <time>2026-04-13T10:18:12Z</time>
      </trkpt>
      <trkpt lat="52.235626699402928" lon="8.231458067893982">
        <ele>79.6640625</ele>
        <time>2026-04-13T10:18:16Z</time>
      </trkpt>
      <trkpt lat="52.235823506489396" lon="8.231331333518028">
        <ele>78.8046875</ele>
        <time>2026-04-13T10:18:20Z</time>
      </trkpt>
      <trkpt lat="52.236027689650655" lon="8.231177106499672">
        <ele>78.3515625</ele>
        <time>2026-04-13T10:18:24Z</time>
      </trkpt>
      <trkpt lat="52.236220305785537" lon="8.231031009927392">
        <ele>78.0859375</ele>
        <time>2026-04-13T10:18:28Z</time>
      </trkpt>
      <trkpt lat="52.236397080123425" lon="8.230859516188502">
        <ele>77.9296875</ele>
        <time>2026-04-13T10:18:32Z</time>
      </trkpt>
      <trkpt lat="52.236559269949794" lon="8.230660613626242">
        <ele>77.8515625</ele>
        <time>2026-04-13T10:18:36Z</time>
      </trkpt>
      <trkpt lat="52.236711652949452" lon="8.23041326366365">
        <ele>77.7734375</ele>
        <time>2026-04-13T10:18:40Z</time>
      </trkpt>
      <trkpt lat="52.236847607418895" lon="8.230140097439289">
        <ele>77.34375</ele>
        <time>2026-04-13T10:18:44Z</time>
      </trkpt>
      <trkpt lat="52.23696269094944" lon="8.229849245399237">
        <ele>76.91796875</ele>
        <time>2026-04-13T10:18:48Z</time>
      </trkpt>
      <trkpt lat="52.23708825185895" lon="8.229549424722791">
        <ele>76.6640625</ele>
        <time>2026-04-13T10:18:52Z</time>
      </trkpt>
      <trkpt lat="52.237202413380146" lon="8.229263098910451">
        <ele>76.22265625</ele>
        <time>2026-04-13T10:18:56Z</time>
      </trkpt>
      <trkpt lat="52.23731741309166" lon="8.228973336517811">
        <ele>76.01171875</ele>
        <time>2026-04-13T10:19:00Z</time>
      </trkpt>
      <trkpt lat="52.237433586269617" lon="8.228688938543201">
        <ele>76.53125</ele>
        <time>2026-04-13T10:19:04Z</time>
      </trkpt>
      <trkpt lat="52.237547161057591" lon="8.228393392637372">
        <ele>76.6328125</ele>
        <time>2026-04-13T10:19:08Z</time>
      </trkpt>
      <trkpt lat="52.237661238759756" lon="8.228082172572613">
        <ele>76.37890625</ele>
        <time>2026-04-13T10:19:12Z</time>
      </trkpt>
      <trkpt lat="52.237789146602154" lon="8.227794086560607">
        <ele>76.109375</ele>
        <time>2026-04-13T10:19:16Z</time>
      </trkpt>
      <trkpt lat="52.237911522388458" lon="8.227519830688834">
        <ele>75.75390625</ele>
        <time>2026-04-13T10:19:20Z</time>
      </trkpt>
      <trkpt lat="52.238033898174763" lon="8.227250603958964">
        <ele>75.64453125</ele>
        <time>2026-04-13T10:19:24Z</time>
      </trkpt>
      <trkpt lat="52.23816960118711" lon="8.226960171014071">
        <ele>75.3671875</ele>
        <time>2026-04-13T10:19:28Z</time>
      </trkpt>
      <trkpt lat="52.238308908417821" lon="8.226681388914585">
        <ele>75.703125</ele>
        <time>2026-04-13T10:19:32Z</time>
      </trkpt>
      <trkpt lat="52.238458357751369" lon="8.226423813030124">
        <ele>77.11328125</ele>
        <time>2026-04-13T10:19:36Z</time>
      </trkpt>
      <trkpt lat="52.238645190373063" lon="8.22624770924449">
        <ele>78.4609375</ele>
        <time>2026-04-13T10:19:40Z</time>
      </trkpt>
      <trkpt lat="52.238862197846174" lon="8.22618274949491">
        <ele>79.546875</ele>
        <time>2026-04-13T10:19:44Z</time>
      </trkpt>
      <trkpt lat="52.23907015286386" lon="8.226155005395412">
        <ele>80.33984375</ele>
        <time>2026-04-13T10:19:48Z</time>
      </trkpt>
      <trkpt lat="52.239270899444818" lon="8.226119382306933">
        <ele>80.83203125</ele>
        <time>2026-04-13T10:19:52Z</time>
      </trkpt>
      <trkpt lat="52.239481201395392" lon="8.226086609065533">
        <ele>81.30078125</ele>
        <time>2026-04-13T10:19:56Z</time>
      </trkpt>
      <trkpt lat="52.239692509174347" lon="8.226039754226804">
        <ele>81.734375</ele>
        <time>2026-04-13T10:20:00Z</time>
      </trkpt>
      <trkpt lat="52.23988370038569" lon="8.225997509434819">
        <ele>81.7890625</ele>
        <time>2026-04-13T10:20:04Z</time>
      </trkpt>
      <trkpt lat="52.240083357319236" lon="8.225980326533318">
        <ele>80.875</ele>
        <time>2026-04-13T10:20:08Z</time>
      </trkpt>
      <trkpt lat="52.240275638177991" lon="8.225957276299596">
        <ele>79.98046875</ele>
        <time>2026-04-13T10:20:12Z</time>
      </trkpt>
      <trkpt lat="52.240488789975643" lon="8.225894328206778">
        <ele>78.94140625</ele>
        <time>2026-04-13T10:20:16Z</time>
      </trkpt>
      <trkpt lat="52.240702109411359" lon="8.225825931876898">
        <ele>77.890625</ele>
        <time>2026-04-13T10:20:20Z</time>
      </trkpt>
      <trkpt lat="52.240937640890479" lon="8.225784776732326">
        <ele>77.06640625</ele>
        <time>2026-04-13T10:20:24Z</time>
      </trkpt>
      <trkpt lat="52.241155989468098" lon="8.225641278550029">
        <ele>76.33984375</ele>
        <time>2026-04-13T10:20:28Z</time>
      </trkpt>
      <trkpt lat="52.241374840959907" lon="8.225465593859553">
        <ele>75.52734375</ele>
        <time>2026-04-13T10:20:32Z</time>
      </trkpt>
      <trkpt lat="52.241585059091449" lon="8.225309522822499">
        <ele>74.765625</ele>
        <time>2026-04-13T10:20:36Z</time>
      </trkpt>
      <trkpt lat="52.241778010502458" lon="8.225150518119335">
        <ele>74.2734375</ele>
        <time>2026-04-13T10:20:40Z</time>
      </trkpt>
      <trkpt lat="52.241978421807289" lon="8.225007858127356">
        <ele>73.84375</ele>
        <time>2026-04-13T10:20:44Z</time>
      </trkpt>
      <trkpt lat="52.242166008800268" lon="8.224846506491303">
        <ele>73.40625</ele>
        <time>2026-04-13T10:20:48Z</time>
      </trkpt>
      <trkpt lat="52.242339849472046" lon="8.224694291129708">
        <ele>73.0078125</ele>
        <time>2026-04-13T10:20:52Z</time>
      </trkpt>
      <trkpt lat="52.242525173351169" lon="8.224520869553089">
        <ele>73.35546875</ele>
        <time>2026-04-13T10:20:56Z</time>
      </trkpt>
      <trkpt lat="52.242714939638972" lon="8.224338227882981">
        <ele>73.8125</ele>
        <time>2026-04-13T10:21:00Z</time>
      </trkpt>
      <trkpt lat="52.242898335680366" lon="8.224130189046264">
        <ele>74.359375</ele>
        <time>2026-04-13T10:21:04Z</time>
      </trkpt>
      <trkpt lat="52.243042085319757" lon="8.223860543221235">
        <ele>74.55859375</ele>
        <time>2026-04-13T10:21:08Z</time>
      </trkpt>
      <trkpt lat="52.243190193548799" lon="8.223648313432932">
        <ele>74.37890625</ele>
        <time>2026-04-13T10:21:12Z</time>
      </trkpt>
      <trkpt lat="52.243318101391196" lon="8.223404483869672">
        <ele>74.08203125</ele>
        <time>2026-04-13T10:21:16Z</time>
      </trkpt>
      <trkpt lat="52.24345363676548" lon="8.223160989582539">
        <ele>74.32421875</ele>
        <time>2026-04-13T10:21:20Z</time>
      </trkpt>
      <trkpt lat="52.243603505194187" lon="8.222901821136475">
        <ele>74.74609375</ele>
        <time>2026-04-13T10:21:24Z</time>
      </trkpt>
      <trkpt lat="52.243721941486001" lon="8.222648603841662">
        <ele>75.08203125</ele>
        <time>2026-04-13T10:21:28Z</time>
      </trkpt>
      <trkpt lat="52.24383476190269" lon="8.222388010472059">
        <ele>75.421875</ele>
        <time>2026-04-13T10:21:32Z</time>
      </trkpt>
      <trkpt lat="52.243949929252267" lon="8.222138816490769">
        <ele>75.87890625</ele>
        <time>2026-04-13T10:21:36Z</time>
      </trkpt>
      <trkpt lat="52.244064677506685" lon="8.221874870359898">
        <ele>76.6484375</ele>
        <time>2026-04-13T10:21:40Z</time>
      </trkpt>
      <trkpt lat="52.244185209274292" lon="8.221598351374269">
        <ele>77.38671875</ele>
        <time>2026-04-13T10:21:44Z</time>
      </trkpt>
      <trkpt lat="52.244316637516022" lon="8.221321329474449">
        <ele>77.5078125</ele>
        <time>2026-04-13T10:21:48Z</time>
      </trkpt>
      <trkpt lat="52.244442701339722" lon="8.2210423797369">
        <ele>77.7109375</ele>
        <time>2026-04-13T10:21:52Z</time>
      </trkpt>
      <trkpt lat="52.244574967771769" lon="8.220759406685829">
        <ele>77.95703125</ele>
        <time>2026-04-13T10:21:56Z</time>
      </trkpt>
      <trkpt lat="52.244690889492631" lon="8.220460675656796">
        <ele>77.76171875</ele>
        <time>2026-04-13T10:22:00Z</time>
      </trkpt>
      <trkpt lat="52.244822988286614" lon="8.220179127529264">
        <ele>77.4296875</ele>
        <time>2026-04-13T10:22:04Z</time>
      </trkpt>
      <trkpt lat="52.244954667985439" lon="8.219912750646472">
        <ele>77.390625</ele>
        <time>2026-04-13T10:22:08Z</time>
      </trkpt>
      <trkpt lat="52.245094729587436" lon="8.219627179205418">
        <ele>77.52734375</ele>
        <time>2026-04-13T10:22:12Z</time>
      </trkpt>
      <trkpt lat="52.245237724855542" lon="8.219348061829805">
        <ele>77.33203125</ele>
        <time>2026-04-13T10:22:16Z</time>
      </trkpt>
      <trkpt lat="52.245363872498274" lon="8.219087468460202">
        <ele>76.96875</ele>
        <time>2026-04-13T10:22:20Z</time>
      </trkpt>
      <trkpt lat="52.245490271598101" lon="8.218825114890933">
        <ele>76.9140625</ele>
        <time>2026-04-13T10:22:24Z</time>
      </trkpt>
      <trkpt lat="52.245602840557694" lon="8.218569215387106">
        <ele>76.9453125</ele>
        <time>2026-04-13T10:22:28Z</time>
      </trkpt>
      <trkpt lat="52.245734268799424" lon="8.218299234285951">
        <ele>77.08203125</ele>
        <time>2026-04-13T10:22:32Z</time>
      </trkpt>
      <trkpt lat="52.245863769203424" lon="8.218024726957083">
        <ele>77.3203125</ele>
        <time>2026-04-13T10:22:36Z</time>
      </trkpt>
      <trkpt lat="52.245988240465522" lon="8.21774996817112">
        <ele>77.65234375</ele>
        <time>2026-04-13T10:22:40Z</time>
      </trkpt>
      <trkpt lat="52.246137354522943" lon="8.217464312911034">
        <ele>78.1640625</ele>
        <time>2026-04-13T10:22:44Z</time>
      </trkpt>
      <trkpt lat="52.246277499943972" lon="8.217227775603533">
        <ele>78.78515625</ele>
        <time>2026-04-13T10:22:48Z</time>
      </trkpt>
      <trkpt lat="52.246424267068505" lon="8.216987298801541">
        <ele>79.42578125</ele>
        <time>2026-04-13T10:22:52Z</time>
      </trkpt>
      <trkpt lat="52.246568687260151" lon="8.216734416782856">
        <ele>79.75390625</ele>
        <time>2026-04-13T10:22:56Z</time>
      </trkpt>
      <trkpt lat="52.24671964533627" lon="8.216530820354819">
        <ele>79.4296875</ele>
        <time>2026-04-13T10:23:00Z</time>
      </trkpt>
      <trkpt lat="52.246869178488851" lon="8.216283805668354">
        <ele>78.9140625</ele>
        <time>2026-04-13T10:23:04Z</time>
      </trkpt>
      <trkpt lat="52.247035307809711" lon="8.216049699112773">
        <ele>78.2421875</ele>
        <time>2026-04-13T10:23:08Z</time>
      </trkpt>
      <trkpt lat="52.247194731608033" lon="8.215799583122134">
        <ele>77.45703125</ele>
        <time>2026-04-13T10:23:12Z</time>
      </trkpt>
      <trkpt lat="52.247355915606022" lon="8.215562039986253">
        <ele>76.6171875</ele>
        <time>2026-04-13T10:23:16Z</time>
      </trkpt>
      <trkpt lat="52.247520703822374" lon="8.215298932045698">
        <ele>75.76953125</ele>
        <time>2026-04-13T10:23:20Z</time>
      </trkpt>
      <trkpt lat="52.247687419876456" lon="8.215034985914826">
        <ele>74.79296875</ele>
        <time>2026-04-13T10:23:24Z</time>
      </trkpt>
      <trkpt lat="52.247844832018018" lon="8.214792748913169">
        <ele>74.3046875</ele>
        <time>2026-04-13T10:23:28Z</time>
      </trkpt>
      <trkpt lat="52.248008362948895" lon="8.214537352323532">
        <ele>74.01171875</ele>
        <time>2026-04-13T10:23:32Z</time>
      </trkpt>
      <trkpt lat="52.2481669485569" lon="8.214284051209688">
        <ele>73.8515625</ele>
        <time>2026-04-13T10:23:36Z</time>
      </trkpt>
      <trkpt lat="52.248321427032351" lon="8.214028989896178">
        <ele>73.5546875</ele>
        <time>2026-04-13T10:23:40Z</time>
      </trkpt>
      <trkpt lat="52.248470289632678" lon="8.213760182261467">
        <ele>73.0234375</ele>
        <time>2026-04-13T10:23:44Z</time>
      </trkpt>
      <trkpt lat="52.248630132526159" lon="8.213478801771998">
        <ele>72.71875</ele>
        <time>2026-04-13T10:23:48Z</time>
      </trkpt>
      <trkpt lat="52.24878067150712" lon="8.213197672739625">
        <ele>72.89453125</ele>
        <time>2026-04-13T10:23:52Z</time>
      </trkpt>
      <trkpt lat="52.248934395611286" lon="8.212907239794731">
        <ele>73.4296875</ele>
        <time>2026-04-13T10:23:56Z</time>
      </trkpt>
      <trkpt lat="52.249073870480061" lon="8.212636839598417">
        <ele>73.921875</ele>
        <time>2026-04-13T10:24:00Z</time>
      </trkpt>
      <trkpt lat="52.249179817736149" lon="8.21232570335269">
        <ele>74.21875</ele>
        <time>2026-04-13T10:24:04Z</time>
      </trkpt>
      <trkpt lat="52.249256931245327" lon="8.212000485509634">
        <ele>74.30859375</ele>
        <time>2026-04-13T10:24:08Z</time>
      </trkpt>
      <trkpt lat="52.249342510476708" lon="8.211652636528015">
        <ele>74.4140625</ele>
        <time>2026-04-13T10:24:12Z</time>
      </trkpt>
      <trkpt lat="52.24941342137754" lon="8.21130839176476">
        <ele>74.5</ele>
        <time>2026-04-13T10:24:16Z</time>
      </trkpt>
      <trkpt lat="52.249499838799238" lon="8.210973450914025">
        <ele>74.43359375</ele>
        <time>2026-04-13T10:24:20Z</time>
      </trkpt>
      <trkpt lat="52.249576114118099" lon="8.210628116503358">
        <ele>74.3046875</ele>
        <time>2026-04-13T10:24:24Z</time>
      </trkpt>
      <trkpt lat="52.24965238943696" lon="8.210290325805545">
        <ele>74.21484375</ele>
        <time>2026-04-13T10:24:28Z</time>
      </trkpt>
      <trkpt lat="52.249731011688709" lon="8.209957061335445">
        <ele>74.11328125</ele>
        <time>2026-04-13T10:24:32Z</time>
      </trkpt>
      <trkpt lat="52.249805191531777" lon="8.209612481296063">
        <ele>74.015625</ele>
        <time>2026-04-13T10:24:36Z</time>
      </trkpt>
      <trkpt lat="52.249883227050304" lon="8.209274690598249">
        <ele>74.015625</ele>
        <time>2026-04-13T10:24:40Z</time>
      </trkpt>
      <trkpt lat="52.249970901757479" lon="8.208927763625979">
        <ele>73.953125</ele>
        <time>2026-04-13T10:24:44Z</time>
      </trkpt>
      <trkpt lat="52.250049440190196" lon="8.208589218556881">
        <ele>73.8203125</ele>
        <time>2026-04-13T10:24:48Z</time>
      </trkpt>
      <trkpt lat="52.250126637518406" lon="8.208249248564243">
        <ele>73.74609375</ele>
        <time>2026-04-13T10:24:52Z</time>
      </trkpt>
      <trkpt lat="52.250195201486349" lon="8.207905758172274">
        <ele>74.07421875</ele>
        <time>2026-04-13T10:24:56Z</time>
      </trkpt>
      <trkpt lat="52.250248258933425" lon="8.207559585571289">
        <ele>74.42578125</ele>
        <time>2026-04-13T10:25:00Z</time>
      </trkpt>
      <trkpt lat="52.250287234783173" lon="8.207218609750271">
        <ele>74.7890625</ele>
        <time>2026-04-13T10:25:04Z</time>
      </trkpt>
      <trkpt lat="52.25032621063292" lon="8.206883585080504">
        <ele>75.14453125</ele>
        <time>2026-04-13T10:25:08Z</time>
      </trkpt>
      <trkpt lat="52.250350601971149" lon="8.206539759412408">
        <ele>75.375</ele>
        <time>2026-04-13T10:25:12Z</time>
      </trkpt>
      <trkpt lat="52.250388571992517" lon="8.206189060583711">
        <ele>75.33203125</ele>
        <time>2026-04-13T10:25:16Z</time>
      </trkpt>
      <trkpt lat="52.250430565327406" lon="8.205840792506933">
        <ele>75.28125</ele>
        <time>2026-04-13T10:25:20Z</time>
      </trkpt>
      <trkpt lat="52.250458728522062" lon="8.205508450046182">
        <ele>74.5625</ele>
        <time>2026-04-13T10:25:24Z</time>
      </trkpt>
      <trkpt lat="52.250499883666635" lon="8.205160014331341">
        <ele>73.73828125</ele>
        <time>2026-04-13T10:25:28Z</time>
      </trkpt>
      <trkpt lat="52.250545145943761" lon="8.204825827851892">
        <ele>73.28515625</ele>
        <time>2026-04-13T10:25:32Z</time>
      </trkpt>
      <trkpt lat="52.250604322180152" lon="8.204509494826198">
        <ele>73.14453125</ele>
        <time>2026-04-13T10:25:36Z</time>
      </trkpt>
      <trkpt lat="52.250711191445589" lon="8.204225180670619">
        <ele>73.05078125</ele>
        <time>2026-04-13T10:25:40Z</time>
      </trkpt>
      <trkpt lat="52.250875812023878" lon="8.203983530402184">
        <ele>74.02734375</ele>
        <time>2026-04-13T10:25:44Z</time>
      </trkpt>
      <trkpt lat="52.251057615503669" lon="8.203801978379488">
        <ele>74.81640625</ele>
        <time>2026-04-13T10:25:48Z</time>
      </trkpt>
      <trkpt lat="52.251227600499988" lon="8.203637273982167">
        <ele>75.36328125</ele>
        <time>2026-04-13T10:25:52Z</time>
      </trkpt>
      <trkpt lat="52.251395406201482" lon="8.203453794121742">
        <ele>75.80078125</ele>
        <time>2026-04-13T10:25:56Z</time>
      </trkpt>
      <trkpt lat="52.251567402854562" lon="8.203280288726091">
        <ele>75.75</ele>
        <time>2026-04-13T10:26:00Z</time>
      </trkpt>
      <trkpt lat="52.251738728955388" lon="8.203097395598888">
        <ele>75.2109375</ele>
        <time>2026-04-13T10:26:04Z</time>
      </trkpt>
      <trkpt lat="52.251929081976414" lon="8.202919028699398">
        <ele>74.703125</ele>
        <time>2026-04-13T10:26:08Z</time>
      </trkpt>
      <trkpt lat="52.252101246267557" lon="8.202755330130458">
        <ele>74.328125</ele>
        <time>2026-04-13T10:26:12Z</time>
      </trkpt>
      <trkpt lat="52.252278439700603" lon="8.202601689845324">
        <ele>74.01171875</ele>
        <time>2026-04-13T10:26:16Z</time>
      </trkpt>
      <trkpt lat="52.252460159361362" lon="8.202439751476049">
        <ele>74.125</ele>
        <time>2026-04-13T10:26:20Z</time>
      </trkpt>
      <trkpt lat="52.252638107165694" lon="8.202261971309781">
        <ele>74.36328125</ele>
        <time>2026-04-13T10:26:24Z</time>
      </trkpt>
      <trkpt lat="52.25280842743814" lon="8.202087627723813">
        <ele>74.421875</ele>
        <time>2026-04-13T10:26:28Z</time>
      </trkpt>
      <trkpt lat="52.252984950318933" lon="8.201916385442019">
        <ele>74.30078125</ele>
        <time>2026-04-13T10:26:32Z</time>
      </trkpt>
      <trkpt lat="52.253165077418089" lon="8.20173860527575">
        <ele>74.00390625</ele>
        <time>2026-04-13T10:26:36Z</time>
      </trkpt>
      <trkpt lat="52.253343779593706" lon="8.201623437926173">
        <ele>74.421875</ele>
        <time>2026-04-13T10:26:40Z</time>
      </trkpt>
      <trkpt lat="52.253537150099874" lon="8.201604411005974">
        <ele>74.86328125</ele>
        <time>2026-04-13T10:26:44Z</time>
      </trkpt>
      <trkpt lat="52.253729430958629" lon="8.201681189239025">
        <ele>75.3515625</ele>
        <time>2026-04-13T10:26:48Z</time>
      </trkpt>
      <trkpt lat="52.253970075398684" lon="8.201693342998624">
        <ele>75.91015625</ele>
        <time>2026-04-13T10:26:54Z</time>
      </trkpt>
      <trkpt lat="52.254151292145252" lon="8.201824435964227">
        <ele>75.47265625</ele>
        <time>2026-04-13T10:27:00Z</time>
      </trkpt>
      <trkpt lat="52.254348769783974" lon="8.202085448428989">
        <ele>74.86328125</ele>
        <time>2026-04-13T10:27:06Z</time>
      </trkpt>
      <trkpt lat="52.254513390362263" lon="8.202276639640331">
        <ele>74.48046875</ele>
        <time>2026-04-13T10:27:10Z</time>
      </trkpt>
      <trkpt lat="52.254685638472438" lon="8.202474368736148">
        <ele>74.17578125</ele>
        <time>2026-04-13T10:27:14Z</time>
      </trkpt>
      <trkpt lat="52.254862496629357" lon="8.202652400359511">
        <ele>73.61328125</ele>
        <time>2026-04-13T10:27:18Z</time>
      </trkpt>
      <trkpt lat="52.25502829067409" lon="8.202827665954828">
        <ele>73.16796875</ele>
        <time>2026-04-13T10:27:22Z</time>
      </trkpt>
      <trkpt lat="52.255198275670409" lon="8.202995387837291">
        <ele>72.8984375</ele>
        <time>2026-04-13T10:27:26Z</time>
      </trkpt>
      <trkpt lat="52.255359711125493" lon="8.203168557956815">
        <ele>72.78125</ele>
        <time>2026-04-13T10:27:30Z</time>
      </trkpt>
      <trkpt lat="52.255522990599275" lon="8.203345667570829">
        <ele>72.84375</ele>
        <time>2026-04-13T10:27:34Z</time>
      </trkpt>
      <trkpt lat="52.255690712481737" lon="8.203519843518734">
        <ele>73.22265625</ele>
        <time>2026-04-13T10:27:38Z</time>
      </trkpt>
      <trkpt lat="52.255854494869709" lon="8.203678261488676">
        <ele>73.41015625</ele>
        <time>2026-04-13T10:27:42Z</time>
      </trkpt>
      <trkpt lat="52.256018025800586" lon="8.20384606719017">
        <ele>73.61328125</ele>
        <time>2026-04-13T10:27:46Z</time>
      </trkpt>
      <trkpt lat="52.256223214790225" lon="8.203998701646924">
        <ele>73.796875</ele>
        <time>2026-04-13T10:27:52Z</time>
      </trkpt>
      <trkpt lat="52.256406024098396" lon="8.204142618924379">
        <ele>73.96875</ele>
        <time>2026-04-13T10:28:00Z</time>
      </trkpt>
      <trkpt lat="52.256595371291041" lon="8.204296594485641">
        <ele>74.2578125</ele>
        <time>2026-04-13T10:28:06Z</time>
      </trkpt>
      <trkpt lat="52.256809528917074" lon="8.204508237540722">
        <ele>74.6328125</ele>
        <time>2026-04-13T10:28:12Z</time>
      </trkpt>
      <trkpt lat="52.25699694827199" lon="8.204746870324016">
        <ele>74.87890625</ele>
        <time>2026-04-13T10:28:18Z</time>
      </trkpt>
      <trkpt lat="52.257205490022898" lon="8.204966057091951">
        <ele>74.9921875</ele>
        <time>2026-04-13T10:28:24Z</time>
      </trkpt>
      <trkpt lat="52.257418893277645" lon="8.205085415393114">
        <ele>74.91015625</ele>
        <time>2026-04-13T10:28:30Z</time>
      </trkpt>
      <trkpt lat="52.257626848295331" lon="8.205227823927999">
        <ele>74.82421875</ele>
        <time>2026-04-13T10:28:36Z</time>
      </trkpt>
      <trkpt lat="52.257835390046239" lon="8.205436700955033">
        <ele>74.796875</ele>
        <time>2026-04-13T10:28:42Z</time>
      </trkpt>
      <trkpt lat="52.258017864078283" lon="8.205715147778392">
        <ele>74.85546875</ele>
        <time>2026-04-13T10:28:48Z</time>
      </trkpt>
      <trkpt lat="52.258204780519009" lon="8.205957971513271">
        <ele>74.953125</ele>
        <time>2026-04-13T10:28:54Z</time>
      </trkpt>
      <trkpt lat="52.258417597040534" lon="8.206203728914261">
        <ele>75.0390625</ele>
        <time>2026-04-13T10:29:00Z</time>
      </trkpt>
      <trkpt lat="52.258624881505966" lon="8.206425681710243">
        <ele>75.0078125</ele>
        <time>2026-04-13T10:29:06Z</time>
      </trkpt>
      <trkpt lat="52.258791010826826" lon="8.206611843779683">
        <ele>74.875</ele>
        <time>2026-04-13T10:29:12Z</time>
      </trkpt>
      <trkpt lat="52.258982537314296" lon="8.206740925088525">
        <ele>75.078125</ele>
        <time>2026-04-13T10:29:20Z</time>
      </trkpt>
      <trkpt lat="52.2592241037637" lon="8.206923566758633">
        <ele>75.30859375</ele>
        <time>2026-04-13T10:29:26Z</time>
      </trkpt>
      <trkpt lat="52.259378917515278" lon="8.207082068547607">
        <ele>75.5</ele>
        <time>2026-04-13T10:29:30Z</time>
      </trkpt>
      <trkpt lat="52.259551081806421" lon="8.207267560064793">
        <ele>75.72265625</ele>
        <time>2026-04-13T10:29:34Z</time>
      </trkpt>
      <trkpt lat="52.259707069024444" lon="8.207434108480811">
        <ele>75.921875</ele>
        <time>2026-04-13T10:29:38Z</time>
      </trkpt>
      <trkpt lat="52.259930279105902" lon="8.207665868103504">
        <ele>75.8984375</ele>
        <time>2026-04-13T10:29:44Z</time>
      </trkpt>
      <trkpt lat="52.260119039565325" lon="8.207909027114511">
        <ele>75.8203125</ele>
        <time>2026-04-13T10:29:50Z</time>
      </trkpt>
      <trkpt lat="52.260309308767319" lon="8.208195520564914">
        <ele>75.90625</ele>
        <time>2026-04-13T10:29:56Z</time>
      </trkpt>
      <trkpt lat="52.260517431423068" lon="8.208391405642033">
        <ele>76.08203125</ele>
        <time>2026-04-13T10:30:02Z</time>
      </trkpt>
      <trkpt lat="52.2607212793082" lon="8.208589721471071">
        <ele>76.484375</ele>
        <time>2026-04-13T10:30:08Z</time>
      </trkpt>
      <trkpt lat="52.2608542162925" lon="8.208822486922145">
        <ele>77.19921875</ele>
        <time>2026-04-13T10:30:14Z</time>
      </trkpt>
      <trkpt lat="52.261080192402005" lon="8.209033291786909">
        <ele>78.28125</ele>
        <time>2026-04-13T10:30:20Z</time>
      </trkpt>
      <trkpt lat="52.261248333379626" lon="8.209315594285727">
        <ele>79.05078125</ele>
        <time>2026-04-13T10:30:26Z</time>
      </trkpt>
      <trkpt lat="52.261311868205667" lon="8.20959135890007">
        <ele>79.0625</ele>
        <time>2026-04-13T10:30:32Z</time>
      </trkpt>
      <trkpt lat="52.261491408571601" lon="8.209670400246978">
        <ele>79.390625</ele>
        <time>2026-04-13T10:30:38Z</time>
      </trkpt>
      <trkpt lat="52.261461736634374" lon="8.210089076310396">
        <ele>78.75</ele>
        <time>2026-04-13T11:22:57Z</time>
      </trkpt>
      <trkpt lat="52.261578580364585" lon="8.209558753296733">
        <ele>79.421875</ele>
        <time>2026-04-13T11:23:27Z</time>
      </trkpt>
      <trkpt lat="52.261891309171915" lon="8.209630083292723">
        <ele>78.9609375</ele>
        <time>2026-04-13T11:23:45Z</time>
      </trkpt>
      <trkpt lat="52.262094989418983" lon="8.209868129342794">
        <ele>78.4296875</ele>
        <time>2026-04-13T11:23:51Z</time>
      </trkpt>
      <trkpt lat="52.262261956930161" lon="8.210062086582184">
        <ele>77.9921875</ele>
        <time>2026-04-13T11:23:57Z</time>
      </trkpt>
      <trkpt lat="52.262438982725143" lon="8.210226790979505">
        <ele>77.625</ele>
        <time>2026-04-13T11:24:03Z</time>
      </trkpt>
      <trkpt lat="52.262598322704434" lon="8.210467267781496">
        <ele>77.29296875</ele>
        <time>2026-04-13T11:24:09Z</time>
      </trkpt>
      <trkpt lat="52.262777695432305" lon="8.210663739591837">
        <ele>77.08984375</ele>
        <time>2026-04-13T11:24:15Z</time>
      </trkpt>
      <trkpt lat="52.262958660721779" lon="8.210859289392829">
        <ele>76.984375</ele>
        <time>2026-04-13T11:24:21Z</time>
      </trkpt>
      <trkpt lat="52.263144738972187" lon="8.211050061509013">
        <ele>76.9921875</ele>
        <time>2026-04-13T11:24:27Z</time>
      </trkpt>
      <trkpt lat="52.263324111700058" lon="8.211250975728035">
        <ele>77</ele>
        <time>2026-04-13T11:24:33Z</time>
      </trkpt>
      <trkpt lat="52.26350256241858" lon="8.211446022614837">
        <ele>77</ele>
        <time>2026-04-13T11:24:39Z</time>
      </trkpt>
      <trkpt lat="52.263687718659639" lon="8.211536044254899">
        <ele>77</ele>
        <time>2026-04-13T11:24:45Z</time>
      </trkpt>
      <trkpt lat="52.263797773048282" lon="8.211162546649575">
        <ele>77</ele>
        <time>2026-04-13T11:24:51Z</time>
      </trkpt>
      <trkpt lat="52.263902295380831" lon="8.210755353793502">
        <ele>76.91796875</ele>
        <time>2026-04-13T11:24:57Z</time>
      </trkpt>
      <trkpt lat="52.264012768864632" lon="8.210353022441268">
        <ele>76.3984375</ele>
        <time>2026-04-13T11:25:03Z</time>
      </trkpt>
      <trkpt lat="52.264093151316047" lon="8.210055967792869">
        <ele>75.9453125</ele>
        <time>2026-04-13T11:25:07Z</time>
      </trkpt>
      <trkpt lat="52.264180406928062" lon="8.209771066904068">
        <ele>75.98046875</ele>
        <time>2026-04-13T11:25:11Z</time>
      </trkpt>
      <trkpt lat="52.264266321435571" lon="8.209463283419609">
        <ele>76.09375</ele>
        <time>2026-04-13T11:25:15Z</time>
      </trkpt>
      <trkpt lat="52.26434838026762" lon="8.209160529077053">
        <ele>76.14453125</ele>
        <time>2026-04-13T11:25:19Z</time>
      </trkpt>
      <trkpt lat="52.26442608051002" lon="8.208853248506784">
        <ele>76.32421875</ele>
        <time>2026-04-13T11:25:23Z</time>
      </trkpt>
      <trkpt lat="52.264513839036226" lon="8.208564575761557">
        <ele>76.4609375</ele>
        <time>2026-04-13T11:25:27Z</time>
      </trkpt>
      <trkpt lat="52.26455700583756" lon="8.20826618000865">
        <ele>76.63671875</ele>
        <time>2026-04-13T11:25:31Z</time>
      </trkpt>
      <trkpt lat="52.264562621712685" lon="8.207946829497814">
        <ele>76.625</ele>
        <time>2026-04-13T11:25:35Z</time>
      </trkpt>
      <trkpt lat="52.264573099091649" lon="8.207623539492488">
        <ele>76.59765625</ele>
        <time>2026-04-13T11:25:39Z</time>
      </trkpt>
      <trkpt lat="52.264579553157091" lon="8.207295387983322">
        <ele>76.51171875</ele>
        <time>2026-04-13T11:25:43Z</time>
      </trkpt>
      <trkpt lat="52.264573518186808" lon="8.206959441304207">
        <ele>76.40234375</ele>
        <time>2026-04-13T11:25:47Z</time>
      </trkpt>
      <trkpt lat="52.264573099091649" lon="8.206630786880851">
        <ele>76.30078125</ele>
        <time>2026-04-13T11:25:51Z</time>
      </trkpt>
      <trkpt lat="52.264563459903002" lon="8.206273801624775">
        <ele>76.3125</ele>
        <time>2026-04-13T11:25:55Z</time>
      </trkpt>
      <trkpt lat="52.264581145718694" lon="8.205896532163024">
        <ele>76.2890625</ele>
        <time>2026-04-13T11:25:59Z</time>
      </trkpt>
      <trkpt lat="52.264594389125705" lon="8.205551700666547">
        <ele>76.2734375</ele>
        <time>2026-04-13T11:26:03Z</time>
      </trkpt>
      <trkpt lat="52.264599753543735" lon="8.205197649076581">
        <ele>76.265625</ele>
        <time>2026-04-13T11:26:07Z</time>
      </trkpt>
      <trkpt lat="52.264625821262598" lon="8.204828845337033">
        <ele>76.44140625</ele>
        <time>2026-04-13T11:26:11Z</time>
      </trkpt>
      <trkpt lat="52.264718441292644" lon="8.204488623887301">
        <ele>76.73828125</ele>
        <time>2026-04-13T11:26:15Z</time>
      </trkpt>
      <trkpt lat="52.264813156798482" lon="8.204158544540405">
        <ele>77.01171875</ele>
        <time>2026-04-13T11:26:19Z</time>
      </trkpt>
      <trkpt lat="52.264916840940714" lon="8.203824358060956">
        <ele>76.7734375</ele>
        <time>2026-04-13T11:26:23Z</time>
      </trkpt>
      <trkpt lat="52.265016166493297" lon="8.203494278714061">
        <ele>76.53515625</ele>
        <time>2026-04-13T11:26:27Z</time>
      </trkpt>
      <trkpt lat="52.265114653855562" lon="8.203168138861656">
        <ele>76.09765625</ele>
        <time>2026-04-13T11:26:31Z</time>
      </trkpt>
      <trkpt lat="52.265208950266242" lon="8.202837975695729">
        <ele>75.47265625</ele>
        <time>2026-04-13T11:26:35Z</time>
      </trkpt>
      <trkpt lat="52.265319507569075" lon="8.20252382196486">
        <ele>74.83203125</ele>
        <time>2026-04-13T11:26:39Z</time>
      </trkpt>
      <trkpt lat="52.265411289408803" lon="8.202203717082739">
        <ele>74.5859375</ele>
        <time>2026-04-13T11:26:43Z</time>
      </trkpt>
      <trkpt lat="52.265518242493272" lon="8.201867854222655">
        <ele>74.328125</ele>
        <time>2026-04-13T11:26:47Z</time>
      </trkpt>
      <trkpt lat="52.265623100101948" lon="8.201558478176594">
        <ele>74.08203125</ele>
        <time>2026-04-13T11:26:51Z</time>
      </trkpt>
      <trkpt lat="52.265716390684247" lon="8.201224710792303">
        <ele>74.07421875</ele>
        <time>2026-04-13T11:26:55Z</time>
      </trkpt>
      <trkpt lat="52.265809513628483" lon="8.200904941186309">
        <ele>74.1875</ele>
        <time>2026-04-13T11:26:59Z</time>
      </trkpt>
      <trkpt lat="52.265910180285573" lon="8.200597325339913">
        <ele>74.12890625</ele>
        <time>2026-04-13T11:27:03Z</time>
      </trkpt>
      <trkpt lat="52.266015289351344" lon="8.200264228507876">
        <ele>73.83984375</ele>
        <time>2026-04-13T11:27:07Z</time>
      </trkpt>
      <trkpt lat="52.266121990978718" lon="8.199922582134605">
        <ele>73.33984375</ele>
        <time>2026-04-13T11:27:11Z</time>
      </trkpt>
      <trkpt lat="52.266225339844823" lon="8.199599124491215">
        <ele>72.828125</ele>
        <time>2026-04-13T11:27:15Z</time>
      </trkpt>
      <trkpt lat="52.266320725902915" lon="8.199263093993068">
        <ele>72.3125</ele>
        <time>2026-04-13T11:27:19Z</time>
      </trkpt>
      <trkpt lat="52.266376465559006" lon="8.198908874765039">
        <ele>72.08984375</ele>
        <time>2026-04-13T11:27:23Z</time>
      </trkpt>
      <trkpt lat="52.26640596985817" lon="8.19853319786489">
        <ele>72.0234375</ele>
        <time>2026-04-13T11:27:27Z</time>
      </trkpt>
      <trkpt lat="52.26641234010458" lon="8.198150480166078">
        <ele>71.796875</ele>
        <time>2026-04-13T11:27:31Z</time>
      </trkpt>
      <trkpt lat="52.266427762806416" lon="8.197785364463925">
        <ele>71.3828125</ele>
        <time>2026-04-13T11:27:35Z</time>
      </trkpt>
      <trkpt lat="52.266433630138636" lon="8.197412034496665">
        <ele>71.2890625</ele>
        <time>2026-04-13T11:27:39Z</time>
      </trkpt>
      <trkpt lat="52.266451232135296" lon="8.197028813883662">
        <ele>72.1875</ele>
        <time>2026-04-13T11:27:43Z</time>
      </trkpt>
      <trkpt lat="52.26647294126451" lon="8.196655819192529">
        <ele>73.015625</ele>
        <time>2026-04-13T11:27:47Z</time>
      </trkpt>
      <trkpt lat="52.266487944871187" lon="8.19628207013011">
        <ele>73</ele>
        <time>2026-04-13T11:27:51Z</time>
      </trkpt>
      <trkpt lat="52.26650076918304" lon="8.195928018540144">
        <ele>73</ele>
        <time>2026-04-13T11:27:55Z</time>
      </trkpt>
      <trkpt lat="52.266516694799066" lon="8.195555610582233">
        <ele>72.66015625</ele>
        <time>2026-04-13T11:27:59Z</time>
      </trkpt>
      <trkpt lat="52.266528261825442" lon="8.195191752165556">
        <ele>72.22265625</ele>
        <time>2026-04-13T11:28:03Z</time>
      </trkpt>
      <trkpt lat="52.266527926549315" lon="8.194816075265408">
        <ele>71.9765625</ele>
        <time>2026-04-13T11:28:07Z</time>
      </trkpt>
      <trkpt lat="52.266545528545976" lon="8.194452384486795">
        <ele>71.90625</ele>
        <time>2026-04-13T11:28:11Z</time>
      </trkpt>
      <trkpt lat="52.266571931540966" lon="8.194092297926545">
        <ele>71.71875</ele>
        <time>2026-04-13T11:28:15Z</time>
      </trkpt>
      <trkpt lat="52.266580397263169" lon="8.193724416196346">
        <ele>71.359375</ele>
        <time>2026-04-13T11:28:19Z</time>
      </trkpt>
      <trkpt lat="52.266595233231783" lon="8.193352175876498">
        <ele>71.01171875</ele>
        <time>2026-04-13T11:28:23Z</time>
      </trkpt>
      <trkpt lat="52.26661266759038" lon="8.19297306239605">
        <ele>71.44140625</ele>
        <time>2026-04-13T11:28:27Z</time>
      </trkpt>
      <trkpt lat="52.266627671197057" lon="8.19259244017303">
        <ele>71.8984375</ele>
        <time>2026-04-13T11:28:31Z</time>
      </trkpt>
      <trkpt lat="52.266639824956656" lon="8.192206034436822">
        <ele>72.36328125</ele>
        <time>2026-04-13T11:28:35Z</time>
      </trkpt>
      <trkpt lat="52.266648709774017" lon="8.191834380850196">
        <ele>72.80859375</ele>
        <time>2026-04-13T11:28:39Z</time>
      </trkpt>
      <trkpt lat="52.266665641218424" lon="8.191458787769079">
        <ele>73.203125</ele>
        <time>2026-04-13T11:28:43Z</time>
      </trkpt>
      <trkpt lat="52.266677375882864" lon="8.19108403287828">
        <ele>73.546875</ele>
        <time>2026-04-13T11:28:47Z</time>
      </trkpt>
      <trkpt lat="52.266703778877854" lon="8.190693184733391">
        <ele>73.921875</ele>
        <time>2026-04-13T11:28:51Z</time>
      </trkpt>
      <trkpt lat="52.266703946515918" lon="8.190330918878317">
        <ele>74.35546875</ele>
        <time>2026-04-13T11:28:55Z</time>
      </trkpt>
      <trkpt lat="52.266728756949306" lon="8.189995139837265">
        <ele>74.7109375</ele>
        <time>2026-04-13T11:28:59Z</time>
      </trkpt>
      <trkpt lat="52.266965797170997" lon="8.19003445096314">
        <ele>74.3984375</ele>
        <time>2026-04-13T11:29:05Z</time>
      </trkpt>
      <trkpt lat="52.267161933705211" lon="8.190100667998195">
        <ele>74.08203125</ele>
        <time>2026-04-13T11:29:09Z</time>
      </trkpt>
      <trkpt lat="52.267378270626068" lon="8.190163867548108">
        <ele>73.94140625</ele>
        <time>2026-04-13T11:29:13Z</time>
      </trkpt>
      <trkpt lat="52.267597708851099" lon="8.190237963572145">
        <ele>74.30078125</ele>
        <time>2026-04-13T11:29:17Z</time>
      </trkpt>
      <trkpt lat="52.267797365784645" lon="8.190297726541758">
        <ele>74.6015625</ele>
        <time>2026-04-13T11:29:21Z</time>
      </trkpt>
      <trkpt lat="52.267981851473451" lon="8.190359082072973">
        <ele>74.8359375</ele>
        <time>2026-04-13T11:29:25Z</time>
      </trkpt>
      <trkpt lat="52.268175892531872" lon="8.190415576100349">
        <ele>75.02734375</ele>
        <time>2026-04-13T11:29:29Z</time>
      </trkpt>
      <trkpt lat="52.268358450382948" lon="8.190473075956106">
        <ele>74.88671875</ele>
        <time>2026-04-13T11:29:33Z</time>
      </trkpt>
      <trkpt lat="52.2685457020998" lon="8.190344832837582">
        <ele>75.1953125</ele>
        <time>2026-04-13T11:29:39Z</time>
      </trkpt>
      <trkpt lat="52.268542014062405" lon="8.190045682713389">
        <ele>75.9140625</ele>
        <time>2026-04-13T11:29:43Z</time>
      </trkpt>
      <trkpt lat="52.268509240821004" lon="8.189703114330769">
        <ele>75.6328125</ele>
        <time>2026-04-13T11:29:47Z</time>
      </trkpt>
      <trkpt lat="52.268483089283109" lon="8.189359288662672">
        <ele>75.21875</ele>
        <time>2026-04-13T11:29:51Z</time>
      </trkpt>
      <trkpt lat="52.268444197252393" lon="8.189006661996245">
        <ele>74.51953125</ele>
        <time>2026-04-13T11:29:55Z</time>
      </trkpt>
      <trkpt lat="52.268420644104481" lon="8.188634254038334">
        <ele>73.48828125</ele>
        <time>2026-04-13T11:29:59Z</time>
      </trkpt>
      <trkpt lat="52.268407065421343" lon="8.188265031203628">
        <ele>72.6953125</ele>
        <time>2026-04-13T11:30:03Z</time>
      </trkpt>
      <trkpt lat="52.268382171168923" lon="8.187887677922845">
        <ele>72.7265625</ele>
        <time>2026-04-13T11:30:07Z</time>
      </trkpt>
      <trkpt lat="52.268353588879108" lon="8.187502697110176">
        <ele>72.75</ele>
        <time>2026-04-13T11:30:11Z</time>
      </trkpt>
      <trkpt lat="52.268332298845053" lon="8.187123918905854">
        <ele>72.41796875</ele>
        <time>2026-04-13T11:30:15Z</time>
      </trkpt>
      <trkpt lat="52.268309164792299" lon="8.186739608645439">
        <ele>72.05859375</ele>
        <time>2026-04-13T11:30:19Z</time>
      </trkpt>
      <trkpt lat="52.268285779282451" lon="8.186377510428429">
        <ele>71.8125</ele>
        <time>2026-04-13T11:30:23Z</time>
      </trkpt>
      <trkpt lat="52.268263315781951" lon="8.186012981459498">
        <ele>71.515625</ele>
        <time>2026-04-13T11:30:27Z</time>
      </trkpt>
      <trkpt lat="52.268245043233037" lon="8.185640070587397">
        <ele>71.71484375</ele>
        <time>2026-04-13T11:30:31Z</time>
      </trkpt>
      <trkpt lat="52.268215790390968" lon="8.185272943228483">
        <ele>72.39453125</ele>
        <time>2026-04-13T11:30:35Z</time>
      </trkpt>
      <trkpt lat="52.26818360388279" lon="8.184901708737016">
        <ele>73.09375</ele>
        <time>2026-04-13T11:30:39Z</time>
      </trkpt>
      <trkpt lat="52.268160888925195" lon="8.184527205303311">
        <ele>73.5703125</ele>
        <time>2026-04-13T11:30:43Z</time>
      </trkpt>
      <trkpt lat="52.268135659396648" lon="8.18414993584156">
        <ele>73.95703125</ele>
        <time>2026-04-13T11:30:47Z</time>
      </trkpt>
      <trkpt lat="52.268107244744897" lon="8.183780461549759">
        <ele>73.9140625</ele>
        <time>2026-04-13T11:30:51Z</time>
      </trkpt>
      <trkpt lat="52.268076566979289" lon="8.183418363332748">
        <ele>73.8984375</ele>
        <time>2026-04-13T11:30:55Z</time>
      </trkpt>
      <trkpt lat="52.268042620271444" lon="8.183031957596541">
        <ele>73.91796875</ele>
        <time>2026-04-13T11:30:59Z</time>
      </trkpt>
      <trkpt lat="52.267932062968612" lon="8.182708751410246">
        <ele>73.9375</ele>
        <time>2026-04-13T11:31:03Z</time>
      </trkpt>
      <trkpt lat="52.267762832343578" lon="8.182449918240309">
        <ele>74.078125</ele>
        <time>2026-04-13T11:31:07Z</time>
      </trkpt>
      <trkpt lat="52.267602821812034" lon="8.182180775329471">
        <ele>74.40234375</ele>
        <time>2026-04-13T11:31:11Z</time>
      </trkpt>
      <trkpt lat="52.267436441034079" lon="8.18191934376955">
        <ele>74.71484375</ele>
        <time>2026-04-13T11:31:15Z</time>
      </trkpt>
      <trkpt lat="52.267267713323236" lon="8.181657744571567">
        <ele>74.9453125</ele>
        <time>2026-04-13T11:31:19Z</time>
      </trkpt>
      <trkpt lat="52.267117006704211" lon="8.181403772905469">
        <ele>74.49609375</ele>
        <time>2026-04-13T11:31:23Z</time>
      </trkpt>
      <trkpt lat="52.267028242349625" lon="8.181144436821342">
        <ele>74.1640625</ele>
        <time>2026-04-13T11:31:27Z</time>
      </trkpt>
      <trkpt lat="52.266890360042453" lon="8.180731041356921">
        <ele>74.03515625</ele>
        <time>2026-04-13T11:31:33Z</time>
      </trkpt>
      <trkpt lat="52.266772845759988" lon="8.180420827120543">
        <ele>74.31640625</ele>
        <time>2026-04-13T11:31:37Z</time>
      </trkpt>
      <trkpt lat="52.266672598198056" lon="8.180078594014049">
        <ele>74.5546875</ele>
        <time>2026-04-13T11:31:41Z</time>
      </trkpt>
      <trkpt lat="52.266575200483203" lon="8.179778186604381">
        <ele>75.390625</ele>
        <time>2026-04-13T11:31:45Z</time>
      </trkpt>
      <trkpt lat="52.266501858830452" lon="8.17944198846817">
        <ele>76.35546875</ele>
        <time>2026-04-13T11:31:49Z</time>
      </trkpt>
      <trkpt lat="52.266428852453828" lon="8.179104030132294">
        <ele>76.78125</ele>
        <time>2026-04-13T11:31:53Z</time>
      </trkpt>
      <trkpt lat="52.266344865784049" lon="8.178780237212777">
        <ele>76.40234375</ele>
        <time>2026-04-13T11:31:57Z</time>
      </trkpt>
      <trkpt lat="52.266250988468528" lon="8.178439177572727">
        <ele>75.89453125</ele>
        <time>2026-04-13T11:32:01Z</time>
      </trkpt>
      <trkpt lat="52.266140850260854" lon="8.178084287792444">
        <ele>75.015625</ele>
        <time>2026-04-13T11:32:05Z</time>
      </trkpt>
      <trkpt lat="52.266046972945333" lon="8.177726548165083">
        <ele>74.1328125</ele>
        <time>2026-04-13T11:32:09Z</time>
      </trkpt>
      <trkpt lat="52.265951000154018" lon="8.177368473261595">
        <ele>73.5390625</ele>
        <time>2026-04-13T11:32:13Z</time>
      </trkpt>
      <trkpt lat="52.265854859724641" lon="8.177024815231562">
        <ele>73.41015625</ele>
        <time>2026-04-13T11:32:17Z</time>
      </trkpt>
      <trkpt lat="52.265770537778735" lon="8.176681995391846">
        <ele>73.4140625</ele>
        <time>2026-04-13T11:32:21Z</time>
      </trkpt>
      <trkpt lat="52.265689400956035" lon="8.176350491121411">
        <ele>72.70703125</ele>
        <time>2026-04-13T11:32:25Z</time>
      </trkpt>
      <trkpt lat="52.265926860272884" lon="8.17609878256917">
        <ele>73.046875</ele>
        <time>2026-04-13T11:32:33Z</time>
      </trkpt>
      <trkpt lat="52.266130121424794" lon="8.176034661009908">
        <ele>73.484375</ele>
        <time>2026-04-13T11:32:37Z</time>
      </trkpt>
      <trkpt lat="52.266343189403415" lon="8.175977328792214">
        <ele>73.9296875</ele>
        <time>2026-04-13T11:32:41Z</time>
      </trkpt>
      <trkpt lat="52.266556257382035" lon="8.175914799794555">
        <ele>74.14453125</ele>
        <time>2026-04-13T11:32:45Z</time>
      </trkpt>
      <trkpt lat="52.266769828274846" lon="8.175864676013589">
        <ele>74.02734375</ele>
        <time>2026-04-13T11:32:49Z</time>
      </trkpt>
      <trkpt lat="52.266970658674836" lon="8.175785718485713">
        <ele>74.01171875</ele>
        <time>2026-04-13T11:32:53Z</time>
      </trkpt>
      <trkpt lat="52.267169058322906" lon="8.175743389874697">
        <ele>74.08203125</ele>
        <time>2026-04-13T11:32:57Z</time>
      </trkpt>
      <trkpt lat="52.267382377758622" lon="8.175682118162513">
        <ele>74.24609375</ele>
        <time>2026-04-13T11:33:01Z</time>
      </trkpt>
      <trkpt lat="52.267585387453437" lon="8.175640124827623">
        <ele>74.41015625</ele>
        <time>2026-04-13T11:33:05Z</time>
      </trkpt>
      <trkpt lat="52.267799209803343" lon="8.175575500354171">
        <ele>74.5234375</ele>
        <time>2026-04-13T11:33:09Z</time>
      </trkpt>
      <trkpt lat="52.268007667735219" lon="8.175514144822955">
        <ele>74.5625</ele>
        <time>2026-04-13T11:33:13Z</time>
      </trkpt>
      <trkpt lat="52.268215119838715" lon="8.175470475107431">
        <ele>74.4296875</ele>
        <time>2026-04-13T11:33:17Z</time>
      </trkpt>
      <trkpt lat="52.268398348242044" lon="8.175409371033311">
        <ele>74.03515625</ele>
        <time>2026-04-13T11:33:21Z</time>
      </trkpt>
      <trkpt lat="52.268446041271091" lon="8.175107035785914">
        <ele>73.71875</ele>
        <time>2026-04-13T11:33:25Z</time>
      </trkpt>
      <trkpt lat="52.268444029614329" lon="8.174754492938519">
        <ele>73.65234375</ele>
        <time>2026-04-13T11:33:29Z</time>
      </trkpt>
      <trkpt lat="52.26843724027276" lon="8.174404129385948">
        <ele>73.66015625</ele>
        <time>2026-04-13T11:33:33Z</time>
      </trkpt>
      <trkpt lat="52.268430702388287" lon="8.174038343131542">
        <ele>73.96484375</ele>
        <time>2026-04-13T11:33:37Z</time>
      </trkpt>
      <trkpt lat="52.268429528921843" lon="8.173655457794666">
        <ele>74.73046875</ele>
        <time>2026-04-13T11:33:41Z</time>
      </trkpt>
      <trkpt lat="52.268426930531859" lon="8.173282882198691">
        <ele>75.28515625</ele>
        <time>2026-04-13T11:33:45Z</time>
      </trkpt>
      <trkpt lat="52.268415195867419" lon="8.17290703766048">
        <ele>75.00390625</ele>
        <time>2026-04-13T11:33:49Z</time>
      </trkpt>
      <trkpt lat="52.268397342413664" lon="8.172543095424771">
        <ele>74.7265625</ele>
        <time>2026-04-13T11:33:53Z</time>
      </trkpt>
      <trkpt lat="52.268389798700809" lon="8.172168675810099">
        <ele>73.87109375</ele>
        <time>2026-04-13T11:33:57Z</time>
      </trkpt>
      <trkpt lat="52.268375884741545" lon="8.171799452975392">
        <ele>73</ele>
        <time>2026-04-13T11:34:01Z</time>
      </trkpt>
      <trkpt lat="52.268368760123849" lon="8.171423692256212">
        <ele>72.82421875</ele>
        <time>2026-04-13T11:34:05Z</time>
      </trkpt>
      <trkpt lat="52.26835560053587" lon="8.171065030619502">
        <ele>72.9375</ele>
        <time>2026-04-13T11:34:09Z</time>
      </trkpt>
      <trkpt lat="52.268024850636721" lon="8.170884652063251">
        <ele>73.3046875</ele>
        <time>2026-04-13T11:34:17Z</time>
      </trkpt>
      <trkpt lat="52.267808681353927" lon="8.170925220474601">
        <ele>73.79296875</ele>
        <time>2026-04-13T11:34:21Z</time>
      </trkpt>
      <trkpt lat="52.267597122117877" lon="8.170982887968421">
        <ele>74.234375</ele>
        <time>2026-04-13T11:34:25Z</time>
      </trkpt>
      <trkpt lat="52.267399979755282" lon="8.171033682301641">
        <ele>74.61328125</ele>
        <time>2026-04-13T11:34:29Z</time>
      </trkpt>
      <trkpt lat="52.267273245379329" lon="8.170814579352737">
        <ele>74.94140625</ele>
        <time>2026-04-13T11:34:33Z</time>
      </trkpt>
      <trkpt lat="52.267248099669814" lon="8.17045315168798">
        <ele>74.87109375</ele>
        <time>2026-04-13T11:34:37Z</time>
      </trkpt>
      <trkpt lat="52.267212895676494" lon="8.170085521414876">
        <ele>74.75</ele>
        <time>2026-04-13T11:34:41Z</time>
      </trkpt>
      <trkpt lat="52.267182217910886" lon="8.169715711846948">
        <ele>74.66796875</ele>
        <time>2026-04-13T11:34:45Z</time>
      </trkpt>
      <trkpt lat="52.267148774117231" lon="8.169353781268001">
        <ele>74.5859375</ele>
        <time>2026-04-13T11:34:49Z</time>
      </trkpt>
      <trkpt lat="52.267117761075497" lon="8.168978942558169">
        <ele>74.3203125</ele>
        <time>2026-04-13T11:34:53Z</time>
      </trkpt>
      <trkpt lat="52.26705783046782" lon="8.168613743036985">
        <ele>73.89453125</ele>
        <time>2026-04-13T11:34:57Z</time>
      </trkpt>
      <trkpt lat="52.26701089181006" lon="8.168236389756203">
        <ele>73.68359375</ele>
        <time>2026-04-13T11:35:01Z</time>
      </trkpt>
      <trkpt lat="52.266979040578008" lon="8.167864149436355">
        <ele>73.83203125</ele>
        <time>2026-04-13T11:35:05Z</time>
      </trkpt>
      <trkpt lat="52.266960851848125" lon="8.167505487799645">
        <ele>74.00390625</ele>
        <time>2026-04-13T11:35:09Z</time>
      </trkpt>
      <trkpt lat="52.266941657289863" lon="8.167136684060097">
        <ele>74.04296875</ele>
        <time>2026-04-13T11:35:13Z</time>
      </trkpt>
      <trkpt lat="52.266916679218411" lon="8.16678162664175">
        <ele>74.02734375</ele>
        <time>2026-04-13T11:35:17Z</time>
      </trkpt>
      <trkpt lat="52.266909638419747" lon="8.166408045217395">
        <ele>74.01171875</ele>
        <time>2026-04-13T11:35:21Z</time>
      </trkpt>
      <trkpt lat="52.266905112192035" lon="8.166040331125259">
        <ele>74.00390625</ele>
        <time>2026-04-13T11:35:25Z</time>
      </trkpt>
      <trkpt lat="52.266921037808061" lon="8.16568024456501">
        <ele>74.0390625</ele>
        <time>2026-04-13T11:35:29Z</time>
      </trkpt>
      <trkpt lat="52.266933778300881" lon="8.165308255702257">
        <ele>74.0703125</ele>
        <time>2026-04-13T11:35:33Z</time>
      </trkpt>
      <trkpt lat="52.266942914575338" lon="8.164946911856532">
        <ele>73.9921875</ele>
        <time>2026-04-13T11:35:37Z</time>
      </trkpt>
      <trkpt lat="52.266957247629762" lon="8.16457400098443">
        <ele>73.515625</ele>
        <time>2026-04-13T11:35:41Z</time>
      </trkpt>
      <trkpt lat="52.266956828534603" lon="8.164203772321343">
        <ele>73.015625</ele>
        <time>2026-04-13T11:35:45Z</time>
      </trkpt>
      <trkpt lat="52.266968647018075" lon="8.163835052400827">
        <ele>72.5703125</ele>
        <time>2026-04-13T11:35:49Z</time>
      </trkpt>
      <trkpt lat="52.267008209601045" lon="8.163497596979141">
        <ele>72.1640625</ele>
        <time>2026-04-13T11:35:53Z</time>
      </trkpt>
      <trkpt lat="52.267024889588356" lon="8.1631940882653">
        <ele>72</ele>
        <time>2026-04-13T11:35:57Z</time>
      </trkpt>
      <trkpt lat="52.267006449401379" lon="8.162866355851293">
        <ele>72</ele>
        <time>2026-04-13T11:36:01Z</time>
      </trkpt>
      <trkpt lat="52.267004689201713" lon="8.162525296211243">
        <ele>72</ele>
        <time>2026-04-13T11:36:05Z</time>
      </trkpt>
      <trkpt lat="52.267012735828757" lon="8.162160934880376">
        <ele>72.27734375</ele>
        <time>2026-04-13T11:36:09Z</time>
      </trkpt>
      <trkpt lat="52.267009383067489" lon="8.161802189424634">
        <ele>72.54296875</ele>
        <time>2026-04-13T11:36:13Z</time>
      </trkpt>
      <trkpt lat="52.266986919566989" lon="8.161432212218642">
        <ele>72.9140625</ele>
        <time>2026-04-13T11:36:17Z</time>
      </trkpt>
      <trkpt lat="52.266977028921247" lon="8.16107296384871">
        <ele>73.33203125</ele>
        <time>2026-04-13T11:36:21Z</time>
      </trkpt>
      <trkpt lat="52.266978872939944" lon="8.160703992471099">
        <ele>73.5546875</ele>
        <time>2026-04-13T11:36:25Z</time>
      </trkpt>
      <trkpt lat="52.266967557370663" lon="8.160351365804672">
        <ele>73.484375</ele>
        <time>2026-04-13T11:36:29Z</time>
      </trkpt>
      <trkpt lat="52.266954146325588" lon="8.159977700561285">
        <ele>73.44140625</ele>
        <time>2026-04-13T11:36:33Z</time>
      </trkpt>
      <trkpt lat="52.266945177689195" lon="8.159615267068148">
        <ele>73.44921875</ele>
        <time>2026-04-13T11:36:37Z</time>
      </trkpt>
      <trkpt lat="52.266948027536273" lon="8.15923422574997">
        <ele>73.44921875</ele>
        <time>2026-04-13T11:36:41Z</time>
      </trkpt>
      <trkpt lat="52.266941405832767" lon="8.1588648352772">
        <ele>73.8515625</ele>
        <time>2026-04-13T11:36:45Z</time>
      </trkpt>
      <trkpt lat="52.26693419739604" lon="8.158499803394079">
        <ele>74.30078125</ele>
        <time>2026-04-13T11:36:49Z</time>
      </trkpt>
      <trkpt lat="52.266918942332268" lon="8.158121444284916">
        <ele>74.4921875</ele>
        <time>2026-04-13T11:36:53Z</time>
      </trkpt>
      <trkpt lat="52.26692346855998" lon="8.157760770991445">
        <ele>74.51171875</ele>
        <time>2026-04-13T11:36:57Z</time>
      </trkpt>
      <trkpt lat="52.266911650076509" lon="8.157383166253567">
        <ele>74.51171875</ele>
        <time>2026-04-13T11:37:01Z</time>
      </trkpt>
      <trkpt lat="52.266910560429096" lon="8.15702660009265">
        <ele>74.515625</ele>
        <time>2026-04-13T11:37:05Z</time>
      </trkpt>
      <trkpt lat="52.266910225152969" lon="8.156668692827225">
        <ele>74.50390625</ele>
        <time>2026-04-13T11:37:09Z</time>
      </trkpt>
      <trkpt lat="52.266905615106225" lon="8.15629854798317">
        <ele>74.265625</ele>
        <time>2026-04-13T11:37:13Z</time>
      </trkpt>
      <trkpt lat="52.266897484660149" lon="8.155941059812903">
        <ele>74.03125</ele>
        <time>2026-04-13T11:37:17Z</time>
      </trkpt>
      <trkpt lat="52.266897400841117" lon="8.155562952160835">
        <ele>73.8046875</ele>
        <time>2026-04-13T11:37:21Z</time>
      </trkpt>
      <trkpt lat="52.26688482798636" lon="8.155190879479051">
        <ele>73.56640625</ele>
        <time>2026-04-13T11:37:25Z</time>
      </trkpt>
      <trkpt lat="52.266871416941285" lon="8.154822327196598">
        <ele>73.4609375</ele>
        <time>2026-04-13T11:37:29Z</time>
      </trkpt>
      <trkpt lat="52.266875356435776" lon="8.15444078296423">
        <ele>73.46484375</ele>
        <time>2026-04-13T11:37:33Z</time>
      </trkpt>
      <trkpt lat="52.266870494931936" lon="8.154064770787954">
        <ele>73.23828125</ele>
        <time>2026-04-13T11:37:37Z</time>
      </trkpt>
      <trkpt lat="52.266865549609065" lon="8.153692530468106">
        <ele>72.62890625</ele>
        <time>2026-04-13T11:37:41Z</time>
      </trkpt>
      <trkpt lat="52.266864376142621" lon="8.153310734778643">
        <ele>72.0234375</ele>
        <time>2026-04-13T11:37:45Z</time>
      </trkpt>
      <trkpt lat="52.266856832429767" lon="8.152949223294854">
        <ele>71.55859375</ele>
        <time>2026-04-13T11:37:49Z</time>
      </trkpt>
      <trkpt lat="52.266837051138282" lon="8.152599111199379">
        <ele>71.09375</ele>
        <time>2026-04-13T11:37:55Z</time>
      </trkpt>
      <trkpt lat="52.266599424183369" lon="8.152443710714579">
        <ele>70.921875</ele>
        <time>2026-04-13T11:38:05Z</time>
      </trkpt>
      <trkpt lat="52.266392558813095" lon="8.152418397367001">
        <ele>70.9921875</ele>
        <time>2026-04-13T11:38:09Z</time>
      </trkpt>
      <trkpt lat="52.266199188306928" lon="8.152363244444132">
        <ele>71.21484375</ele>
        <time>2026-04-13T11:38:13Z</time>
      </trkpt>
      <trkpt lat="52.266013026237488" lon="8.152300380170345">
        <ele>71.44921875</ele>
        <time>2026-04-13T11:38:17Z</time>
      </trkpt>
      <trkpt lat="52.265772800892591" lon="8.152236007153988">
        <ele>71.80859375</ele>
        <time>2026-04-13T11:38:23Z</time>
      </trkpt>
      <trkpt lat="52.265587141737342" lon="8.152177752926946">
        <ele>71.953125</ele>
        <time>2026-04-13T11:38:33Z</time>
      </trkpt>
      <trkpt lat="52.265363428741693" lon="8.152103740721941">
        <ele>71.83203125</ele>
        <time>2026-04-13T11:38:59Z</time>
      </trkpt>
      <trkpt lat="52.265122449025512" lon="8.152108686044812">
        <ele>71.6875</ele>
        <time>2026-04-13T11:39:03Z</time>
      </trkpt>
      <trkpt lat="52.264887923374772" lon="8.152061579748988">
        <ele>71.6015625</ele>
        <time>2026-04-13T11:39:07Z</time>
      </trkpt>
      <trkpt lat="52.264636717736721" lon="8.152003493160009">
        <ele>71.26953125</ele>
        <time>2026-04-13T11:39:11Z</time>
      </trkpt>
      <trkpt lat="52.264394983649254" lon="8.151946915313602">
        <ele>70.828125</ele>
        <time>2026-04-13T11:39:15Z</time>
      </trkpt>
      <trkpt lat="52.264150148257613" lon="8.151896456256509">
        <ele>70.33984375</ele>
        <time>2026-04-13T11:39:19Z</time>
      </trkpt>
      <trkpt lat="52.263934817165136" lon="8.151858570054174">
        <ele>70.0546875</ele>
        <time>2026-04-13T11:39:23Z</time>
      </trkpt>
      <trkpt lat="52.263713199645281" lon="8.151802411302924">
        <ele>70.2890625</ele>
        <time>2026-04-13T11:39:27Z</time>
      </trkpt>
      <trkpt lat="52.263484541326761" lon="8.151757819578052">
        <ele>70.5625</ele>
        <time>2026-04-13T11:39:31Z</time>
      </trkpt>
      <trkpt lat="52.263250267133117" lon="8.151736948639154">
        <ele>70.84765625</ele>
        <time>2026-04-13T11:39:35Z</time>
      </trkpt>
      <trkpt lat="52.263031583279371" lon="8.151686238124967">
        <ele>70.8515625</ele>
        <time>2026-04-13T11:39:39Z</time>
      </trkpt>
      <trkpt lat="52.262808540835977" lon="8.151633432134986">
        <ele>70.6171875</ele>
        <time>2026-04-13T11:39:43Z</time>
      </trkpt>
      <trkpt lat="52.262578206136823" lon="8.151560761034489">
        <ele>70.421875</ele>
        <time>2026-04-13T11:39:47Z</time>
      </trkpt>
      <trkpt lat="52.262361450120807" lon="8.151531424373388">
        <ele>70.23828125</ele>
        <time>2026-04-13T11:39:51Z</time>
      </trkpt>
      <trkpt lat="52.262138575315475" lon="8.151505440473557">
        <ele>70.12890625</ele>
        <time>2026-04-13T11:39:55Z</time>
      </trkpt>
      <trkpt lat="52.261915029957891" lon="8.151456573978066">
        <ele>70.00390625</ele>
        <time>2026-04-13T11:39:59Z</time>
      </trkpt>
      <trkpt lat="52.261689221486449" lon="8.151419190689921">
        <ele>69.82421875</ele>
        <time>2026-04-13T11:40:03Z</time>
      </trkpt>
      <trkpt lat="52.261464418843389" lon="8.15138247795403">
        <ele>69.59765625</ele>
        <time>2026-04-13T11:40:07Z</time>
      </trkpt>
      <trkpt lat="52.26124556735158" lon="8.15134140662849">
        <ele>69.40234375</ele>
        <time>2026-04-13T11:40:11Z</time>
      </trkpt>
      <trkpt lat="52.261020848527551" lon="8.151311818510294">
        <ele>69.234375</ele>
        <time>2026-04-13T11:40:15Z</time>
      </trkpt>
      <trkpt lat="52.260794788599014" lon="8.151271585375071">
        <ele>69.078125</ele>
        <time>2026-04-13T11:40:19Z</time>
      </trkpt>
      <trkpt lat="52.260556910187006" lon="8.151231100782752">
        <ele>69.2265625</ele>
        <time>2026-04-13T11:40:23Z</time>
      </trkpt>
      <trkpt lat="52.260315762832761" lon="8.151196232065558">
        <ele>69.734375</ele>
        <time>2026-04-13T11:40:27Z</time>
      </trkpt>
      <trkpt lat="52.260098420083523" lon="8.151160776615143">
        <ele>70.14453125</ele>
        <time>2026-04-13T11:40:31Z</time>
      </trkpt>
      <trkpt lat="52.259873114526272" lon="8.151127249002457">
        <ele>70.53125</ele>
        <time>2026-04-13T11:40:35Z</time>
      </trkpt>
      <trkpt lat="52.259657448157668" lon="8.151086932048202">
        <ele>70.37890625</ele>
        <time>2026-04-13T11:40:39Z</time>
      </trkpt>
      <trkpt lat="52.259444547817111" lon="8.151054410263896">
        <ele>70.09375</ele>
        <time>2026-04-13T11:40:43Z</time>
      </trkpt>
      <trkpt lat="52.259224522858858" lon="8.151018870994449">
        <ele>69.7734375</ele>
        <time>2026-04-13T11:40:47Z</time>
      </trkpt>
      <trkpt lat="52.259008940309286" lon="8.150964556261897">
        <ele>69.3671875</ele>
        <time>2026-04-13T11:40:51Z</time>
      </trkpt>
      <trkpt lat="52.258805092424154" lon="8.150923820212483">
        <ele>68.94921875</ele>
        <time>2026-04-13T11:40:55Z</time>
      </trkpt>
      <trkpt lat="52.258581798523664" lon="8.150924239307642">
        <ele>68.64453125</ele>
        <time>2026-04-13T11:40:59Z</time>
      </trkpt>
      <trkpt lat="52.258349452167749" lon="8.150858692824841">
        <ele>68.21875</ele>
        <time>2026-04-13T11:41:03Z</time>
      </trkpt>
      <trkpt lat="52.258116770535707" lon="8.150779735296965">
        <ele>67.90625</ele>
        <time>2026-04-13T11:41:07Z</time>
      </trkpt>
      <trkpt lat="52.257887357845902" lon="8.150672866031528">
        <ele>67.91796875</ele>
        <time>2026-04-13T11:41:11Z</time>
      </trkpt>
      <trkpt lat="52.257664734497666" lon="8.150529032573104">
        <ele>68.078125</ele>
        <time>2026-04-13T11:41:15Z</time>
      </trkpt>
      <trkpt lat="52.257446637377143" lon="8.150370949879289">
        <ele>68.42578125</ele>
        <time>2026-04-13T11:41:19Z</time>
      </trkpt>
      <trkpt lat="52.257232815027237" lon="8.150179842486978">
        <ele>68.75</ele>
        <time>2026-04-13T11:41:23Z</time>
      </trkpt>
      <trkpt lat="52.257033325731754" lon="8.149981945753098">
        <ele>68.60546875</ele>
        <time>2026-04-13T11:41:27Z</time>
      </trkpt>
      <trkpt lat="52.256838781759143" lon="8.149764183908701">
        <ele>68.28125</ele>
        <time>2026-04-13T11:41:31Z</time>
      </trkpt>
      <trkpt lat="52.256647339090705" lon="8.149555390700698">
        <ele>68.078125</ele>
        <time>2026-04-13T11:41:35Z</time>
      </trkpt>
      <trkpt lat="52.256484227254987" lon="8.149322625249624">
        <ele>68.03125</ele>
        <time>2026-04-13T11:41:39Z</time>
      </trkpt>
      <trkpt lat="52.256316253915429" lon="8.149058762937784">
        <ele>68.8125</ele>
        <time>2026-04-13T11:41:43Z</time>
      </trkpt>
      <trkpt lat="52.256156578660011" lon="8.148786351084709">
        <ele>69.71484375</ele>
        <time>2026-04-13T11:41:47Z</time>
      </trkpt>
      <trkpt lat="52.256007296964526" lon="8.148517040535808">
        <ele>70.57421875</ele>
        <time>2026-04-13T11:41:51Z</time>
      </trkpt>
      <trkpt lat="52.255869917571545" lon="8.148258375003934">
        <ele>71.11328125</ele>
        <time>2026-04-13T11:41:55Z</time>
      </trkpt>
      <trkpt lat="52.255738908424973" lon="8.147995099425316">
        <ele>71.26953125</ele>
        <time>2026-04-13T11:41:59Z</time>
      </trkpt>
      <trkpt lat="52.255613263696432" lon="8.147707851603627">
        <ele>71.265625</ele>
        <time>2026-04-13T11:42:03Z</time>
      </trkpt>
      <trkpt lat="52.255487199872732" lon="8.147412305697799">
        <ele>70.97265625</ele>
        <time>2026-04-13T11:42:07Z</time>
      </trkpt>
      <trkpt lat="52.255398351699114" lon="8.147060014307499">
        <ele>70.53515625</ele>
        <time>2026-04-13T11:42:11Z</time>
      </trkpt>
      <trkpt lat="52.255339007824659" lon="8.146657180041075">
        <ele>70.171875</ele>
        <time>2026-04-13T11:42:15Z</time>
      </trkpt>
      <trkpt lat="52.255324088037014" lon="8.146243030205369">
        <ele>70.3203125</ele>
        <time>2026-04-13T11:42:19Z</time>
      </trkpt>
      <trkpt lat="52.25534244440496" lon="8.145855870097876">
        <ele>70.3828125</ele>
        <time>2026-04-13T11:42:23Z</time>
      </trkpt>
      <trkpt lat="52.255389718338847" lon="8.145514642819762">
        <ele>70.32421875</ele>
        <time>2026-04-13T11:42:27Z</time>
      </trkpt>
      <trkpt lat="52.255457611754537" lon="8.14517199061811">
        <ele>70.24609375</ele>
        <time>2026-04-13T11:42:31Z</time>
      </trkpt>
      <trkpt lat="52.255516871809959" lon="8.144834032282233">
        <ele>70.41796875</ele>
        <time>2026-04-13T11:42:35Z</time>
      </trkpt>
      <trkpt lat="52.255564397200942" lon="8.144486267119646">
        <ele>70.77734375</ele>
        <time>2026-04-13T11:42:39Z</time>
      </trkpt>
      <trkpt lat="52.255588872358203" lon="8.144135735929012">
        <ele>71.01171875</ele>
        <time>2026-04-13T11:42:43Z</time>
      </trkpt>
      <trkpt lat="52.25558334030211" lon="8.143790317699313">
        <ele>70.640625</ele>
        <time>2026-04-13T11:42:47Z</time>
      </trkpt>
      <trkpt lat="52.255535563454032" lon="8.143466440960765">
        <ele>70.3984375</ele>
        <time>2026-04-13T11:42:51Z</time>
      </trkpt>
      <trkpt lat="52.255566325038671" lon="8.143098810687661">
        <ele>70.2265625</ele>
        <time>2026-04-13T11:42:57Z</time>
      </trkpt>
      <trkpt lat="52.255709823220968" lon="8.142885994166136">
        <ele>69.9921875</ele>
        <time>2026-04-13T11:43:01Z</time>
      </trkpt>
      <trkpt lat="52.255869582295418" lon="8.142616851255298">
        <ele>69.796875</ele>
        <time>2026-04-13T11:43:05Z</time>
      </trkpt>
      <trkpt lat="52.256029173731804" lon="8.142324574291706">
        <ele>69.81640625</ele>
        <time>2026-04-13T11:43:09Z</time>
      </trkpt>
      <trkpt lat="52.256190190091729" lon="8.142033219337463">
        <ele>69.97265625</ele>
        <time>2026-04-13T11:43:13Z</time>
      </trkpt>
      <trkpt lat="52.256338968873024" lon="8.141736667603254">
        <ele>70.1484375</ele>
        <time>2026-04-13T11:43:17Z</time>
      </trkpt>
      <trkpt lat="52.256499649956822" lon="8.141454616561532">
        <ele>70.59375</ele>
        <time>2026-04-13T11:43:21Z</time>
      </trkpt>
      <trkpt lat="52.25668178871274" lon="8.141225622966886">
        <ele>70.796875</ele>
        <time>2026-04-13T11:43:25Z</time>
      </trkpt>
      <trkpt lat="52.256872728466988" lon="8.140999898314476">
        <ele>70.85546875</ele>
        <time>2026-04-13T11:43:29Z</time>
      </trkpt>
      <trkpt lat="52.257043803110719" lon="8.140750620514154">
        <ele>70.6796875</ele>
        <time>2026-04-13T11:43:33Z</time>
      </trkpt>
      <trkpt lat="52.257219403982162" lon="8.140492038801312">
        <ele>70.2578125</ele>
        <time>2026-04-13T11:43:37Z</time>
      </trkpt>
      <trkpt lat="52.257397267967463" lon="8.140246029943228">
        <ele>69.7890625</ele>
        <time>2026-04-13T11:43:41Z</time>
      </trkpt>
      <trkpt lat="52.257566163316369" lon="8.139996416866779">
        <ele>69.4765625</ele>
        <time>2026-04-13T11:43:45Z</time>
      </trkpt>
      <trkpt lat="52.257572868838906" lon="8.139639347791672">
        <ele>69.890625</ele>
        <time>2026-04-13T11:43:49Z</time>
      </trkpt>
      <trkpt lat="52.257453259080648" lon="8.139326116070151">
        <ele>70.5546875</ele>
        <time>2026-04-13T11:43:53Z</time>
      </trkpt>
      <trkpt lat="52.257348820567131" lon="8.139008106663823">
        <ele>70.48046875</ele>
        <time>2026-04-13T11:43:57Z</time>
      </trkpt>
      <trkpt lat="52.25726718083024" lon="8.138677608221769">
        <ele>69.8203125</ele>
        <time>2026-04-13T11:44:01Z</time>
      </trkpt>
      <trkpt lat="52.257282100617886" lon="8.138310397043824">
        <ele>69.09765625</ele>
        <time>2026-04-13T11:44:05Z</time>
      </trkpt>
      <trkpt lat="52.257351754233241" lon="8.137970929965377">
        <ele>69</ele>
        <time>2026-04-13T11:44:09Z</time>
      </trkpt>
      <trkpt lat="52.257434483617544" lon="8.137636408209801">
        <ele>69</ele>
        <time>2026-04-13T11:44:13Z</time>
      </trkpt>
      <trkpt lat="52.257532132789493" lon="8.137309765443206">
        <ele>69</ele>
        <time>2026-04-13T11:44:17Z</time>
      </trkpt>
      <trkpt lat="52.257679905742407" lon="8.137036683037877">
        <ele>69</ele>
        <time>2026-04-13T11:44:21Z</time>
      </trkpt>
      <trkpt lat="52.25785743445158" lon="8.136771228164434">
        <ele>69</ele>
        <time>2026-04-13T11:44:25Z</time>
      </trkpt>
      <trkpt lat="52.258029179647565" lon="8.136516669765115">
        <ele>69.12109375</ele>
        <time>2026-04-13T11:44:29Z</time>
      </trkpt>
      <trkpt lat="52.258193967863917" lon="8.136263452470303">
        <ele>69.55078125</ele>
        <time>2026-04-13T11:44:33Z</time>
      </trkpt>
      <trkpt lat="52.25836562924087" lon="8.136018617078662">
        <ele>69.70703125</ele>
        <time>2026-04-13T11:44:37Z</time>
      </trkpt>
      <trkpt lat="52.258539218455553" lon="8.135770596563816">
        <ele>69.4765625</ele>
        <time>2026-04-13T11:44:41Z</time>
      </trkpt>
      <trkpt lat="52.258703587576747" lon="8.135532299056649">
        <ele>69.203125</ele>
        <time>2026-04-13T11:44:45Z</time>
      </trkpt>
      <trkpt lat="52.258876757696271" lon="8.135305987671018">
        <ele>69.04296875</ele>
        <time>2026-04-13T11:44:49Z</time>
      </trkpt>
      <trkpt lat="52.259034756571054" lon="8.135078586637974">
        <ele>68.953125</ele>
        <time>2026-04-13T11:44:53Z</time>
      </trkpt>
      <trkpt lat="52.259210273623466" lon="8.13485948368907">
        <ele>68.84375</ele>
        <time>2026-04-13T11:44:57Z</time>
      </trkpt>
      <trkpt lat="52.259382521733642" lon="8.134643733501434">
        <ele>68.5625</ele>
        <time>2026-04-13T11:45:01Z</time>
      </trkpt>
      <trkpt lat="52.259554769843817" lon="8.134453212842345">
        <ele>68.078125</ele>
        <time>2026-04-13T11:45:05Z</time>
      </trkpt>
      <trkpt lat="52.259740848094225" lon="8.134258585050702">
        <ele>67.3515625</ele>
        <time>2026-04-13T11:45:09Z</time>
      </trkpt>
      <trkpt lat="52.259917454794049" lon="8.134054569527507">
        <ele>67.22265625</ele>
        <time>2026-04-13T11:45:13Z</time>
      </trkpt>
      <trkpt lat="52.260114261880517" lon="8.133865054696798">
        <ele>67.6953125</ele>
        <time>2026-04-13T11:45:17Z</time>
      </trkpt>
      <trkpt lat="52.260302267968655" lon="8.133656093850732">
        <ele>68.14453125</ele>
        <time>2026-04-13T11:45:21Z</time>
      </trkpt>
      <trkpt lat="52.260484071448445" lon="8.133448390290141">
        <ele>68.58203125</ele>
        <time>2026-04-13T11:45:25Z</time>
      </trkpt>
      <trkpt lat="52.260664282366633" lon="8.133258791640401">
        <ele>69.015625</ele>
        <time>2026-04-13T11:45:29Z</time>
      </trkpt>
      <trkpt lat="52.260853629559278" lon="8.133049998432398">
        <ele>69.5625</ele>
        <time>2026-04-13T11:45:33Z</time>
      </trkpt>
      <trkpt lat="52.261039959266782" lon="8.132851934060454">
        <ele>70.20703125</ele>
        <time>2026-04-13T11:45:37Z</time>
      </trkpt>
      <trkpt lat="52.26121430285275" lon="8.13264599069953">
        <ele>70.921875</ele>
        <time>2026-04-13T11:45:41Z</time>
      </trkpt>
      <trkpt lat="52.261381102725863" lon="8.132461756467819">
        <ele>71.6796875</ele>
        <time>2026-04-13T11:45:45Z</time>
      </trkpt>
      <trkpt lat="52.261465257033706" lon="8.132132515311241">
        <ele>72.37109375</ele>
        <time>2026-04-13T11:45:51Z</time>
      </trkpt>
      <trkpt lat="52.261439021676779" lon="8.13184023834765">
        <ele>72.5546875</ele>
        <time>2026-04-13T11:45:55Z</time>
      </trkpt>
      <trkpt lat="52.261370038613677" lon="8.131426591426134">
        <ele>71.93359375</ele>
        <time>2026-04-13T11:46:01Z</time>
      </trkpt>
      <trkpt lat="52.261318238452077" lon="8.131134985014796">
        <ele>71.26953125</ele>
        <time>2026-04-13T11:46:05Z</time>
      </trkpt>
      <trkpt lat="52.261254200711846" lon="8.130701389163733">
        <ele>71.0078125</ele>
        <time>2026-04-13T11:46:11Z</time>
      </trkpt>
      <trkpt lat="52.261193934828043" lon="8.130395784974098">
        <ele>71.37890625</ele>
        <time>2026-04-13T11:46:15Z</time>
      </trkpt>
      <trkpt lat="52.26114934310317" lon="8.130082888528705">
        <ele>71.86328125</ele>
        <time>2026-04-13T11:46:19Z</time>
      </trkpt>
      <trkpt lat="52.261090418323874" lon="8.129746606573463">
        <ele>72.12890625</ele>
        <time>2026-04-13T11:46:23Z</time>
      </trkpt>
      <trkpt lat="52.261028056964278" lon="8.129407139495015">
        <ele>72.4140625</ele>
        <time>2026-04-13T11:46:27Z</time>
      </trkpt>
      <trkpt lat="52.260953793302178" lon="8.129078065976501">
        <ele>72.3515625</ele>
        <time>2026-04-13T11:46:31Z</time>
      </trkpt>
      <trkpt lat="52.260893359780312" lon="8.128749411553145">
        <ele>72.05859375</ele>
        <time>2026-04-13T11:46:35Z</time>
      </trkpt>
      <trkpt lat="52.260811300948262" lon="8.128380691632628">
        <ele>72</ele>
        <time>2026-04-13T11:46:39Z</time>
      </trkpt>
      <trkpt lat="52.260724045336246" lon="8.128013648092747">
        <ele>71.453125</ele>
        <time>2026-04-13T11:46:43Z</time>
      </trkpt>
      <trkpt lat="52.26063871756196" lon="8.127636294811964">
        <ele>71.08203125</ele>
        <time>2026-04-13T11:46:47Z</time>
      </trkpt>
      <trkpt lat="52.260570656508207" lon="8.127267155796289">
        <ele>70.89453125</ele>
        <time>2026-04-13T11:46:51Z</time>
      </trkpt>
      <trkpt lat="52.260501589626074" lon="8.126893742009997">
        <ele>70.8125</ele>
        <time>2026-04-13T11:46:55Z</time>
      </trkpt>
      <trkpt lat="52.26042564958334" lon="8.12653080560267">
        <ele>70.78125</ele>
        <time>2026-04-13T11:46:59Z</time>
      </trkpt>
      <trkpt lat="52.260353062301874" lon="8.126164013519883">
        <ele>70.875</ele>
        <time>2026-04-13T11:47:03Z</time>
      </trkpt>
      <trkpt lat="52.260279720649123" lon="8.125800155103207">
        <ele>70.9453125</ele>
        <time>2026-04-13T11:47:07Z</time>
      </trkpt>
      <trkpt lat="52.260113339871168" lon="8.125512488186359">
        <ele>70.84765625</ele>
        <time>2026-04-13T11:47:11Z</time>
      </trkpt>
      <trkpt lat="52.259909911081195" lon="8.125229012221098">
        <ele>70.921875</ele>
        <time>2026-04-13T11:47:15Z</time>
      </trkpt>
      <trkpt lat="52.259723078459501" lon="8.124964898452163">
        <ele>70.75390625</ele>
        <time>2026-04-13T11:47:19Z</time>
      </trkpt>
      <trkpt lat="52.259529707953334" lon="8.124700197950006">
        <ele>70.2890625</ele>
        <time>2026-04-13T11:47:23Z</time>
      </trkpt>
      <trkpt lat="52.259348994120955" lon="8.124432563781738">
        <ele>69.85546875</ele>
        <time>2026-04-13T11:47:27Z</time>
      </trkpt>
      <trkpt lat="52.259138859808445" lon="8.124209102243185">
        <ele>69.3359375</ele>
        <time>2026-04-13T11:47:31Z</time>
      </trkpt>
      <trkpt lat="52.258920092135668" lon="8.124018078669906">
        <ele>68.4765625</ele>
        <time>2026-04-13T11:47:35Z</time>
      </trkpt>
      <trkpt lat="52.258721860125661" lon="8.123819092288613">
        <ele>68.03125</ele>
        <time>2026-04-13T11:47:39Z</time>
      </trkpt>
      <trkpt lat="52.258513318374753" lon="8.1236332654953">
        <ele>67.828125</ele>
        <time>2026-04-13T11:47:43Z</time>
      </trkpt>
      <trkpt lat="52.258341237902641" lon="8.123424639925361">
        <ele>67.8046875</ele>
        <time>2026-04-13T11:47:47Z</time>
      </trkpt>
      <trkpt lat="52.258270410820842" lon="8.123053321614862">
        <ele>67.91796875</ele>
        <time>2026-04-13T11:47:51Z</time>
      </trkpt>
      <trkpt lat="52.258205702528358" lon="8.122684769332409">
        <ele>67.9921875</ele>
        <time>2026-04-13T11:47:55Z</time>
      </trkpt>
      <trkpt lat="52.258138647302985" lon="8.122330382466316">
        <ele>68.03125</ele>
        <time>2026-04-13T11:47:59Z</time>
      </trkpt>
      <trkpt lat="52.258089445531368" lon="8.121967781335115">
        <ele>68.14453125</ele>
        <time>2026-04-13T11:48:03Z</time>
      </trkpt>
      <trkpt lat="52.258066898211837" lon="8.121597217395902">
        <ele>68.51171875</ele>
        <time>2026-04-13T11:48:07Z</time>
      </trkpt>
      <trkpt lat="52.257960280403495" lon="8.121257834136486">
        <ele>69.58203125</ele>
        <time>2026-04-13T11:48:11Z</time>
      </trkpt>
      <trkpt lat="52.257787613198161" lon="8.121059685945511">
        <ele>70.47265625</ele>
        <time>2026-04-13T11:48:15Z</time>
      </trkpt>
      <trkpt lat="52.257616454735398" lon="8.120850473642349">
        <ele>71.33203125</ele>
        <time>2026-04-13T11:48:19Z</time>
      </trkpt>
      <trkpt lat="52.25757404230535" lon="8.120562303811312">
        <ele>71.6796875</ele>
        <time>2026-04-13T11:48:23Z</time>
      </trkpt>
      <trkpt lat="52.25762533955276" lon="8.120230799540877">
        <ele>71.78515625</ele>
        <time>2026-04-13T11:48:27Z</time>
      </trkpt>
      <trkpt lat="52.257573707029223" lon="8.119947826489806">
        <ele>72.0234375</ele>
        <time>2026-04-13T11:48:31Z</time>
      </trkpt>
      <trkpt lat="52.257564486935735" lon="8.119651777669787">
        <ele>71.80078125</ele>
        <time>2026-04-13T11:48:35Z</time>
      </trkpt>
      <trkpt lat="52.257594242691994" lon="8.119341060519218">
        <ele>71.45703125</ele>
        <time>2026-04-13T11:48:39Z</time>
      </trkpt>
      <trkpt lat="52.257552081719041" lon="8.11901961453259">
        <ele>71.15234375</ele>
        <time>2026-04-13T11:48:43Z</time>
      </trkpt>
      <trkpt lat="52.25750464014709" lon="8.118676878511906">
        <ele>70.78125</ele>
        <time>2026-04-13T11:48:47Z</time>
      </trkpt>
      <trkpt lat="52.257476057857275" lon="8.118325676769018">
        <ele>70.4765625</ele>
        <time>2026-04-13T11:48:51Z</time>
      </trkpt>
      <trkpt lat="52.257489720359445" lon="8.117991825565696">
        <ele>70.50390625</ele>
        <time>2026-04-13T11:48:55Z</time>
      </trkpt>
      <trkpt lat="52.257627099752426" lon="8.117684125900269">
        <ele>70.22265625</ele>
        <time>2026-04-13T11:48:59Z</time>
      </trkpt>
      <trkpt lat="52.257795827463269" lon="8.117438787594438">
        <ele>69.98828125</ele>
        <time>2026-04-13T11:49:03Z</time>
      </trkpt>
      <trkpt lat="52.257969081401825" lon="8.117180624976754">
        <ele>70.2890625</ele>
        <time>2026-04-13T11:49:07Z</time>
      </trkpt>
      <trkpt lat="52.258138060569763" lon="8.116912236437202">
        <ele>71.265625</ele>
        <time>2026-04-13T11:49:11Z</time>
      </trkpt>
      <trkpt lat="52.258257335051894" lon="8.116602944210172">
        <ele>71.36328125</ele>
        <time>2026-04-13T11:49:15Z</time>
      </trkpt>
      <trkpt lat="52.258297232910991" lon="8.116222992539406">
        <ele>70.30859375</ele>
        <time>2026-04-13T11:49:19Z</time>
      </trkpt>
      <trkpt lat="52.258299328386784" lon="8.115832898765802">
        <ele>69.20703125</ele>
        <time>2026-04-13T11:49:23Z</time>
      </trkpt>
      <trkpt lat="52.258291365578771" lon="8.115406846627593">
        <ele>67</ele>
        <time>2026-04-13T11:49:27Z</time>
      </trkpt>
      <trkpt lat="52.258310811594129" lon="8.115025889128447">
        <ele>65.24609375</ele>
        <time>2026-04-13T11:49:31Z</time>
      </trkpt>
      <trkpt lat="52.258336041122675" lon="8.114635376259685">
        <ele>66.11328125</ele>
        <time>2026-04-13T11:49:35Z</time>
      </trkpt>
      <trkpt lat="52.258359510451555" lon="8.114253915846348">
        <ele>66.93359375</ele>
        <time>2026-04-13T11:49:39Z</time>
      </trkpt>
      <trkpt lat="52.258389350026846" lon="8.113895589485765">
        <ele>69.140625</ele>
        <time>2026-04-13T11:49:43Z</time>
      </trkpt>
      <trkpt lat="52.258406532928348" lon="8.113538604229689">
        <ele>71.44140625</ele>
        <time>2026-04-13T11:49:47Z</time>
      </trkpt>
      <trkpt lat="52.258442658931017" lon="8.113184385001659">
        <ele>72.8125</ele>
        <time>2026-04-13T11:49:51Z</time>
      </trkpt>
      <trkpt lat="52.258472917601466" lon="8.112828237935901">
        <ele>73.59765625</ele>
        <time>2026-04-13T11:49:55Z</time>
      </trkpt>
      <trkpt lat="52.258435450494289" lon="8.112498326227069">
        <ele>74.3359375</ele>
        <time>2026-04-13T11:49:59Z</time>
      </trkpt>
      <trkpt lat="52.25843058899045" lon="8.11209624633193">
        <ele>74.34765625</ele>
        <time>2026-04-13T11:50:05Z</time>
      </trkpt>
      <trkpt lat="52.258424051105976" lon="8.111659800633788">
        <ele>74.33984375</ele>
        <time>2026-04-13T11:50:11Z</time>
      </trkpt>
      <trkpt lat="52.258437881246209" lon="8.111208351328969">
        <ele>74.125</ele>
        <time>2026-04-13T11:50:17Z</time>
      </trkpt>
      <trkpt lat="52.258443329483271" lon="8.110873410478234">
        <ele>73.94140625</ele>
        <time>2026-04-13T11:50:21Z</time>
      </trkpt>
      <trkpt lat="52.258449364453554" lon="8.110526232048869">
        <ele>73.23046875</ele>
        <time>2026-04-13T11:50:25Z</time>
      </trkpt>
      <trkpt lat="52.258448358625174" lon="8.110184920951724">
        <ele>72.55859375</ele>
        <time>2026-04-13T11:50:29Z</time>
      </trkpt>
      <trkpt lat="52.258455734699965" lon="8.10983438976109">
        <ele>72.01953125</ele>
        <time>2026-04-13T11:50:33Z</time>
      </trkpt>
      <trkpt lat="52.258462440222502" lon="8.109463574364781">
        <ele>71.55859375</ele>
        <time>2026-04-13T11:50:37Z</time>
      </trkpt>
      <trkpt lat="52.258465960621834" lon="8.109096782281995">
        <ele>71.78515625</ele>
        <time>2026-04-13T11:50:41Z</time>
      </trkpt>
      <trkpt lat="52.258479790762067" lon="8.108713896945119">
        <ele>73.3125</ele>
        <time>2026-04-13T11:50:45Z</time>
      </trkpt>
      <trkpt lat="52.258490938693285" lon="8.108324473723769">
        <ele>74.8828125</ele>
        <time>2026-04-13T11:50:49Z</time>
      </trkpt>
      <trkpt lat="52.258495381101966" lon="8.107954915612936">
        <ele>76.38671875</ele>
        <time>2026-04-13T11:50:53Z</time>
      </trkpt>
      <trkpt lat="52.258509211242199" lon="8.107579573988915">
        <ele>77.921875</ele>
        <time>2026-04-13T11:50:57Z</time>
      </trkpt>
      <trkpt lat="52.258510552346706" lon="8.107209512963891">
        <ele>79.15234375</ele>
        <time>2026-04-13T11:51:01Z</time>
      </trkpt>
      <trkpt lat="52.258512228727341" lon="8.106823274865747">
        <ele>80.4140625</ele>
        <time>2026-04-13T11:51:05Z</time>
      </trkpt>
      <trkpt lat="52.258508708328009" lon="8.106448436155915">
        <ele>80.125</ele>
        <time>2026-04-13T11:51:09Z</time>
      </trkpt>
      <trkpt lat="52.258513486012816" lon="8.106072843074799">
        <ele>79.26953125</ele>
        <time>2026-04-13T11:51:13Z</time>
      </trkpt>
      <trkpt lat="52.258519101887941" lon="8.105680318549275">
        <ele>78.5078125</ele>
        <time>2026-04-13T11:51:17Z</time>
      </trkpt>
      <trkpt lat="52.258512480184436" lon="8.105288967490196">
        <ele>77.95703125</ele>
        <time>2026-04-13T11:51:21Z</time>
      </trkpt>
      <trkpt lat="52.258522789925337" lon="8.10491630807519">
        <ele>77.140625</ele>
        <time>2026-04-13T11:51:25Z</time>
      </trkpt>
      <trkpt lat="52.258532848209143" lon="8.104526968672872">
        <ele>76.0625</ele>
        <time>2026-04-13T11:51:29Z</time>
      </trkpt>
      <trkpt lat="52.258533518761396" lon="8.104156237095594">
        <ele>75.02734375</ele>
        <time>2026-04-13T11:51:33Z</time>
      </trkpt>
      <trkpt lat="52.258557574823499" lon="8.103766310960054">
        <ele>73.41796875</ele>
        <time>2026-04-13T11:51:37Z</time>
      </trkpt>
      <trkpt lat="52.258553132414818" lon="8.103382671251893">
        <ele>72.0546875</ele>
        <time>2026-04-13T11:51:41Z</time>
      </trkpt>
      <trkpt lat="52.258557407185435" lon="8.102995175868273">
        <ele>72.0234375</ele>
        <time>2026-04-13T11:51:45Z</time>
      </trkpt>
      <trkpt lat="52.258571991696954" lon="8.102604579180479">
        <ele>72</ele>
        <time>2026-04-13T11:51:49Z</time>
      </trkpt>
      <trkpt lat="52.258569644764066" lon="8.10221079736948">
        <ele>72.0078125</ele>
        <time>2026-04-13T11:51:53Z</time>
      </trkpt>
      <trkpt lat="52.258566040545702" lon="8.10183553956449">
        <ele>72.01953125</ele>
        <time>2026-04-13T11:51:57Z</time>
      </trkpt>
      <trkpt lat="52.258569728583097" lon="8.10145047493279">
        <ele>72.515625</ele>
        <time>2026-04-13T11:52:01Z</time>
      </trkpt>
      <trkpt lat="52.258578781038523" lon="8.101061638444662">
        <ele>73.19921875</ele>
        <time>2026-04-13T11:52:05Z</time>
      </trkpt>
      <trkpt lat="52.258588084951043" lon="8.100756285712123">
        <ele>73.40625</ele>
        <time>2026-04-13T11:52:08Z</time>
      </trkpt>
      <trkpt lat="52.258592527359724" lon="8.100367533043027">
        <ele>73.19921875</ele>
        <time>2026-04-13T11:52:12Z</time>
      </trkpt>
      <trkpt lat="52.258600238710642" lon="8.099990263581276">
        <ele>73.05859375</ele>
        <time>2026-04-13T11:52:16Z</time>
      </trkpt>
      <trkpt lat="52.258614236488938" lon="8.099611736834049">
        <ele>73.09375</ele>
        <time>2026-04-13T11:52:20Z</time>
      </trkpt>
      <trkpt lat="52.258616164326668" lon="8.099230024963617">
        <ele>73.09375</ele>
        <time>2026-04-13T11:52:24Z</time>
      </trkpt>
      <trkpt lat="52.258630497381091" lon="8.09886759147048">
        <ele>72.4453125</ele>
        <time>2026-04-13T11:52:28Z</time>
      </trkpt>
      <trkpt lat="52.258632760494947" lon="8.098524436354637">
        <ele>71.8046875</ele>
        <time>2026-04-13T11:52:32Z</time>
      </trkpt>
      <trkpt lat="52.258664779365063" lon="8.09821673668921">
        <ele>71.38671875</ele>
        <time>2026-04-13T11:52:40Z</time>
      </trkpt>
      <trkpt lat="52.258654050529003" lon="8.097820691764355">
        <ele>70.8984375</ele>
        <time>2026-04-13T11:52:46Z</time>
      </trkpt>
      <trkpt lat="52.258653547614813" lon="8.097476027905941">
        <ele>70.55078125</ele>
        <time>2026-04-13T11:52:50Z</time>
      </trkpt>
      <trkpt lat="52.258641980588436" lon="8.097118623554707">
        <ele>70.3515625</ele>
        <time>2026-04-13T11:52:54Z</time>
      </trkpt>
      <trkpt lat="52.258621528744698" lon="8.096773624420166">
        <ele>70.1328125</ele>
        <time>2026-04-13T11:52:58Z</time>
      </trkpt>
      <trkpt lat="52.258611638098955" lon="8.09646156616509">
        <ele>70.3828125</ele>
        <time>2026-04-13T11:53:02Z</time>
      </trkpt>
      <trkpt lat="52.258610129356384" lon="8.096121260896325">
        <ele>70.7578125</ele>
        <time>2026-04-13T11:53:06Z</time>
      </trkpt>
      <trkpt lat="52.258604262024164" lon="8.095750445500016">
        <ele>71.34765625</ele>
        <time>2026-04-13T11:53:10Z</time>
      </trkpt>
      <trkpt lat="52.258625803515315" lon="8.095439979806542">
        <ele>72.0390625</ele>
        <time>2026-04-13T11:53:14Z</time>
      </trkpt>
      <trkpt lat="52.259008353576064" lon="8.095640307292342">
        <ele>71.3203125</ele>
        <time>2026-04-13T11:53:22Z</time>
      </trkpt>
      <trkpt lat="52.259209351614118" lon="8.095760587602854">
        <ele>71.33984375</ele>
        <time>2026-04-13T11:53:26Z</time>
      </trkpt>
      <trkpt lat="52.259325189515948" lon="8.095527905970812">
        <ele>71.48828125</ele>
        <time>2026-04-13T11:53:30Z</time>
      </trkpt>
      <trkpt lat="52.259402219206095" lon="8.095228504389525">
        <ele>71.50390625</ele>
        <time>2026-04-13T11:53:33Z</time>
      </trkpt>
      <trkpt lat="52.259483272209764" lon="8.09484863653779">
        <ele>71.1953125</ele>
        <time>2026-04-13T11:53:38Z</time>
      </trkpt>
      <trkpt lat="52.259579999372363" lon="8.094544121995568">
        <ele>70.92578125</ele>
        <time>2026-04-13T11:53:42Z</time>
      </trkpt>
      <trkpt lat="52.259658789262176" lon="8.094240445643663">
        <ele>70.8046875</ele>
        <time>2026-04-13T11:53:46Z</time>
      </trkpt>
      <trkpt lat="52.259733807295561" lon="8.093910031020641">
        <ele>70.890625</ele>
        <time>2026-04-13T11:53:52Z</time>
      </trkpt>
      <trkpt lat="52.259559715166688" lon="8.093686569482088">
        <ele>70.6796875</ele>
        <time>2026-04-13T11:54:00Z</time>
      </trkpt>
      <trkpt lat="52.259324518963695" lon="8.093509040772915">
        <ele>70.3984375</ele>
        <time>2026-04-13T11:54:06Z</time>
      </trkpt>
      <trkpt lat="52.259159479290247" lon="8.09336512349546">
        <ele>70.18359375</ele>
        <time>2026-04-13T11:54:10Z</time>
      </trkpt>
      <trkpt lat="52.259024865925312" lon="8.093134788796306">
        <ele>70.015625</ele>
        <time>2026-04-13T11:54:14Z</time>
      </trkpt>
      <trkpt lat="52.258933251723647" lon="8.092863885685802">
        <ele>70.2109375</ele>
        <time>2026-04-13T11:54:18Z</time>
      </trkpt>
      <trkpt lat="52.258898299187422" lon="8.092534728348255">
        <ele>70.37890625</ele>
        <time>2026-04-13T11:54:22Z</time>
      </trkpt>
      <trkpt lat="52.25892947986722" lon="8.092222586274147">
        <ele>70.64453125</ele>
        <time>2026-04-13T11:54:26Z</time>
      </trkpt>
      <trkpt lat="52.259000306949019" lon="8.091899715363979">
        <ele>70.77734375</ele>
        <time>2026-04-13T11:54:30Z</time>
      </trkpt>
      <trkpt lat="52.259085047990084" lon="8.091591093689203">
        <ele>70.51171875</ele>
        <time>2026-04-13T11:54:34Z</time>
      </trkpt>
      <trkpt lat="52.259165849536657" lon="8.091274257749319">
        <ele>69.9375</ele>
        <time>2026-04-13T11:54:38Z</time>
      </trkpt>
      <trkpt lat="52.259247489273548" lon="8.090956415981054">
        <ele>69.4296875</ele>
        <time>2026-04-13T11:54:42Z</time>
      </trkpt>
      <trkpt lat="52.259326111525297" lon="8.090632287785411">
        <ele>69.1328125</ele>
        <time>2026-04-13T11:54:46Z</time>
      </trkpt>
      <trkpt lat="52.259405320510268" lon="8.090298268944025">
        <ele>69.00390625</ele>
        <time>2026-04-13T11:54:50Z</time>
      </trkpt>
      <trkpt lat="52.259494420140982" lon="8.089967770501971">
        <ele>69.171875</ele>
        <time>2026-04-13T11:54:54Z</time>
      </trkpt>
      <trkpt lat="52.259572958573699" lon="8.089638613164425">
        <ele>69.67578125</ele>
        <time>2026-04-13T11:54:58Z</time>
      </trkpt>
      <trkpt lat="52.25964873097837" lon="8.089316664263606">
        <ele>70.09765625</ele>
        <time>2026-04-13T11:55:02Z</time>
      </trkpt>
      <trkpt lat="52.2597386687994" lon="8.08899681083858">
        <ele>70.36328125</ele>
        <time>2026-04-13T11:55:06Z</time>
      </trkpt>
      <trkpt lat="52.259822739288211" lon="8.088693134486675">
        <ele>70.65625</ele>
        <time>2026-04-13T11:55:10Z</time>
      </trkpt>
      <trkpt lat="52.25990672595799" lon="8.088387111201882">
        <ele>70.76953125</ele>
        <time>2026-04-13T11:55:18Z</time>
      </trkpt>
      <trkpt lat="52.259990461170673" lon="8.088110256940126">
        <ele>70.17578125</ele>
        <time>2026-04-13T11:55:32Z</time>
      </trkpt>
      <trkpt lat="52.259936816990376" lon="8.087737010791898">
        <ele>69.55859375</ele>
        <time>2026-04-13T11:55:54Z</time>
      </trkpt>
      <trkpt lat="52.259772531688213" lon="8.087566355243325">
        <ele>69.0625</ele>
        <time>2026-04-13T11:55:58Z</time>
      </trkpt>
      <trkpt lat="52.25960673764348" lon="8.087404584512115">
        <ele>69.26171875</ele>
        <time>2026-04-13T11:56:02Z</time>
      </trkpt>
      <trkpt lat="52.259450666606426" lon="8.087245998904109">
        <ele>69.44921875</ele>
        <time>2026-04-13T11:56:06Z</time>
      </trkpt>
      <trkpt lat="52.259293757379055" lon="8.087078528478742">
        <ele>69.63671875</ele>
        <time>2026-04-13T11:56:10Z</time>
      </trkpt>
      <trkpt lat="52.259116815403104" lon="8.086902843788266">
        <ele>69.8515625</ele>
        <time>2026-04-13T11:56:14Z</time>
      </trkpt>
      <trkpt lat="52.258948255330324" lon="8.086725482717156">
        <ele>69.93359375</ele>
        <time>2026-04-13T11:56:18Z</time>
      </trkpt>
      <trkpt lat="52.258786652237177" lon="8.086545523256064">
        <ele>69.63671875</ele>
        <time>2026-04-13T11:56:22Z</time>
      </trkpt>
      <trkpt lat="52.258611302822828" lon="8.086403282359242">
        <ele>69.5078125</ele>
        <time>2026-04-13T11:56:26Z</time>
      </trkpt>
      <trkpt lat="52.258448107168078" lon="8.086249977350235">
        <ele>69.52734375</ele>
        <time>2026-04-13T11:56:30Z</time>
      </trkpt>
      <trkpt lat="52.258320283144712" lon="8.086020648479462">
        <ele>69.72265625</ele>
        <time>2026-04-13T11:56:36Z</time>
      </trkpt>
      <trkpt lat="52.258140910416842" lon="8.085806407034397">
        <ele>70.04296875</ele>
        <time>2026-04-13T11:56:44Z</time>
      </trkpt>
      <trkpt lat="52.257940163835883" lon="8.085747817531228">
        <ele>70.4765625</ele>
        <time>2026-04-13T11:56:48Z</time>
      </trkpt>
      <trkpt lat="52.257750984281301" lon="8.085606666281819">
        <ele>70.8046875</ele>
        <time>2026-04-13T11:56:52Z</time>
      </trkpt>
      <trkpt lat="52.257557110860944" lon="8.085439363494515">
        <ele>71.0390625</ele>
        <time>2026-04-13T11:56:56Z</time>
      </trkpt>
      <trkpt lat="52.257369020953774" lon="8.085276586934924">
        <ele>71.1796875</ele>
        <time>2026-04-13T11:57:00Z</time>
      </trkpt>
      <trkpt lat="52.257178416475654" lon="8.085132669657469">
        <ele>71.2734375</ele>
        <time>2026-04-13T11:57:04Z</time>
      </trkpt>
      <trkpt lat="52.257009437307715" lon="8.084976766258478">
        <ele>71.3828125</ele>
        <time>2026-04-13T11:57:08Z</time>
      </trkpt>
      <trkpt lat="52.25685428828001" lon="8.084784066304565">
        <ele>71.56640625</ele>
        <time>2026-04-13T11:57:12Z</time>
      </trkpt>
      <trkpt lat="52.256723530590534" lon="8.084515677765012">
        <ele>71.72265625</ele>
        <time>2026-04-13T11:57:16Z</time>
      </trkpt>
      <trkpt lat="52.256652619689703" lon="8.084183922037482">
        <ele>71.86328125</ele>
        <time>2026-04-13T11:57:20Z</time>
      </trkpt>
      <trkpt lat="52.256660163402557" lon="8.083822578191757">
        <ele>72.203125</ele>
        <time>2026-04-13T11:57:24Z</time>
      </trkpt>
      <trkpt lat="52.256720764562488" lon="8.083494594320655">
        <ele>72.37890625</ele>
        <time>2026-04-13T11:57:28Z</time>
      </trkpt>
      <trkpt lat="52.256809109821916" lon="8.083184296265245">
        <ele>72.2421875</ele>
        <time>2026-04-13T11:57:32Z</time>
      </trkpt>
      <trkpt lat="52.256893599405885" lon="8.082863856106997">
        <ele>72.0390625</ele>
        <time>2026-04-13T11:57:36Z</time>
      </trkpt>
      <trkpt lat="52.256978256627917" lon="8.082521287724376">
        <ele>71.9140625</ele>
        <time>2026-04-13T11:57:40Z</time>
      </trkpt>
      <trkpt lat="52.257067356258631" lon="8.082208726555109">
        <ele>72.23046875</ele>
        <time>2026-04-13T11:57:44Z</time>
      </trkpt>
      <trkpt lat="52.257128460332751" lon="8.081880575045943">
        <ele>72.74609375</ele>
        <time>2026-04-13T11:57:48Z</time>
      </trkpt>
      <trkpt lat="52.257211189717054" lon="8.081561727449298">
        <ele>73.1875</ele>
        <time>2026-04-13T11:57:52Z</time>
      </trkpt>
      <trkpt lat="52.257287548854947" lon="8.081177333369851">
        <ele>73.6484375</ele>
        <time>2026-04-13T11:57:56Z</time>
      </trkpt>
      <trkpt lat="52.257382851094007" lon="8.080815402790904">
        <ele>74.0078125</ele>
        <time>2026-04-13T11:58:00Z</time>
      </trkpt>
      <trkpt lat="52.257482847198844" lon="8.080468978732824">
        <ele>74.296875</ele>
        <time>2026-04-13T11:58:04Z</time>
      </trkpt>
      <trkpt lat="52.257577059790492" lon="8.080119034275413">
        <ele>74.42578125</ele>
        <time>2026-04-13T11:58:08Z</time>
      </trkpt>
      <trkpt lat="52.257659872993827" lon="8.079779986292124">
        <ele>73.71484375</ele>
        <time>2026-04-13T11:58:12Z</time>
      </trkpt>
      <trkpt lat="52.257740339264274" lon="8.079429036006331">
        <ele>73.12109375</ele>
        <time>2026-04-13T11:58:16Z</time>
      </trkpt>
      <trkpt lat="52.257803790271282" lon="8.07908445596695">
        <ele>72.6640625</ele>
        <time>2026-04-13T11:58:20Z</time>
      </trkpt>
      <trkpt lat="52.257866570726037" lon="8.078749934211373">
        <ele>72.109375</ele>
        <time>2026-04-13T11:58:24Z</time>
      </trkpt>
      <trkpt lat="52.257958184927702" lon="8.078413987532258">
        <ele>71.48828125</ele>
        <time>2026-04-13T11:58:28Z</time>
      </trkpt>
      <trkpt lat="52.258023479953408" lon="8.078083572909236">
        <ele>71.65625</ele>
        <time>2026-04-13T11:58:32Z</time>
      </trkpt>
      <trkpt lat="52.258057342842221" lon="8.077724408358336">
        <ele>71.96875</ele>
        <time>2026-04-13T11:58:36Z</time>
      </trkpt>
      <trkpt lat="52.258117441087961" lon="8.077376559376717">
        <ele>72.05078125</ele>
        <time>2026-04-13T11:58:40Z</time>
      </trkpt>
      <trkpt lat="52.258146861568093" lon="8.077030805870891">
        <ele>72.015625</ele>
        <time>2026-04-13T11:58:44Z</time>
      </trkpt>
      <trkpt lat="52.258179299533367" lon="8.076680023223162">
        <ele>71.8203125</ele>
        <time>2026-04-13T11:58:48Z</time>
      </trkpt>
      <trkpt lat="52.258228417485952" lon="8.07634424418211">
        <ele>70.953125</ele>
        <time>2026-04-13T11:58:52Z</time>
      </trkpt>
      <trkpt lat="52.258255574852228" lon="8.076042411848903">
        <ele>70.1953125</ele>
        <time>2026-04-13T11:58:56Z</time>
      </trkpt>
      <trkpt lat="52.258277283981442" lon="8.075716942548752">
        <ele>70.125</ele>
        <time>2026-04-13T11:59:00Z</time>
      </trkpt>
      <trkpt lat="52.258321791887283" lon="8.075368087738752">
        <ele>70.5859375</ele>
        <time>2026-04-13T11:59:04Z</time>
      </trkpt>
      <trkpt lat="52.258364288136363" lon="8.075004564598203">
        <ele>71.06640625</ele>
        <time>2026-04-13T11:59:08Z</time>
      </trkpt>
      <trkpt lat="52.258401839062572" lon="8.074653949588537">
        <ele>71.36328125</ele>
        <time>2026-04-13T11:59:12Z</time>
      </trkpt>
      <trkpt lat="52.25842229090631" lon="8.074317751452327">
        <ele>71.625</ele>
        <time>2026-04-13T11:59:16Z</time>
      </trkpt>
      <trkpt lat="52.258430337533355" lon="8.074011979624629">
        <ele>71.7734375</ele>
        <time>2026-04-13T11:59:20Z</time>
      </trkpt>
      <trkpt lat="52.258456572890282" lon="8.073693215847015">
        <ele>71.83203125</ele>
        <time>2026-04-13T11:59:24Z</time>
      </trkpt>
      <trkpt lat="52.258470570668578" lon="8.073359113186598">
        <ele>71.9609375</ele>
        <time>2026-04-13T11:59:28Z</time>
      </trkpt>
      <trkpt lat="52.258513318374753" lon="8.073013527318835">
        <ele>72.27734375</ele>
        <time>2026-04-13T11:59:32Z</time>
      </trkpt>
      <trkpt lat="52.258512564003468" lon="8.072672551497817">
        <ele>72.75390625</ele>
        <time>2026-04-13T11:59:36Z</time>
      </trkpt>
      <trkpt lat="52.258519688621163" lon="8.072344399988651">
        <ele>72.515625</ele>
        <time>2026-04-13T11:59:40Z</time>
      </trkpt>
      <trkpt lat="52.258518598973751" lon="8.072021780535579">
        <ele>72.078125</ele>
        <time>2026-04-13T11:59:44Z</time>
      </trkpt>
      <trkpt lat="52.258529327809811" lon="8.071726486086845">
        <ele>71.66796875</ele>
        <time>2026-04-13T11:59:48Z</time>
      </trkpt>
      <trkpt lat="52.258564447984099" lon="8.071340080350637">
        <ele>71.54296875</ele>
        <time>2026-04-13T11:59:54Z</time>
      </trkpt>
      <trkpt lat="52.258305363357067" lon="8.07108904235065">
        <ele>72.4765625</ele>
        <time>2026-04-13T12:01:28Z</time>
      </trkpt>
      <trkpt lat="52.258109729737043" lon="8.070947807282209">
        <ele>73.11328125</ele>
        <time>2026-04-13T12:01:34Z</time>
      </trkpt>
      <trkpt lat="52.257995652034879" lon="8.070646645501256">
        <ele>73.328125</ele>
        <time>2026-04-13T12:05:58Z</time>
      </trkpt>
      <trkpt lat="52.257984923198819" lon="8.070723591372371">
        <ele>73.37109375</ele>
        <time>2026-04-13T12:06:44Z</time>
      </trkpt>
    </trkseg>
  </trk>

</gpx>